<?xml version="1.0" encoding="UTF-8" standalone="no" ?>
<gpx xmlns="http://www.topografix.com/GPX/1/1" xmlns:xsi="http://www.w3.org/2001/XMLSchema-instance" xsi:schemaLocation="http://www.topografix.com/GPX/1/1 http://www.topografix.com/GPX/1/1/gpx.xsd" version="1.1" creator="VisuGPX - https://www.visugpx.com">
  <metadata>
    <name>SLDV NICE ESCARENE LUCERAM LANTOSQUE</name>
    <desc><![CDATA[112 Km D 1730m
Jolie sortie d'avril avec le soleil.
Col de Nice pour arriver à l'Escarene puis prendre le début du Turini jusqu’à Luceram et ensuite le col St Roch, continuer sur Col de Porte puis redescendre sur la vésubie pour arriver à Lantosque. 
Ensuite longer la vésubie jusqu'a la route qui remonte sur Nice en passant par Duranus et Levens.
Retour par la vallée du var et au pont de la Manda récupérer la piste cyclable rive droite coté St Laurent.]]></desc>
  </metadata>
  <trk>
    <name><![CDATA[20180424161349-LH5oN]]></name>
    <trkseg>
      <trkpt lat="44.09704" lon="7.36304">
        <ele>1912</ele>
        <time>2018-04-22T04:37:45.000Z</time>
      </trkpt>
      <trkpt lat="44.09704" lon="7.36304">
        <ele>1912</ele>
        <time>2018-04-22T04:37:47.000Z</time>
      </trkpt>
      <trkpt lat="44.09704" lon="7.36304">
        <ele>1912</ele>
        <time>2018-04-22T04:37:48.000Z</time>
      </trkpt>
      <trkpt lat="44.09703" lon="7.36304">
        <ele>1912</ele>
        <time>2018-04-22T04:37:57.000Z</time>
      </trkpt>
      <trkpt lat="44.09695" lon="7.3631">
        <ele>1912</ele>
        <time>2018-04-22T04:38:03.000Z</time>
      </trkpt>
      <trkpt lat="44.09696" lon="7.36313">
        <ele>1913</ele>
        <time>2018-04-22T04:38:08.000Z</time>
      </trkpt>
      <trkpt lat="44.09697" lon="7.36314">
        <ele>1913</ele>
        <time>2018-04-22T04:38:10.000Z</time>
      </trkpt>
      <trkpt lat="44.097" lon="7.36316">
        <ele>1913</ele>
        <time>2018-04-22T04:38:14.000Z</time>
      </trkpt>
      <trkpt lat="44.097" lon="7.36316">
        <ele>1913</ele>
        <time>2018-04-22T04:38:15.000Z</time>
      </trkpt>
      <trkpt lat="44.09704" lon="7.36318">
        <ele>1914</ele>
        <time>2018-04-22T04:38:20.000Z</time>
      </trkpt>
      <trkpt lat="44.09706" lon="7.36319">
        <ele>1914</ele>
        <time>2018-04-22T04:38:23.000Z</time>
      </trkpt>
      <trkpt lat="44.09707" lon="7.36319">
        <ele>1914</ele>
        <time>2018-04-22T04:38:25.000Z</time>
      </trkpt>
      <trkpt lat="44.0971" lon="7.36319">
        <ele>1914</ele>
        <time>2018-04-22T04:38:30.000Z</time>
      </trkpt>
      <trkpt lat="44.09712" lon="7.36316">
        <ele>1914</ele>
        <time>2018-04-22T04:38:32.000Z</time>
      </trkpt>
      <trkpt lat="44.09715" lon="7.36313">
        <ele>1914</ele>
        <time>2018-04-22T04:38:35.000Z</time>
      </trkpt>
      <trkpt lat="44.09717" lon="7.36305">
        <ele>1914</ele>
        <time>2018-04-22T04:38:39.000Z</time>
      </trkpt>
      <trkpt lat="44.09718" lon="7.363">
        <ele>1913</ele>
        <time>2018-04-22T04:38:42.000Z</time>
      </trkpt>
      <trkpt lat="44.0972" lon="7.36297">
        <ele>1913</ele>
        <time>2018-04-22T04:38:45.000Z</time>
      </trkpt>
      <trkpt lat="44.09721" lon="7.36295">
        <ele>1913</ele>
        <time>2018-04-22T04:38:47.000Z</time>
      </trkpt>
      <trkpt lat="44.09723" lon="7.36291">
        <ele>1913</ele>
        <time>2018-04-22T04:38:51.000Z</time>
      </trkpt>
      <trkpt lat="44.09724" lon="7.3629">
        <ele>1913</ele>
        <time>2018-04-22T04:38:52.000Z</time>
      </trkpt>
      <trkpt lat="44.09729" lon="7.36286">
        <ele>1912</ele>
        <time>2018-04-22T04:38:58.000Z</time>
      </trkpt>
      <trkpt lat="44.09731" lon="7.36284">
        <ele>1912</ele>
        <time>2018-04-22T04:39:01.000Z</time>
      </trkpt>
      <trkpt lat="44.09732" lon="7.36282">
        <ele>1912</ele>
        <time>2018-04-22T04:39:03.000Z</time>
      </trkpt>
      <trkpt lat="44.09736" lon="7.36277">
        <ele>1912</ele>
        <time>2018-04-22T04:39:10.000Z</time>
      </trkpt>
      <trkpt lat="44.09739" lon="7.36273">
        <ele>1912</ele>
        <time>2018-04-22T04:39:16.000Z</time>
      </trkpt>
      <trkpt lat="44.0974" lon="7.36272">
        <ele>1911</ele>
        <time>2018-04-22T04:39:18.000Z</time>
      </trkpt>
      <trkpt lat="44.09741" lon="7.36271">
        <ele>1911</ele>
        <time>2018-04-22T04:39:21.000Z</time>
      </trkpt>
      <trkpt lat="44.09743" lon="7.3627">
        <ele>1911</ele>
        <time>2018-04-22T04:39:27.000Z</time>
      </trkpt>
      <trkpt lat="44.09745" lon="7.36272">
        <ele>1912</ele>
        <time>2018-04-22T04:39:32.000Z</time>
      </trkpt>
      <trkpt lat="44.09746" lon="7.36272">
        <ele>1912</ele>
        <time>2018-04-22T04:39:37.000Z</time>
      </trkpt>
      <trkpt lat="44.09747" lon="7.36271">
        <ele>1912</ele>
        <time>2018-04-22T04:39:41.000Z</time>
      </trkpt>
      <trkpt lat="44.09748" lon="7.3627">
        <ele>1911</ele>
        <time>2018-04-22T04:39:43.000Z</time>
      </trkpt>
      <trkpt lat="44.0975" lon="7.36268">
        <ele>1911</ele>
        <time>2018-04-22T04:39:49.000Z</time>
      </trkpt>
      <trkpt lat="44.09751" lon="7.36267">
        <ele>1920</ele>
        <time>2018-04-22T04:39:51.000Z</time>
      </trkpt>
      <trkpt lat="44.09753" lon="7.36266">
        <ele>1920</ele>
        <time>2018-04-22T04:39:56.000Z</time>
      </trkpt>
      <trkpt lat="44.09754" lon="7.36266">
        <ele>1920</ele>
        <time>2018-04-22T04:39:57.000Z</time>
      </trkpt>
      <trkpt lat="44.09755" lon="7.36268">
        <ele>1921</ele>
        <time>2018-04-22T04:40:01.000Z</time>
      </trkpt>
      <trkpt lat="44.09755" lon="7.3627">
        <ele>1921</ele>
        <time>2018-04-22T04:40:03.000Z</time>
      </trkpt>
      <trkpt lat="44.09756" lon="7.36271">
        <ele>1922</ele>
        <time>2018-04-22T04:40:08.000Z</time>
      </trkpt>
      <trkpt lat="44.09757" lon="7.36273">
        <ele>1923</ele>
        <time>2018-04-22T04:40:16.000Z</time>
      </trkpt>
      <trkpt lat="44.09759" lon="7.36273">
        <ele>1923</ele>
        <time>2018-04-22T04:40:21.000Z</time>
      </trkpt>
      <trkpt lat="44.09759" lon="7.36272">
        <ele>1923</ele>
        <time>2018-04-22T04:40:23.000Z</time>
      </trkpt>
      <trkpt lat="44.09762" lon="7.36269">
        <ele>1922</ele>
        <time>2018-04-22T04:40:28.000Z</time>
      </trkpt>
      <trkpt lat="44.09763" lon="7.36268">
        <ele>1922</ele>
        <time>2018-04-22T04:40:31.000Z</time>
      </trkpt>
      <trkpt lat="44.09765" lon="7.36267">
        <ele>1922</ele>
        <time>2018-04-22T04:40:35.000Z</time>
      </trkpt>
      <trkpt lat="44.09766" lon="7.36266">
        <ele>1923</ele>
        <time>2018-04-22T04:40:38.000Z</time>
      </trkpt>
      <trkpt lat="44.09768" lon="7.36266">
        <ele>1923</ele>
        <time>2018-04-22T04:40:42.000Z</time>
      </trkpt>
      <trkpt lat="44.0977" lon="7.36267">
        <ele>1924</ele>
        <time>2018-04-22T04:40:46.000Z</time>
      </trkpt>
      <trkpt lat="44.0977" lon="7.36269">
        <ele>1924</ele>
        <time>2018-04-22T04:40:48.000Z</time>
      </trkpt>
      <trkpt lat="44.09771" lon="7.36272">
        <ele>1925</ele>
        <time>2018-04-22T04:40:52.000Z</time>
      </trkpt>
      <trkpt lat="44.09772" lon="7.36274">
        <ele>1925</ele>
        <time>2018-04-22T04:40:57.000Z</time>
      </trkpt>
      <trkpt lat="44.09772" lon="7.36276">
        <ele>1926</ele>
        <time>2018-04-22T04:40:59.000Z</time>
      </trkpt>
      <trkpt lat="44.09773" lon="7.36277">
        <ele>1926</ele>
        <time>2018-04-22T04:41:07.000Z</time>
      </trkpt>
      <trkpt lat="44.09775" lon="7.36279">
        <ele>1927</ele>
        <time>2018-04-22T04:41:11.000Z</time>
      </trkpt>
      <trkpt lat="44.09776" lon="7.36279">
        <ele>1927</ele>
        <time>2018-04-22T04:41:13.000Z</time>
      </trkpt>
      <trkpt lat="44.09777" lon="7.36278">
        <ele>1927</ele>
        <time>2018-04-22T04:41:16.000Z</time>
      </trkpt>
      <trkpt lat="44.09778" lon="7.36278">
        <ele>1927</ele>
        <time>2018-04-22T04:41:18.000Z</time>
      </trkpt>
      <trkpt lat="44.0978" lon="7.36276">
        <ele>1927</ele>
        <time>2018-04-22T04:41:22.000Z</time>
      </trkpt>
      <trkpt lat="44.09781" lon="7.36276">
        <ele>1927</ele>
        <time>2018-04-22T04:41:24.000Z</time>
      </trkpt>
      <trkpt lat="44.09783" lon="7.36273">
        <ele>1927</ele>
        <time>2018-04-22T04:41:27.000Z</time>
      </trkpt>
      <trkpt lat="44.09784" lon="7.36272">
        <ele>1927</ele>
        <time>2018-04-22T04:41:28.000Z</time>
      </trkpt>
      <trkpt lat="44.09787" lon="7.36269">
        <ele>1928</ele>
        <time>2018-04-22T04:41:35.000Z</time>
      </trkpt>
      <trkpt lat="44.09788" lon="7.36268">
        <ele>1928</ele>
        <time>2018-04-22T04:41:36.000Z</time>
      </trkpt>
      <trkpt lat="44.0979" lon="7.36265">
        <ele>1928</ele>
        <time>2018-04-22T04:41:41.000Z</time>
      </trkpt>
      <trkpt lat="44.09792" lon="7.36263">
        <ele>1928</ele>
        <time>2018-04-22T04:41:46.000Z</time>
      </trkpt>
      <trkpt lat="44.09794" lon="7.3626">
        <ele>1928</ele>
        <time>2018-04-22T04:41:49.000Z</time>
      </trkpt>
      <trkpt lat="44.09795" lon="7.3626">
        <ele>1928</ele>
        <time>2018-04-22T04:41:50.000Z</time>
      </trkpt>
      <trkpt lat="44.09796" lon="7.36259">
        <ele>1929</ele>
        <time>2018-04-22T04:41:54.000Z</time>
      </trkpt>
      <trkpt lat="44.09798" lon="7.36259">
        <ele>1929</ele>
        <time>2018-04-22T04:41:55.000Z</time>
      </trkpt>
      <trkpt lat="44.098" lon="7.36258">
        <ele>1929</ele>
        <time>2018-04-22T04:41:59.000Z</time>
      </trkpt>
      <trkpt lat="44.09801" lon="7.36258">
        <ele>1929</ele>
        <time>2018-04-22T04:42:02.000Z</time>
      </trkpt>
      <trkpt lat="44.09802" lon="7.36258">
        <ele>1929</ele>
        <time>2018-04-22T04:42:03.000Z</time>
      </trkpt>
      <trkpt lat="44.09806" lon="7.36257">
        <ele>1930</ele>
        <time>2018-04-22T04:42:08.000Z</time>
      </trkpt>
      <trkpt lat="44.0981" lon="7.36258">
        <ele>1930</ele>
        <time>2018-04-22T04:42:15.000Z</time>
      </trkpt>
      <trkpt lat="44.09811" lon="7.36258">
        <ele>1931</ele>
        <time>2018-04-22T04:42:18.000Z</time>
      </trkpt>
      <trkpt lat="44.09813" lon="7.36259">
        <ele>1931</ele>
        <time>2018-04-22T04:42:21.000Z</time>
      </trkpt>
      <trkpt lat="44.09815" lon="7.36262">
        <ele>1931</ele>
        <time>2018-04-22T04:42:25.000Z</time>
      </trkpt>
      <trkpt lat="44.09815" lon="7.36262">
        <ele>1931</ele>
        <time>2018-04-22T04:42:28.000Z</time>
      </trkpt>
      <trkpt lat="44.09817" lon="7.36264">
        <ele>1931</ele>
        <time>2018-04-22T04:42:30.000Z</time>
      </trkpt>
      <trkpt lat="44.09818" lon="7.36266">
        <ele>1932</ele>
        <time>2018-04-22T04:42:33.000Z</time>
      </trkpt>
      <trkpt lat="44.09818" lon="7.36268">
        <ele>1932</ele>
        <time>2018-04-22T04:42:35.000Z</time>
      </trkpt>
      <trkpt lat="44.0982" lon="7.36272">
        <ele>1932</ele>
        <time>2018-04-22T04:42:41.000Z</time>
      </trkpt>
      <trkpt lat="44.09821" lon="7.36277">
        <ele>1933</ele>
        <time>2018-04-22T04:42:46.000Z</time>
      </trkpt>
      <trkpt lat="44.09821" lon="7.36278">
        <ele>1933</ele>
        <time>2018-04-22T04:42:48.000Z</time>
      </trkpt>
      <trkpt lat="44.09821" lon="7.36281">
        <ele>1933</ele>
        <time>2018-04-22T04:42:53.000Z</time>
      </trkpt>
      <trkpt lat="44.09821" lon="7.36281">
        <ele>1933</ele>
        <time>2018-04-22T04:42:54.000Z</time>
      </trkpt>
      <trkpt lat="44.09822" lon="7.36281">
        <ele>1933</ele>
        <time>2018-04-22T04:43:06.000Z</time>
      </trkpt>
      <trkpt lat="44.09823" lon="7.36282">
        <ele>1933</ele>
        <time>2018-04-22T04:43:10.000Z</time>
      </trkpt>
      <trkpt lat="44.09823" lon="7.36282">
        <ele>1933</ele>
        <time>2018-04-22T04:43:11.000Z</time>
      </trkpt>
      <trkpt lat="44.09826" lon="7.3628">
        <ele>1933</ele>
        <time>2018-04-22T04:43:16.000Z</time>
      </trkpt>
      <trkpt lat="44.09828" lon="7.36279">
        <ele>1933</ele>
        <time>2018-04-22T04:43:20.000Z</time>
      </trkpt>
      <trkpt lat="44.0983" lon="7.36278">
        <ele>1933</ele>
        <time>2018-04-22T04:43:23.000Z</time>
      </trkpt>
      <trkpt lat="44.09831" lon="7.36278">
        <ele>1933</ele>
        <time>2018-04-22T04:43:24.000Z</time>
      </trkpt>
      <trkpt lat="44.09834" lon="7.36279">
        <ele>1947</ele>
        <time>2018-04-22T04:43:30.000Z</time>
      </trkpt>
      <trkpt lat="44.09835" lon="7.36279">
        <ele>1947</ele>
        <time>2018-04-22T04:43:32.000Z</time>
      </trkpt>
      <trkpt lat="44.09836" lon="7.36281">
        <ele>1947</ele>
        <time>2018-04-22T04:43:33.000Z</time>
      </trkpt>
      <trkpt lat="44.09836" lon="7.36282">
        <ele>1948</ele>
        <time>2018-04-22T04:43:35.000Z</time>
      </trkpt>
      <trkpt lat="44.09836" lon="7.36282">
        <ele>1947</ele>
        <time>2018-04-22T04:43:36.000Z</time>
      </trkpt>
      <trkpt lat="44.09836" lon="7.36284">
        <ele>1948</ele>
        <time>2018-04-22T04:43:40.000Z</time>
      </trkpt>
      <trkpt lat="44.09836" lon="7.36285">
        <ele>1948</ele>
        <time>2018-04-22T04:43:42.000Z</time>
      </trkpt>
      <trkpt lat="44.09837" lon="7.36286">
        <ele>1949</ele>
        <time>2018-04-22T04:43:44.000Z</time>
      </trkpt>
      <trkpt lat="44.09839" lon="7.36287">
        <ele>1949</ele>
        <time>2018-04-22T04:43:47.000Z</time>
      </trkpt>
      <trkpt lat="44.0984" lon="7.36288">
        <ele>1949</ele>
        <time>2018-04-22T04:43:49.000Z</time>
      </trkpt>
      <trkpt lat="44.09842" lon="7.3629">
        <ele>1950</ele>
        <time>2018-04-22T04:43:54.000Z</time>
      </trkpt>
      <trkpt lat="44.09842" lon="7.3629">
        <ele>1950</ele>
        <time>2018-04-22T04:43:55.000Z</time>
      </trkpt>
      <trkpt lat="44.09845" lon="7.36291">
        <ele>1950</ele>
        <time>2018-04-22T04:44:00.000Z</time>
      </trkpt>
      <trkpt lat="44.09847" lon="7.36291">
        <ele>1950</ele>
        <time>2018-04-22T04:44:04.000Z</time>
      </trkpt>
      <trkpt lat="44.09848" lon="7.36291">
        <ele>1951</ele>
        <time>2018-04-22T04:44:06.000Z</time>
      </trkpt>
      <trkpt lat="44.09849" lon="7.36291">
        <ele>1951</ele>
        <time>2018-04-22T04:44:09.000Z</time>
      </trkpt>
      <trkpt lat="44.09851" lon="7.36291">
        <ele>1951</ele>
        <time>2018-04-22T04:44:10.000Z</time>
      </trkpt>
      <trkpt lat="44.09853" lon="7.36291">
        <ele>1951</ele>
        <time>2018-04-22T04:44:15.000Z</time>
      </trkpt>
      <trkpt lat="44.09855" lon="7.36291">
        <ele>1951</ele>
        <time>2018-04-22T04:44:20.000Z</time>
      </trkpt>
      <trkpt lat="44.09857" lon="7.36291">
        <ele>1951</ele>
        <time>2018-04-22T04:44:24.000Z</time>
      </trkpt>
      <trkpt lat="44.0986" lon="7.36292">
        <ele>1952</ele>
        <time>2018-04-22T04:44:27.000Z</time>
      </trkpt>
      <trkpt lat="44.09861" lon="7.36292">
        <ele>1952</ele>
        <time>2018-04-22T04:44:29.000Z</time>
      </trkpt>
      <trkpt lat="44.09863" lon="7.36293">
        <ele>1952</ele>
        <time>2018-04-22T04:44:34.000Z</time>
      </trkpt>
      <trkpt lat="44.09865" lon="7.36293">
        <ele>1953</ele>
        <time>2018-04-22T04:44:37.000Z</time>
      </trkpt>
      <trkpt lat="44.09867" lon="7.36295">
        <ele>1953</ele>
        <time>2018-04-22T04:44:41.000Z</time>
      </trkpt>
      <trkpt lat="44.09867" lon="7.36295">
        <ele>1953</ele>
        <time>2018-04-22T04:44:42.000Z</time>
      </trkpt>
      <trkpt lat="44.09866" lon="7.36297">
        <ele>1953</ele>
        <time>2018-04-22T04:44:43.000Z</time>
      </trkpt>
      <trkpt lat="44.09866" lon="7.36299">
        <ele>1953</ele>
        <time>2018-04-22T04:44:46.000Z</time>
      </trkpt>
      <trkpt lat="44.09865" lon="7.36303">
        <ele>1954</ele>
        <time>2018-04-22T04:44:51.000Z</time>
      </trkpt>
      <trkpt lat="44.09864" lon="7.36307">
        <ele>1954</ele>
        <time>2018-04-22T04:44:56.000Z</time>
      </trkpt>
      <trkpt lat="44.09864" lon="7.36308">
        <ele>1954</ele>
        <time>2018-04-22T04:44:58.000Z</time>
      </trkpt>
      <trkpt lat="44.09864" lon="7.36312">
        <ele>1954</ele>
        <time>2018-04-22T04:45:04.000Z</time>
      </trkpt>
      <trkpt lat="44.09866" lon="7.36315">
        <ele>1955</ele>
        <time>2018-04-22T04:45:11.000Z</time>
      </trkpt>
      <trkpt lat="44.09866" lon="7.36315">
        <ele>1955</ele>
        <time>2018-04-22T04:45:12.000Z</time>
      </trkpt>
      <trkpt lat="44.09868" lon="7.36317">
        <ele>1955</ele>
        <time>2018-04-22T04:45:16.000Z</time>
      </trkpt>
      <trkpt lat="44.09869" lon="7.36318">
        <ele>1955</ele>
        <time>2018-04-22T04:45:17.000Z</time>
      </trkpt>
      <trkpt lat="44.09871" lon="7.3632">
        <ele>1956</ele>
        <time>2018-04-22T04:45:21.000Z</time>
      </trkpt>
      <trkpt lat="44.09874" lon="7.36321">
        <ele>1956</ele>
        <time>2018-04-22T04:45:25.000Z</time>
      </trkpt>
      <trkpt lat="44.09875" lon="7.36322">
        <ele>1956</ele>
        <time>2018-04-22T04:45:27.000Z</time>
      </trkpt>
      <trkpt lat="44.09875" lon="7.36323">
        <ele>1957</ele>
        <time>2018-04-22T04:45:29.000Z</time>
      </trkpt>
      <trkpt lat="44.09877" lon="7.36324">
        <ele>1957</ele>
        <time>2018-04-22T04:45:33.000Z</time>
      </trkpt>
      <trkpt lat="44.09877" lon="7.36324">
        <ele>1957</ele>
        <time>2018-04-22T04:45:34.000Z</time>
      </trkpt>
      <trkpt lat="44.09879" lon="7.36325">
        <ele>1957</ele>
        <time>2018-04-22T04:45:37.000Z</time>
      </trkpt>
      <trkpt lat="44.0988" lon="7.36325">
        <ele>1958</ele>
        <time>2018-04-22T04:45:40.000Z</time>
      </trkpt>
      <trkpt lat="44.09882" lon="7.36326">
        <ele>1958</ele>
        <time>2018-04-22T04:45:44.000Z</time>
      </trkpt>
      <trkpt lat="44.09883" lon="7.36326">
        <ele>1958</ele>
        <time>2018-04-22T04:45:49.000Z</time>
      </trkpt>
      <trkpt lat="44.09883" lon="7.36326">
        <ele>1958</ele>
        <time>2018-04-22T04:45:50.000Z</time>
      </trkpt>
      <trkpt lat="44.09884" lon="7.36326">
        <ele>1958</ele>
        <time>2018-04-22T04:45:54.000Z</time>
      </trkpt>
      <trkpt lat="44.09884" lon="7.36326">
        <ele>1958</ele>
        <time>2018-04-22T04:46:07.000Z</time>
      </trkpt>
      <trkpt lat="44.09884" lon="7.36325">
        <ele>1958</ele>
        <time>2018-04-22T04:46:18.000Z</time>
      </trkpt>
      <trkpt lat="44.09886" lon="7.36325">
        <ele>1959</ele>
        <time>2018-04-22T04:46:24.000Z</time>
      </trkpt>
      <trkpt lat="44.09885" lon="7.36325">
        <ele>1958</ele>
        <time>2018-04-22T04:46:25.000Z</time>
      </trkpt>
      <trkpt lat="44.09889" lon="7.36327">
        <ele>1959</ele>
        <time>2018-04-22T04:46:30.000Z</time>
      </trkpt>
      <trkpt lat="44.09894" lon="7.36327">
        <ele>1961</ele>
        <time>2018-04-22T04:46:37.000Z</time>
      </trkpt>
      <trkpt lat="44.09894" lon="7.36327">
        <ele>1961</ele>
        <time>2018-04-22T04:46:38.000Z</time>
      </trkpt>
      <trkpt lat="44.09896" lon="7.36327">
        <ele>1961</ele>
        <time>2018-04-22T04:46:41.000Z</time>
      </trkpt>
      <trkpt lat="44.09898" lon="7.36327">
        <ele>1962</ele>
        <time>2018-04-22T04:46:45.000Z</time>
      </trkpt>
      <trkpt lat="44.099" lon="7.36327">
        <ele>1962</ele>
        <time>2018-04-22T04:46:46.000Z</time>
      </trkpt>
      <trkpt lat="44.09902" lon="7.36327">
        <ele>1963</ele>
        <time>2018-04-22T04:46:50.000Z</time>
      </trkpt>
      <trkpt lat="44.09904" lon="7.36327">
        <ele>1964</ele>
        <time>2018-04-22T04:46:54.000Z</time>
      </trkpt>
      <trkpt lat="44.09904" lon="7.36328">
        <ele>1964</ele>
        <time>2018-04-22T04:46:55.000Z</time>
      </trkpt>
      <trkpt lat="44.09905" lon="7.36328">
        <ele>1964</ele>
        <time>2018-04-22T04:47:00.000Z</time>
      </trkpt>
      <trkpt lat="44.09906" lon="7.3633">
        <ele>1965</ele>
        <time>2018-04-22T04:47:03.000Z</time>
      </trkpt>
      <trkpt lat="44.09906" lon="7.36331">
        <ele>1965</ele>
        <time>2018-04-22T04:47:05.000Z</time>
      </trkpt>
      <trkpt lat="44.09906" lon="7.36333">
        <ele>1965</ele>
        <time>2018-04-22T04:47:07.000Z</time>
      </trkpt>
      <trkpt lat="44.09905" lon="7.36335">
        <ele>1972</ele>
        <time>2018-04-22T04:47:11.000Z</time>
      </trkpt>
      <trkpt lat="44.09905" lon="7.36335">
        <ele>1972</ele>
        <time>2018-04-22T04:47:12.000Z</time>
      </trkpt>
      <trkpt lat="44.09905" lon="7.36337">
        <ele>1972</ele>
        <time>2018-04-22T04:47:16.000Z</time>
      </trkpt>
      <trkpt lat="44.09905" lon="7.36339">
        <ele>1972</ele>
        <time>2018-04-22T04:47:17.000Z</time>
      </trkpt>
      <trkpt lat="44.09907" lon="7.36341">
        <ele>1973</ele>
        <time>2018-04-22T04:47:21.000Z</time>
      </trkpt>
      <trkpt lat="44.09907" lon="7.36341">
        <ele>1973</ele>
        <time>2018-04-22T04:47:24.000Z</time>
      </trkpt>
      <trkpt lat="44.09908" lon="7.36341">
        <ele>1973</ele>
        <time>2018-04-22T04:47:26.000Z</time>
      </trkpt>
      <trkpt lat="44.09911" lon="7.36342">
        <ele>1973</ele>
        <time>2018-04-22T04:47:30.000Z</time>
      </trkpt>
      <trkpt lat="44.09912" lon="7.36343">
        <ele>1973</ele>
        <time>2018-04-22T04:47:31.000Z</time>
      </trkpt>
      <trkpt lat="44.09914" lon="7.36343">
        <ele>1973</ele>
        <time>2018-04-22T04:47:35.000Z</time>
      </trkpt>
      <trkpt lat="44.09914" lon="7.36343">
        <ele>1973</ele>
        <time>2018-04-22T04:47:36.000Z</time>
      </trkpt>
      <trkpt lat="44.09916" lon="7.36343">
        <ele>1973</ele>
        <time>2018-04-22T04:47:37.000Z</time>
      </trkpt>
      <trkpt lat="44.09918" lon="7.36343">
        <ele>1978</ele>
        <time>2018-04-22T04:47:41.000Z</time>
      </trkpt>
      <trkpt lat="44.09919" lon="7.36343">
        <ele>1978</ele>
        <time>2018-04-22T04:47:43.000Z</time>
      </trkpt>
      <trkpt lat="44.09921" lon="7.36344">
        <ele>1979</ele>
        <time>2018-04-22T04:47:46.000Z</time>
      </trkpt>
      <trkpt lat="44.09924" lon="7.36344">
        <ele>1980</ele>
        <time>2018-04-22T04:47:50.000Z</time>
      </trkpt>
      <trkpt lat="44.09926" lon="7.36344">
        <ele>1980</ele>
        <time>2018-04-22T04:47:53.000Z</time>
      </trkpt>
      <trkpt lat="44.09928" lon="7.36344">
        <ele>1981</ele>
        <time>2018-04-22T04:47:57.000Z</time>
      </trkpt>
      <trkpt lat="44.09929" lon="7.36343">
        <ele>1981</ele>
        <time>2018-04-22T04:47:58.000Z</time>
      </trkpt>
      <trkpt lat="44.0993" lon="7.36343">
        <ele>1981</ele>
        <time>2018-04-22T04:47:59.000Z</time>
      </trkpt>
      <trkpt lat="44.09935" lon="7.36341">
        <ele>1983</ele>
        <time>2018-04-22T04:48:06.000Z</time>
      </trkpt>
      <trkpt lat="44.09938" lon="7.36341">
        <ele>1984</ele>
        <time>2018-04-22T04:48:12.000Z</time>
      </trkpt>
      <trkpt lat="44.09942" lon="7.3634">
        <ele>1985</ele>
        <time>2018-04-22T04:48:17.000Z</time>
      </trkpt>
      <trkpt lat="44.09946" lon="7.36339">
        <ele>1986</ele>
        <time>2018-04-22T04:48:24.000Z</time>
      </trkpt>
      <trkpt lat="44.09946" lon="7.36339">
        <ele>1986</ele>
        <time>2018-04-22T04:48:25.000Z</time>
      </trkpt>
      <trkpt lat="44.0995" lon="7.36338">
        <ele>1986</ele>
        <time>2018-04-22T04:48:30.000Z</time>
      </trkpt>
      <trkpt lat="44.09954" lon="7.36335">
        <ele>1987</ele>
        <time>2018-04-22T04:48:37.000Z</time>
      </trkpt>
      <trkpt lat="44.09958" lon="7.36333">
        <ele>1988</ele>
        <time>2018-04-22T04:48:44.000Z</time>
      </trkpt>
      <trkpt lat="44.09959" lon="7.36333">
        <ele>1975</ele>
        <time>2018-04-22T04:48:47.000Z</time>
      </trkpt>
      <trkpt lat="44.09961" lon="7.36332">
        <ele>1976</ele>
        <time>2018-04-22T04:48:49.000Z</time>
      </trkpt>
      <trkpt lat="44.09963" lon="7.36331">
        <ele>1976</ele>
        <time>2018-04-22T04:48:55.000Z</time>
      </trkpt>
      <trkpt lat="44.09963" lon="7.36331">
        <ele>1976</ele>
        <time>2018-04-22T04:48:57.000Z</time>
      </trkpt>
      <trkpt lat="44.09965" lon="7.36329">
        <ele>1976</ele>
        <time>2018-04-22T04:49:03.000Z</time>
      </trkpt>
      <trkpt lat="44.09965" lon="7.36329">
        <ele>1976</ele>
        <time>2018-04-22T04:49:05.000Z</time>
      </trkpt>
      <trkpt lat="44.09966" lon="7.36329">
        <ele>1976</ele>
        <time>2018-04-22T04:49:10.000Z</time>
      </trkpt>
      <trkpt lat="44.0997" lon="7.36328">
        <ele>1977</ele>
        <time>2018-04-22T04:49:19.000Z</time>
      </trkpt>
      <trkpt lat="44.09972" lon="7.36328">
        <ele>1978</ele>
        <time>2018-04-22T04:49:20.000Z</time>
      </trkpt>
      <trkpt lat="44.09974" lon="7.36328">
        <ele>1978</ele>
        <time>2018-04-22T04:49:25.000Z</time>
      </trkpt>
      <trkpt lat="44.09975" lon="7.36328">
        <ele>1978</ele>
        <time>2018-04-22T04:49:26.000Z</time>
      </trkpt>
      <trkpt lat="44.09979" lon="7.36329">
        <ele>1980</ele>
        <time>2018-04-22T04:49:33.000Z</time>
      </trkpt>
      <trkpt lat="44.09982" lon="7.36329">
        <ele>1981</ele>
        <time>2018-04-22T04:49:39.000Z</time>
      </trkpt>
      <trkpt lat="44.09983" lon="7.36329">
        <ele>1981</ele>
        <time>2018-04-22T04:49:40.000Z</time>
      </trkpt>
      <trkpt lat="44.09987" lon="7.36329">
        <ele>1982</ele>
        <time>2018-04-22T04:49:45.000Z</time>
      </trkpt>
      <trkpt lat="44.09988" lon="7.36328">
        <ele>1983</ele>
        <time>2018-04-22T04:49:47.000Z</time>
      </trkpt>
      <trkpt lat="44.09991" lon="7.36328">
        <ele>1984</ele>
        <time>2018-04-22T04:49:51.000Z</time>
      </trkpt>
      <trkpt lat="44.09991" lon="7.36328">
        <ele>1984</ele>
        <time>2018-04-22T04:49:56.000Z</time>
      </trkpt>
      <trkpt lat="44.09991" lon="7.36328">
        <ele>1984</ele>
        <time>2018-04-22T04:50:08.000Z</time>
      </trkpt>
      <trkpt lat="44.09994" lon="7.36328">
        <ele>1985</ele>
        <time>2018-04-22T04:50:21.000Z</time>
      </trkpt>
      <trkpt lat="44.09994" lon="7.36327">
        <ele>1985</ele>
        <time>2018-04-22T04:50:22.000Z</time>
      </trkpt>
      <trkpt lat="44.09996" lon="7.36328">
        <ele>1985</ele>
        <time>2018-04-22T04:50:26.000Z</time>
      </trkpt>
      <trkpt lat="44.1" lon="7.36328">
        <ele>1989</ele>
        <time>2018-04-22T04:50:31.000Z</time>
      </trkpt>
      <trkpt lat="44.10001" lon="7.36328">
        <ele>1989</ele>
        <time>2018-04-22T04:50:32.000Z</time>
      </trkpt>
      <trkpt lat="44.10004" lon="7.36329">
        <ele>1989</ele>
        <time>2018-04-22T04:50:38.000Z</time>
      </trkpt>
      <trkpt lat="44.10004" lon="7.3633">
        <ele>1990</ele>
        <time>2018-04-22T04:50:40.000Z</time>
      </trkpt>
      <trkpt lat="44.10004" lon="7.36332">
        <ele>1990</ele>
        <time>2018-04-22T04:50:44.000Z</time>
      </trkpt>
      <trkpt lat="44.10003" lon="7.36334">
        <ele>1992</ele>
        <time>2018-04-22T04:50:47.000Z</time>
      </trkpt>
      <trkpt lat="44.10002" lon="7.36337">
        <ele>1993</ele>
        <time>2018-04-22T04:50:51.000Z</time>
      </trkpt>
      <trkpt lat="44.10002" lon="7.36339">
        <ele>1994</ele>
        <time>2018-04-22T04:50:57.000Z</time>
      </trkpt>
      <trkpt lat="44.10002" lon="7.3634">
        <ele>1995</ele>
        <time>2018-04-22T04:50:58.000Z</time>
      </trkpt>
      <trkpt lat="44.10001" lon="7.36342">
        <ele>1996</ele>
        <time>2018-04-22T04:51:03.000Z</time>
      </trkpt>
      <trkpt lat="44.10002" lon="7.36345">
        <ele>1997</ele>
        <time>2018-04-22T04:51:06.000Z</time>
      </trkpt>
      <trkpt lat="44.10003" lon="7.36346">
        <ele>1998</ele>
        <time>2018-04-22T04:51:09.000Z</time>
      </trkpt>
      <trkpt lat="44.10005" lon="7.36346">
        <ele>1998</ele>
        <time>2018-04-22T04:51:13.000Z</time>
      </trkpt>
      <trkpt lat="44.10004" lon="7.36346">
        <ele>1998</ele>
        <time>2018-04-22T04:51:14.000Z</time>
      </trkpt>
      <trkpt lat="44.10008" lon="7.36345">
        <ele>1999</ele>
        <time>2018-04-22T04:51:19.000Z</time>
      </trkpt>
      <trkpt lat="44.10009" lon="7.36346">
        <ele>1999</ele>
        <time>2018-04-22T04:51:22.000Z</time>
      </trkpt>
      <trkpt lat="44.1001" lon="7.36347">
        <ele>2000</ele>
        <time>2018-04-22T04:51:24.000Z</time>
      </trkpt>
      <trkpt lat="44.1001" lon="7.36348">
        <ele>2000</ele>
        <time>2018-04-22T04:51:26.000Z</time>
      </trkpt>
      <trkpt lat="44.10011" lon="7.36349">
        <ele>2001</ele>
        <time>2018-04-22T04:51:28.000Z</time>
      </trkpt>
      <trkpt lat="44.10011" lon="7.3635">
        <ele>2001</ele>
        <time>2018-04-22T04:51:30.000Z</time>
      </trkpt>
      <trkpt lat="44.10012" lon="7.36352">
        <ele>2002</ele>
        <time>2018-04-22T04:51:34.000Z</time>
      </trkpt>
      <trkpt lat="44.10013" lon="7.36353">
        <ele>2002</ele>
        <time>2018-04-22T04:51:36.000Z</time>
      </trkpt>
      <trkpt lat="44.10013" lon="7.36354">
        <ele>2002</ele>
        <time>2018-04-22T04:51:39.000Z</time>
      </trkpt>
      <trkpt lat="44.10014" lon="7.36355">
        <ele>2003</ele>
        <time>2018-04-22T04:51:42.000Z</time>
      </trkpt>
      <trkpt lat="44.10015" lon="7.36356">
        <ele>2003</ele>
        <time>2018-04-22T04:51:44.000Z</time>
      </trkpt>
      <trkpt lat="44.10015" lon="7.3636">
        <ele>2004</ele>
        <time>2018-04-22T04:51:49.000Z</time>
      </trkpt>
      <trkpt lat="44.10015" lon="7.36361">
        <ele>2005</ele>
        <time>2018-04-22T04:51:53.000Z</time>
      </trkpt>
      <trkpt lat="44.10015" lon="7.36363">
        <ele>2005</ele>
        <time>2018-04-22T04:51:55.000Z</time>
      </trkpt>
      <trkpt lat="44.10014" lon="7.36367">
        <ele>2006</ele>
        <time>2018-04-22T04:52:02.000Z</time>
      </trkpt>
      <trkpt lat="44.10014" lon="7.36368">
        <ele>2006</ele>
        <time>2018-04-22T04:52:06.000Z</time>
      </trkpt>
      <trkpt lat="44.10013" lon="7.36369">
        <ele>2006</ele>
        <time>2018-04-22T04:52:07.000Z</time>
      </trkpt>
      <trkpt lat="44.10013" lon="7.3637">
        <ele>2006</ele>
        <time>2018-04-22T04:52:09.000Z</time>
      </trkpt>
      <trkpt lat="44.10011" lon="7.36372">
        <ele>2007</ele>
        <time>2018-04-22T04:52:13.000Z</time>
      </trkpt>
      <trkpt lat="44.1001" lon="7.36373">
        <ele>2007</ele>
        <time>2018-04-22T04:52:17.000Z</time>
      </trkpt>
      <trkpt lat="44.1001" lon="7.36375">
        <ele>2007</ele>
        <time>2018-04-22T04:52:18.000Z</time>
      </trkpt>
      <trkpt lat="44.10007" lon="7.36377">
        <ele>2007</ele>
        <time>2018-04-22T04:52:24.000Z</time>
      </trkpt>
      <trkpt lat="44.10005" lon="7.3638">
        <ele>2008</ele>
        <time>2018-04-22T04:52:30.000Z</time>
      </trkpt>
      <trkpt lat="44.10004" lon="7.36382">
        <ele>2008</ele>
        <time>2018-04-22T04:52:33.000Z</time>
      </trkpt>
      <trkpt lat="44.10003" lon="7.36384">
        <ele>2009</ele>
        <time>2018-04-22T04:52:36.000Z</time>
      </trkpt>
      <trkpt lat="44.10001" lon="7.36386">
        <ele>2009</ele>
        <time>2018-04-22T04:52:42.000Z</time>
      </trkpt>
      <trkpt lat="44.10001" lon="7.36387">
        <ele>2009</ele>
        <time>2018-04-22T04:52:43.000Z</time>
      </trkpt>
      <trkpt lat="44.09999" lon="7.3639">
        <ele>2000</ele>
        <time>2018-04-22T04:52:50.000Z</time>
      </trkpt>
      <trkpt lat="44.09999" lon="7.3639">
        <ele>2000</ele>
        <time>2018-04-22T04:52:51.000Z</time>
      </trkpt>
      <trkpt lat="44.09999" lon="7.3639">
        <ele>2000</ele>
        <time>2018-04-22T04:52:57.000Z</time>
      </trkpt>
      <trkpt lat="44.10001" lon="7.3639">
        <ele>2009</ele>
        <time>2018-04-22T04:53:03.000Z</time>
      </trkpt>
      <trkpt lat="44.10003" lon="7.3639">
        <ele>2010</ele>
        <time>2018-04-22T04:53:07.000Z</time>
      </trkpt>
      <trkpt lat="44.10003" lon="7.3639">
        <ele>2010</ele>
        <time>2018-04-22T04:53:10.000Z</time>
      </trkpt>
      <trkpt lat="44.10003" lon="7.3639">
        <ele>2010</ele>
        <time>2018-04-22T04:53:15.000Z</time>
      </trkpt>
      <trkpt lat="44.10004" lon="7.3639">
        <ele>2010</ele>
        <time>2018-04-22T04:53:22.000Z</time>
      </trkpt>
      <trkpt lat="44.10005" lon="7.3639">
        <ele>2010</ele>
        <time>2018-04-22T04:53:34.000Z</time>
      </trkpt>
      <trkpt lat="44.10005" lon="7.36391">
        <ele>2010</ele>
        <time>2018-04-22T04:53:58.000Z</time>
      </trkpt>
      <trkpt lat="44.10005" lon="7.3639">
        <ele>2010</ele>
        <time>2018-04-22T04:54:17.000Z</time>
      </trkpt>
      <trkpt lat="44.10005" lon="7.3639">
        <ele>2010</ele>
        <time>2018-04-22T04:54:31.000Z</time>
      </trkpt>
      <trkpt lat="44.10005" lon="7.3639">
        <ele>2010</ele>
        <time>2018-04-22T04:54:48.000Z</time>
      </trkpt>
      <trkpt lat="44.10006" lon="7.3639">
        <ele>2010</ele>
        <time>2018-04-22T04:54:55.000Z</time>
      </trkpt>
      <trkpt lat="44.10006" lon="7.3639">
        <ele>2010</ele>
        <time>2018-04-22T04:55:05.000Z</time>
      </trkpt>
      <trkpt lat="44.10009" lon="7.3639">
        <ele>2010</ele>
        <time>2018-04-22T04:55:12.000Z</time>
      </trkpt>
      <trkpt lat="44.10008" lon="7.3639">
        <ele>2010</ele>
        <time>2018-04-22T04:55:13.000Z</time>
      </trkpt>
      <trkpt lat="44.10012" lon="7.3639">
        <ele>2010</ele>
        <time>2018-04-22T04:55:16.000Z</time>
      </trkpt>
      <trkpt lat="44.10014" lon="7.3639">
        <ele>2010</ele>
        <time>2018-04-22T04:55:20.000Z</time>
      </trkpt>
      <trkpt lat="44.10016" lon="7.36391">
        <ele>2010</ele>
        <time>2018-04-22T04:55:24.000Z</time>
      </trkpt>
      <trkpt lat="44.10017" lon="7.36391">
        <ele>2010</ele>
        <time>2018-04-22T04:55:29.000Z</time>
      </trkpt>
      <trkpt lat="44.10018" lon="7.36392">
        <ele>2010</ele>
        <time>2018-04-22T04:55:31.000Z</time>
      </trkpt>
      <trkpt lat="44.10021" lon="7.36393">
        <ele>2011</ele>
        <time>2018-04-22T04:55:34.000Z</time>
      </trkpt>
      <trkpt lat="44.10023" lon="7.36394">
        <ele>2011</ele>
        <time>2018-04-22T04:55:38.000Z</time>
      </trkpt>
      <trkpt lat="44.10022" lon="7.36394">
        <ele>2011</ele>
        <time>2018-04-22T04:55:39.000Z</time>
      </trkpt>
      <trkpt lat="44.10025" lon="7.36395">
        <ele>2011</ele>
        <time>2018-04-22T04:55:42.000Z</time>
      </trkpt>
      <trkpt lat="44.10027" lon="7.36396">
        <ele>2011</ele>
        <time>2018-04-22T04:55:46.000Z</time>
      </trkpt>
      <trkpt lat="44.10029" lon="7.36396">
        <ele>2011</ele>
        <time>2018-04-22T04:55:48.000Z</time>
      </trkpt>
      <trkpt lat="44.10032" lon="7.36397">
        <ele>2012</ele>
        <time>2018-04-22T04:55:55.000Z</time>
      </trkpt>
      <trkpt lat="44.10031" lon="7.36397">
        <ele>2012</ele>
        <time>2018-04-22T04:55:56.000Z</time>
      </trkpt>
      <trkpt lat="44.10034" lon="7.36398">
        <ele>2012</ele>
        <time>2018-04-22T04:56:01.000Z</time>
      </trkpt>
      <trkpt lat="44.10038" lon="7.36399">
        <ele>2013</ele>
        <time>2018-04-22T04:56:06.000Z</time>
      </trkpt>
      <trkpt lat="44.10037" lon="7.36399">
        <ele>2013</ele>
        <time>2018-04-22T04:56:07.000Z</time>
      </trkpt>
      <trkpt lat="44.10041" lon="7.36401">
        <ele>2013</ele>
        <time>2018-04-22T04:56:11.000Z</time>
      </trkpt>
      <trkpt lat="44.10042" lon="7.36401">
        <ele>2013</ele>
        <time>2018-04-22T04:56:13.000Z</time>
      </trkpt>
      <trkpt lat="44.10046" lon="7.36402">
        <ele>2014</ele>
        <time>2018-04-22T04:56:18.000Z</time>
      </trkpt>
      <trkpt lat="44.10047" lon="7.36402">
        <ele>2014</ele>
        <time>2018-04-22T04:56:22.000Z</time>
      </trkpt>
      <trkpt lat="44.10049" lon="7.36403">
        <ele>2015</ele>
        <time>2018-04-22T04:56:23.000Z</time>
      </trkpt>
      <trkpt lat="44.1005" lon="7.36406">
        <ele>2015</ele>
        <time>2018-04-22T04:56:28.000Z</time>
      </trkpt>
      <trkpt lat="44.1005" lon="7.36412">
        <ele>2016</ele>
        <time>2018-04-22T04:56:34.000Z</time>
      </trkpt>
      <trkpt lat="44.1005" lon="7.36415">
        <ele>2016</ele>
        <time>2018-04-22T04:56:37.000Z</time>
      </trkpt>
      <trkpt lat="44.10049" lon="7.36416">
        <ele>2016</ele>
        <time>2018-04-22T04:56:38.000Z</time>
      </trkpt>
      <trkpt lat="44.10049" lon="7.36421">
        <ele>2030</ele>
        <time>2018-04-22T04:56:43.000Z</time>
      </trkpt>
      <trkpt lat="44.10049" lon="7.3642">
        <ele>2030</ele>
        <time>2018-04-22T04:56:44.000Z</time>
      </trkpt>
      <trkpt lat="44.10049" lon="7.36424">
        <ele>2030</ele>
        <time>2018-04-22T04:56:48.000Z</time>
      </trkpt>
      <trkpt lat="44.10048" lon="7.36428">
        <ele>2030</ele>
        <time>2018-04-22T04:56:51.000Z</time>
      </trkpt>
      <trkpt lat="44.10048" lon="7.3643">
        <ele>2030</ele>
        <time>2018-04-22T04:56:53.000Z</time>
      </trkpt>
      <trkpt lat="44.10048" lon="7.36433">
        <ele>2030</ele>
        <time>2018-04-22T04:56:57.000Z</time>
      </trkpt>
      <trkpt lat="44.10048" lon="7.36435">
        <ele>2031</ele>
        <time>2018-04-22T04:56:59.000Z</time>
      </trkpt>
      <trkpt lat="44.10049" lon="7.36439">
        <ele>2031</ele>
        <time>2018-04-22T04:57:04.000Z</time>
      </trkpt>
      <trkpt lat="44.10049" lon="7.3644">
        <ele>2031</ele>
        <time>2018-04-22T04:57:06.000Z</time>
      </trkpt>
      <trkpt lat="44.10052" lon="7.36443">
        <ele>2032</ele>
        <time>2018-04-22T04:57:11.000Z</time>
      </trkpt>
      <trkpt lat="44.10054" lon="7.36447">
        <ele>2032</ele>
        <time>2018-04-22T04:57:16.000Z</time>
      </trkpt>
      <trkpt lat="44.10055" lon="7.36449">
        <ele>2032</ele>
        <time>2018-04-22T04:57:19.000Z</time>
      </trkpt>
      <trkpt lat="44.10058" lon="7.36451">
        <ele>2033</ele>
        <time>2018-04-22T04:57:23.000Z</time>
      </trkpt>
      <trkpt lat="44.10059" lon="7.36453">
        <ele>2033</ele>
        <time>2018-04-22T04:57:28.000Z</time>
      </trkpt>
      <trkpt lat="44.10062" lon="7.36456">
        <ele>2034</ele>
        <time>2018-04-22T04:57:32.000Z</time>
      </trkpt>
      <trkpt lat="44.10065" lon="7.36459">
        <ele>2034</ele>
        <time>2018-04-22T04:57:37.000Z</time>
      </trkpt>
      <trkpt lat="44.10067" lon="7.36462">
        <ele>2035</ele>
        <time>2018-04-22T04:57:44.000Z</time>
      </trkpt>
      <trkpt lat="44.10068" lon="7.36463">
        <ele>2035</ele>
        <time>2018-04-22T04:57:46.000Z</time>
      </trkpt>
      <trkpt lat="44.10068" lon="7.36464">
        <ele>2036</ele>
        <time>2018-04-22T04:57:49.000Z</time>
      </trkpt>
      <trkpt lat="44.10069" lon="7.36466">
        <ele>2036</ele>
        <time>2018-04-22T04:57:53.000Z</time>
      </trkpt>
      <trkpt lat="44.1007" lon="7.36467">
        <ele>2036</ele>
        <time>2018-04-22T04:57:54.000Z</time>
      </trkpt>
      <trkpt lat="44.1007" lon="7.36467">
        <ele>2036</ele>
        <time>2018-04-22T04:57:59.000Z</time>
      </trkpt>
      <trkpt lat="44.10072" lon="7.36469">
        <ele>2037</ele>
        <time>2018-04-22T04:58:05.000Z</time>
      </trkpt>
      <trkpt lat="44.10072" lon="7.3647">
        <ele>2037</ele>
        <time>2018-04-22T04:58:07.000Z</time>
      </trkpt>
      <trkpt lat="44.10074" lon="7.36472">
        <ele>2038</ele>
        <time>2018-04-22T04:58:10.000Z</time>
      </trkpt>
      <trkpt lat="44.10077" lon="7.36475">
        <ele>2038</ele>
        <time>2018-04-22T04:58:16.000Z</time>
      </trkpt>
      <trkpt lat="44.10077" lon="7.36475">
        <ele>2039</ele>
        <time>2018-04-22T04:58:18.000Z</time>
      </trkpt>
      <trkpt lat="44.10078" lon="7.36477">
        <ele>2039</ele>
        <time>2018-04-22T04:58:22.000Z</time>
      </trkpt>
      <trkpt lat="44.10079" lon="7.36479">
        <ele>2040</ele>
        <time>2018-04-22T04:58:23.000Z</time>
      </trkpt>
      <trkpt lat="44.1008" lon="7.36482">
        <ele>2040</ele>
        <time>2018-04-22T04:58:28.000Z</time>
      </trkpt>
      <trkpt lat="44.10082" lon="7.36484">
        <ele>2041</ele>
        <time>2018-04-22T04:58:35.000Z</time>
      </trkpt>
      <trkpt lat="44.10085" lon="7.36487">
        <ele>2047</ele>
        <time>2018-04-22T04:58:40.000Z</time>
      </trkpt>
      <trkpt lat="44.10086" lon="7.36488">
        <ele>2047</ele>
        <time>2018-04-22T04:58:42.000Z</time>
      </trkpt>
      <trkpt lat="44.10088" lon="7.36489">
        <ele>2047</ele>
        <time>2018-04-22T04:58:48.000Z</time>
      </trkpt>
      <trkpt lat="44.10089" lon="7.3649">
        <ele>2047</ele>
        <time>2018-04-22T04:58:50.000Z</time>
      </trkpt>
      <trkpt lat="44.1009" lon="7.3649">
        <ele>2047</ele>
        <time>2018-04-22T04:58:52.000Z</time>
      </trkpt>
      <trkpt lat="44.10094" lon="7.36492">
        <ele>2047</ele>
        <time>2018-04-22T04:58:57.000Z</time>
      </trkpt>
      <trkpt lat="44.10095" lon="7.36492">
        <ele>2047</ele>
        <time>2018-04-22T04:58:59.000Z</time>
      </trkpt>
      <trkpt lat="44.10098" lon="7.36494">
        <ele>2047</ele>
        <time>2018-04-22T04:59:05.000Z</time>
      </trkpt>
      <trkpt lat="44.10101" lon="7.36494">
        <ele>2047</ele>
        <time>2018-04-22T04:59:08.000Z</time>
      </trkpt>
      <trkpt lat="44.10102" lon="7.36494">
        <ele>2047</ele>
        <time>2018-04-22T04:59:10.000Z</time>
      </trkpt>
      <trkpt lat="44.10104" lon="7.36495">
        <ele>2047</ele>
        <time>2018-04-22T04:59:14.000Z</time>
      </trkpt>
      <trkpt lat="44.10104" lon="7.36495">
        <ele>2047</ele>
        <time>2018-04-22T04:59:16.000Z</time>
      </trkpt>
      <trkpt lat="44.10105" lon="7.36495">
        <ele>2047</ele>
        <time>2018-04-22T04:59:19.000Z</time>
      </trkpt>
      <trkpt lat="44.10108" lon="7.36495">
        <ele>2047</ele>
        <time>2018-04-22T04:59:23.000Z</time>
      </trkpt>
      <trkpt lat="44.10109" lon="7.36495">
        <ele>2047</ele>
        <time>2018-04-22T04:59:24.000Z</time>
      </trkpt>
      <trkpt lat="44.1011" lon="7.36495">
        <ele>2047</ele>
        <time>2018-04-22T04:59:27.000Z</time>
      </trkpt>
      <trkpt lat="44.10112" lon="7.36497">
        <ele>2047</ele>
        <time>2018-04-22T04:59:30.000Z</time>
      </trkpt>
      <trkpt lat="44.10113" lon="7.36498">
        <ele>2047</ele>
        <time>2018-04-22T04:59:32.000Z</time>
      </trkpt>
      <trkpt lat="44.10113" lon="7.36498">
        <ele>2047</ele>
        <time>2018-04-22T04:59:35.000Z</time>
      </trkpt>
      <trkpt lat="44.10114" lon="7.36499">
        <ele>2047</ele>
        <time>2018-04-22T04:59:37.000Z</time>
      </trkpt>
      <trkpt lat="44.10118" lon="7.36501">
        <ele>2062</ele>
        <time>2018-04-22T04:59:43.000Z</time>
      </trkpt>
      <trkpt lat="44.1012" lon="7.36502">
        <ele>2062</ele>
        <time>2018-04-22T04:59:48.000Z</time>
      </trkpt>
      <trkpt lat="44.1012" lon="7.36502">
        <ele>2062</ele>
        <time>2018-04-22T04:59:49.000Z</time>
      </trkpt>
      <trkpt lat="44.10123" lon="7.36503">
        <ele>2062</ele>
        <time>2018-04-22T04:59:53.000Z</time>
      </trkpt>
      <trkpt lat="44.10123" lon="7.36504">
        <ele>2062</ele>
        <time>2018-04-22T04:59:56.000Z</time>
      </trkpt>
      <trkpt lat="44.10124" lon="7.36504">
        <ele>2062</ele>
        <time>2018-04-22T04:59:58.000Z</time>
      </trkpt>
      <trkpt lat="44.10126" lon="7.36505">
        <ele>2063</ele>
        <time>2018-04-22T05:00:03.000Z</time>
      </trkpt>
      <trkpt lat="44.10127" lon="7.36506">
        <ele>2063</ele>
        <time>2018-04-22T05:00:04.000Z</time>
      </trkpt>
      <trkpt lat="44.1013" lon="7.36508">
        <ele>2063</ele>
        <time>2018-04-22T05:00:09.000Z</time>
      </trkpt>
      <trkpt lat="44.1013" lon="7.36508">
        <ele>2063</ele>
        <time>2018-04-22T05:00:11.000Z</time>
      </trkpt>
      <trkpt lat="44.10132" lon="7.36509">
        <ele>2063</ele>
        <time>2018-04-22T05:00:14.000Z</time>
      </trkpt>
      <trkpt lat="44.10132" lon="7.36509">
        <ele>2063</ele>
        <time>2018-04-22T05:00:17.000Z</time>
      </trkpt>
      <trkpt lat="44.10135" lon="7.3651">
        <ele>2064</ele>
        <time>2018-04-22T05:00:20.000Z</time>
      </trkpt>
      <trkpt lat="44.10137" lon="7.36511">
        <ele>2064</ele>
        <time>2018-04-22T05:00:26.000Z</time>
      </trkpt>
      <trkpt lat="44.10138" lon="7.36512">
        <ele>2064</ele>
        <time>2018-04-22T05:00:28.000Z</time>
      </trkpt>
      <trkpt lat="44.10141" lon="7.36513">
        <ele>2064</ele>
        <time>2018-04-22T05:00:31.000Z</time>
      </trkpt>
      <trkpt lat="44.10142" lon="7.36513">
        <ele>2064</ele>
        <time>2018-04-22T05:00:35.000Z</time>
      </trkpt>
      <trkpt lat="44.10143" lon="7.36514">
        <ele>2064</ele>
        <time>2018-04-22T05:00:37.000Z</time>
      </trkpt>
      <trkpt lat="44.10147" lon="7.36516">
        <ele>2064</ele>
        <time>2018-04-22T05:00:42.000Z</time>
      </trkpt>
      <trkpt lat="44.10147" lon="7.36516">
        <ele>2064</ele>
        <time>2018-04-22T05:00:44.000Z</time>
      </trkpt>
      <trkpt lat="44.10149" lon="7.36517">
        <ele>2064</ele>
        <time>2018-04-22T05:00:48.000Z</time>
      </trkpt>
      <trkpt lat="44.10151" lon="7.36519">
        <ele>2064</ele>
        <time>2018-04-22T05:00:51.000Z</time>
      </trkpt>
      <trkpt lat="44.10151" lon="7.36518">
        <ele>2064</ele>
        <time>2018-04-22T05:00:52.000Z</time>
      </trkpt>
      <trkpt lat="44.10154" lon="7.36521">
        <ele>2065</ele>
        <time>2018-04-22T05:00:58.000Z</time>
      </trkpt>
      <trkpt lat="44.10154" lon="7.36521">
        <ele>2065</ele>
        <time>2018-04-22T05:01:01.000Z</time>
      </trkpt>
      <trkpt lat="44.10156" lon="7.36522">
        <ele>2065</ele>
        <time>2018-04-22T05:01:03.000Z</time>
      </trkpt>
      <trkpt lat="44.10157" lon="7.36522">
        <ele>2065</ele>
        <time>2018-04-22T05:01:08.000Z</time>
      </trkpt>
      <trkpt lat="44.10159" lon="7.36522">
        <ele>2065</ele>
        <time>2018-04-22T05:01:09.000Z</time>
      </trkpt>
      <trkpt lat="44.10159" lon="7.36522">
        <ele>2065</ele>
        <time>2018-04-22T05:01:12.000Z</time>
      </trkpt>
      <trkpt lat="44.10162" lon="7.36523">
        <ele>2065</ele>
        <time>2018-04-22T05:01:15.000Z</time>
      </trkpt>
      <trkpt lat="44.10162" lon="7.36523">
        <ele>2065</ele>
        <time>2018-04-22T05:01:17.000Z</time>
      </trkpt>
      <trkpt lat="44.10163" lon="7.36524">
        <ele>2065</ele>
        <time>2018-04-22T05:01:22.000Z</time>
      </trkpt>
      <trkpt lat="44.10163" lon="7.36524">
        <ele>2065</ele>
        <time>2018-04-22T05:01:24.000Z</time>
      </trkpt>
      <trkpt lat="44.10164" lon="7.36524">
        <ele>2065</ele>
        <time>2018-04-22T05:01:28.000Z</time>
      </trkpt>
      <trkpt lat="44.10168" lon="7.36527">
        <ele>2069</ele>
        <time>2018-04-22T05:01:34.000Z</time>
      </trkpt>
      <trkpt lat="44.10169" lon="7.36528">
        <ele>2069</ele>
        <time>2018-04-22T05:01:36.000Z</time>
      </trkpt>
      <trkpt lat="44.1017" lon="7.36528">
        <ele>2069</ele>
        <time>2018-04-22T05:01:38.000Z</time>
      </trkpt>
      <trkpt lat="44.10173" lon="7.3653">
        <ele>2070</ele>
        <time>2018-04-22T05:01:43.000Z</time>
      </trkpt>
      <trkpt lat="44.10173" lon="7.36531">
        <ele>2070</ele>
        <time>2018-04-22T05:01:44.000Z</time>
      </trkpt>
      <trkpt lat="44.10174" lon="7.36531">
        <ele>2070</ele>
        <time>2018-04-22T05:01:48.000Z</time>
      </trkpt>
      <trkpt lat="44.10176" lon="7.36532">
        <ele>2070</ele>
        <time>2018-04-22T05:01:49.000Z</time>
      </trkpt>
      <trkpt lat="44.10177" lon="7.36533">
        <ele>2070</ele>
        <time>2018-04-22T05:01:53.000Z</time>
      </trkpt>
      <trkpt lat="44.1018" lon="7.36535">
        <ele>2071</ele>
        <time>2018-04-22T05:01:58.000Z</time>
      </trkpt>
      <trkpt lat="44.10179" lon="7.36535">
        <ele>2071</ele>
        <time>2018-04-22T05:01:59.000Z</time>
      </trkpt>
      <trkpt lat="44.10181" lon="7.36536">
        <ele>2071</ele>
        <time>2018-04-22T05:02:03.000Z</time>
      </trkpt>
      <trkpt lat="44.10185" lon="7.36539">
        <ele>2071</ele>
        <time>2018-04-22T05:02:09.000Z</time>
      </trkpt>
      <trkpt lat="44.10184" lon="7.36538">
        <ele>2071</ele>
        <time>2018-04-22T05:02:10.000Z</time>
      </trkpt>
      <trkpt lat="44.10188" lon="7.3654">
        <ele>2072</ele>
        <time>2018-04-22T05:02:15.000Z</time>
      </trkpt>
      <trkpt lat="44.10189" lon="7.3654">
        <ele>2072</ele>
        <time>2018-04-22T05:02:18.000Z</time>
      </trkpt>
      <trkpt lat="44.1019" lon="7.3654">
        <ele>2072</ele>
        <time>2018-04-22T05:02:21.000Z</time>
      </trkpt>
      <trkpt lat="44.10193" lon="7.36541">
        <ele>2072</ele>
        <time>2018-04-22T05:02:24.000Z</time>
      </trkpt>
      <trkpt lat="44.10192" lon="7.36541">
        <ele>2072</ele>
        <time>2018-04-22T05:02:25.000Z</time>
      </trkpt>
      <trkpt lat="44.10196" lon="7.36541">
        <ele>2072</ele>
        <time>2018-04-22T05:02:30.000Z</time>
      </trkpt>
      <trkpt lat="44.10197" lon="7.36541">
        <ele>2072</ele>
        <time>2018-04-22T05:02:32.000Z</time>
      </trkpt>
      <trkpt lat="44.10197" lon="7.36542">
        <ele>2072</ele>
        <time>2018-04-22T05:02:35.000Z</time>
      </trkpt>
      <trkpt lat="44.10198" lon="7.36542">
        <ele>2072</ele>
        <time>2018-04-22T05:02:37.000Z</time>
      </trkpt>
      <trkpt lat="44.102" lon="7.36545">
        <ele>2072</ele>
        <time>2018-04-22T05:02:40.000Z</time>
      </trkpt>
      <trkpt lat="44.102" lon="7.36548">
        <ele>2073</ele>
        <time>2018-04-22T05:02:44.000Z</time>
      </trkpt>
      <trkpt lat="44.10201" lon="7.36553">
        <ele>2073</ele>
        <time>2018-04-22T05:02:50.000Z</time>
      </trkpt>
      <trkpt lat="44.102" lon="7.36554">
        <ele>2073</ele>
        <time>2018-04-22T05:02:51.000Z</time>
      </trkpt>
      <trkpt lat="44.10201" lon="7.36556">
        <ele>2074</ele>
        <time>2018-04-22T05:02:55.000Z</time>
      </trkpt>
      <trkpt lat="44.10202" lon="7.36558">
        <ele>2074</ele>
        <time>2018-04-22T05:02:59.000Z</time>
      </trkpt>
      <trkpt lat="44.10203" lon="7.3656">
        <ele>2074</ele>
        <time>2018-04-22T05:03:00.000Z</time>
      </trkpt>
      <trkpt lat="44.10204" lon="7.36564">
        <ele>2074</ele>
        <time>2018-04-22T05:03:06.000Z</time>
      </trkpt>
      <trkpt lat="44.10206" lon="7.36567">
        <ele>2074</ele>
        <time>2018-04-22T05:03:12.000Z</time>
      </trkpt>
      <trkpt lat="44.10206" lon="7.36567">
        <ele>2074</ele>
        <time>2018-04-22T05:03:14.000Z</time>
      </trkpt>
      <trkpt lat="44.10208" lon="7.36569">
        <ele>2075</ele>
        <time>2018-04-22T05:03:18.000Z</time>
      </trkpt>
      <trkpt lat="44.1021" lon="7.36573">
        <ele>2075</ele>
        <time>2018-04-22T05:03:24.000Z</time>
      </trkpt>
      <trkpt lat="44.10212" lon="7.36575">
        <ele>2075</ele>
        <time>2018-04-22T05:03:28.000Z</time>
      </trkpt>
      <trkpt lat="44.10214" lon="7.36577">
        <ele>2075</ele>
        <time>2018-04-22T05:03:32.000Z</time>
      </trkpt>
      <trkpt lat="44.10215" lon="7.36578">
        <ele>2075</ele>
        <time>2018-04-22T05:03:33.000Z</time>
      </trkpt>
      <trkpt lat="44.10216" lon="7.3658">
        <ele>2075</ele>
        <time>2018-04-22T05:03:37.000Z</time>
      </trkpt>
      <trkpt lat="44.10217" lon="7.3658">
        <ele>2075</ele>
        <time>2018-04-22T05:03:39.000Z</time>
      </trkpt>
      <trkpt lat="44.10218" lon="7.36582">
        <ele>2075</ele>
        <time>2018-04-22T05:03:42.000Z</time>
      </trkpt>
      <trkpt lat="44.1022" lon="7.36583">
        <ele>2075</ele>
        <time>2018-04-22T05:03:46.000Z</time>
      </trkpt>
      <trkpt lat="44.10219" lon="7.36583">
        <ele>2075</ele>
        <time>2018-04-22T05:03:47.000Z</time>
      </trkpt>
      <trkpt lat="44.10222" lon="7.36586">
        <ele>2083</ele>
        <time>2018-04-22T05:03:52.000Z</time>
      </trkpt>
      <trkpt lat="44.10223" lon="7.36587">
        <ele>2083</ele>
        <time>2018-04-22T05:03:54.000Z</time>
      </trkpt>
      <trkpt lat="44.10225" lon="7.3659">
        <ele>2083</ele>
        <time>2018-04-22T05:04:00.000Z</time>
      </trkpt>
      <trkpt lat="44.10225" lon="7.36591">
        <ele>2083</ele>
        <time>2018-04-22T05:04:01.000Z</time>
      </trkpt>
      <trkpt lat="44.10226" lon="7.36593">
        <ele>2083</ele>
        <time>2018-04-22T05:04:06.000Z</time>
      </trkpt>
      <trkpt lat="44.10226" lon="7.36599">
        <ele>2083</ele>
        <time>2018-04-22T05:04:11.000Z</time>
      </trkpt>
      <trkpt lat="44.10226" lon="7.366">
        <ele>2084</ele>
        <time>2018-04-22T05:04:13.000Z</time>
      </trkpt>
      <trkpt lat="44.10226" lon="7.36604">
        <ele>2084</ele>
        <time>2018-04-22T05:04:17.000Z</time>
      </trkpt>
      <trkpt lat="44.10227" lon="7.36607">
        <ele>2084</ele>
        <time>2018-04-22T05:04:21.000Z</time>
      </trkpt>
      <trkpt lat="44.10227" lon="7.36607">
        <ele>2084</ele>
        <time>2018-04-22T05:04:22.000Z</time>
      </trkpt>
      <trkpt lat="44.10227" lon="7.36612">
        <ele>2084</ele>
        <time>2018-04-22T05:04:27.000Z</time>
      </trkpt>
      <trkpt lat="44.10227" lon="7.36612">
        <ele>2084</ele>
        <time>2018-04-22T05:04:28.000Z</time>
      </trkpt>
      <trkpt lat="44.10229" lon="7.36615">
        <ele>2085</ele>
        <time>2018-04-22T05:04:32.000Z</time>
      </trkpt>
      <trkpt lat="44.10229" lon="7.36618">
        <ele>2085</ele>
        <time>2018-04-22T05:04:35.000Z</time>
      </trkpt>
      <trkpt lat="44.1023" lon="7.36619">
        <ele>2085</ele>
        <time>2018-04-22T05:04:36.000Z</time>
      </trkpt>
      <trkpt lat="44.1023" lon="7.36619">
        <ele>2085</ele>
        <time>2018-04-22T05:04:39.000Z</time>
      </trkpt>
      <trkpt lat="44.1023" lon="7.3662">
        <ele>2085</ele>
        <time>2018-04-22T05:04:42.000Z</time>
      </trkpt>
      <trkpt lat="44.1023" lon="7.3662">
        <ele>2085</ele>
        <time>2018-04-22T05:04:46.000Z</time>
      </trkpt>
      <trkpt lat="44.1023" lon="7.3662">
        <ele>2085</ele>
        <time>2018-04-22T05:05:02.000Z</time>
      </trkpt>
      <trkpt lat="44.1023" lon="7.3662">
        <ele>2085</ele>
        <time>2018-04-22T05:05:14.000Z</time>
      </trkpt>
      <trkpt lat="44.10229" lon="7.3662">
        <ele>2085</ele>
        <time>2018-04-22T05:05:22.000Z</time>
      </trkpt>
      <trkpt lat="44.10229" lon="7.3662">
        <ele>2085</ele>
        <time>2018-04-22T05:05:37.000Z</time>
      </trkpt>
      <trkpt lat="44.1023" lon="7.3662">
        <ele>2085</ele>
        <time>2018-04-22T05:05:48.000Z</time>
      </trkpt>
      <trkpt lat="44.1023" lon="7.3662">
        <ele>2085</ele>
        <time>2018-04-22T05:06:00.000Z</time>
      </trkpt>
      <trkpt lat="44.1023" lon="7.3662">
        <ele>2085</ele>
        <time>2018-04-22T05:06:08.000Z</time>
      </trkpt>
      <trkpt lat="44.1023" lon="7.36624">
        <ele>2085</ele>
        <time>2018-04-22T05:06:14.000Z</time>
      </trkpt>
      <trkpt lat="44.10229" lon="7.36625">
        <ele>2085</ele>
        <time>2018-04-22T05:06:16.000Z</time>
      </trkpt>
      <trkpt lat="44.10227" lon="7.36627">
        <ele>2085</ele>
        <time>2018-04-22T05:06:19.000Z</time>
      </trkpt>
      <trkpt lat="44.10223" lon="7.36634">
        <ele>2086</ele>
        <time>2018-04-22T05:06:26.000Z</time>
      </trkpt>
      <trkpt lat="44.1022" lon="7.36641">
        <ele>2086</ele>
        <time>2018-04-22T05:06:32.000Z</time>
      </trkpt>
      <trkpt lat="44.1022" lon="7.36642">
        <ele>2087</ele>
        <time>2018-04-22T05:06:34.000Z</time>
      </trkpt>
      <trkpt lat="44.10218" lon="7.36645">
        <ele>2087</ele>
        <time>2018-04-22T05:06:37.000Z</time>
      </trkpt>
      <trkpt lat="44.10214" lon="7.3665">
        <ele>2087</ele>
        <time>2018-04-22T05:06:43.000Z</time>
      </trkpt>
      <trkpt lat="44.10212" lon="7.36652">
        <ele>2087</ele>
        <time>2018-04-22T05:06:46.000Z</time>
      </trkpt>
      <trkpt lat="44.10211" lon="7.36654">
        <ele>2088</ele>
        <time>2018-04-22T05:06:48.000Z</time>
      </trkpt>
      <trkpt lat="44.10211" lon="7.36654">
        <ele>2088</ele>
        <time>2018-04-22T05:06:49.000Z</time>
      </trkpt>
      <trkpt lat="44.10209" lon="7.36661">
        <ele>2088</ele>
        <time>2018-04-22T05:06:55.000Z</time>
      </trkpt>
      <trkpt lat="44.10208" lon="7.36664">
        <ele>2088</ele>
        <time>2018-04-22T05:06:58.000Z</time>
      </trkpt>
      <trkpt lat="44.10207" lon="7.36665">
        <ele>2088</ele>
        <time>2018-04-22T05:07:00.000Z</time>
      </trkpt>
      <trkpt lat="44.10205" lon="7.36669">
        <ele>2095</ele>
        <time>2018-04-22T05:07:05.000Z</time>
      </trkpt>
      <trkpt lat="44.10205" lon="7.36669">
        <ele>2095</ele>
        <time>2018-04-22T05:07:06.000Z</time>
      </trkpt>
      <trkpt lat="44.10205" lon="7.3667">
        <ele>2096</ele>
        <time>2018-04-22T05:07:10.000Z</time>
      </trkpt>
      <trkpt lat="44.10205" lon="7.3667">
        <ele>2096</ele>
        <time>2018-04-22T05:07:22.000Z</time>
      </trkpt>
      <trkpt lat="44.10206" lon="7.36669">
        <ele>2095</ele>
        <time>2018-04-22T05:07:37.000Z</time>
      </trkpt>
      <trkpt lat="44.10206" lon="7.3667">
        <ele>2095</ele>
        <time>2018-04-22T05:07:39.000Z</time>
      </trkpt>
      <trkpt lat="44.10206" lon="7.36671">
        <ele>2095</ele>
        <time>2018-04-22T05:07:49.000Z</time>
      </trkpt>
      <trkpt lat="44.10206" lon="7.36675">
        <ele>2096</ele>
        <time>2018-04-22T05:07:58.000Z</time>
      </trkpt>
      <trkpt lat="44.10205" lon="7.36676">
        <ele>2096</ele>
        <time>2018-04-22T05:08:04.000Z</time>
      </trkpt>
      <trkpt lat="44.10205" lon="7.36676">
        <ele>2096</ele>
        <time>2018-04-22T05:08:06.000Z</time>
      </trkpt>
      <trkpt lat="44.10203" lon="7.36682">
        <ele>2096</ele>
        <time>2018-04-22T05:08:11.000Z</time>
      </trkpt>
      <trkpt lat="44.10201" lon="7.36687">
        <ele>2096</ele>
        <time>2018-04-22T05:08:17.000Z</time>
      </trkpt>
      <trkpt lat="44.102" lon="7.36689">
        <ele>2097</ele>
        <time>2018-04-22T05:08:19.000Z</time>
      </trkpt>
      <trkpt lat="44.10199" lon="7.36692">
        <ele>2097</ele>
        <time>2018-04-22T05:08:24.000Z</time>
      </trkpt>
      <trkpt lat="44.10197" lon="7.36696">
        <ele>2097</ele>
        <time>2018-04-22T05:08:31.000Z</time>
      </trkpt>
      <trkpt lat="44.10194" lon="7.36701">
        <ele>2098</ele>
        <time>2018-04-22T05:08:37.000Z</time>
      </trkpt>
      <trkpt lat="44.10193" lon="7.36703">
        <ele>2098</ele>
        <time>2018-04-22T05:08:40.000Z</time>
      </trkpt>
      <trkpt lat="44.10191" lon="7.36705">
        <ele>2098</ele>
        <time>2018-04-22T05:08:43.000Z</time>
      </trkpt>
      <trkpt lat="44.1019" lon="7.36707">
        <ele>2098</ele>
        <time>2018-04-22T05:08:46.000Z</time>
      </trkpt>
      <trkpt lat="44.10189" lon="7.36709">
        <ele>2098</ele>
        <time>2018-04-22T05:08:48.000Z</time>
      </trkpt>
      <trkpt lat="44.10189" lon="7.36709">
        <ele>2098</ele>
        <time>2018-04-22T05:08:49.000Z</time>
      </trkpt>
      <trkpt lat="44.10187" lon="7.36712">
        <ele>2099</ele>
        <time>2018-04-22T05:08:54.000Z</time>
      </trkpt>
      <trkpt lat="44.10186" lon="7.36713">
        <ele>2099</ele>
        <time>2018-04-22T05:08:55.000Z</time>
      </trkpt>
      <trkpt lat="44.10184" lon="7.36716">
        <ele>2099</ele>
        <time>2018-04-22T05:09:00.000Z</time>
      </trkpt>
      <trkpt lat="44.10183" lon="7.36718">
        <ele>2100</ele>
        <time>2018-04-22T05:09:04.000Z</time>
      </trkpt>
      <trkpt lat="44.10182" lon="7.3672">
        <ele>2100</ele>
        <time>2018-04-22T05:09:07.000Z</time>
      </trkpt>
      <trkpt lat="44.10182" lon="7.3672">
        <ele>2100</ele>
        <time>2018-04-22T05:09:16.000Z</time>
      </trkpt>
      <trkpt lat="44.10182" lon="7.3672">
        <ele>2100</ele>
        <time>2018-04-22T05:09:24.000Z</time>
      </trkpt>
      <trkpt lat="44.10181" lon="7.36724">
        <ele>2100</ele>
        <time>2018-04-22T05:09:29.000Z</time>
      </trkpt>
      <trkpt lat="44.10179" lon="7.3673">
        <ele>2101</ele>
        <time>2018-04-22T05:09:35.000Z</time>
      </trkpt>
      <trkpt lat="44.10177" lon="7.36737">
        <ele>2103</ele>
        <time>2018-04-22T05:09:41.000Z</time>
      </trkpt>
      <trkpt lat="44.10177" lon="7.36738">
        <ele>2103</ele>
        <time>2018-04-22T05:09:42.000Z</time>
      </trkpt>
      <trkpt lat="44.10174" lon="7.36743">
        <ele>2104</ele>
        <time>2018-04-22T05:09:47.000Z</time>
      </trkpt>
      <trkpt lat="44.10171" lon="7.36748">
        <ele>2106</ele>
        <time>2018-04-22T05:09:53.000Z</time>
      </trkpt>
      <trkpt lat="44.10169" lon="7.36751">
        <ele>2108</ele>
        <time>2018-04-22T05:09:59.000Z</time>
      </trkpt>
      <trkpt lat="44.10169" lon="7.36751">
        <ele>2108</ele>
        <time>2018-04-22T05:10:02.000Z</time>
      </trkpt>
      <trkpt lat="44.10168" lon="7.36752">
        <ele>2108</ele>
        <time>2018-04-22T05:10:07.000Z</time>
      </trkpt>
      <trkpt lat="44.10167" lon="7.36756">
        <ele>2112</ele>
        <time>2018-04-22T05:10:12.000Z</time>
      </trkpt>
      <trkpt lat="44.10165" lon="7.3676">
        <ele>2113</ele>
        <time>2018-04-22T05:10:16.000Z</time>
      </trkpt>
      <trkpt lat="44.10165" lon="7.36762">
        <ele>2114</ele>
        <time>2018-04-22T05:10:18.000Z</time>
      </trkpt>
      <trkpt lat="44.10164" lon="7.36764">
        <ele>2115</ele>
        <time>2018-04-22T05:10:21.000Z</time>
      </trkpt>
      <trkpt lat="44.10163" lon="7.36769">
        <ele>2116</ele>
        <time>2018-04-22T05:10:26.000Z</time>
      </trkpt>
      <trkpt lat="44.10163" lon="7.36769">
        <ele>2117</ele>
        <time>2018-04-22T05:10:27.000Z</time>
      </trkpt>
      <trkpt lat="44.10162" lon="7.36773">
        <ele>2118</ele>
        <time>2018-04-22T05:10:32.000Z</time>
      </trkpt>
      <trkpt lat="44.10162" lon="7.36774">
        <ele>2118</ele>
        <time>2018-04-22T05:10:33.000Z</time>
      </trkpt>
      <trkpt lat="44.10159" lon="7.36778">
        <ele>2119</ele>
        <time>2018-04-22T05:10:40.000Z</time>
      </trkpt>
      <trkpt lat="44.10156" lon="7.3678">
        <ele>2119</ele>
        <time>2018-04-22T05:10:46.000Z</time>
      </trkpt>
      <trkpt lat="44.10152" lon="7.36778">
        <ele>2120</ele>
        <time>2018-04-22T05:10:53.000Z</time>
      </trkpt>
      <trkpt lat="44.10148" lon="7.36775">
        <ele>2120</ele>
        <time>2018-04-22T05:11:00.000Z</time>
      </trkpt>
      <trkpt lat="44.10147" lon="7.36775">
        <ele>2120</ele>
        <time>2018-04-22T05:11:01.000Z</time>
      </trkpt>
      <trkpt lat="44.10143" lon="7.36776">
        <ele>2121</ele>
        <time>2018-04-22T05:11:09.000Z</time>
      </trkpt>
      <trkpt lat="44.10139" lon="7.36777">
        <ele>2121</ele>
        <time>2018-04-22T05:11:15.000Z</time>
      </trkpt>
      <trkpt lat="44.10135" lon="7.36779">
        <ele>2122</ele>
        <time>2018-04-22T05:11:22.000Z</time>
      </trkpt>
      <trkpt lat="44.10134" lon="7.36779">
        <ele>2122</ele>
        <time>2018-04-22T05:11:23.000Z</time>
      </trkpt>
      <trkpt lat="44.10133" lon="7.36779">
        <ele>2123</ele>
        <time>2018-04-22T05:11:25.000Z</time>
      </trkpt>
      <trkpt lat="44.10132" lon="7.36779">
        <ele>2123</ele>
        <time>2018-04-22T05:11:27.000Z</time>
      </trkpt>
      <trkpt lat="44.10132" lon="7.3678">
        <ele>2123</ele>
        <time>2018-04-22T05:11:36.000Z</time>
      </trkpt>
      <trkpt lat="44.10132" lon="7.36781">
        <ele>2123</ele>
        <time>2018-04-22T05:11:46.000Z</time>
      </trkpt>
      <trkpt lat="44.10132" lon="7.36782">
        <ele>2123</ele>
        <time>2018-04-22T05:12:00.000Z</time>
      </trkpt>
      <trkpt lat="44.10133" lon="7.36781">
        <ele>2123</ele>
        <time>2018-04-22T05:12:08.000Z</time>
      </trkpt>
      <trkpt lat="44.10132" lon="7.36781">
        <ele>2123</ele>
        <time>2018-04-22T05:12:20.000Z</time>
      </trkpt>
      <trkpt lat="44.10132" lon="7.36782">
        <ele>2123</ele>
        <time>2018-04-22T05:12:27.000Z</time>
      </trkpt>
      <trkpt lat="44.10132" lon="7.36781">
        <ele>2123</ele>
        <time>2018-04-22T05:12:39.000Z</time>
      </trkpt>
      <trkpt lat="44.10131" lon="7.36781">
        <ele>2123</ele>
        <time>2018-04-22T05:12:50.000Z</time>
      </trkpt>
      <trkpt lat="44.10126" lon="7.36782">
        <ele>2124</ele>
        <time>2018-04-22T05:12:59.000Z</time>
      </trkpt>
      <trkpt lat="44.10124" lon="7.36786">
        <ele>2125</ele>
        <time>2018-04-22T05:13:04.000Z</time>
      </trkpt>
      <trkpt lat="44.10124" lon="7.36788">
        <ele>2125</ele>
        <time>2018-04-22T05:13:07.000Z</time>
      </trkpt>
      <trkpt lat="44.10123" lon="7.3679">
        <ele>2125</ele>
        <time>2018-04-22T05:13:09.000Z</time>
      </trkpt>
      <trkpt lat="44.10122" lon="7.36793">
        <ele>2126</ele>
        <time>2018-04-22T05:13:15.000Z</time>
      </trkpt>
      <trkpt lat="44.10122" lon="7.36794">
        <ele>2126</ele>
        <time>2018-04-22T05:13:17.000Z</time>
      </trkpt>
      <trkpt lat="44.10118" lon="7.36792">
        <ele>2126</ele>
        <time>2018-04-22T05:13:24.000Z</time>
      </trkpt>
      <trkpt lat="44.10117" lon="7.36791">
        <ele>2126</ele>
        <time>2018-04-22T05:13:26.000Z</time>
      </trkpt>
      <trkpt lat="44.10116" lon="7.3679">
        <ele>2126</ele>
        <time>2018-04-22T05:13:32.000Z</time>
      </trkpt>
      <trkpt lat="44.10116" lon="7.3679">
        <ele>2126</ele>
        <time>2018-04-22T05:13:34.000Z</time>
      </trkpt>
      <trkpt lat="44.10115" lon="7.3679">
        <ele>2126</ele>
        <time>2018-04-22T05:13:43.000Z</time>
      </trkpt>
      <trkpt lat="44.10114" lon="7.36792">
        <ele>2127</ele>
        <time>2018-04-22T05:13:49.000Z</time>
      </trkpt>
      <trkpt lat="44.10112" lon="7.36792">
        <ele>2127</ele>
        <time>2018-04-22T05:13:54.000Z</time>
      </trkpt>
      <trkpt lat="44.10111" lon="7.36791">
        <ele>2127</ele>
        <time>2018-04-22T05:13:56.000Z</time>
      </trkpt>
      <trkpt lat="44.10109" lon="7.36788">
        <ele>2127</ele>
        <time>2018-04-22T05:14:02.000Z</time>
      </trkpt>
      <trkpt lat="44.10108" lon="7.36788">
        <ele>2127</ele>
        <time>2018-04-22T05:14:06.000Z</time>
      </trkpt>
      <trkpt lat="44.10109" lon="7.36789">
        <ele>2127</ele>
        <time>2018-04-22T05:14:08.000Z</time>
      </trkpt>
      <trkpt lat="44.10109" lon="7.3679">
        <ele>2127</ele>
        <time>2018-04-22T05:14:10.000Z</time>
      </trkpt>
      <trkpt lat="44.10109" lon="7.36793">
        <ele>2128</ele>
        <time>2018-04-22T05:14:13.000Z</time>
      </trkpt>
      <trkpt lat="44.10109" lon="7.36797">
        <ele>2128</ele>
        <time>2018-04-22T05:14:18.000Z</time>
      </trkpt>
      <trkpt lat="44.1011" lon="7.36801">
        <ele>2129</ele>
        <time>2018-04-22T05:14:22.000Z</time>
      </trkpt>
      <trkpt lat="44.1011" lon="7.368">
        <ele>2128</ele>
        <time>2018-04-22T05:14:23.000Z</time>
      </trkpt>
      <trkpt lat="44.10111" lon="7.36804">
        <ele>2129</ele>
        <time>2018-04-22T05:14:27.000Z</time>
      </trkpt>
      <trkpt lat="44.10111" lon="7.36805">
        <ele>2129</ele>
        <time>2018-04-22T05:14:28.000Z</time>
      </trkpt>
      <trkpt lat="44.10113" lon="7.36808">
        <ele>2129</ele>
        <time>2018-04-22T05:14:32.000Z</time>
      </trkpt>
      <trkpt lat="44.10114" lon="7.36811">
        <ele>2129</ele>
        <time>2018-04-22T05:14:36.000Z</time>
      </trkpt>
      <trkpt lat="44.10114" lon="7.36811">
        <ele>2129</ele>
        <time>2018-04-22T05:14:37.000Z</time>
      </trkpt>
      <trkpt lat="44.10115" lon="7.36815">
        <ele>2129</ele>
        <time>2018-04-22T05:14:41.000Z</time>
      </trkpt>
      <trkpt lat="44.10116" lon="7.36818">
        <ele>2129</ele>
        <time>2018-04-22T05:14:44.000Z</time>
      </trkpt>
      <trkpt lat="44.10117" lon="7.36819">
        <ele>2129</ele>
        <time>2018-04-22T05:14:46.000Z</time>
      </trkpt>
      <trkpt lat="44.10118" lon="7.36821">
        <ele>2129</ele>
        <time>2018-04-22T05:14:50.000Z</time>
      </trkpt>
      <trkpt lat="44.10118" lon="7.36821">
        <ele>2129</ele>
        <time>2018-04-22T05:14:51.000Z</time>
      </trkpt>
      <trkpt lat="44.10118" lon="7.36824">
        <ele>2129</ele>
        <time>2018-04-22T05:14:56.000Z</time>
      </trkpt>
      <trkpt lat="44.10116" lon="7.36823">
        <ele>2130</ele>
        <time>2018-04-22T05:15:02.000Z</time>
      </trkpt>
      <trkpt lat="44.10115" lon="7.36823">
        <ele>2130</ele>
        <time>2018-04-22T05:15:03.000Z</time>
      </trkpt>
      <trkpt lat="44.10112" lon="7.36823">
        <ele>2131</ele>
        <time>2018-04-22T05:15:08.000Z</time>
      </trkpt>
      <trkpt lat="44.10112" lon="7.36825">
        <ele>2131</ele>
        <time>2018-04-22T05:15:13.000Z</time>
      </trkpt>
      <trkpt lat="44.10113" lon="7.36826">
        <ele>2131</ele>
        <time>2018-04-22T05:15:14.000Z</time>
      </trkpt>
      <trkpt lat="44.10113" lon="7.36828">
        <ele>2131</ele>
        <time>2018-04-22T05:15:17.000Z</time>
      </trkpt>
      <trkpt lat="44.10114" lon="7.36829">
        <ele>2131</ele>
        <time>2018-04-22T05:15:18.000Z</time>
      </trkpt>
      <trkpt lat="44.10115" lon="7.36829">
        <ele>2131</ele>
        <time>2018-04-22T05:15:20.000Z</time>
      </trkpt>
      <trkpt lat="44.10115" lon="7.3683">
        <ele>2131</ele>
        <time>2018-04-22T05:15:21.000Z</time>
      </trkpt>
      <trkpt lat="44.10115" lon="7.36832">
        <ele>2131</ele>
        <time>2018-04-22T05:15:24.000Z</time>
      </trkpt>
      <trkpt lat="44.10115" lon="7.36836">
        <ele>2141</ele>
        <time>2018-04-22T05:15:28.000Z</time>
      </trkpt>
      <trkpt lat="44.10113" lon="7.36838">
        <ele>2142</ele>
        <time>2018-04-22T05:15:33.000Z</time>
      </trkpt>
      <trkpt lat="44.10113" lon="7.36839">
        <ele>2142</ele>
        <time>2018-04-22T05:15:35.000Z</time>
      </trkpt>
      <trkpt lat="44.10114" lon="7.36843">
        <ele>2142</ele>
        <time>2018-04-22T05:15:39.000Z</time>
      </trkpt>
      <trkpt lat="44.10114" lon="7.36842">
        <ele>2142</ele>
        <time>2018-04-22T05:15:40.000Z</time>
      </trkpt>
      <trkpt lat="44.10114" lon="7.36844">
        <ele>2142</ele>
        <time>2018-04-22T05:15:41.000Z</time>
      </trkpt>
      <trkpt lat="44.10114" lon="7.36848">
        <ele>2142</ele>
        <time>2018-04-22T05:15:45.000Z</time>
      </trkpt>
      <trkpt lat="44.10115" lon="7.36849">
        <ele>2142</ele>
        <time>2018-04-22T05:15:47.000Z</time>
      </trkpt>
      <trkpt lat="44.10115" lon="7.36851">
        <ele>2142</ele>
        <time>2018-04-22T05:15:50.000Z</time>
      </trkpt>
      <trkpt lat="44.10116" lon="7.36856">
        <ele>2142</ele>
        <time>2018-04-22T05:15:55.000Z</time>
      </trkpt>
      <trkpt lat="44.10116" lon="7.36857">
        <ele>2142</ele>
        <time>2018-04-22T05:15:56.000Z</time>
      </trkpt>
      <trkpt lat="44.10116" lon="7.36859">
        <ele>2142</ele>
        <time>2018-04-22T05:16:01.000Z</time>
      </trkpt>
      <trkpt lat="44.10116" lon="7.36861">
        <ele>2142</ele>
        <time>2018-04-22T05:16:03.000Z</time>
      </trkpt>
      <trkpt lat="44.10117" lon="7.36864">
        <ele>2142</ele>
        <time>2018-04-22T05:16:06.000Z</time>
      </trkpt>
      <trkpt lat="44.10117" lon="7.36866">
        <ele>2142</ele>
        <time>2018-04-22T05:16:09.000Z</time>
      </trkpt>
      <trkpt lat="44.10119" lon="7.36869">
        <ele>2142</ele>
        <time>2018-04-22T05:16:13.000Z</time>
      </trkpt>
      <trkpt lat="44.1012" lon="7.36871">
        <ele>2142</ele>
        <time>2018-04-22T05:16:17.000Z</time>
      </trkpt>
      <trkpt lat="44.10121" lon="7.36874">
        <ele>2143</ele>
        <time>2018-04-22T05:16:21.000Z</time>
      </trkpt>
      <trkpt lat="44.10121" lon="7.36876">
        <ele>2143</ele>
        <time>2018-04-22T05:16:23.000Z</time>
      </trkpt>
      <trkpt lat="44.10122" lon="7.36879">
        <ele>2143</ele>
        <time>2018-04-22T05:16:28.000Z</time>
      </trkpt>
      <trkpt lat="44.10123" lon="7.36882">
        <ele>2143</ele>
        <time>2018-04-22T05:16:33.000Z</time>
      </trkpt>
      <trkpt lat="44.10124" lon="7.36885">
        <ele>2143</ele>
        <time>2018-04-22T05:16:37.000Z</time>
      </trkpt>
      <trkpt lat="44.10125" lon="7.36886">
        <ele>2143</ele>
        <time>2018-04-22T05:16:39.000Z</time>
      </trkpt>
      <trkpt lat="44.10126" lon="7.36889">
        <ele>2143</ele>
        <time>2018-04-22T05:16:44.000Z</time>
      </trkpt>
      <trkpt lat="44.10126" lon="7.36891">
        <ele>2143</ele>
        <time>2018-04-22T05:16:49.000Z</time>
      </trkpt>
      <trkpt lat="44.10127" lon="7.36894">
        <ele>2143</ele>
        <time>2018-04-22T05:16:53.000Z</time>
      </trkpt>
      <trkpt lat="44.10128" lon="7.36896">
        <ele>2143</ele>
        <time>2018-04-22T05:16:56.000Z</time>
      </trkpt>
      <trkpt lat="44.10129" lon="7.36898">
        <ele>2143</ele>
        <time>2018-04-22T05:17:01.000Z</time>
      </trkpt>
      <trkpt lat="44.10129" lon="7.36899">
        <ele>2143</ele>
        <time>2018-04-22T05:17:03.000Z</time>
      </trkpt>
      <trkpt lat="44.10131" lon="7.36903">
        <ele>2143</ele>
        <time>2018-04-22T05:17:07.000Z</time>
      </trkpt>
      <trkpt lat="44.10132" lon="7.36905">
        <ele>2143</ele>
        <time>2018-04-22T05:17:11.000Z</time>
      </trkpt>
      <trkpt lat="44.10131" lon="7.36905">
        <ele>2143</ele>
        <time>2018-04-22T05:17:12.000Z</time>
      </trkpt>
      <trkpt lat="44.10132" lon="7.36907">
        <ele>2143</ele>
        <time>2018-04-22T05:17:16.000Z</time>
      </trkpt>
      <trkpt lat="44.10133" lon="7.36909">
        <ele>2143</ele>
        <time>2018-04-22T05:17:18.000Z</time>
      </trkpt>
      <trkpt lat="44.10134" lon="7.36911">
        <ele>2142</ele>
        <time>2018-04-22T05:17:23.000Z</time>
      </trkpt>
      <trkpt lat="44.10134" lon="7.36912">
        <ele>2142</ele>
        <time>2018-04-22T05:17:25.000Z</time>
      </trkpt>
      <trkpt lat="44.10134" lon="7.36914">
        <ele>2142</ele>
        <time>2018-04-22T05:17:28.000Z</time>
      </trkpt>
      <trkpt lat="44.10134" lon="7.36916">
        <ele>2142</ele>
        <time>2018-04-22T05:17:39.000Z</time>
      </trkpt>
      <trkpt lat="44.10134" lon="7.36916">
        <ele>2142</ele>
        <time>2018-04-22T05:17:55.000Z</time>
      </trkpt>
      <trkpt lat="44.10134" lon="7.36917">
        <ele>2142</ele>
        <time>2018-04-22T05:18:02.000Z</time>
      </trkpt>
      <trkpt lat="44.10134" lon="7.36917">
        <ele>2143</ele>
        <time>2018-04-22T05:18:10.000Z</time>
      </trkpt>
      <trkpt lat="44.10134" lon="7.3692">
        <ele>2155</ele>
        <time>2018-04-22T05:18:18.000Z</time>
      </trkpt>
      <trkpt lat="44.10133" lon="7.36925">
        <ele>2155</ele>
        <time>2018-04-22T05:18:23.000Z</time>
      </trkpt>
      <trkpt lat="44.10133" lon="7.36926">
        <ele>2156</ele>
        <time>2018-04-22T05:18:25.000Z</time>
      </trkpt>
      <trkpt lat="44.10132" lon="7.3693">
        <ele>2156</ele>
        <time>2018-04-22T05:18:30.000Z</time>
      </trkpt>
      <trkpt lat="44.10132" lon="7.36931">
        <ele>2157</ele>
        <time>2018-04-22T05:18:31.000Z</time>
      </trkpt>
      <trkpt lat="44.10131" lon="7.36934">
        <ele>2157</ele>
        <time>2018-04-22T05:18:35.000Z</time>
      </trkpt>
      <trkpt lat="44.10131" lon="7.36937">
        <ele>2158</ele>
        <time>2018-04-22T05:18:39.000Z</time>
      </trkpt>
      <trkpt lat="44.1013" lon="7.36941">
        <ele>2158</ele>
        <time>2018-04-22T05:18:44.000Z</time>
      </trkpt>
      <trkpt lat="44.1013" lon="7.36941">
        <ele>2158</ele>
        <time>2018-04-22T05:18:46.000Z</time>
      </trkpt>
      <trkpt lat="44.1013" lon="7.36944">
        <ele>2159</ele>
        <time>2018-04-22T05:18:49.000Z</time>
      </trkpt>
      <trkpt lat="44.1013" lon="7.36946">
        <ele>2159</ele>
        <time>2018-04-22T05:18:53.000Z</time>
      </trkpt>
      <trkpt lat="44.10129" lon="7.36951">
        <ele>2160</ele>
        <time>2018-04-22T05:18:58.000Z</time>
      </trkpt>
      <trkpt lat="44.10129" lon="7.36952">
        <ele>2160</ele>
        <time>2018-04-22T05:19:00.000Z</time>
      </trkpt>
      <trkpt lat="44.1013" lon="7.36954">
        <ele>2160</ele>
        <time>2018-04-22T05:19:04.000Z</time>
      </trkpt>
      <trkpt lat="44.1013" lon="7.36958">
        <ele>2161</ele>
        <time>2018-04-22T05:19:08.000Z</time>
      </trkpt>
      <trkpt lat="44.1013" lon="7.36959">
        <ele>2161</ele>
        <time>2018-04-22T05:19:09.000Z</time>
      </trkpt>
      <trkpt lat="44.10131" lon="7.36963">
        <ele>2161</ele>
        <time>2018-04-22T05:19:14.000Z</time>
      </trkpt>
      <trkpt lat="44.10131" lon="7.36964">
        <ele>2161</ele>
        <time>2018-04-22T05:19:17.000Z</time>
      </trkpt>
      <trkpt lat="44.10131" lon="7.36966">
        <ele>2161</ele>
        <time>2018-04-22T05:19:18.000Z</time>
      </trkpt>
      <trkpt lat="44.10133" lon="7.36967">
        <ele>2161</ele>
        <time>2018-04-22T05:19:21.000Z</time>
      </trkpt>
      <trkpt lat="44.10133" lon="7.36967">
        <ele>2161</ele>
        <time>2018-04-22T05:19:23.000Z</time>
      </trkpt>
      <trkpt lat="44.10135" lon="7.36971">
        <ele>2161</ele>
        <time>2018-04-22T05:19:30.000Z</time>
      </trkpt>
      <trkpt lat="44.10136" lon="7.36973">
        <ele>2161</ele>
        <time>2018-04-22T05:19:34.000Z</time>
      </trkpt>
      <trkpt lat="44.10136" lon="7.36974">
        <ele>2161</ele>
        <time>2018-04-22T05:19:35.000Z</time>
      </trkpt>
      <trkpt lat="44.10137" lon="7.36978">
        <ele>2162</ele>
        <time>2018-04-22T05:19:41.000Z</time>
      </trkpt>
      <trkpt lat="44.10137" lon="7.3698">
        <ele>2162</ele>
        <time>2018-04-22T05:19:43.000Z</time>
      </trkpt>
      <trkpt lat="44.10138" lon="7.36983">
        <ele>2162</ele>
        <time>2018-04-22T05:19:47.000Z</time>
      </trkpt>
      <trkpt lat="44.10139" lon="7.36986">
        <ele>2162</ele>
        <time>2018-04-22T05:19:52.000Z</time>
      </trkpt>
      <trkpt lat="44.10139" lon="7.36986">
        <ele>2162</ele>
        <time>2018-04-22T05:19:53.000Z</time>
      </trkpt>
      <trkpt lat="44.10139" lon="7.36988">
        <ele>2162</ele>
        <time>2018-04-22T05:19:57.000Z</time>
      </trkpt>
      <trkpt lat="44.10141" lon="7.36993">
        <ele>2162</ele>
        <time>2018-04-22T05:20:03.000Z</time>
      </trkpt>
      <trkpt lat="44.10141" lon="7.36996">
        <ele>2162</ele>
        <time>2018-04-22T05:20:07.000Z</time>
      </trkpt>
      <trkpt lat="44.10141" lon="7.36997">
        <ele>2162</ele>
        <time>2018-04-22T05:20:09.000Z</time>
      </trkpt>
      <trkpt lat="44.10142" lon="7.36999">
        <ele>2162</ele>
        <time>2018-04-22T05:20:12.000Z</time>
      </trkpt>
      <trkpt lat="44.10143" lon="7.37003">
        <ele>2174</ele>
        <time>2018-04-22T05:20:18.000Z</time>
      </trkpt>
      <trkpt lat="44.10143" lon="7.37003">
        <ele>2174</ele>
        <time>2018-04-22T05:20:19.000Z</time>
      </trkpt>
      <trkpt lat="44.10143" lon="7.37006">
        <ele>2175</ele>
        <time>2018-04-22T05:20:23.000Z</time>
      </trkpt>
      <trkpt lat="44.10143" lon="7.37007">
        <ele>2175</ele>
        <time>2018-04-22T05:20:25.000Z</time>
      </trkpt>
      <trkpt lat="44.10144" lon="7.3701">
        <ele>2175</ele>
        <time>2018-04-22T05:20:29.000Z</time>
      </trkpt>
      <trkpt lat="44.10144" lon="7.37011">
        <ele>2175</ele>
        <time>2018-04-22T05:20:32.000Z</time>
      </trkpt>
      <trkpt lat="44.10144" lon="7.37012">
        <ele>2175</ele>
        <time>2018-04-22T05:20:34.000Z</time>
      </trkpt>
      <trkpt lat="44.10145" lon="7.37015">
        <ele>2176</ele>
        <time>2018-04-22T05:20:39.000Z</time>
      </trkpt>
      <trkpt lat="44.10145" lon="7.37017">
        <ele>2176</ele>
        <time>2018-04-22T05:20:40.000Z</time>
      </trkpt>
      <trkpt lat="44.10147" lon="7.37019">
        <ele>2176</ele>
        <time>2018-04-22T05:20:44.000Z</time>
      </trkpt>
      <trkpt lat="44.10147" lon="7.37021">
        <ele>2176</ele>
        <time>2018-04-22T05:20:47.000Z</time>
      </trkpt>
      <trkpt lat="44.10148" lon="7.37022">
        <ele>2177</ele>
        <time>2018-04-22T05:20:49.000Z</time>
      </trkpt>
      <trkpt lat="44.10148" lon="7.37024">
        <ele>2177</ele>
        <time>2018-04-22T05:20:53.000Z</time>
      </trkpt>
      <trkpt lat="44.10148" lon="7.37027">
        <ele>2178</ele>
        <time>2018-04-22T05:20:57.000Z</time>
      </trkpt>
      <trkpt lat="44.10149" lon="7.37029">
        <ele>2178</ele>
        <time>2018-04-22T05:21:01.000Z</time>
      </trkpt>
      <trkpt lat="44.10149" lon="7.3703">
        <ele>2178</ele>
        <time>2018-04-22T05:21:02.000Z</time>
      </trkpt>
      <trkpt lat="44.10149" lon="7.37035">
        <ele>2179</ele>
        <time>2018-04-22T05:21:09.000Z</time>
      </trkpt>
      <trkpt lat="44.10149" lon="7.37035">
        <ele>2180</ele>
        <time>2018-04-22T05:21:14.000Z</time>
      </trkpt>
      <trkpt lat="44.10149" lon="7.37035">
        <ele>2180</ele>
        <time>2018-04-22T05:21:21.000Z</time>
      </trkpt>
      <trkpt lat="44.10149" lon="7.37035">
        <ele>2180</ele>
        <time>2018-04-22T05:21:22.000Z</time>
      </trkpt>
      <trkpt lat="44.10149" lon="7.37035">
        <ele>2180</ele>
        <time>2018-04-22T05:21:33.000Z</time>
      </trkpt>
      <trkpt lat="44.10148" lon="7.37035">
        <ele>2180</ele>
        <time>2018-04-22T05:21:47.000Z</time>
      </trkpt>
      <trkpt lat="44.10149" lon="7.37037">
        <ele>2180</ele>
        <time>2018-04-22T05:21:55.000Z</time>
      </trkpt>
      <trkpt lat="44.10149" lon="7.37036">
        <ele>2180</ele>
        <time>2018-04-22T05:22:09.000Z</time>
      </trkpt>
      <trkpt lat="44.10149" lon="7.37037">
        <ele>2180</ele>
        <time>2018-04-22T05:22:21.000Z</time>
      </trkpt>
      <trkpt lat="44.10149" lon="7.37042">
        <ele>2181</ele>
        <time>2018-04-22T05:22:28.000Z</time>
      </trkpt>
      <trkpt lat="44.10149" lon="7.37047">
        <ele>2182</ele>
        <time>2018-04-22T05:22:33.000Z</time>
      </trkpt>
      <trkpt lat="44.1015" lon="7.37053">
        <ele>2182</ele>
        <time>2018-04-22T05:22:39.000Z</time>
      </trkpt>
      <trkpt lat="44.10151" lon="7.37055">
        <ele>2182</ele>
        <time>2018-04-22T05:22:41.000Z</time>
      </trkpt>
      <trkpt lat="44.10151" lon="7.37057">
        <ele>2183</ele>
        <time>2018-04-22T05:22:43.000Z</time>
      </trkpt>
      <trkpt lat="44.10152" lon="7.37061">
        <ele>2183</ele>
        <time>2018-04-22T05:22:47.000Z</time>
      </trkpt>
      <trkpt lat="44.10152" lon="7.37062">
        <ele>2183</ele>
        <time>2018-04-22T05:22:48.000Z</time>
      </trkpt>
      <trkpt lat="44.10153" lon="7.37069">
        <ele>2183</ele>
        <time>2018-04-22T05:22:55.000Z</time>
      </trkpt>
      <trkpt lat="44.10154" lon="7.37071">
        <ele>2183</ele>
        <time>2018-04-22T05:22:57.000Z</time>
      </trkpt>
      <trkpt lat="44.10154" lon="7.37074">
        <ele>2182</ele>
        <time>2018-04-22T05:23:00.000Z</time>
      </trkpt>
      <trkpt lat="44.10155" lon="7.3708">
        <ele>2182</ele>
        <time>2018-04-22T05:23:06.000Z</time>
      </trkpt>
      <trkpt lat="44.10155" lon="7.37081">
        <ele>2182</ele>
        <time>2018-04-22T05:23:07.000Z</time>
      </trkpt>
      <trkpt lat="44.10155" lon="7.37085">
        <ele>2188</ele>
        <time>2018-04-22T05:23:11.000Z</time>
      </trkpt>
      <trkpt lat="44.10156" lon="7.37088">
        <ele>2188</ele>
        <time>2018-04-22T05:23:15.000Z</time>
      </trkpt>
      <trkpt lat="44.10157" lon="7.37092">
        <ele>2189</ele>
        <time>2018-04-22T05:23:19.000Z</time>
      </trkpt>
      <trkpt lat="44.10157" lon="7.37093">
        <ele>2190</ele>
        <time>2018-04-22T05:23:21.000Z</time>
      </trkpt>
      <trkpt lat="44.10157" lon="7.37095">
        <ele>2190</ele>
        <time>2018-04-22T05:23:23.000Z</time>
      </trkpt>
      <trkpt lat="44.10157" lon="7.37098">
        <ele>2191</ele>
        <time>2018-04-22T05:23:28.000Z</time>
      </trkpt>
      <trkpt lat="44.10159" lon="7.37103">
        <ele>2193</ele>
        <time>2018-04-22T05:23:33.000Z</time>
      </trkpt>
      <trkpt lat="44.10159" lon="7.37105">
        <ele>2193</ele>
        <time>2018-04-22T05:23:36.000Z</time>
      </trkpt>
      <trkpt lat="44.10159" lon="7.37107">
        <ele>2194</ele>
        <time>2018-04-22T05:23:38.000Z</time>
      </trkpt>
      <trkpt lat="44.1016" lon="7.37112">
        <ele>2195</ele>
        <time>2018-04-22T05:23:44.000Z</time>
      </trkpt>
      <trkpt lat="44.1016" lon="7.37115">
        <ele>2196</ele>
        <time>2018-04-22T05:23:49.000Z</time>
      </trkpt>
      <trkpt lat="44.1016" lon="7.37116">
        <ele>2196</ele>
        <time>2018-04-22T05:23:50.000Z</time>
      </trkpt>
      <trkpt lat="44.10161" lon="7.37119">
        <ele>2197</ele>
        <time>2018-04-22T05:23:54.000Z</time>
      </trkpt>
      <trkpt lat="44.10161" lon="7.37122">
        <ele>2197</ele>
        <time>2018-04-22T05:23:57.000Z</time>
      </trkpt>
      <trkpt lat="44.10161" lon="7.37123">
        <ele>2197</ele>
        <time>2018-04-22T05:23:59.000Z</time>
      </trkpt>
      <trkpt lat="44.10162" lon="7.37126">
        <ele>2198</ele>
        <time>2018-04-22T05:24:04.000Z</time>
      </trkpt>
      <trkpt lat="44.10163" lon="7.37128">
        <ele>2198</ele>
        <time>2018-04-22T05:24:08.000Z</time>
      </trkpt>
      <trkpt lat="44.10163" lon="7.37131">
        <ele>2198</ele>
        <time>2018-04-22T05:24:11.000Z</time>
      </trkpt>
      <trkpt lat="44.10164" lon="7.37133">
        <ele>2198</ele>
        <time>2018-04-22T05:24:15.000Z</time>
      </trkpt>
      <trkpt lat="44.10164" lon="7.37135">
        <ele>2198</ele>
        <time>2018-04-22T05:24:18.000Z</time>
      </trkpt>
      <trkpt lat="44.10165" lon="7.37136">
        <ele>2198</ele>
        <time>2018-04-22T05:24:21.000Z</time>
      </trkpt>
      <trkpt lat="44.10166" lon="7.37139">
        <ele>2198</ele>
        <time>2018-04-22T05:24:25.000Z</time>
      </trkpt>
      <trkpt lat="44.10167" lon="7.37141">
        <ele>2198</ele>
        <time>2018-04-22T05:24:27.000Z</time>
      </trkpt>
      <trkpt lat="44.10168" lon="7.37144">
        <ele>2184</ele>
        <time>2018-04-22T05:24:31.000Z</time>
      </trkpt>
      <trkpt lat="44.10169" lon="7.37146">
        <ele>2185</ele>
        <time>2018-04-22T05:24:35.000Z</time>
      </trkpt>
      <trkpt lat="44.10169" lon="7.37147">
        <ele>2185</ele>
        <time>2018-04-22T05:24:36.000Z</time>
      </trkpt>
      <trkpt lat="44.1017" lon="7.37151">
        <ele>2186</ele>
        <time>2018-04-22T05:24:42.000Z</time>
      </trkpt>
      <trkpt lat="44.10171" lon="7.37152">
        <ele>2186</ele>
        <time>2018-04-22T05:24:44.000Z</time>
      </trkpt>
      <trkpt lat="44.10172" lon="7.37156">
        <ele>2188</ele>
        <time>2018-04-22T05:24:49.000Z</time>
      </trkpt>
      <trkpt lat="44.10172" lon="7.37156">
        <ele>2188</ele>
        <time>2018-04-22T05:24:52.000Z</time>
      </trkpt>
      <trkpt lat="44.10173" lon="7.37158">
        <ele>2188</ele>
        <time>2018-04-22T05:24:53.000Z</time>
      </trkpt>
      <trkpt lat="44.10174" lon="7.37161">
        <ele>2189</ele>
        <time>2018-04-22T05:24:59.000Z</time>
      </trkpt>
      <trkpt lat="44.10174" lon="7.37163">
        <ele>2190</ele>
        <time>2018-04-22T05:25:01.000Z</time>
      </trkpt>
      <trkpt lat="44.10175" lon="7.37166">
        <ele>2189</ele>
        <time>2018-04-22T05:25:05.000Z</time>
      </trkpt>
      <trkpt lat="44.10176" lon="7.37169">
        <ele>2194</ele>
        <time>2018-04-22T05:25:09.000Z</time>
      </trkpt>
      <trkpt lat="44.10177" lon="7.37172">
        <ele>2193</ele>
        <time>2018-04-22T05:25:15.000Z</time>
      </trkpt>
      <trkpt lat="44.10178" lon="7.37175">
        <ele>2193</ele>
        <time>2018-04-22T05:25:18.000Z</time>
      </trkpt>
      <trkpt lat="44.10178" lon="7.37177">
        <ele>2193</ele>
        <time>2018-04-22T05:25:20.000Z</time>
      </trkpt>
      <trkpt lat="44.10179" lon="7.37179">
        <ele>2193</ele>
        <time>2018-04-22T05:25:26.000Z</time>
      </trkpt>
      <trkpt lat="44.10179" lon="7.37182">
        <ele>2193</ele>
        <time>2018-04-22T05:25:27.000Z</time>
      </trkpt>
      <trkpt lat="44.1018" lon="7.37184">
        <ele>2193</ele>
        <time>2018-04-22T05:25:31.000Z</time>
      </trkpt>
      <trkpt lat="44.1018" lon="7.37187">
        <ele>2193</ele>
        <time>2018-04-22T05:25:34.000Z</time>
      </trkpt>
      <trkpt lat="44.1018" lon="7.37187">
        <ele>2193</ele>
        <time>2018-04-22T05:25:37.000Z</time>
      </trkpt>
      <trkpt lat="44.10181" lon="7.37192">
        <ele>2193</ele>
        <time>2018-04-22T05:25:42.000Z</time>
      </trkpt>
      <trkpt lat="44.10182" lon="7.37196">
        <ele>2193</ele>
        <time>2018-04-22T05:25:47.000Z</time>
      </trkpt>
      <trkpt lat="44.10182" lon="7.37198">
        <ele>2193</ele>
        <time>2018-04-22T05:25:50.000Z</time>
      </trkpt>
      <trkpt lat="44.10182" lon="7.37199">
        <ele>2194</ele>
        <time>2018-04-22T05:25:52.000Z</time>
      </trkpt>
      <trkpt lat="44.10183" lon="7.37204">
        <ele>2194</ele>
        <time>2018-04-22T05:25:58.000Z</time>
      </trkpt>
      <trkpt lat="44.10183" lon="7.37207">
        <ele>2194</ele>
        <time>2018-04-22T05:26:04.000Z</time>
      </trkpt>
      <trkpt lat="44.10183" lon="7.37208">
        <ele>2195</ele>
        <time>2018-04-22T05:26:05.000Z</time>
      </trkpt>
      <trkpt lat="44.10183" lon="7.37211">
        <ele>2195</ele>
        <time>2018-04-22T05:26:09.000Z</time>
      </trkpt>
      <trkpt lat="44.10183" lon="7.37212">
        <ele>2195</ele>
        <time>2018-04-22T05:26:13.000Z</time>
      </trkpt>
      <trkpt lat="44.10183" lon="7.37214">
        <ele>2195</ele>
        <time>2018-04-22T05:26:15.000Z</time>
      </trkpt>
      <trkpt lat="44.10183" lon="7.37219">
        <ele>2196</ele>
        <time>2018-04-22T05:26:20.000Z</time>
      </trkpt>
      <trkpt lat="44.10183" lon="7.37218">
        <ele>2196</ele>
        <time>2018-04-22T05:26:21.000Z</time>
      </trkpt>
      <trkpt lat="44.10183" lon="7.37222">
        <ele>2197</ele>
        <time>2018-04-22T05:26:26.000Z</time>
      </trkpt>
      <trkpt lat="44.10183" lon="7.37226">
        <ele>2198</ele>
        <time>2018-04-22T05:26:30.000Z</time>
      </trkpt>
      <trkpt lat="44.10183" lon="7.37225">
        <ele>2198</ele>
        <time>2018-04-22T05:26:31.000Z</time>
      </trkpt>
      <trkpt lat="44.10183" lon="7.3723">
        <ele>2199</ele>
        <time>2018-04-22T05:26:36.000Z</time>
      </trkpt>
      <trkpt lat="44.10182" lon="7.3723">
        <ele>2199</ele>
        <time>2018-04-22T05:26:37.000Z</time>
      </trkpt>
      <trkpt lat="44.10182" lon="7.37232">
        <ele>2200</ele>
        <time>2018-04-22T05:26:42.000Z</time>
      </trkpt>
      <trkpt lat="44.10183" lon="7.37236">
        <ele>2201</ele>
        <time>2018-04-22T05:26:46.000Z</time>
      </trkpt>
      <trkpt lat="44.10183" lon="7.37237">
        <ele>2201</ele>
        <time>2018-04-22T05:26:48.000Z</time>
      </trkpt>
      <trkpt lat="44.10183" lon="7.3724">
        <ele>2201</ele>
        <time>2018-04-22T05:26:52.000Z</time>
      </trkpt>
      <trkpt lat="44.10183" lon="7.37241">
        <ele>2202</ele>
        <time>2018-04-22T05:26:53.000Z</time>
      </trkpt>
      <trkpt lat="44.10183" lon="7.37243">
        <ele>2202</ele>
        <time>2018-04-22T05:26:58.000Z</time>
      </trkpt>
      <trkpt lat="44.10183" lon="7.37245">
        <ele>2202</ele>
        <time>2018-04-22T05:27:00.000Z</time>
      </trkpt>
      <trkpt lat="44.10183" lon="7.37248">
        <ele>2203</ele>
        <time>2018-04-22T05:27:04.000Z</time>
      </trkpt>
      <trkpt lat="44.10182" lon="7.37251">
        <ele>2212</ele>
        <time>2018-04-22T05:27:09.000Z</time>
      </trkpt>
      <trkpt lat="44.10183" lon="7.3725">
        <ele>2212</ele>
        <time>2018-04-22T05:27:10.000Z</time>
      </trkpt>
      <trkpt lat="44.10182" lon="7.37253">
        <ele>2212</ele>
        <time>2018-04-22T05:27:15.000Z</time>
      </trkpt>
      <trkpt lat="44.10182" lon="7.37255">
        <ele>2212</ele>
        <time>2018-04-22T05:27:16.000Z</time>
      </trkpt>
      <trkpt lat="44.10183" lon="7.37258">
        <ele>2212</ele>
        <time>2018-04-22T05:27:20.000Z</time>
      </trkpt>
      <trkpt lat="44.10182" lon="7.37258">
        <ele>2212</ele>
        <time>2018-04-22T05:27:21.000Z</time>
      </trkpt>
      <trkpt lat="44.10182" lon="7.37261">
        <ele>2212</ele>
        <time>2018-04-22T05:27:26.000Z</time>
      </trkpt>
      <trkpt lat="44.10182" lon="7.37261">
        <ele>2212</ele>
        <time>2018-04-22T05:27:34.000Z</time>
      </trkpt>
      <trkpt lat="44.10182" lon="7.37261">
        <ele>2212</ele>
        <time>2018-04-22T05:27:45.000Z</time>
      </trkpt>
      <trkpt lat="44.10182" lon="7.37262">
        <ele>2212</ele>
        <time>2018-04-22T05:27:51.000Z</time>
      </trkpt>
      <trkpt lat="44.10178" lon="7.37262">
        <ele>2213</ele>
        <time>2018-04-22T05:27:57.000Z</time>
      </trkpt>
      <trkpt lat="44.10173" lon="7.37259">
        <ele>2213</ele>
        <time>2018-04-22T05:28:05.000Z</time>
      </trkpt>
      <trkpt lat="44.10172" lon="7.37259">
        <ele>2213</ele>
        <time>2018-04-22T05:28:06.000Z</time>
      </trkpt>
      <trkpt lat="44.10167" lon="7.37257">
        <ele>2213</ele>
        <time>2018-04-22T05:28:15.000Z</time>
      </trkpt>
      <trkpt lat="44.10167" lon="7.37257">
        <ele>2213</ele>
        <time>2018-04-22T05:28:16.000Z</time>
      </trkpt>
      <trkpt lat="44.10163" lon="7.37257">
        <ele>2220</ele>
        <time>2018-04-22T05:28:24.000Z</time>
      </trkpt>
      <trkpt lat="44.10163" lon="7.37259">
        <ele>2222</ele>
        <time>2018-04-22T05:28:29.000Z</time>
      </trkpt>
      <trkpt lat="44.10163" lon="7.37261">
        <ele>2222</ele>
        <time>2018-04-22T05:28:30.000Z</time>
      </trkpt>
      <trkpt lat="44.10163" lon="7.37263">
        <ele>2224</ele>
        <time>2018-04-22T05:28:33.000Z</time>
      </trkpt>
      <trkpt lat="44.10163" lon="7.37265">
        <ele>2225</ele>
        <time>2018-04-22T05:28:37.000Z</time>
      </trkpt>
      <trkpt lat="44.10163" lon="7.37267">
        <ele>2226</ele>
        <time>2018-04-22T05:28:38.000Z</time>
      </trkpt>
      <trkpt lat="44.10162" lon="7.37272">
        <ele>2227</ele>
        <time>2018-04-22T05:28:43.000Z</time>
      </trkpt>
      <trkpt lat="44.10162" lon="7.37275">
        <ele>2229</ele>
        <time>2018-04-22T05:28:47.000Z</time>
      </trkpt>
      <trkpt lat="44.10162" lon="7.37276">
        <ele>2229</ele>
        <time>2018-04-22T05:28:48.000Z</time>
      </trkpt>
      <trkpt lat="44.10162" lon="7.3728">
        <ele>2230</ele>
        <time>2018-04-22T05:28:54.000Z</time>
      </trkpt>
      <trkpt lat="44.10163" lon="7.37281">
        <ele>2230</ele>
        <time>2018-04-22T05:28:55.000Z</time>
      </trkpt>
      <trkpt lat="44.10163" lon="7.37284">
        <ele>2231</ele>
        <time>2018-04-22T05:28:59.000Z</time>
      </trkpt>
      <trkpt lat="44.10164" lon="7.37287">
        <ele>2232</ele>
        <time>2018-04-22T05:29:03.000Z</time>
      </trkpt>
      <trkpt lat="44.10164" lon="7.37292">
        <ele>2233</ele>
        <time>2018-04-22T05:29:09.000Z</time>
      </trkpt>
      <trkpt lat="44.10164" lon="7.37293">
        <ele>2233</ele>
        <time>2018-04-22T05:29:10.000Z</time>
      </trkpt>
      <trkpt lat="44.10165" lon="7.37294">
        <ele>2233</ele>
        <time>2018-04-22T05:29:13.000Z</time>
      </trkpt>
      <trkpt lat="44.10165" lon="7.37297">
        <ele>2233</ele>
        <time>2018-04-22T05:29:17.000Z</time>
      </trkpt>
      <trkpt lat="44.10166" lon="7.37302">
        <ele>2234</ele>
        <time>2018-04-22T05:29:21.000Z</time>
      </trkpt>
      <trkpt lat="44.10166" lon="7.37302">
        <ele>2234</ele>
        <time>2018-04-22T05:29:22.000Z</time>
      </trkpt>
      <trkpt lat="44.10167" lon="7.37306">
        <ele>2220</ele>
        <time>2018-04-22T05:29:28.000Z</time>
      </trkpt>
      <trkpt lat="44.10168" lon="7.3731">
        <ele>2221</ele>
        <time>2018-04-22T05:29:31.000Z</time>
      </trkpt>
      <trkpt lat="44.10168" lon="7.3731">
        <ele>2222</ele>
        <time>2018-04-22T05:29:32.000Z</time>
      </trkpt>
      <trkpt lat="44.10168" lon="7.37311">
        <ele>2222</ele>
        <time>2018-04-22T05:29:33.000Z</time>
      </trkpt>
      <trkpt lat="44.10169" lon="7.37314">
        <ele>2223</ele>
        <time>2018-04-22T05:29:37.000Z</time>
      </trkpt>
      <trkpt lat="44.10169" lon="7.37316">
        <ele>2224</ele>
        <time>2018-04-22T05:29:39.000Z</time>
      </trkpt>
      <trkpt lat="44.10169" lon="7.37318">
        <ele>2225</ele>
        <time>2018-04-22T05:29:41.000Z</time>
      </trkpt>
      <trkpt lat="44.10166" lon="7.37318">
        <ele>2236</ele>
        <time>2018-04-22T05:29:46.000Z</time>
      </trkpt>
      <trkpt lat="44.10165" lon="7.37318">
        <ele>2236</ele>
        <time>2018-04-22T05:29:47.000Z</time>
      </trkpt>
      <trkpt lat="44.10164" lon="7.37317">
        <ele>2236</ele>
        <time>2018-04-22T05:29:49.000Z</time>
      </trkpt>
      <trkpt lat="44.10163" lon="7.37317">
        <ele>2236</ele>
        <time>2018-04-22T05:29:51.000Z</time>
      </trkpt>
      <trkpt lat="44.10162" lon="7.37317">
        <ele>2236</ele>
        <time>2018-04-22T05:29:52.000Z</time>
      </trkpt>
      <trkpt lat="44.10158" lon="7.37315">
        <ele>2236</ele>
        <time>2018-04-22T05:29:58.000Z</time>
      </trkpt>
      <trkpt lat="44.10156" lon="7.37314">
        <ele>2236</ele>
        <time>2018-04-22T05:30:02.000Z</time>
      </trkpt>
      <trkpt lat="44.10153" lon="7.37313">
        <ele>2236</ele>
        <time>2018-04-22T05:30:07.000Z</time>
      </trkpt>
      <trkpt lat="44.10149" lon="7.37311">
        <ele>2236</ele>
        <time>2018-04-22T05:30:15.000Z</time>
      </trkpt>
      <trkpt lat="44.10149" lon="7.37311">
        <ele>2236</ele>
        <time>2018-04-22T05:30:16.000Z</time>
      </trkpt>
      <trkpt lat="44.10148" lon="7.37314">
        <ele>2236</ele>
        <time>2018-04-22T05:30:22.000Z</time>
      </trkpt>
      <trkpt lat="44.10149" lon="7.37315">
        <ele>2236</ele>
        <time>2018-04-22T05:30:25.000Z</time>
      </trkpt>
      <trkpt lat="44.10149" lon="7.37317">
        <ele>2236</ele>
        <time>2018-04-22T05:30:26.000Z</time>
      </trkpt>
      <trkpt lat="44.1015" lon="7.3732">
        <ele>2236</ele>
        <time>2018-04-22T05:30:30.000Z</time>
      </trkpt>
      <trkpt lat="44.1015" lon="7.37322">
        <ele>2236</ele>
        <time>2018-04-22T05:30:32.000Z</time>
      </trkpt>
      <trkpt lat="44.10151" lon="7.37323">
        <ele>2237</ele>
        <time>2018-04-22T05:30:34.000Z</time>
      </trkpt>
      <trkpt lat="44.10152" lon="7.37327">
        <ele>2237</ele>
        <time>2018-04-22T05:30:39.000Z</time>
      </trkpt>
      <trkpt lat="44.10152" lon="7.37328">
        <ele>2237</ele>
        <time>2018-04-22T05:30:40.000Z</time>
      </trkpt>
      <trkpt lat="44.10153" lon="7.37332">
        <ele>2237</ele>
        <time>2018-04-22T05:30:46.000Z</time>
      </trkpt>
      <trkpt lat="44.10153" lon="7.37334">
        <ele>2245</ele>
        <time>2018-04-22T05:30:48.000Z</time>
      </trkpt>
      <trkpt lat="44.10154" lon="7.37337">
        <ele>2245</ele>
        <time>2018-04-22T05:30:51.000Z</time>
      </trkpt>
      <trkpt lat="44.10155" lon="7.3734">
        <ele>2245</ele>
        <time>2018-04-22T05:30:55.000Z</time>
      </trkpt>
      <trkpt lat="44.10156" lon="7.37341">
        <ele>2245</ele>
        <time>2018-04-22T05:30:57.000Z</time>
      </trkpt>
      <trkpt lat="44.10156" lon="7.37343">
        <ele>2246</ele>
        <time>2018-04-22T05:31:00.000Z</time>
      </trkpt>
      <trkpt lat="44.10158" lon="7.37347">
        <ele>2247</ele>
        <time>2018-04-22T05:31:06.000Z</time>
      </trkpt>
      <trkpt lat="44.10158" lon="7.37347">
        <ele>2247</ele>
        <time>2018-04-22T05:31:07.000Z</time>
      </trkpt>
      <trkpt lat="44.10159" lon="7.3735">
        <ele>2248</ele>
        <time>2018-04-22T05:31:11.000Z</time>
      </trkpt>
      <trkpt lat="44.10161" lon="7.37353">
        <ele>2249</ele>
        <time>2018-04-22T05:31:15.000Z</time>
      </trkpt>
      <trkpt lat="44.10161" lon="7.37354">
        <ele>2249</ele>
        <time>2018-04-22T05:31:18.000Z</time>
      </trkpt>
      <trkpt lat="44.10163" lon="7.37356">
        <ele>2250</ele>
        <time>2018-04-22T05:31:22.000Z</time>
      </trkpt>
      <trkpt lat="44.10164" lon="7.37358">
        <ele>2250</ele>
        <time>2018-04-22T05:31:25.000Z</time>
      </trkpt>
      <trkpt lat="44.10165" lon="7.37361">
        <ele>2251</ele>
        <time>2018-04-22T05:31:28.000Z</time>
      </trkpt>
      <trkpt lat="44.10166" lon="7.37363">
        <ele>2252</ele>
        <time>2018-04-22T05:31:32.000Z</time>
      </trkpt>
      <trkpt lat="44.10166" lon="7.37363">
        <ele>2252</ele>
        <time>2018-04-22T05:31:33.000Z</time>
      </trkpt>
      <trkpt lat="44.10167" lon="7.37365">
        <ele>2252</ele>
        <time>2018-04-22T05:31:37.000Z</time>
      </trkpt>
      <trkpt lat="44.10165" lon="7.37365">
        <ele>2252</ele>
        <time>2018-04-22T05:31:43.000Z</time>
      </trkpt>
      <trkpt lat="44.10161" lon="7.37366">
        <ele>2253</ele>
        <time>2018-04-22T05:31:49.000Z</time>
      </trkpt>
      <trkpt lat="44.10159" lon="7.37366">
        <ele>2253</ele>
        <time>2018-04-22T05:31:52.000Z</time>
      </trkpt>
      <trkpt lat="44.10157" lon="7.37366">
        <ele>2253</ele>
        <time>2018-04-22T05:31:57.000Z</time>
      </trkpt>
      <trkpt lat="44.10154" lon="7.37366">
        <ele>2254</ele>
        <time>2018-04-22T05:32:01.000Z</time>
      </trkpt>
      <trkpt lat="44.10154" lon="7.37366">
        <ele>2253</ele>
        <time>2018-04-22T05:32:03.000Z</time>
      </trkpt>
      <trkpt lat="44.10151" lon="7.37365">
        <ele>2254</ele>
        <time>2018-04-22T05:32:08.000Z</time>
      </trkpt>
      <trkpt lat="44.1015" lon="7.37365">
        <ele>2254</ele>
        <time>2018-04-22T05:32:10.000Z</time>
      </trkpt>
      <trkpt lat="44.10145" lon="7.37365">
        <ele>2254</ele>
        <time>2018-04-22T05:32:18.000Z</time>
      </trkpt>
      <trkpt lat="44.10144" lon="7.37365">
        <ele>2254</ele>
        <time>2018-04-22T05:32:20.000Z</time>
      </trkpt>
      <trkpt lat="44.10141" lon="7.37364">
        <ele>2255</ele>
        <time>2018-04-22T05:32:26.000Z</time>
      </trkpt>
      <trkpt lat="44.10137" lon="7.37364">
        <ele>2255</ele>
        <time>2018-04-22T05:32:32.000Z</time>
      </trkpt>
      <trkpt lat="44.10136" lon="7.37364">
        <ele>2255</ele>
        <time>2018-04-22T05:32:35.000Z</time>
      </trkpt>
      <trkpt lat="44.10131" lon="7.37363">
        <ele>2256</ele>
        <time>2018-04-22T05:32:42.000Z</time>
      </trkpt>
      <trkpt lat="44.10131" lon="7.37363">
        <ele>2256</ele>
        <time>2018-04-22T05:32:43.000Z</time>
      </trkpt>
      <trkpt lat="44.10131" lon="7.37364">
        <ele>2256</ele>
        <time>2018-04-22T05:32:48.000Z</time>
      </trkpt>
      <trkpt lat="44.10132" lon="7.37365">
        <ele>2256</ele>
        <time>2018-04-22T05:32:52.000Z</time>
      </trkpt>
      <trkpt lat="44.10133" lon="7.37367">
        <ele>2256</ele>
        <time>2018-04-22T05:32:55.000Z</time>
      </trkpt>
      <trkpt lat="44.10134" lon="7.37371">
        <ele>2257</ele>
        <time>2018-04-22T05:32:59.000Z</time>
      </trkpt>
      <trkpt lat="44.10136" lon="7.37374">
        <ele>2257</ele>
        <time>2018-04-22T05:33:04.000Z</time>
      </trkpt>
      <trkpt lat="44.10136" lon="7.37375">
        <ele>2257</ele>
        <time>2018-04-22T05:33:06.000Z</time>
      </trkpt>
      <trkpt lat="44.10138" lon="7.37378">
        <ele>2258</ele>
        <time>2018-04-22T05:33:12.000Z</time>
      </trkpt>
      <trkpt lat="44.1014" lon="7.37381">
        <ele>2258</ele>
        <time>2018-04-22T05:33:17.000Z</time>
      </trkpt>
      <trkpt lat="44.10142" lon="7.37384">
        <ele>2258</ele>
        <time>2018-04-22T05:33:22.000Z</time>
      </trkpt>
      <trkpt lat="44.10142" lon="7.37385">
        <ele>2258</ele>
        <time>2018-04-22T05:33:23.000Z</time>
      </trkpt>
      <trkpt lat="44.10144" lon="7.37387">
        <ele>2259</ele>
        <time>2018-04-22T05:33:28.000Z</time>
      </trkpt>
      <trkpt lat="44.10145" lon="7.37388">
        <ele>2259</ele>
        <time>2018-04-22T05:33:30.000Z</time>
      </trkpt>
      <trkpt lat="44.10146" lon="7.37389">
        <ele>2259</ele>
        <time>2018-04-22T05:33:32.000Z</time>
      </trkpt>
      <trkpt lat="44.10147" lon="7.37391">
        <ele>2259</ele>
        <time>2018-04-22T05:33:38.000Z</time>
      </trkpt>
      <trkpt lat="44.10148" lon="7.37392">
        <ele>2259</ele>
        <time>2018-04-22T05:33:40.000Z</time>
      </trkpt>
      <trkpt lat="44.10149" lon="7.37394">
        <ele>2259</ele>
        <time>2018-04-22T05:33:43.000Z</time>
      </trkpt>
      <trkpt lat="44.10151" lon="7.37395">
        <ele>2260</ele>
        <time>2018-04-22T05:33:46.000Z</time>
      </trkpt>
      <trkpt lat="44.10151" lon="7.37396">
        <ele>2260</ele>
        <time>2018-04-22T05:33:49.000Z</time>
      </trkpt>
      <trkpt lat="44.10153" lon="7.37397">
        <ele>2260</ele>
        <time>2018-04-22T05:33:53.000Z</time>
      </trkpt>
      <trkpt lat="44.10154" lon="7.37399">
        <ele>2260</ele>
        <time>2018-04-22T05:33:56.000Z</time>
      </trkpt>
      <trkpt lat="44.10155" lon="7.374">
        <ele>2260</ele>
        <time>2018-04-22T05:33:59.000Z</time>
      </trkpt>
      <trkpt lat="44.10156" lon="7.374">
        <ele>2260</ele>
        <time>2018-04-22T05:34:03.000Z</time>
      </trkpt>
      <trkpt lat="44.10157" lon="7.37401">
        <ele>2260</ele>
        <time>2018-04-22T05:34:04.000Z</time>
      </trkpt>
      <trkpt lat="44.10159" lon="7.37403">
        <ele>2261</ele>
        <time>2018-04-22T05:34:09.000Z</time>
      </trkpt>
      <trkpt lat="44.1016" lon="7.37404">
        <ele>2261</ele>
        <time>2018-04-22T05:34:14.000Z</time>
      </trkpt>
      <trkpt lat="44.1016" lon="7.37404">
        <ele>2261</ele>
        <time>2018-04-22T05:34:15.000Z</time>
      </trkpt>
      <trkpt lat="44.10161" lon="7.37405">
        <ele>2261</ele>
        <time>2018-04-22T05:34:21.000Z</time>
      </trkpt>
      <trkpt lat="44.10161" lon="7.37405">
        <ele>2261</ele>
        <time>2018-04-22T05:34:30.000Z</time>
      </trkpt>
      <trkpt lat="44.10162" lon="7.37406">
        <ele>2261</ele>
        <time>2018-04-22T05:34:43.000Z</time>
      </trkpt>
      <trkpt lat="44.10163" lon="7.37407">
        <ele>2261</ele>
        <time>2018-04-22T05:34:48.000Z</time>
      </trkpt>
      <trkpt lat="44.10164" lon="7.37408">
        <ele>2261</ele>
        <time>2018-04-22T05:34:49.000Z</time>
      </trkpt>
      <trkpt lat="44.10165" lon="7.37409">
        <ele>2262</ele>
        <time>2018-04-22T05:34:53.000Z</time>
      </trkpt>
      <trkpt lat="44.10166" lon="7.3741">
        <ele>2262</ele>
        <time>2018-04-22T05:34:57.000Z</time>
      </trkpt>
      <trkpt lat="44.10166" lon="7.37411">
        <ele>2262</ele>
        <time>2018-04-22T05:34:59.000Z</time>
      </trkpt>
      <trkpt lat="44.10169" lon="7.37414">
        <ele>2259</ele>
        <time>2018-04-22T05:35:05.000Z</time>
      </trkpt>
      <trkpt lat="44.10171" lon="7.37415">
        <ele>2259</ele>
        <time>2018-04-22T05:35:09.000Z</time>
      </trkpt>
      <trkpt lat="44.10172" lon="7.37416">
        <ele>2258</ele>
        <time>2018-04-22T05:35:11.000Z</time>
      </trkpt>
      <trkpt lat="44.10174" lon="7.37417">
        <ele>2265</ele>
        <time>2018-04-22T05:35:15.000Z</time>
      </trkpt>
      <trkpt lat="44.10175" lon="7.37419">
        <ele>2265</ele>
        <time>2018-04-22T05:35:19.000Z</time>
      </trkpt>
      <trkpt lat="44.10178" lon="7.37422">
        <ele>2266</ele>
        <time>2018-04-22T05:35:25.000Z</time>
      </trkpt>
      <trkpt lat="44.10179" lon="7.37423">
        <ele>2267</ele>
        <time>2018-04-22T05:35:27.000Z</time>
      </trkpt>
      <trkpt lat="44.1018" lon="7.37424">
        <ele>2267</ele>
        <time>2018-04-22T05:35:29.000Z</time>
      </trkpt>
      <trkpt lat="44.10182" lon="7.37426">
        <ele>2267</ele>
        <time>2018-04-22T05:35:33.000Z</time>
      </trkpt>
      <trkpt lat="44.10182" lon="7.37426">
        <ele>2267</ele>
        <time>2018-04-22T05:35:35.000Z</time>
      </trkpt>
      <trkpt lat="44.10182" lon="7.37427">
        <ele>2267</ele>
        <time>2018-04-22T05:35:39.000Z</time>
      </trkpt>
      <trkpt lat="44.10184" lon="7.37428">
        <ele>2268</ele>
        <time>2018-04-22T05:35:43.000Z</time>
      </trkpt>
      <trkpt lat="44.10186" lon="7.3743">
        <ele>2268</ele>
        <time>2018-04-22T05:35:46.000Z</time>
      </trkpt>
      <trkpt lat="44.10187" lon="7.37431">
        <ele>2268</ele>
        <time>2018-04-22T05:35:49.000Z</time>
      </trkpt>
      <trkpt lat="44.10188" lon="7.37432">
        <ele>2268</ele>
        <time>2018-04-22T05:35:53.000Z</time>
      </trkpt>
      <trkpt lat="44.10191" lon="7.37434">
        <ele>2269</ele>
        <time>2018-04-22T05:35:58.000Z</time>
      </trkpt>
      <trkpt lat="44.10192" lon="7.37435">
        <ele>2269</ele>
        <time>2018-04-22T05:36:01.000Z</time>
      </trkpt>
      <trkpt lat="44.10193" lon="7.37436">
        <ele>2269</ele>
        <time>2018-04-22T05:36:04.000Z</time>
      </trkpt>
      <trkpt lat="44.10194" lon="7.37437">
        <ele>2269</ele>
        <time>2018-04-22T05:36:08.000Z</time>
      </trkpt>
      <trkpt lat="44.10195" lon="7.37439">
        <ele>2269</ele>
        <time>2018-04-22T05:36:10.000Z</time>
      </trkpt>
      <trkpt lat="44.10197" lon="7.3744">
        <ele>2269</ele>
        <time>2018-04-22T05:36:14.000Z</time>
      </trkpt>
      <trkpt lat="44.10199" lon="7.37442">
        <ele>2270</ele>
        <time>2018-04-22T05:36:19.000Z</time>
      </trkpt>
      <trkpt lat="44.10199" lon="7.37442">
        <ele>2270</ele>
        <time>2018-04-22T05:36:20.000Z</time>
      </trkpt>
      <trkpt lat="44.10201" lon="7.37444">
        <ele>2270</ele>
        <time>2018-04-22T05:36:25.000Z</time>
      </trkpt>
      <trkpt lat="44.10201" lon="7.37444">
        <ele>2270</ele>
        <time>2018-04-22T05:36:27.000Z</time>
      </trkpt>
      <trkpt lat="44.102" lon="7.37444">
        <ele>2270</ele>
        <time>2018-04-22T05:36:43.000Z</time>
      </trkpt>
      <trkpt lat="44.102" lon="7.37443">
        <ele>2270</ele>
        <time>2018-04-22T05:37:08.000Z</time>
      </trkpt>
      <trkpt lat="44.10201" lon="7.37444">
        <ele>2270</ele>
        <time>2018-04-22T05:37:20.000Z</time>
      </trkpt>
      <trkpt lat="44.10205" lon="7.37447">
        <ele>2270</ele>
        <time>2018-04-22T05:37:26.000Z</time>
      </trkpt>
      <trkpt lat="44.10206" lon="7.37448">
        <ele>2270</ele>
        <time>2018-04-22T05:37:30.000Z</time>
      </trkpt>
      <trkpt lat="44.10207" lon="7.37449">
        <ele>2270</ele>
        <time>2018-04-22T05:37:34.000Z</time>
      </trkpt>
      <trkpt lat="44.10208" lon="7.3745">
        <ele>2270</ele>
        <time>2018-04-22T05:37:35.000Z</time>
      </trkpt>
      <trkpt lat="44.1021" lon="7.37451">
        <ele>2270</ele>
        <time>2018-04-22T05:37:39.000Z</time>
      </trkpt>
      <trkpt lat="44.10212" lon="7.37452">
        <ele>2270</ele>
        <time>2018-04-22T05:37:44.000Z</time>
      </trkpt>
      <trkpt lat="44.10213" lon="7.37453">
        <ele>2271</ele>
        <time>2018-04-22T05:37:46.000Z</time>
      </trkpt>
      <trkpt lat="44.10214" lon="7.37455">
        <ele>2271</ele>
        <time>2018-04-22T05:37:50.000Z</time>
      </trkpt>
      <trkpt lat="44.10214" lon="7.37456">
        <ele>2271</ele>
        <time>2018-04-22T05:37:52.000Z</time>
      </trkpt>
      <trkpt lat="44.10214" lon="7.37458">
        <ele>2272</ele>
        <time>2018-04-22T05:37:55.000Z</time>
      </trkpt>
      <trkpt lat="44.10213" lon="7.3746">
        <ele>2272</ele>
        <time>2018-04-22T05:37:59.000Z</time>
      </trkpt>
      <trkpt lat="44.10213" lon="7.37462">
        <ele>2273</ele>
        <time>2018-04-22T05:38:00.000Z</time>
      </trkpt>
      <trkpt lat="44.10213" lon="7.37463">
        <ele>2273</ele>
        <time>2018-04-22T05:38:02.000Z</time>
      </trkpt>
      <trkpt lat="44.10212" lon="7.37464">
        <ele>2273</ele>
        <time>2018-04-22T05:38:05.000Z</time>
      </trkpt>
      <trkpt lat="44.10211" lon="7.37469">
        <ele>2274</ele>
        <time>2018-04-22T05:38:10.000Z</time>
      </trkpt>
      <trkpt lat="44.10212" lon="7.37468">
        <ele>2274</ele>
        <time>2018-04-22T05:38:11.000Z</time>
      </trkpt>
      <trkpt lat="44.10212" lon="7.37469">
        <ele>2274</ele>
        <time>2018-04-22T05:38:13.000Z</time>
      </trkpt>
      <trkpt lat="44.10211" lon="7.37472">
        <ele>2275</ele>
        <time>2018-04-22T05:38:17.000Z</time>
      </trkpt>
      <trkpt lat="44.10211" lon="7.37472">
        <ele>2275</ele>
        <time>2018-04-22T05:38:19.000Z</time>
      </trkpt>
      <trkpt lat="44.10211" lon="7.37477">
        <ele>2276</ele>
        <time>2018-04-22T05:38:24.000Z</time>
      </trkpt>
      <trkpt lat="44.10213" lon="7.3748">
        <ele>2276</ele>
        <time>2018-04-22T05:38:29.000Z</time>
      </trkpt>
      <trkpt lat="44.10214" lon="7.37482">
        <ele>2277</ele>
        <time>2018-04-22T05:38:33.000Z</time>
      </trkpt>
      <trkpt lat="44.10215" lon="7.37483">
        <ele>2277</ele>
        <time>2018-04-22T05:38:34.000Z</time>
      </trkpt>
      <trkpt lat="44.10215" lon="7.37483">
        <ele>2277</ele>
        <time>2018-04-22T05:38:35.000Z</time>
      </trkpt>
      <trkpt lat="44.10216" lon="7.37485">
        <ele>2277</ele>
        <time>2018-04-22T05:38:39.000Z</time>
      </trkpt>
      <trkpt lat="44.10217" lon="7.37486">
        <ele>2277</ele>
        <time>2018-04-22T05:38:41.000Z</time>
      </trkpt>
      <trkpt lat="44.10219" lon="7.37488">
        <ele>2277</ele>
        <time>2018-04-22T05:38:43.000Z</time>
      </trkpt>
      <trkpt lat="44.1022" lon="7.37492">
        <ele>2278</ele>
        <time>2018-04-22T05:38:48.000Z</time>
      </trkpt>
      <trkpt lat="44.10221" lon="7.37496">
        <ele>2278</ele>
        <time>2018-04-22T05:38:52.000Z</time>
      </trkpt>
      <trkpt lat="44.10221" lon="7.37496">
        <ele>2278</ele>
        <time>2018-04-22T05:38:53.000Z</time>
      </trkpt>
      <trkpt lat="44.10221" lon="7.37501">
        <ele>2297</ele>
        <time>2018-04-22T05:38:58.000Z</time>
      </trkpt>
      <trkpt lat="44.10221" lon="7.37503">
        <ele>2297</ele>
        <time>2018-04-22T05:39:00.000Z</time>
      </trkpt>
      <trkpt lat="44.1022" lon="7.37506">
        <ele>2297</ele>
        <time>2018-04-22T05:39:04.000Z</time>
      </trkpt>
      <trkpt lat="44.10219" lon="7.37509">
        <ele>2298</ele>
        <time>2018-04-22T05:39:10.000Z</time>
      </trkpt>
      <trkpt lat="44.10221" lon="7.37511">
        <ele>2298</ele>
        <time>2018-04-22T05:39:15.000Z</time>
      </trkpt>
      <trkpt lat="44.10221" lon="7.37511">
        <ele>2298</ele>
        <time>2018-04-22T05:39:16.000Z</time>
      </trkpt>
      <trkpt lat="44.10225" lon="7.37512">
        <ele>2297</ele>
        <time>2018-04-22T05:39:21.000Z</time>
      </trkpt>
      <trkpt lat="44.10227" lon="7.37514">
        <ele>2297</ele>
        <time>2018-04-22T05:39:26.000Z</time>
      </trkpt>
      <trkpt lat="44.1023" lon="7.37515">
        <ele>2296</ele>
        <time>2018-04-22T05:39:30.000Z</time>
      </trkpt>
      <trkpt lat="44.10229" lon="7.37519">
        <ele>2297</ele>
        <time>2018-04-22T05:39:35.000Z</time>
      </trkpt>
      <trkpt lat="44.10229" lon="7.37519">
        <ele>2297</ele>
        <time>2018-04-22T05:39:36.000Z</time>
      </trkpt>
      <trkpt lat="44.10227" lon="7.37521">
        <ele>2298</ele>
        <time>2018-04-22T05:39:40.000Z</time>
      </trkpt>
      <trkpt lat="44.10226" lon="7.37522">
        <ele>2298</ele>
        <time>2018-04-22T05:39:42.000Z</time>
      </trkpt>
      <trkpt lat="44.10224" lon="7.37526">
        <ele>2299</ele>
        <time>2018-04-22T05:39:47.000Z</time>
      </trkpt>
      <trkpt lat="44.10224" lon="7.37528">
        <ele>2300</ele>
        <time>2018-04-22T05:39:52.000Z</time>
      </trkpt>
      <trkpt lat="44.10225" lon="7.37529">
        <ele>2300</ele>
        <time>2018-04-22T05:39:54.000Z</time>
      </trkpt>
      <trkpt lat="44.10225" lon="7.37529">
        <ele>2300</ele>
        <time>2018-04-22T05:39:57.000Z</time>
      </trkpt>
      <trkpt lat="44.10228" lon="7.37529">
        <ele>2300</ele>
        <time>2018-04-22T05:40:00.000Z</time>
      </trkpt>
      <trkpt lat="44.10229" lon="7.3753">
        <ele>2300</ele>
        <time>2018-04-22T05:40:01.000Z</time>
      </trkpt>
      <trkpt lat="44.10229" lon="7.37531">
        <ele>2300</ele>
        <time>2018-04-22T05:40:02.000Z</time>
      </trkpt>
      <trkpt lat="44.10227" lon="7.37535">
        <ele>2301</ele>
        <time>2018-04-22T05:40:07.000Z</time>
      </trkpt>
      <trkpt lat="44.10226" lon="7.37537">
        <ele>2301</ele>
        <time>2018-04-22T05:40:10.000Z</time>
      </trkpt>
      <trkpt lat="44.10226" lon="7.3754">
        <ele>2302</ele>
        <time>2018-04-22T05:40:14.000Z</time>
      </trkpt>
      <trkpt lat="44.10225" lon="7.3754">
        <ele>2302</ele>
        <time>2018-04-22T05:40:18.000Z</time>
      </trkpt>
      <trkpt lat="44.10226" lon="7.3754">
        <ele>2302</ele>
        <time>2018-04-22T05:40:21.000Z</time>
      </trkpt>
      <trkpt lat="44.10226" lon="7.3754">
        <ele>2302</ele>
        <time>2018-04-22T05:40:30.000Z</time>
      </trkpt>
      <trkpt lat="44.10225" lon="7.37541">
        <ele>2302</ele>
        <time>2018-04-22T05:40:39.000Z</time>
      </trkpt>
      <trkpt lat="44.10224" lon="7.37541">
        <ele>2302</ele>
        <time>2018-04-22T05:40:56.000Z</time>
      </trkpt>
      <trkpt lat="44.10224" lon="7.3754">
        <ele>2302</ele>
        <time>2018-04-22T05:41:10.000Z</time>
      </trkpt>
      <trkpt lat="44.10225" lon="7.3754">
        <ele>2302</ele>
        <time>2018-04-22T05:41:26.000Z</time>
      </trkpt>
      <trkpt lat="44.10225" lon="7.3754">
        <ele>2302</ele>
        <time>2018-04-22T05:41:39.000Z</time>
      </trkpt>
      <trkpt lat="44.10224" lon="7.3754">
        <ele>2302</ele>
        <time>2018-04-22T05:41:48.000Z</time>
      </trkpt>
      <trkpt lat="44.10223" lon="7.3754">
        <ele>2302</ele>
        <time>2018-04-22T05:42:07.000Z</time>
      </trkpt>
      <trkpt lat="44.10223" lon="7.3754">
        <ele>2302</ele>
        <time>2018-04-22T05:42:30.000Z</time>
      </trkpt>
      <trkpt lat="44.10223" lon="7.37542">
        <ele>2302</ele>
        <time>2018-04-22T05:42:37.000Z</time>
      </trkpt>
      <trkpt lat="44.10223" lon="7.37545">
        <ele>2303</ele>
        <time>2018-04-22T05:42:43.000Z</time>
      </trkpt>
      <trkpt lat="44.10223" lon="7.37552">
        <ele>2304</ele>
        <time>2018-04-22T05:42:50.000Z</time>
      </trkpt>
      <trkpt lat="44.10224" lon="7.37557">
        <ele>2304</ele>
        <time>2018-04-22T05:42:55.000Z</time>
      </trkpt>
      <trkpt lat="44.10224" lon="7.37564">
        <ele>2305</ele>
        <time>2018-04-22T05:43:01.000Z</time>
      </trkpt>
      <trkpt lat="44.10224" lon="7.37571">
        <ele>2306</ele>
        <time>2018-04-22T05:43:08.000Z</time>
      </trkpt>
      <trkpt lat="44.10224" lon="7.37576">
        <ele>2306</ele>
        <time>2018-04-22T05:43:13.000Z</time>
      </trkpt>
      <trkpt lat="44.10225" lon="7.3758">
        <ele>2306</ele>
        <time>2018-04-22T05:43:17.000Z</time>
      </trkpt>
      <trkpt lat="44.10225" lon="7.37582">
        <ele>2306</ele>
        <time>2018-04-22T05:43:19.000Z</time>
      </trkpt>
      <trkpt lat="44.10226" lon="7.37587">
        <ele>2316</ele>
        <time>2018-04-22T05:43:25.000Z</time>
      </trkpt>
      <trkpt lat="44.10227" lon="7.37591">
        <ele>2316</ele>
        <time>2018-04-22T05:43:28.000Z</time>
      </trkpt>
      <trkpt lat="44.10227" lon="7.37592">
        <ele>2316</ele>
        <time>2018-04-22T05:43:29.000Z</time>
      </trkpt>
      <trkpt lat="44.10226" lon="7.37595">
        <ele>2316</ele>
        <time>2018-04-22T05:43:34.000Z</time>
      </trkpt>
      <trkpt lat="44.10227" lon="7.37595">
        <ele>2316</ele>
        <time>2018-04-22T05:43:43.000Z</time>
      </trkpt>
      <trkpt lat="44.10227" lon="7.37595">
        <ele>2316</ele>
        <time>2018-04-22T05:43:47.000Z</time>
      </trkpt>
      <trkpt lat="44.10227" lon="7.37595">
        <ele>2316</ele>
        <time>2018-04-22T05:43:52.000Z</time>
      </trkpt>
      <trkpt lat="44.10228" lon="7.37596">
        <ele>2316</ele>
        <time>2018-04-22T05:44:04.000Z</time>
      </trkpt>
      <trkpt lat="44.10228" lon="7.37599">
        <ele>2317</ele>
        <time>2018-04-22T05:44:07.000Z</time>
      </trkpt>
      <trkpt lat="44.10228" lon="7.37601">
        <ele>2317</ele>
        <time>2018-04-22T05:44:09.000Z</time>
      </trkpt>
      <trkpt lat="44.10228" lon="7.37607">
        <ele>2318</ele>
        <time>2018-04-22T05:44:15.000Z</time>
      </trkpt>
      <trkpt lat="44.10228" lon="7.37614">
        <ele>2318</ele>
        <time>2018-04-22T05:44:21.000Z</time>
      </trkpt>
      <trkpt lat="44.10229" lon="7.37621">
        <ele>2319</ele>
        <time>2018-04-22T05:44:27.000Z</time>
      </trkpt>
      <trkpt lat="44.1023" lon="7.37627">
        <ele>2320</ele>
        <time>2018-04-22T05:44:33.000Z</time>
      </trkpt>
      <trkpt lat="44.10231" lon="7.37634">
        <ele>2320</ele>
        <time>2018-04-22T05:44:40.000Z</time>
      </trkpt>
      <trkpt lat="44.10233" lon="7.37639">
        <ele>2320</ele>
        <time>2018-04-22T05:44:46.000Z</time>
      </trkpt>
      <trkpt lat="44.10234" lon="7.3764">
        <ele>2320</ele>
        <time>2018-04-22T05:44:48.000Z</time>
      </trkpt>
      <trkpt lat="44.10235" lon="7.37643">
        <ele>2320</ele>
        <time>2018-04-22T05:44:51.000Z</time>
      </trkpt>
      <trkpt lat="44.10235" lon="7.37643">
        <ele>2320</ele>
        <time>2018-04-22T05:44:52.000Z</time>
      </trkpt>
      <trkpt lat="44.10236" lon="7.37647">
        <ele>2320</ele>
        <time>2018-04-22T05:44:56.000Z</time>
      </trkpt>
      <trkpt lat="44.10236" lon="7.37653">
        <ele>2320</ele>
        <time>2018-04-22T05:45:02.000Z</time>
      </trkpt>
      <trkpt lat="44.10236" lon="7.37655">
        <ele>2320</ele>
        <time>2018-04-22T05:45:05.000Z</time>
      </trkpt>
      <trkpt lat="44.10236" lon="7.37657">
        <ele>2320</ele>
        <time>2018-04-22T05:45:06.000Z</time>
      </trkpt>
      <trkpt lat="44.10236" lon="7.37661">
        <ele>2320</ele>
        <time>2018-04-22T05:45:11.000Z</time>
      </trkpt>
      <trkpt lat="44.10236" lon="7.37667">
        <ele>2324</ele>
        <time>2018-04-22T05:45:17.000Z</time>
      </trkpt>
      <trkpt lat="44.10235" lon="7.37672">
        <ele>2325</ele>
        <time>2018-04-22T05:45:22.000Z</time>
      </trkpt>
      <trkpt lat="44.10235" lon="7.37673">
        <ele>2325</ele>
        <time>2018-04-22T05:45:23.000Z</time>
      </trkpt>
      <trkpt lat="44.10235" lon="7.37674">
        <ele>2325</ele>
        <time>2018-04-22T05:45:24.000Z</time>
      </trkpt>
      <trkpt lat="44.10234" lon="7.37677">
        <ele>2326</ele>
        <time>2018-04-22T05:45:28.000Z</time>
      </trkpt>
      <trkpt lat="44.10233" lon="7.3768">
        <ele>2326</ele>
        <time>2018-04-22T05:45:32.000Z</time>
      </trkpt>
      <trkpt lat="44.10233" lon="7.37681">
        <ele>2326</ele>
        <time>2018-04-22T05:45:33.000Z</time>
      </trkpt>
      <trkpt lat="44.10235" lon="7.37684">
        <ele>2326</ele>
        <time>2018-04-22T05:45:38.000Z</time>
      </trkpt>
      <trkpt lat="44.10239" lon="7.37688">
        <ele>2327</ele>
        <time>2018-04-22T05:45:45.000Z</time>
      </trkpt>
      <trkpt lat="44.1024" lon="7.3769">
        <ele>2327</ele>
        <time>2018-04-22T05:45:47.000Z</time>
      </trkpt>
      <trkpt lat="44.1024" lon="7.3769">
        <ele>2327</ele>
        <time>2018-04-22T05:45:48.000Z</time>
      </trkpt>
      <trkpt lat="44.10242" lon="7.37692">
        <ele>2327</ele>
        <time>2018-04-22T05:45:52.000Z</time>
      </trkpt>
      <trkpt lat="44.10243" lon="7.37695">
        <ele>2327</ele>
        <time>2018-04-22T05:45:56.000Z</time>
      </trkpt>
      <trkpt lat="44.10243" lon="7.37696">
        <ele>2328</ele>
        <time>2018-04-22T05:45:57.000Z</time>
      </trkpt>
      <trkpt lat="44.10242" lon="7.37698">
        <ele>2328</ele>
        <time>2018-04-22T05:46:01.000Z</time>
      </trkpt>
      <trkpt lat="44.1024" lon="7.377">
        <ele>2328</ele>
        <time>2018-04-22T05:46:06.000Z</time>
      </trkpt>
      <trkpt lat="44.10237" lon="7.37703">
        <ele>2329</ele>
        <time>2018-04-22T05:46:12.000Z</time>
      </trkpt>
      <trkpt lat="44.10236" lon="7.37704">
        <ele>2329</ele>
        <time>2018-04-22T05:46:14.000Z</time>
      </trkpt>
      <trkpt lat="44.10233" lon="7.37707">
        <ele>2330</ele>
        <time>2018-04-22T05:46:20.000Z</time>
      </trkpt>
      <trkpt lat="44.10231" lon="7.37711">
        <ele>2330</ele>
        <time>2018-04-22T05:46:25.000Z</time>
      </trkpt>
      <trkpt lat="44.10231" lon="7.37711">
        <ele>2330</ele>
        <time>2018-04-22T05:46:26.000Z</time>
      </trkpt>
      <trkpt lat="44.10229" lon="7.37715">
        <ele>2331</ele>
        <time>2018-04-22T05:46:32.000Z</time>
      </trkpt>
      <trkpt lat="44.10228" lon="7.37716">
        <ele>2331</ele>
        <time>2018-04-22T05:46:34.000Z</time>
      </trkpt>
      <trkpt lat="44.10228" lon="7.37719">
        <ele>2331</ele>
        <time>2018-04-22T05:46:38.000Z</time>
      </trkpt>
      <trkpt lat="44.10228" lon="7.3772">
        <ele>2331</ele>
        <time>2018-04-22T05:46:41.000Z</time>
      </trkpt>
      <trkpt lat="44.10229" lon="7.37722">
        <ele>2331</ele>
        <time>2018-04-22T05:46:45.000Z</time>
      </trkpt>
      <trkpt lat="44.1023" lon="7.37723">
        <ele>2331</ele>
        <time>2018-04-22T05:46:47.000Z</time>
      </trkpt>
      <trkpt lat="44.10231" lon="7.37724">
        <ele>2331</ele>
        <time>2018-04-22T05:46:49.000Z</time>
      </trkpt>
      <trkpt lat="44.10233" lon="7.37727">
        <ele>2331</ele>
        <time>2018-04-22T05:46:54.000Z</time>
      </trkpt>
      <trkpt lat="44.10234" lon="7.37728">
        <ele>2331</ele>
        <time>2018-04-22T05:46:56.000Z</time>
      </trkpt>
      <trkpt lat="44.10235" lon="7.37728">
        <ele>2331</ele>
        <time>2018-04-22T05:46:59.000Z</time>
      </trkpt>
      <trkpt lat="44.10238" lon="7.37731">
        <ele>2331</ele>
        <time>2018-04-22T05:47:05.000Z</time>
      </trkpt>
      <trkpt lat="44.10239" lon="7.37732">
        <ele>2331</ele>
        <time>2018-04-22T05:47:07.000Z</time>
      </trkpt>
      <trkpt lat="44.10241" lon="7.37734">
        <ele>2331</ele>
        <time>2018-04-22T05:47:09.000Z</time>
      </trkpt>
      <trkpt lat="44.10242" lon="7.37736">
        <ele>2331</ele>
        <time>2018-04-22T05:47:13.000Z</time>
      </trkpt>
      <trkpt lat="44.10243" lon="7.37737">
        <ele>2331</ele>
        <time>2018-04-22T05:47:14.000Z</time>
      </trkpt>
      <trkpt lat="44.10243" lon="7.37737">
        <ele>2331</ele>
        <time>2018-04-22T05:47:15.000Z</time>
      </trkpt>
      <trkpt lat="44.10244" lon="7.37738">
        <ele>2332</ele>
        <time>2018-04-22T05:47:16.000Z</time>
      </trkpt>
      <trkpt lat="44.10243" lon="7.3774">
        <ele>2332</ele>
        <time>2018-04-22T05:47:18.000Z</time>
      </trkpt>
      <trkpt lat="44.10243" lon="7.3774">
        <ele>2332</ele>
        <time>2018-04-22T05:47:19.000Z</time>
      </trkpt>
      <trkpt lat="44.1024" lon="7.37742">
        <ele>2332</ele>
        <time>2018-04-22T05:47:24.000Z</time>
      </trkpt>
      <trkpt lat="44.10238" lon="7.37743">
        <ele>2332</ele>
        <time>2018-04-22T05:47:26.000Z</time>
      </trkpt>
      <trkpt lat="44.10235" lon="7.37746">
        <ele>2332</ele>
        <time>2018-04-22T05:47:31.000Z</time>
      </trkpt>
      <trkpt lat="44.10236" lon="7.37746">
        <ele>2332</ele>
        <time>2018-04-22T05:47:32.000Z</time>
      </trkpt>
      <trkpt lat="44.10233" lon="7.37747">
        <ele>2332</ele>
        <time>2018-04-22T05:47:36.000Z</time>
      </trkpt>
      <trkpt lat="44.10229" lon="7.37749">
        <ele>2332</ele>
        <time>2018-04-22T05:47:43.000Z</time>
      </trkpt>
      <trkpt lat="44.10228" lon="7.37749">
        <ele>2332</ele>
        <time>2018-04-22T05:47:44.000Z</time>
      </trkpt>
      <trkpt lat="44.10224" lon="7.3775">
        <ele>2332</ele>
        <time>2018-04-22T05:47:50.000Z</time>
      </trkpt>
      <trkpt lat="44.10221" lon="7.3775">
        <ele>2342</ele>
        <time>2018-04-22T05:47:55.000Z</time>
      </trkpt>
      <trkpt lat="44.10221" lon="7.3775">
        <ele>2343</ele>
        <time>2018-04-22T05:47:56.000Z</time>
      </trkpt>
      <trkpt lat="44.10221" lon="7.37751">
        <ele>2342</ele>
        <time>2018-04-22T05:48:01.000Z</time>
      </trkpt>
      <trkpt lat="44.10223" lon="7.37754">
        <ele>2342</ele>
        <time>2018-04-22T05:48:06.000Z</time>
      </trkpt>
      <trkpt lat="44.10224" lon="7.37756">
        <ele>2342</ele>
        <time>2018-04-22T05:48:09.000Z</time>
      </trkpt>
      <trkpt lat="44.10225" lon="7.37757">
        <ele>2342</ele>
        <time>2018-04-22T05:48:10.000Z</time>
      </trkpt>
      <trkpt lat="44.10224" lon="7.37757">
        <ele>2342</ele>
        <time>2018-04-22T05:48:11.000Z</time>
      </trkpt>
      <trkpt lat="44.10226" lon="7.3776">
        <ele>2342</ele>
        <time>2018-04-22T05:48:15.000Z</time>
      </trkpt>
      <trkpt lat="44.10227" lon="7.37761">
        <ele>2342</ele>
        <time>2018-04-22T05:48:16.000Z</time>
      </trkpt>
      <trkpt lat="44.10228" lon="7.37763">
        <ele>2343</ele>
        <time>2018-04-22T05:48:21.000Z</time>
      </trkpt>
      <trkpt lat="44.1023" lon="7.37765">
        <ele>2342</ele>
        <time>2018-04-22T05:48:25.000Z</time>
      </trkpt>
      <trkpt lat="44.10231" lon="7.37766">
        <ele>2342</ele>
        <time>2018-04-22T05:48:26.000Z</time>
      </trkpt>
      <trkpt lat="44.10234" lon="7.37768">
        <ele>2342</ele>
        <time>2018-04-22T05:48:32.000Z</time>
      </trkpt>
      <trkpt lat="44.10234" lon="7.37769">
        <ele>2343</ele>
        <time>2018-04-22T05:48:33.000Z</time>
      </trkpt>
      <trkpt lat="44.10237" lon="7.37771">
        <ele>2343</ele>
        <time>2018-04-22T05:48:39.000Z</time>
      </trkpt>
      <trkpt lat="44.10238" lon="7.37772">
        <ele>2343</ele>
        <time>2018-04-22T05:48:41.000Z</time>
      </trkpt>
      <trkpt lat="44.10238" lon="7.37773">
        <ele>2343</ele>
        <time>2018-04-22T05:48:43.000Z</time>
      </trkpt>
      <trkpt lat="44.1024" lon="7.37775">
        <ele>2343</ele>
        <time>2018-04-22T05:48:48.000Z</time>
      </trkpt>
      <trkpt lat="44.10241" lon="7.37776">
        <ele>2344</ele>
        <time>2018-04-22T05:48:50.000Z</time>
      </trkpt>
      <trkpt lat="44.10241" lon="7.37779">
        <ele>2344</ele>
        <time>2018-04-22T05:48:54.000Z</time>
      </trkpt>
      <trkpt lat="44.10241" lon="7.37779">
        <ele>2344</ele>
        <time>2018-04-22T05:48:55.000Z</time>
      </trkpt>
      <trkpt lat="44.1024" lon="7.3778">
        <ele>2345</ele>
        <time>2018-04-22T05:48:56.000Z</time>
      </trkpt>
      <trkpt lat="44.10239" lon="7.37781">
        <ele>2345</ele>
        <time>2018-04-22T05:48:58.000Z</time>
      </trkpt>
      <trkpt lat="44.10237" lon="7.37784">
        <ele>2346</ele>
        <time>2018-04-22T05:49:03.000Z</time>
      </trkpt>
      <trkpt lat="44.10236" lon="7.37785">
        <ele>2346</ele>
        <time>2018-04-22T05:49:04.000Z</time>
      </trkpt>
      <trkpt lat="44.10235" lon="7.37788">
        <ele>2347</ele>
        <time>2018-04-22T05:49:10.000Z</time>
      </trkpt>
      <trkpt lat="44.10235" lon="7.37789">
        <ele>2347</ele>
        <time>2018-04-22T05:49:11.000Z</time>
      </trkpt>
      <trkpt lat="44.10233" lon="7.37793">
        <ele>2348</ele>
        <time>2018-04-22T05:49:16.000Z</time>
      </trkpt>
      <trkpt lat="44.10232" lon="7.37796">
        <ele>2348</ele>
        <time>2018-04-22T05:49:21.000Z</time>
      </trkpt>
      <trkpt lat="44.10232" lon="7.37797">
        <ele>2348</ele>
        <time>2018-04-22T05:49:22.000Z</time>
      </trkpt>
      <trkpt lat="44.1023" lon="7.37802">
        <ele>2349</ele>
        <time>2018-04-22T05:49:29.000Z</time>
      </trkpt>
      <trkpt lat="44.1023" lon="7.37803">
        <ele>2349</ele>
        <time>2018-04-22T05:49:31.000Z</time>
      </trkpt>
      <trkpt lat="44.10228" lon="7.37808">
        <ele>2350</ele>
        <time>2018-04-22T05:49:38.000Z</time>
      </trkpt>
      <trkpt lat="44.10227" lon="7.37812">
        <ele>2351</ele>
        <time>2018-04-22T05:49:43.000Z</time>
      </trkpt>
      <trkpt lat="44.10227" lon="7.37813">
        <ele>2351</ele>
        <time>2018-04-22T05:49:44.000Z</time>
      </trkpt>
      <trkpt lat="44.10226" lon="7.37817">
        <ele>2351</ele>
        <time>2018-04-22T05:49:50.000Z</time>
      </trkpt>
      <trkpt lat="44.10226" lon="7.37817">
        <ele>2351</ele>
        <time>2018-04-22T05:49:51.000Z</time>
      </trkpt>
      <trkpt lat="44.10225" lon="7.37821">
        <ele>2352</ele>
        <time>2018-04-22T05:49:55.000Z</time>
      </trkpt>
      <trkpt lat="44.10224" lon="7.37823">
        <ele>2352</ele>
        <time>2018-04-22T05:49:59.000Z</time>
      </trkpt>
      <trkpt lat="44.10223" lon="7.37826">
        <ele>2352</ele>
        <time>2018-04-22T05:50:03.000Z</time>
      </trkpt>
      <trkpt lat="44.10222" lon="7.37828">
        <ele>2352</ele>
        <time>2018-04-22T05:50:07.000Z</time>
      </trkpt>
      <trkpt lat="44.10222" lon="7.37828">
        <ele>2352</ele>
        <time>2018-04-22T05:50:08.000Z</time>
      </trkpt>
      <trkpt lat="44.10224" lon="7.37832">
        <ele>2352</ele>
        <time>2018-04-22T05:50:14.000Z</time>
      </trkpt>
      <trkpt lat="44.10224" lon="7.37833">
        <ele>2353</ele>
        <time>2018-04-22T05:50:16.000Z</time>
      </trkpt>
      <trkpt lat="44.10224" lon="7.37834">
        <ele>2367</ele>
        <time>2018-04-22T05:50:19.000Z</time>
      </trkpt>
      <trkpt lat="44.10226" lon="7.37837">
        <ele>2367</ele>
        <time>2018-04-22T05:50:24.000Z</time>
      </trkpt>
      <trkpt lat="44.10226" lon="7.37838">
        <ele>2367</ele>
        <time>2018-04-22T05:50:25.000Z</time>
      </trkpt>
      <trkpt lat="44.10227" lon="7.3784">
        <ele>2367</ele>
        <time>2018-04-22T05:50:29.000Z</time>
      </trkpt>
      <trkpt lat="44.10227" lon="7.37843">
        <ele>2368</ele>
        <time>2018-04-22T05:50:34.000Z</time>
      </trkpt>
      <trkpt lat="44.10223" lon="7.37844">
        <ele>2369</ele>
        <time>2018-04-22T05:50:40.000Z</time>
      </trkpt>
      <trkpt lat="44.10222" lon="7.37845">
        <ele>2369</ele>
        <time>2018-04-22T05:50:42.000Z</time>
      </trkpt>
      <trkpt lat="44.10218" lon="7.37846">
        <ele>2370</ele>
        <time>2018-04-22T05:50:48.000Z</time>
      </trkpt>
      <trkpt lat="44.10217" lon="7.37846">
        <ele>2371</ele>
        <time>2018-04-22T05:50:51.000Z</time>
      </trkpt>
      <trkpt lat="44.10214" lon="7.37848">
        <ele>2371</ele>
        <time>2018-04-22T05:50:58.000Z</time>
      </trkpt>
      <trkpt lat="44.10214" lon="7.37848">
        <ele>2371</ele>
        <time>2018-04-22T05:51:00.000Z</time>
      </trkpt>
      <trkpt lat="44.10215" lon="7.37851">
        <ele>2372</ele>
        <time>2018-04-22T05:51:05.000Z</time>
      </trkpt>
      <trkpt lat="44.10216" lon="7.37853">
        <ele>2372</ele>
        <time>2018-04-22T05:51:08.000Z</time>
      </trkpt>
      <trkpt lat="44.10216" lon="7.37854">
        <ele>2372</ele>
        <time>2018-04-22T05:51:10.000Z</time>
      </trkpt>
      <trkpt lat="44.10219" lon="7.37859">
        <ele>2372</ele>
        <time>2018-04-22T05:51:16.000Z</time>
      </trkpt>
      <trkpt lat="44.10219" lon="7.37861">
        <ele>2372</ele>
        <time>2018-04-22T05:51:21.000Z</time>
      </trkpt>
      <trkpt lat="44.1022" lon="7.37864">
        <ele>2373</ele>
        <time>2018-04-22T05:51:24.000Z</time>
      </trkpt>
      <trkpt lat="44.10221" lon="7.37867">
        <ele>2373</ele>
        <time>2018-04-22T05:51:28.000Z</time>
      </trkpt>
      <trkpt lat="44.10223" lon="7.37871">
        <ele>2374</ele>
        <time>2018-04-22T05:51:33.000Z</time>
      </trkpt>
      <trkpt lat="44.10223" lon="7.3787">
        <ele>2374</ele>
        <time>2018-04-22T05:51:34.000Z</time>
      </trkpt>
      <trkpt lat="44.10224" lon="7.37875">
        <ele>2374</ele>
        <time>2018-04-22T05:51:39.000Z</time>
      </trkpt>
      <trkpt lat="44.10225" lon="7.37876">
        <ele>2374</ele>
        <time>2018-04-22T05:51:42.000Z</time>
      </trkpt>
      <trkpt lat="44.10226" lon="7.37877">
        <ele>2374</ele>
        <time>2018-04-22T05:51:45.000Z</time>
      </trkpt>
      <trkpt lat="44.10228" lon="7.3788">
        <ele>2375</ele>
        <time>2018-04-22T05:51:50.000Z</time>
      </trkpt>
      <trkpt lat="44.10229" lon="7.37882">
        <ele>2375</ele>
        <time>2018-04-22T05:51:56.000Z</time>
      </trkpt>
      <trkpt lat="44.10229" lon="7.37882">
        <ele>2375</ele>
        <time>2018-04-22T05:51:59.000Z</time>
      </trkpt>
      <trkpt lat="44.10229" lon="7.37882">
        <ele>2375</ele>
        <time>2018-04-22T05:52:03.000Z</time>
      </trkpt>
      <trkpt lat="44.1023" lon="7.37882">
        <ele>2375</ele>
        <time>2018-04-22T05:52:13.000Z</time>
      </trkpt>
      <trkpt lat="44.1023" lon="7.37882">
        <ele>2375</ele>
        <time>2018-04-22T05:52:21.000Z</time>
      </trkpt>
      <trkpt lat="44.10231" lon="7.37884">
        <ele>2375</ele>
        <time>2018-04-22T05:52:29.000Z</time>
      </trkpt>
      <trkpt lat="44.10231" lon="7.37886">
        <ele>2375</ele>
        <time>2018-04-22T05:52:36.000Z</time>
      </trkpt>
      <trkpt lat="44.10231" lon="7.37886">
        <ele>2375</ele>
        <time>2018-04-22T05:52:38.000Z</time>
      </trkpt>
      <trkpt lat="44.10232" lon="7.37889">
        <ele>2375</ele>
        <time>2018-04-22T05:52:47.000Z</time>
      </trkpt>
      <trkpt lat="44.10233" lon="7.3789">
        <ele>2375</ele>
        <time>2018-04-22T05:52:51.000Z</time>
      </trkpt>
      <trkpt lat="44.10233" lon="7.3789">
        <ele>2375</ele>
        <time>2018-04-22T05:52:54.000Z</time>
      </trkpt>
      <trkpt lat="44.10234" lon="7.37897">
        <ele>2376</ele>
        <time>2018-04-22T05:53:01.000Z</time>
      </trkpt>
      <trkpt lat="44.10236" lon="7.37903">
        <ele>2376</ele>
        <time>2018-04-22T05:53:07.000Z</time>
      </trkpt>
      <trkpt lat="44.10237" lon="7.37906">
        <ele>2376</ele>
        <time>2018-04-22T05:53:12.000Z</time>
      </trkpt>
      <trkpt lat="44.10238" lon="7.3791">
        <ele>2376</ele>
        <time>2018-04-22T05:53:19.000Z</time>
      </trkpt>
      <trkpt lat="44.10239" lon="7.37912">
        <ele>2375</ele>
        <time>2018-04-22T05:53:25.000Z</time>
      </trkpt>
      <trkpt lat="44.10238" lon="7.37914">
        <ele>2376</ele>
        <time>2018-04-22T05:53:27.000Z</time>
      </trkpt>
      <trkpt lat="44.10238" lon="7.37915">
        <ele>2376</ele>
        <time>2018-04-22T05:53:30.000Z</time>
      </trkpt>
      <trkpt lat="44.10237" lon="7.37916">
        <ele>2376</ele>
        <time>2018-04-22T05:53:31.000Z</time>
      </trkpt>
      <trkpt lat="44.10237" lon="7.37917">
        <ele>2383</ele>
        <time>2018-04-22T05:53:36.000Z</time>
      </trkpt>
      <trkpt lat="44.10238" lon="7.37916">
        <ele>2376</ele>
        <time>2018-04-22T05:53:46.000Z</time>
      </trkpt>
      <trkpt lat="44.10239" lon="7.37917">
        <ele>2382</ele>
        <time>2018-04-22T05:53:57.000Z</time>
      </trkpt>
      <trkpt lat="44.10239" lon="7.37918">
        <ele>2382</ele>
        <time>2018-04-22T05:54:00.000Z</time>
      </trkpt>
      <trkpt lat="44.10239" lon="7.37917">
        <ele>2382</ele>
        <time>2018-04-22T05:54:07.000Z</time>
      </trkpt>
      <trkpt lat="44.10242" lon="7.37916">
        <ele>2375</ele>
        <time>2018-04-22T05:54:19.000Z</time>
      </trkpt>
      <trkpt lat="44.1024" lon="7.37917">
        <ele>2381</ele>
        <time>2018-04-22T05:54:33.000Z</time>
      </trkpt>
      <trkpt lat="44.1024" lon="7.37917">
        <ele>2381</ele>
        <time>2018-04-22T05:54:42.000Z</time>
      </trkpt>
      <trkpt lat="44.1024" lon="7.37921">
        <ele>2382</ele>
        <time>2018-04-22T05:54:50.000Z</time>
      </trkpt>
      <trkpt lat="44.10239" lon="7.37928">
        <ele>2385</ele>
        <time>2018-04-22T05:54:56.000Z</time>
      </trkpt>
      <trkpt lat="44.10237" lon="7.37933">
        <ele>2386</ele>
        <time>2018-04-22T05:55:02.000Z</time>
      </trkpt>
      <trkpt lat="44.10235" lon="7.37937">
        <ele>2388</ele>
        <time>2018-04-22T05:55:06.000Z</time>
      </trkpt>
      <trkpt lat="44.10234" lon="7.37944">
        <ele>2389</ele>
        <time>2018-04-22T05:55:12.000Z</time>
      </trkpt>
      <trkpt lat="44.10234" lon="7.37949">
        <ele>2390</ele>
        <time>2018-04-22T05:55:17.000Z</time>
      </trkpt>
      <trkpt lat="44.10234" lon="7.37951">
        <ele>2390</ele>
        <time>2018-04-22T05:55:19.000Z</time>
      </trkpt>
      <trkpt lat="44.10234" lon="7.37955">
        <ele>2391</ele>
        <time>2018-04-22T05:55:21.000Z</time>
      </trkpt>
      <trkpt lat="44.10235" lon="7.37958">
        <ele>2391</ele>
        <time>2018-04-22T05:55:25.000Z</time>
      </trkpt>
      <trkpt lat="44.10235" lon="7.37958">
        <ele>2391</ele>
        <time>2018-04-22T05:55:26.000Z</time>
      </trkpt>
      <trkpt lat="44.10236" lon="7.37962">
        <ele>2391</ele>
        <time>2018-04-22T05:55:29.000Z</time>
      </trkpt>
      <trkpt lat="44.10237" lon="7.37962">
        <ele>2391</ele>
        <time>2018-04-22T05:55:31.000Z</time>
      </trkpt>
      <trkpt lat="44.10239" lon="7.37965">
        <ele>2391</ele>
        <time>2018-04-22T05:55:34.000Z</time>
      </trkpt>
      <trkpt lat="44.1024" lon="7.37967">
        <ele>2390</ele>
        <time>2018-04-22T05:55:36.000Z</time>
      </trkpt>
      <trkpt lat="44.1024" lon="7.37967">
        <ele>2390</ele>
        <time>2018-04-22T05:55:39.000Z</time>
      </trkpt>
      <trkpt lat="44.10245" lon="7.37972">
        <ele>2390</ele>
        <time>2018-04-22T05:55:46.000Z</time>
      </trkpt>
      <trkpt lat="44.10248" lon="7.37975">
        <ele>2389</ele>
        <time>2018-04-22T05:55:50.000Z</time>
      </trkpt>
      <trkpt lat="44.10248" lon="7.37975">
        <ele>2389</ele>
        <time>2018-04-22T05:55:53.000Z</time>
      </trkpt>
      <trkpt lat="44.10252" lon="7.37977">
        <ele>2382</ele>
        <time>2018-04-22T05:55:58.000Z</time>
      </trkpt>
      <trkpt lat="44.10254" lon="7.37977">
        <ele>2382</ele>
        <time>2018-04-22T05:56:01.000Z</time>
      </trkpt>
      <trkpt lat="44.10258" lon="7.37977">
        <ele>2383</ele>
        <time>2018-04-22T05:56:06.000Z</time>
      </trkpt>
      <trkpt lat="44.10258" lon="7.37977">
        <ele>2383</ele>
        <time>2018-04-22T05:56:08.000Z</time>
      </trkpt>
      <trkpt lat="44.10258" lon="7.37976">
        <ele>2383</ele>
        <time>2018-04-22T05:56:09.000Z</time>
      </trkpt>
      <trkpt lat="44.10261" lon="7.37975">
        <ele>2383</ele>
        <time>2018-04-22T05:56:14.000Z</time>
      </trkpt>
      <trkpt lat="44.10262" lon="7.37974">
        <ele>2383</ele>
        <time>2018-04-22T05:56:16.000Z</time>
      </trkpt>
      <trkpt lat="44.10266" lon="7.37973">
        <ele>2383</ele>
        <time>2018-04-22T05:56:20.000Z</time>
      </trkpt>
      <trkpt lat="44.10268" lon="7.37972">
        <ele>2383</ele>
        <time>2018-04-22T05:56:23.000Z</time>
      </trkpt>
      <trkpt lat="44.1027" lon="7.37971">
        <ele>2383</ele>
        <time>2018-04-22T05:56:27.000Z</time>
      </trkpt>
      <trkpt lat="44.10273" lon="7.37969">
        <ele>2383</ele>
        <time>2018-04-22T05:56:32.000Z</time>
      </trkpt>
      <trkpt lat="44.10274" lon="7.37969">
        <ele>2383</ele>
        <time>2018-04-22T05:56:34.000Z</time>
      </trkpt>
      <trkpt lat="44.10276" lon="7.37969">
        <ele>2383</ele>
        <time>2018-04-22T05:56:39.000Z</time>
      </trkpt>
      <trkpt lat="44.10278" lon="7.37968">
        <ele>2384</ele>
        <time>2018-04-22T05:56:41.000Z</time>
      </trkpt>
      <trkpt lat="44.10281" lon="7.37968">
        <ele>2384</ele>
        <time>2018-04-22T05:56:44.000Z</time>
      </trkpt>
      <trkpt lat="44.10285" lon="7.37968">
        <ele>2384</ele>
        <time>2018-04-22T05:56:50.000Z</time>
      </trkpt>
      <trkpt lat="44.10289" lon="7.37968">
        <ele>2384</ele>
        <time>2018-04-22T05:56:56.000Z</time>
      </trkpt>
      <trkpt lat="44.10293" lon="7.37969">
        <ele>2385</ele>
        <time>2018-04-22T05:57:02.000Z</time>
      </trkpt>
      <trkpt lat="44.10296" lon="7.37969">
        <ele>2385</ele>
        <time>2018-04-22T05:57:07.000Z</time>
      </trkpt>
      <trkpt lat="44.10301" lon="7.3797">
        <ele>2386</ele>
        <time>2018-04-22T05:57:14.000Z</time>
      </trkpt>
      <trkpt lat="44.10305" lon="7.37969">
        <ele>2386</ele>
        <time>2018-04-22T05:57:20.000Z</time>
      </trkpt>
      <trkpt lat="44.10309" lon="7.3796">
        <ele>2386</ele>
        <time>2018-04-22T05:57:26.000Z</time>
      </trkpt>
      <trkpt lat="44.10309" lon="7.3796">
        <ele>2386</ele>
        <time>2018-04-22T05:57:27.000Z</time>
      </trkpt>
      <trkpt lat="44.10314" lon="7.37956">
        <ele>2386</ele>
        <time>2018-04-22T05:57:33.000Z</time>
      </trkpt>
      <trkpt lat="44.10315" lon="7.37956">
        <ele>2386</ele>
        <time>2018-04-22T05:57:34.000Z</time>
      </trkpt>
      <trkpt lat="44.10319" lon="7.37959">
        <ele>2386</ele>
        <time>2018-04-22T05:57:39.000Z</time>
      </trkpt>
      <trkpt lat="44.10322" lon="7.37961">
        <ele>2387</ele>
        <time>2018-04-22T05:57:44.000Z</time>
      </trkpt>
      <trkpt lat="44.10324" lon="7.37963">
        <ele>2387</ele>
        <time>2018-04-22T05:57:47.000Z</time>
      </trkpt>
      <trkpt lat="44.10326" lon="7.37964">
        <ele>2387</ele>
        <time>2018-04-22T05:57:49.000Z</time>
      </trkpt>
      <trkpt lat="44.10329" lon="7.37967">
        <ele>2387</ele>
        <time>2018-04-22T05:57:54.000Z</time>
      </trkpt>
      <trkpt lat="44.10332" lon="7.3797">
        <ele>2388</ele>
        <time>2018-04-22T05:58:00.000Z</time>
      </trkpt>
      <trkpt lat="44.10331" lon="7.37969">
        <ele>2388</ele>
        <time>2018-04-22T05:58:01.000Z</time>
      </trkpt>
      <trkpt lat="44.10333" lon="7.37971">
        <ele>2388</ele>
        <time>2018-04-22T05:58:05.000Z</time>
      </trkpt>
      <trkpt lat="44.10335" lon="7.37973">
        <ele>2401</ele>
        <time>2018-04-22T05:58:09.000Z</time>
      </trkpt>
      <trkpt lat="44.10336" lon="7.37974">
        <ele>2401</ele>
        <time>2018-04-22T05:58:10.000Z</time>
      </trkpt>
      <trkpt lat="44.10338" lon="7.37977">
        <ele>2401</ele>
        <time>2018-04-22T05:58:17.000Z</time>
      </trkpt>
      <trkpt lat="44.1034" lon="7.37979">
        <ele>2401</ele>
        <time>2018-04-22T05:58:24.000Z</time>
      </trkpt>
      <trkpt lat="44.1034" lon="7.3798">
        <ele>2401</ele>
        <time>2018-04-22T05:58:25.000Z</time>
      </trkpt>
      <trkpt lat="44.1034" lon="7.37979">
        <ele>2401</ele>
        <time>2018-04-22T05:58:28.000Z</time>
      </trkpt>
      <trkpt lat="44.1034" lon="7.37976">
        <ele>2401</ele>
        <time>2018-04-22T05:58:35.000Z</time>
      </trkpt>
      <trkpt lat="44.1034" lon="7.37973">
        <ele>2401</ele>
        <time>2018-04-22T05:58:40.000Z</time>
      </trkpt>
      <trkpt lat="44.1034" lon="7.37968">
        <ele>2401</ele>
        <time>2018-04-22T05:58:44.000Z</time>
      </trkpt>
      <trkpt lat="44.1034" lon="7.37964">
        <ele>2401</ele>
        <time>2018-04-22T05:58:51.000Z</time>
      </trkpt>
      <trkpt lat="44.1034" lon="7.37962">
        <ele>2401</ele>
        <time>2018-04-22T05:58:52.000Z</time>
      </trkpt>
      <trkpt lat="44.10341" lon="7.37957">
        <ele>2401</ele>
        <time>2018-04-22T05:58:59.000Z</time>
      </trkpt>
      <trkpt lat="44.10341" lon="7.37957">
        <ele>2401</ele>
        <time>2018-04-22T05:59:00.000Z</time>
      </trkpt>
      <trkpt lat="44.10343" lon="7.37956">
        <ele>2401</ele>
        <time>2018-04-22T05:59:06.000Z</time>
      </trkpt>
      <trkpt lat="44.10344" lon="7.37956">
        <ele>2402</ele>
        <time>2018-04-22T05:59:07.000Z</time>
      </trkpt>
      <trkpt lat="44.10346" lon="7.37955">
        <ele>2402</ele>
        <time>2018-04-22T05:59:12.000Z</time>
      </trkpt>
      <trkpt lat="44.10348" lon="7.37953">
        <ele>2402</ele>
        <time>2018-04-22T05:59:17.000Z</time>
      </trkpt>
      <trkpt lat="44.10349" lon="7.37952">
        <ele>2402</ele>
        <time>2018-04-22T05:59:19.000Z</time>
      </trkpt>
      <trkpt lat="44.1035" lon="7.37949">
        <ele>2402</ele>
        <time>2018-04-22T05:59:23.000Z</time>
      </trkpt>
      <trkpt lat="44.10352" lon="7.37947">
        <ele>2402</ele>
        <time>2018-04-22T05:59:28.000Z</time>
      </trkpt>
      <trkpt lat="44.10352" lon="7.37947">
        <ele>2402</ele>
        <time>2018-04-22T05:59:34.000Z</time>
      </trkpt>
      <trkpt lat="44.10352" lon="7.37947">
        <ele>2402</ele>
        <time>2018-04-22T05:59:36.000Z</time>
      </trkpt>
      <trkpt lat="44.10352" lon="7.37947">
        <ele>2402</ele>
        <time>2018-04-22T05:59:42.000Z</time>
      </trkpt>
      <trkpt lat="44.10351" lon="7.37946">
        <ele>2401</ele>
        <time>2018-04-22T05:59:53.000Z</time>
      </trkpt>
      <trkpt lat="44.10352" lon="7.37945">
        <ele>2401</ele>
        <time>2018-04-22T06:00:03.000Z</time>
      </trkpt>
      <trkpt lat="44.10351" lon="7.37945">
        <ele>2401</ele>
        <time>2018-04-22T06:00:09.000Z</time>
      </trkpt>
      <trkpt lat="44.10351" lon="7.37945">
        <ele>2401</ele>
        <time>2018-04-22T06:00:16.000Z</time>
      </trkpt>
      <trkpt lat="44.10351" lon="7.37945">
        <ele>2401</ele>
        <time>2018-04-22T06:00:25.000Z</time>
      </trkpt>
      <trkpt lat="44.10352" lon="7.37943">
        <ele>2401</ele>
        <time>2018-04-22T06:00:30.000Z</time>
      </trkpt>
      <trkpt lat="44.10355" lon="7.37942">
        <ele>2402</ele>
        <time>2018-04-22T06:00:35.000Z</time>
      </trkpt>
      <trkpt lat="44.10357" lon="7.3794">
        <ele>2402</ele>
        <time>2018-04-22T06:00:38.000Z</time>
      </trkpt>
      <trkpt lat="44.10361" lon="7.37938">
        <ele>2403</ele>
        <time>2018-04-22T06:00:43.000Z</time>
      </trkpt>
      <trkpt lat="44.10362" lon="7.37938">
        <ele>2403</ele>
        <time>2018-04-22T06:00:45.000Z</time>
      </trkpt>
      <trkpt lat="44.10364" lon="7.37937">
        <ele>2403</ele>
        <time>2018-04-22T06:00:47.000Z</time>
      </trkpt>
      <trkpt lat="44.10367" lon="7.37936">
        <ele>2404</ele>
        <time>2018-04-22T06:00:52.000Z</time>
      </trkpt>
      <trkpt lat="44.10367" lon="7.37936">
        <ele>2404</ele>
        <time>2018-04-22T06:00:53.000Z</time>
      </trkpt>
      <trkpt lat="44.10368" lon="7.37935">
        <ele>2404</ele>
        <time>2018-04-22T06:00:58.000Z</time>
      </trkpt>
      <trkpt lat="44.10369" lon="7.37934">
        <ele>2404</ele>
        <time>2018-04-22T06:01:09.000Z</time>
      </trkpt>
      <trkpt lat="44.1037" lon="7.37933">
        <ele>2404</ele>
        <time>2018-04-22T06:01:23.000Z</time>
      </trkpt>
      <trkpt lat="44.1037" lon="7.37931">
        <ele>2404</ele>
        <time>2018-04-22T06:01:35.000Z</time>
      </trkpt>
      <trkpt lat="44.1037" lon="7.37931">
        <ele>2404</ele>
        <time>2018-04-22T06:01:46.000Z</time>
      </trkpt>
      <trkpt lat="44.10371" lon="7.3793">
        <ele>2404</ele>
        <time>2018-04-22T06:01:50.000Z</time>
      </trkpt>
      <trkpt lat="44.10372" lon="7.3793">
        <ele>2405</ele>
        <time>2018-04-22T06:01:52.000Z</time>
      </trkpt>
      <trkpt lat="44.10374" lon="7.37929">
        <ele>2405</ele>
        <time>2018-04-22T06:01:56.000Z</time>
      </trkpt>
      <trkpt lat="44.10376" lon="7.37929">
        <ele>2405</ele>
        <time>2018-04-22T06:01:59.000Z</time>
      </trkpt>
      <trkpt lat="44.10378" lon="7.37929">
        <ele>2406</ele>
        <time>2018-04-22T06:02:03.000Z</time>
      </trkpt>
      <trkpt lat="44.10378" lon="7.37929">
        <ele>2406</ele>
        <time>2018-04-22T06:02:04.000Z</time>
      </trkpt>
      <trkpt lat="44.1038" lon="7.3793">
        <ele>2407</ele>
        <time>2018-04-22T06:02:07.000Z</time>
      </trkpt>
      <trkpt lat="44.10383" lon="7.37931">
        <ele>2407</ele>
        <time>2018-04-22T06:02:11.000Z</time>
      </trkpt>
      <trkpt lat="44.10382" lon="7.37931">
        <ele>2407</ele>
        <time>2018-04-22T06:02:12.000Z</time>
      </trkpt>
      <trkpt lat="44.10386" lon="7.37932">
        <ele>2408</ele>
        <time>2018-04-22T06:02:15.000Z</time>
      </trkpt>
      <trkpt lat="44.10388" lon="7.37934">
        <ele>2408</ele>
        <time>2018-04-22T06:02:19.000Z</time>
      </trkpt>
      <trkpt lat="44.10389" lon="7.37934">
        <ele>2408</ele>
        <time>2018-04-22T06:02:20.000Z</time>
      </trkpt>
      <trkpt lat="44.10391" lon="7.37936">
        <ele>2409</ele>
        <time>2018-04-22T06:02:24.000Z</time>
      </trkpt>
      <trkpt lat="44.10393" lon="7.37938">
        <ele>2409</ele>
        <time>2018-04-22T06:02:28.000Z</time>
      </trkpt>
      <trkpt lat="44.10394" lon="7.37939">
        <ele>2409</ele>
        <time>2018-04-22T06:02:30.000Z</time>
      </trkpt>
      <trkpt lat="44.10396" lon="7.37941">
        <ele>2410</ele>
        <time>2018-04-22T06:02:35.000Z</time>
      </trkpt>
      <trkpt lat="44.10398" lon="7.37943">
        <ele>2410</ele>
        <time>2018-04-22T06:02:39.000Z</time>
      </trkpt>
      <trkpt lat="44.10398" lon="7.37943">
        <ele>2410</ele>
        <time>2018-04-22T06:02:40.000Z</time>
      </trkpt>
      <trkpt lat="44.10401" lon="7.37945">
        <ele>2410</ele>
        <time>2018-04-22T06:02:45.000Z</time>
      </trkpt>
      <trkpt lat="44.10401" lon="7.37947">
        <ele>2410</ele>
        <time>2018-04-22T06:02:47.000Z</time>
      </trkpt>
      <trkpt lat="44.104" lon="7.37952">
        <ele>2411</ele>
        <time>2018-04-22T06:02:53.000Z</time>
      </trkpt>
      <trkpt lat="44.10398" lon="7.37958">
        <ele>2411</ele>
        <time>2018-04-22T06:03:00.000Z</time>
      </trkpt>
      <trkpt lat="44.10397" lon="7.37963">
        <ele>2411</ele>
        <time>2018-04-22T06:03:06.000Z</time>
      </trkpt>
      <trkpt lat="44.10396" lon="7.37964">
        <ele>2411</ele>
        <time>2018-04-22T06:03:09.000Z</time>
      </trkpt>
      <trkpt lat="44.10396" lon="7.37965">
        <ele>2411</ele>
        <time>2018-04-22T06:03:13.000Z</time>
      </trkpt>
      <trkpt lat="44.10396" lon="7.37967">
        <ele>2411</ele>
        <time>2018-04-22T06:03:18.000Z</time>
      </trkpt>
      <trkpt lat="44.10399" lon="7.37968">
        <ele>2412</ele>
        <time>2018-04-22T06:03:24.000Z</time>
      </trkpt>
      <trkpt lat="44.10402" lon="7.37967">
        <ele>2412</ele>
        <time>2018-04-22T06:03:29.000Z</time>
      </trkpt>
      <trkpt lat="44.10401" lon="7.37967">
        <ele>2412</ele>
        <time>2018-04-22T06:03:30.000Z</time>
      </trkpt>
      <trkpt lat="44.10404" lon="7.37967">
        <ele>2413</ele>
        <time>2018-04-22T06:03:35.000Z</time>
      </trkpt>
      <trkpt lat="44.10404" lon="7.37966">
        <ele>2413</ele>
        <time>2018-04-22T06:03:37.000Z</time>
      </trkpt>
      <trkpt lat="44.10406" lon="7.37965">
        <ele>2413</ele>
        <time>2018-04-22T06:03:40.000Z</time>
      </trkpt>
      <trkpt lat="44.10409" lon="7.37964">
        <ele>2413</ele>
        <time>2018-04-22T06:03:45.000Z</time>
      </trkpt>
      <trkpt lat="44.10411" lon="7.37962">
        <ele>2413</ele>
        <time>2018-04-22T06:03:51.000Z</time>
      </trkpt>
      <trkpt lat="44.10411" lon="7.37962">
        <ele>2413</ele>
        <time>2018-04-22T06:03:53.000Z</time>
      </trkpt>
      <trkpt lat="44.10412" lon="7.37961">
        <ele>2413</ele>
        <time>2018-04-22T06:03:55.000Z</time>
      </trkpt>
      <trkpt lat="44.10414" lon="7.37961">
        <ele>2413</ele>
        <time>2018-04-22T06:04:02.000Z</time>
      </trkpt>
      <trkpt lat="44.10414" lon="7.37961">
        <ele>2413</ele>
        <time>2018-04-22T06:04:03.000Z</time>
      </trkpt>
      <trkpt lat="44.10413" lon="7.37961">
        <ele>2413</ele>
        <time>2018-04-22T06:04:10.000Z</time>
      </trkpt>
      <trkpt lat="44.10415" lon="7.37959">
        <ele>2413</ele>
        <time>2018-04-22T06:04:16.000Z</time>
      </trkpt>
      <trkpt lat="44.10417" lon="7.37958">
        <ele>2425</ele>
        <time>2018-04-22T06:04:20.000Z</time>
      </trkpt>
      <trkpt lat="44.10417" lon="7.37959">
        <ele>2425</ele>
        <time>2018-04-22T06:04:25.000Z</time>
      </trkpt>
      <trkpt lat="44.10417" lon="7.37959">
        <ele>2425</ele>
        <time>2018-04-22T06:04:26.000Z</time>
      </trkpt>
      <trkpt lat="44.10417" lon="7.37962">
        <ele>2413</ele>
        <time>2018-04-22T06:04:32.000Z</time>
      </trkpt>
      <trkpt lat="44.10416" lon="7.37966">
        <ele>2414</ele>
        <time>2018-04-22T06:04:38.000Z</time>
      </trkpt>
      <trkpt lat="44.10416" lon="7.37967">
        <ele>2414</ele>
        <time>2018-04-22T06:04:40.000Z</time>
      </trkpt>
      <trkpt lat="44.10415" lon="7.37971">
        <ele>2415</ele>
        <time>2018-04-22T06:04:45.000Z</time>
      </trkpt>
      <trkpt lat="44.10414" lon="7.37973">
        <ele>2415</ele>
        <time>2018-04-22T06:04:49.000Z</time>
      </trkpt>
      <trkpt lat="44.10414" lon="7.37973">
        <ele>2415</ele>
        <time>2018-04-22T06:04:51.000Z</time>
      </trkpt>
      <trkpt lat="44.10413" lon="7.37977">
        <ele>2416</ele>
        <time>2018-04-22T06:04:57.000Z</time>
      </trkpt>
      <trkpt lat="44.10412" lon="7.3798">
        <ele>2417</ele>
        <time>2018-04-22T06:05:00.000Z</time>
      </trkpt>
      <trkpt lat="44.10411" lon="7.37983">
        <ele>2418</ele>
        <time>2018-04-22T06:05:05.000Z</time>
      </trkpt>
      <trkpt lat="44.10411" lon="7.37985">
        <ele>2418</ele>
        <time>2018-04-22T06:05:09.000Z</time>
      </trkpt>
      <trkpt lat="44.10411" lon="7.37985">
        <ele>2418</ele>
        <time>2018-04-22T06:05:11.000Z</time>
      </trkpt>
      <trkpt lat="44.10412" lon="7.37984">
        <ele>2418</ele>
        <time>2018-04-22T06:05:18.000Z</time>
      </trkpt>
      <trkpt lat="44.10413" lon="7.37984">
        <ele>2419</ele>
        <time>2018-04-22T06:05:25.000Z</time>
      </trkpt>
      <trkpt lat="44.10415" lon="7.37983">
        <ele>2418</ele>
        <time>2018-04-22T06:05:30.000Z</time>
      </trkpt>
      <trkpt lat="44.10416" lon="7.37982">
        <ele>2418</ele>
        <time>2018-04-22T06:05:31.000Z</time>
      </trkpt>
      <trkpt lat="44.10418" lon="7.37981">
        <ele>2428</ele>
        <time>2018-04-22T06:05:35.000Z</time>
      </trkpt>
      <trkpt lat="44.10421" lon="7.37979">
        <ele>2428</ele>
        <time>2018-04-22T06:05:40.000Z</time>
      </trkpt>
      <trkpt lat="44.10422" lon="7.37978">
        <ele>2428</ele>
        <time>2018-04-22T06:05:45.000Z</time>
      </trkpt>
      <trkpt lat="44.10424" lon="7.37976">
        <ele>2427</ele>
        <time>2018-04-22T06:05:49.000Z</time>
      </trkpt>
      <trkpt lat="44.10426" lon="7.37975">
        <ele>2427</ele>
        <time>2018-04-22T06:05:53.000Z</time>
      </trkpt>
      <trkpt lat="44.10426" lon="7.37976">
        <ele>2428</ele>
        <time>2018-04-22T06:05:57.000Z</time>
      </trkpt>
      <trkpt lat="44.10426" lon="7.37976">
        <ele>2428</ele>
        <time>2018-04-22T06:05:58.000Z</time>
      </trkpt>
      <trkpt lat="44.10426" lon="7.37978">
        <ele>2428</ele>
        <time>2018-04-22T06:06:04.000Z</time>
      </trkpt>
      <trkpt lat="44.10425" lon="7.37983">
        <ele>2428</ele>
        <time>2018-04-22T06:06:11.000Z</time>
      </trkpt>
      <trkpt lat="44.10425" lon="7.37983">
        <ele>2428</ele>
        <time>2018-04-22T06:06:12.000Z</time>
      </trkpt>
      <trkpt lat="44.10424" lon="7.37987">
        <ele>2428</ele>
        <time>2018-04-22T06:06:17.000Z</time>
      </trkpt>
      <trkpt lat="44.10423" lon="7.37992">
        <ele>2429</ele>
        <time>2018-04-22T06:06:23.000Z</time>
      </trkpt>
      <trkpt lat="44.10422" lon="7.37992">
        <ele>2429</ele>
        <time>2018-04-22T06:06:26.000Z</time>
      </trkpt>
      <trkpt lat="44.10421" lon="7.37995">
        <ele>2429</ele>
        <time>2018-04-22T06:06:29.000Z</time>
      </trkpt>
      <trkpt lat="44.1042" lon="7.37997">
        <ele>2429</ele>
        <time>2018-04-22T06:06:37.000Z</time>
      </trkpt>
      <trkpt lat="44.10421" lon="7.37996">
        <ele>2429</ele>
        <time>2018-04-22T06:06:39.000Z</time>
      </trkpt>
      <trkpt lat="44.10421" lon="7.37996">
        <ele>2429</ele>
        <time>2018-04-22T06:06:42.000Z</time>
      </trkpt>
      <trkpt lat="44.10424" lon="7.37995">
        <ele>2429</ele>
        <time>2018-04-22T06:06:47.000Z</time>
      </trkpt>
      <trkpt lat="44.10424" lon="7.37995">
        <ele>2429</ele>
        <time>2018-04-22T06:06:49.000Z</time>
      </trkpt>
      <trkpt lat="44.10425" lon="7.37994">
        <ele>2429</ele>
        <time>2018-04-22T06:06:53.000Z</time>
      </trkpt>
      <trkpt lat="44.10428" lon="7.37992">
        <ele>2429</ele>
        <time>2018-04-22T06:06:58.000Z</time>
      </trkpt>
      <trkpt lat="44.10428" lon="7.37991">
        <ele>2429</ele>
        <time>2018-04-22T06:06:59.000Z</time>
      </trkpt>
      <trkpt lat="44.10429" lon="7.3799">
        <ele>2429</ele>
        <time>2018-04-22T06:07:04.000Z</time>
      </trkpt>
      <trkpt lat="44.10431" lon="7.37988">
        <ele>2429</ele>
        <time>2018-04-22T06:07:08.000Z</time>
      </trkpt>
      <trkpt lat="44.10432" lon="7.37987">
        <ele>2429</ele>
        <time>2018-04-22T06:07:10.000Z</time>
      </trkpt>
      <trkpt lat="44.10433" lon="7.37987">
        <ele>2429</ele>
        <time>2018-04-22T06:07:12.000Z</time>
      </trkpt>
      <trkpt lat="44.10432" lon="7.37991">
        <ele>2429</ele>
        <time>2018-04-22T06:07:19.000Z</time>
      </trkpt>
      <trkpt lat="44.10432" lon="7.37992">
        <ele>2429</ele>
        <time>2018-04-22T06:07:20.000Z</time>
      </trkpt>
      <trkpt lat="44.10432" lon="7.37996">
        <ele>2429</ele>
        <time>2018-04-22T06:07:25.000Z</time>
      </trkpt>
      <trkpt lat="44.10431" lon="7.38">
        <ele>2435</ele>
        <time>2018-04-22T06:07:30.000Z</time>
      </trkpt>
      <trkpt lat="44.10431" lon="7.38002">
        <ele>2435</ele>
        <time>2018-04-22T06:07:31.000Z</time>
      </trkpt>
      <trkpt lat="44.1043" lon="7.38007">
        <ele>2435</ele>
        <time>2018-04-22T06:07:37.000Z</time>
      </trkpt>
      <trkpt lat="44.1043" lon="7.38009">
        <ele>2435</ele>
        <time>2018-04-22T06:07:39.000Z</time>
      </trkpt>
      <trkpt lat="44.10429" lon="7.38015">
        <ele>2435</ele>
        <time>2018-04-22T06:07:47.000Z</time>
      </trkpt>
      <trkpt lat="44.10429" lon="7.38016">
        <ele>2436</ele>
        <time>2018-04-22T06:07:48.000Z</time>
      </trkpt>
      <trkpt lat="44.10427" lon="7.38018">
        <ele>2436</ele>
        <time>2018-04-22T06:07:54.000Z</time>
      </trkpt>
      <trkpt lat="44.10426" lon="7.3802">
        <ele>2436</ele>
        <time>2018-04-22T06:07:56.000Z</time>
      </trkpt>
      <trkpt lat="44.10426" lon="7.38022">
        <ele>2436</ele>
        <time>2018-04-22T06:07:59.000Z</time>
      </trkpt>
      <trkpt lat="44.10425" lon="7.38024">
        <ele>2436</ele>
        <time>2018-04-22T06:08:04.000Z</time>
      </trkpt>
      <trkpt lat="44.10424" lon="7.3803">
        <ele>2437</ele>
        <time>2018-04-22T06:08:10.000Z</time>
      </trkpt>
      <trkpt lat="44.10424" lon="7.38029">
        <ele>2436</ele>
        <time>2018-04-22T06:08:11.000Z</time>
      </trkpt>
      <trkpt lat="44.10424" lon="7.38034">
        <ele>2437</ele>
        <time>2018-04-22T06:08:16.000Z</time>
      </trkpt>
      <trkpt lat="44.10426" lon="7.38036">
        <ele>2437</ele>
        <time>2018-04-22T06:08:20.000Z</time>
      </trkpt>
      <trkpt lat="44.10425" lon="7.38036">
        <ele>2437</ele>
        <time>2018-04-22T06:08:21.000Z</time>
      </trkpt>
      <trkpt lat="44.10428" lon="7.3804">
        <ele>2437</ele>
        <time>2018-04-22T06:08:26.000Z</time>
      </trkpt>
      <trkpt lat="44.10429" lon="7.38041">
        <ele>2437</ele>
        <time>2018-04-22T06:08:28.000Z</time>
      </trkpt>
      <trkpt lat="44.10429" lon="7.38042">
        <ele>2437</ele>
        <time>2018-04-22T06:08:33.000Z</time>
      </trkpt>
      <trkpt lat="44.10429" lon="7.38043">
        <ele>2437</ele>
        <time>2018-04-22T06:08:42.000Z</time>
      </trkpt>
      <trkpt lat="44.10429" lon="7.38042">
        <ele>2437</ele>
        <time>2018-04-22T06:08:48.000Z</time>
      </trkpt>
      <trkpt lat="44.1043" lon="7.38042">
        <ele>2437</ele>
        <time>2018-04-22T06:08:55.000Z</time>
      </trkpt>
      <trkpt lat="44.1043" lon="7.38042">
        <ele>2438</ele>
        <time>2018-04-22T06:09:10.000Z</time>
      </trkpt>
      <trkpt lat="44.10431" lon="7.38041">
        <ele>2438</ele>
        <time>2018-04-22T06:09:19.000Z</time>
      </trkpt>
      <trkpt lat="44.10432" lon="7.38041">
        <ele>2438</ele>
        <time>2018-04-22T06:09:27.000Z</time>
      </trkpt>
      <trkpt lat="44.10432" lon="7.38041">
        <ele>2438</ele>
        <time>2018-04-22T06:09:33.000Z</time>
      </trkpt>
      <trkpt lat="44.10434" lon="7.38042">
        <ele>2438</ele>
        <time>2018-04-22T06:09:46.000Z</time>
      </trkpt>
      <trkpt lat="44.10435" lon="7.38043">
        <ele>2438</ele>
        <time>2018-04-22T06:09:55.000Z</time>
      </trkpt>
      <trkpt lat="44.10436" lon="7.38045">
        <ele>2438</ele>
        <time>2018-04-22T06:10:13.000Z</time>
      </trkpt>
      <trkpt lat="44.10436" lon="7.38045">
        <ele>2438</ele>
        <time>2018-04-22T06:10:24.000Z</time>
      </trkpt>
      <trkpt lat="44.10437" lon="7.38047">
        <ele>2438</ele>
        <time>2018-04-22T06:10:32.000Z</time>
      </trkpt>
      <trkpt lat="44.10437" lon="7.38048">
        <ele>2438</ele>
        <time>2018-04-22T06:10:35.000Z</time>
      </trkpt>
      <trkpt lat="44.10437" lon="7.38048">
        <ele>2438</ele>
        <time>2018-04-22T06:10:39.000Z</time>
      </trkpt>
      <trkpt lat="44.10437" lon="7.38048">
        <ele>2438</ele>
        <time>2018-04-22T06:10:44.000Z</time>
      </trkpt>
      <trkpt lat="44.10439" lon="7.3805">
        <ele>2438</ele>
        <time>2018-04-22T06:10:53.000Z</time>
      </trkpt>
      <trkpt lat="44.10441" lon="7.38054">
        <ele>2439</ele>
        <time>2018-04-22T06:10:57.000Z</time>
      </trkpt>
      <trkpt lat="44.10442" lon="7.38057">
        <ele>2439</ele>
        <time>2018-04-22T06:11:00.000Z</time>
      </trkpt>
      <trkpt lat="44.10443" lon="7.38059">
        <ele>2439</ele>
        <time>2018-04-22T06:11:02.000Z</time>
      </trkpt>
      <trkpt lat="44.10445" lon="7.38062">
        <ele>2439</ele>
        <time>2018-04-22T06:11:06.000Z</time>
      </trkpt>
      <trkpt lat="44.10445" lon="7.38065">
        <ele>2439</ele>
        <time>2018-04-22T06:11:09.000Z</time>
      </trkpt>
      <trkpt lat="44.10446" lon="7.38069">
        <ele>2439</ele>
        <time>2018-04-22T06:11:12.000Z</time>
      </trkpt>
      <trkpt lat="44.10447" lon="7.38074">
        <ele>2439</ele>
        <time>2018-04-22T06:11:17.000Z</time>
      </trkpt>
      <trkpt lat="44.10448" lon="7.38079">
        <ele>2440</ele>
        <time>2018-04-22T06:11:22.000Z</time>
      </trkpt>
      <trkpt lat="44.10449" lon="7.38085">
        <ele>2446</ele>
        <time>2018-04-22T06:11:28.000Z</time>
      </trkpt>
      <trkpt lat="44.1045" lon="7.3809">
        <ele>2447</ele>
        <time>2018-04-22T06:11:33.000Z</time>
      </trkpt>
      <trkpt lat="44.1045" lon="7.38093">
        <ele>2447</ele>
        <time>2018-04-22T06:11:36.000Z</time>
      </trkpt>
      <trkpt lat="44.1045" lon="7.38095">
        <ele>2447</ele>
        <time>2018-04-22T06:11:38.000Z</time>
      </trkpt>
      <trkpt lat="44.1045" lon="7.38096">
        <ele>2447</ele>
        <time>2018-04-22T06:11:40.000Z</time>
      </trkpt>
      <trkpt lat="44.1045" lon="7.381">
        <ele>2448</ele>
        <time>2018-04-22T06:11:44.000Z</time>
      </trkpt>
      <trkpt lat="44.1045" lon="7.38099">
        <ele>2448</ele>
        <time>2018-04-22T06:11:45.000Z</time>
      </trkpt>
      <trkpt lat="44.1045" lon="7.38104">
        <ele>2448</ele>
        <time>2018-04-22T06:11:50.000Z</time>
      </trkpt>
      <trkpt lat="44.1045" lon="7.38105">
        <ele>2448</ele>
        <time>2018-04-22T06:11:53.000Z</time>
      </trkpt>
      <trkpt lat="44.1045" lon="7.38106">
        <ele>2448</ele>
        <time>2018-04-22T06:11:55.000Z</time>
      </trkpt>
      <trkpt lat="44.10452" lon="7.38108">
        <ele>2449</ele>
        <time>2018-04-22T06:12:01.000Z</time>
      </trkpt>
      <trkpt lat="44.10454" lon="7.38109">
        <ele>2450</ele>
        <time>2018-04-22T06:12:06.000Z</time>
      </trkpt>
      <trkpt lat="44.10456" lon="7.38108">
        <ele>2450</ele>
        <time>2018-04-22T06:12:11.000Z</time>
      </trkpt>
      <trkpt lat="44.10456" lon="7.38108">
        <ele>2451</ele>
        <time>2018-04-22T06:12:12.000Z</time>
      </trkpt>
      <trkpt lat="44.10457" lon="7.38107">
        <ele>2451</ele>
        <time>2018-04-22T06:12:16.000Z</time>
      </trkpt>
      <trkpt lat="44.10459" lon="7.38106">
        <ele>2451</ele>
        <time>2018-04-22T06:12:19.000Z</time>
      </trkpt>
      <trkpt lat="44.1046" lon="7.38106">
        <ele>2451</ele>
        <time>2018-04-22T06:12:21.000Z</time>
      </trkpt>
      <trkpt lat="44.10462" lon="7.38104">
        <ele>2452</ele>
        <time>2018-04-22T06:12:26.000Z</time>
      </trkpt>
      <trkpt lat="44.10462" lon="7.38105">
        <ele>2452</ele>
        <time>2018-04-22T06:12:27.000Z</time>
      </trkpt>
      <trkpt lat="44.10464" lon="7.38106">
        <ele>2452</ele>
        <time>2018-04-22T06:12:30.000Z</time>
      </trkpt>
      <trkpt lat="44.10464" lon="7.38107">
        <ele>2453</ele>
        <time>2018-04-22T06:12:31.000Z</time>
      </trkpt>
      <trkpt lat="44.10464" lon="7.38107">
        <ele>2453</ele>
        <time>2018-04-22T06:12:33.000Z</time>
      </trkpt>
      <trkpt lat="44.10465" lon="7.38111">
        <ele>2453</ele>
        <time>2018-04-22T06:12:36.000Z</time>
      </trkpt>
      <trkpt lat="44.10465" lon="7.38114">
        <ele>2453</ele>
        <time>2018-04-22T06:12:40.000Z</time>
      </trkpt>
      <trkpt lat="44.10466" lon="7.38115">
        <ele>2454</ele>
        <time>2018-04-22T06:12:42.000Z</time>
      </trkpt>
      <trkpt lat="44.10467" lon="7.3812">
        <ele>2454</ele>
        <time>2018-04-22T06:12:48.000Z</time>
      </trkpt>
      <trkpt lat="44.10467" lon="7.38122">
        <ele>2455</ele>
        <time>2018-04-22T06:12:53.000Z</time>
      </trkpt>
      <trkpt lat="44.10467" lon="7.38127">
        <ele>2455</ele>
        <time>2018-04-22T06:12:58.000Z</time>
      </trkpt>
      <trkpt lat="44.10468" lon="7.38129">
        <ele>2456</ele>
        <time>2018-04-22T06:13:04.000Z</time>
      </trkpt>
      <trkpt lat="44.10468" lon="7.38132">
        <ele>2456</ele>
        <time>2018-04-22T06:13:07.000Z</time>
      </trkpt>
      <trkpt lat="44.10468" lon="7.38133">
        <ele>2456</ele>
        <time>2018-04-22T06:13:09.000Z</time>
      </trkpt>
      <trkpt lat="44.10469" lon="7.38135">
        <ele>2457</ele>
        <time>2018-04-22T06:13:12.000Z</time>
      </trkpt>
      <trkpt lat="44.10469" lon="7.38136">
        <ele>2457</ele>
        <time>2018-04-22T06:13:15.000Z</time>
      </trkpt>
      <trkpt lat="44.1047" lon="7.38141">
        <ele>2458</ele>
        <time>2018-04-22T06:13:20.000Z</time>
      </trkpt>
      <trkpt lat="44.10471" lon="7.38142">
        <ele>2458</ele>
        <time>2018-04-22T06:13:22.000Z</time>
      </trkpt>
      <trkpt lat="44.10471" lon="7.38145">
        <ele>2459</ele>
        <time>2018-04-22T06:13:28.000Z</time>
      </trkpt>
      <trkpt lat="44.10472" lon="7.38147">
        <ele>2459</ele>
        <time>2018-04-22T06:13:29.000Z</time>
      </trkpt>
      <trkpt lat="44.10473" lon="7.38151">
        <ele>2460</ele>
        <time>2018-04-22T06:13:36.000Z</time>
      </trkpt>
      <trkpt lat="44.10474" lon="7.38154">
        <ele>2461</ele>
        <time>2018-04-22T06:13:43.000Z</time>
      </trkpt>
      <trkpt lat="44.10474" lon="7.38155">
        <ele>2461</ele>
        <time>2018-04-22T06:13:45.000Z</time>
      </trkpt>
      <trkpt lat="44.10475" lon="7.38159">
        <ele>2462</ele>
        <time>2018-04-22T06:13:50.000Z</time>
      </trkpt>
      <trkpt lat="44.10475" lon="7.38162">
        <ele>2463</ele>
        <time>2018-04-22T06:13:55.000Z</time>
      </trkpt>
      <trkpt lat="44.10475" lon="7.38163">
        <ele>2463</ele>
        <time>2018-04-22T06:13:58.000Z</time>
      </trkpt>
      <trkpt lat="44.10476" lon="7.38167">
        <ele>2474</ele>
        <time>2018-04-22T06:14:04.000Z</time>
      </trkpt>
      <trkpt lat="44.10476" lon="7.38171">
        <ele>2474</ele>
        <time>2018-04-22T06:14:10.000Z</time>
      </trkpt>
      <trkpt lat="44.10477" lon="7.38172">
        <ele>2474</ele>
        <time>2018-04-22T06:14:12.000Z</time>
      </trkpt>
      <trkpt lat="44.10477" lon="7.38174">
        <ele>2474</ele>
        <time>2018-04-22T06:14:16.000Z</time>
      </trkpt>
      <trkpt lat="44.10477" lon="7.38177">
        <ele>2475</ele>
        <time>2018-04-22T06:14:21.000Z</time>
      </trkpt>
      <trkpt lat="44.10478" lon="7.38178">
        <ele>2475</ele>
        <time>2018-04-22T06:14:22.000Z</time>
      </trkpt>
      <trkpt lat="44.10479" lon="7.3818">
        <ele>2475</ele>
        <time>2018-04-22T06:14:27.000Z</time>
      </trkpt>
      <trkpt lat="44.1048" lon="7.3818">
        <ele>2475</ele>
        <time>2018-04-22T06:14:29.000Z</time>
      </trkpt>
      <trkpt lat="44.10481" lon="7.3818">
        <ele>2476</ele>
        <time>2018-04-22T06:14:33.000Z</time>
      </trkpt>
      <trkpt lat="44.10483" lon="7.3818">
        <ele>2476</ele>
        <time>2018-04-22T06:14:37.000Z</time>
      </trkpt>
      <trkpt lat="44.10484" lon="7.3818">
        <ele>2476</ele>
        <time>2018-04-22T06:14:38.000Z</time>
      </trkpt>
      <trkpt lat="44.10486" lon="7.3818">
        <ele>2477</ele>
        <time>2018-04-22T06:14:44.000Z</time>
      </trkpt>
      <trkpt lat="44.10487" lon="7.3818">
        <ele>2477</ele>
        <time>2018-04-22T06:14:45.000Z</time>
      </trkpt>
      <trkpt lat="44.10488" lon="7.3818">
        <ele>2477</ele>
        <time>2018-04-22T06:14:49.000Z</time>
      </trkpt>
      <trkpt lat="44.1049" lon="7.3818">
        <ele>2478</ele>
        <time>2018-04-22T06:14:53.000Z</time>
      </trkpt>
      <trkpt lat="44.10491" lon="7.38179">
        <ele>2478</ele>
        <time>2018-04-22T06:14:54.000Z</time>
      </trkpt>
      <trkpt lat="44.10494" lon="7.38179">
        <ele>2478</ele>
        <time>2018-04-22T06:14:59.000Z</time>
      </trkpt>
      <trkpt lat="44.10495" lon="7.38179">
        <ele>2479</ele>
        <time>2018-04-22T06:15:01.000Z</time>
      </trkpt>
      <trkpt lat="44.10496" lon="7.38179">
        <ele>2479</ele>
        <time>2018-04-22T06:15:03.000Z</time>
      </trkpt>
      <trkpt lat="44.10499" lon="7.3818">
        <ele>2479</ele>
        <time>2018-04-22T06:15:08.000Z</time>
      </trkpt>
      <trkpt lat="44.10501" lon="7.38181">
        <ele>2489</ele>
        <time>2018-04-22T06:15:13.000Z</time>
      </trkpt>
      <trkpt lat="44.10502" lon="7.38182">
        <ele>2490</ele>
        <time>2018-04-22T06:15:15.000Z</time>
      </trkpt>
      <trkpt lat="44.10503" lon="7.38184">
        <ele>2490</ele>
        <time>2018-04-22T06:15:18.000Z</time>
      </trkpt>
      <trkpt lat="44.10503" lon="7.38186">
        <ele>2491</ele>
        <time>2018-04-22T06:15:20.000Z</time>
      </trkpt>
      <trkpt lat="44.10503" lon="7.38189">
        <ele>2492</ele>
        <time>2018-04-22T06:15:25.000Z</time>
      </trkpt>
      <trkpt lat="44.10503" lon="7.3819">
        <ele>2492</ele>
        <time>2018-04-22T06:15:26.000Z</time>
      </trkpt>
      <trkpt lat="44.10503" lon="7.38193">
        <ele>2493</ele>
        <time>2018-04-22T06:15:31.000Z</time>
      </trkpt>
      <trkpt lat="44.10503" lon="7.38195">
        <ele>2493</ele>
        <time>2018-04-22T06:15:34.000Z</time>
      </trkpt>
      <trkpt lat="44.10503" lon="7.38197">
        <ele>2493</ele>
        <time>2018-04-22T06:15:37.000Z</time>
      </trkpt>
      <trkpt lat="44.10504" lon="7.382">
        <ele>2494</ele>
        <time>2018-04-22T06:15:41.000Z</time>
      </trkpt>
      <trkpt lat="44.10504" lon="7.38201">
        <ele>2494</ele>
        <time>2018-04-22T06:15:44.000Z</time>
      </trkpt>
      <trkpt lat="44.10504" lon="7.38205">
        <ele>2495</ele>
        <time>2018-04-22T06:15:48.000Z</time>
      </trkpt>
      <trkpt lat="44.10504" lon="7.38206">
        <ele>2495</ele>
        <time>2018-04-22T06:15:50.000Z</time>
      </trkpt>
      <trkpt lat="44.10504" lon="7.3821">
        <ele>2495</ele>
        <time>2018-04-22T06:15:55.000Z</time>
      </trkpt>
      <trkpt lat="44.10504" lon="7.38211">
        <ele>2496</ele>
        <time>2018-04-22T06:15:56.000Z</time>
      </trkpt>
      <trkpt lat="44.10504" lon="7.38214">
        <ele>2496</ele>
        <time>2018-04-22T06:16:00.000Z</time>
      </trkpt>
      <trkpt lat="44.10504" lon="7.38217">
        <ele>2496</ele>
        <time>2018-04-22T06:16:04.000Z</time>
      </trkpt>
      <trkpt lat="44.10504" lon="7.38218">
        <ele>2496</ele>
        <time>2018-04-22T06:16:05.000Z</time>
      </trkpt>
      <trkpt lat="44.10504" lon="7.38223">
        <ele>2497</ele>
        <time>2018-04-22T06:16:11.000Z</time>
      </trkpt>
      <trkpt lat="44.10504" lon="7.38225">
        <ele>2497</ele>
        <time>2018-04-22T06:16:15.000Z</time>
      </trkpt>
      <trkpt lat="44.10503" lon="7.38228">
        <ele>2497</ele>
        <time>2018-04-22T06:16:17.000Z</time>
      </trkpt>
      <trkpt lat="44.10502" lon="7.38233">
        <ele>2498</ele>
        <time>2018-04-22T06:16:24.000Z</time>
      </trkpt>
      <trkpt lat="44.105" lon="7.38238">
        <ele>2498</ele>
        <time>2018-04-22T06:16:30.000Z</time>
      </trkpt>
      <trkpt lat="44.105" lon="7.38239">
        <ele>2490</ele>
        <time>2018-04-22T06:16:32.000Z</time>
      </trkpt>
      <trkpt lat="44.10497" lon="7.38245">
        <ele>2493</ele>
        <time>2018-04-22T06:16:40.000Z</time>
      </trkpt>
      <trkpt lat="44.10495" lon="7.38249">
        <ele>2494</ele>
        <time>2018-04-22T06:16:47.000Z</time>
      </trkpt>
      <trkpt lat="44.10494" lon="7.3825">
        <ele>2493</ele>
        <time>2018-04-22T06:16:49.000Z</time>
      </trkpt>
      <trkpt lat="44.10492" lon="7.38252">
        <ele>2498</ele>
        <time>2018-04-22T06:16:53.000Z</time>
      </trkpt>
      <trkpt lat="44.10491" lon="7.38254">
        <ele>2497</ele>
        <time>2018-04-22T06:16:57.000Z</time>
      </trkpt>
      <trkpt lat="44.1049" lon="7.38256">
        <ele>2497</ele>
        <time>2018-04-22T06:16:59.000Z</time>
      </trkpt>
      <trkpt lat="44.10489" lon="7.38257">
        <ele>2497</ele>
        <time>2018-04-22T06:17:05.000Z</time>
      </trkpt>
      <trkpt lat="44.1049" lon="7.38257">
        <ele>2497</ele>
        <time>2018-04-22T06:17:06.000Z</time>
      </trkpt>
      <trkpt lat="44.10492" lon="7.38257">
        <ele>2497</ele>
        <time>2018-04-22T06:17:09.000Z</time>
      </trkpt>
      <trkpt lat="44.10494" lon="7.38258">
        <ele>2498</ele>
        <time>2018-04-22T06:17:16.000Z</time>
      </trkpt>
      <trkpt lat="44.10497" lon="7.38258">
        <ele>2498</ele>
        <time>2018-04-22T06:17:20.000Z</time>
      </trkpt>
      <trkpt lat="44.10498" lon="7.38259">
        <ele>2498</ele>
        <time>2018-04-22T06:17:21.000Z</time>
      </trkpt>
      <trkpt lat="44.105" lon="7.3826">
        <ele>2498</ele>
        <time>2018-04-22T06:17:27.000Z</time>
      </trkpt>
      <trkpt lat="44.10502" lon="7.38261">
        <ele>2506</ele>
        <time>2018-04-22T06:17:30.000Z</time>
      </trkpt>
      <trkpt lat="44.10503" lon="7.38262">
        <ele>2506</ele>
        <time>2018-04-22T06:17:32.000Z</time>
      </trkpt>
      <trkpt lat="44.10505" lon="7.38263">
        <ele>2507</ele>
        <time>2018-04-22T06:17:36.000Z</time>
      </trkpt>
      <trkpt lat="44.10506" lon="7.38263">
        <ele>2507</ele>
        <time>2018-04-22T06:17:37.000Z</time>
      </trkpt>
      <trkpt lat="44.10509" lon="7.38263">
        <ele>2507</ele>
        <time>2018-04-22T06:17:43.000Z</time>
      </trkpt>
      <trkpt lat="44.10509" lon="7.38263">
        <ele>2508</ele>
        <time>2018-04-22T06:17:44.000Z</time>
      </trkpt>
      <trkpt lat="44.1051" lon="7.38263">
        <ele>2508</ele>
        <time>2018-04-22T06:17:48.000Z</time>
      </trkpt>
      <trkpt lat="44.10511" lon="7.38264">
        <ele>2509</ele>
        <time>2018-04-22T06:17:49.000Z</time>
      </trkpt>
      <trkpt lat="44.10511" lon="7.38266">
        <ele>2509</ele>
        <time>2018-04-22T06:17:52.000Z</time>
      </trkpt>
      <trkpt lat="44.10511" lon="7.38267">
        <ele>2509</ele>
        <time>2018-04-22T06:17:53.000Z</time>
      </trkpt>
      <trkpt lat="44.1051" lon="7.38271">
        <ele>2510</ele>
        <time>2018-04-22T06:17:59.000Z</time>
      </trkpt>
      <trkpt lat="44.10508" lon="7.38278">
        <ele>2512</ele>
        <time>2018-04-22T06:18:06.000Z</time>
      </trkpt>
      <trkpt lat="44.10507" lon="7.38281">
        <ele>2513</ele>
        <time>2018-04-22T06:18:10.000Z</time>
      </trkpt>
      <trkpt lat="44.10507" lon="7.38281">
        <ele>2513</ele>
        <time>2018-04-22T06:18:11.000Z</time>
      </trkpt>
      <trkpt lat="44.10505" lon="7.38286">
        <ele>2513</ele>
        <time>2018-04-22T06:18:17.000Z</time>
      </trkpt>
      <trkpt lat="44.10502" lon="7.38291">
        <ele>2514</ele>
        <time>2018-04-22T06:18:25.000Z</time>
      </trkpt>
      <trkpt lat="44.10501" lon="7.38292">
        <ele>2514</ele>
        <time>2018-04-22T06:18:26.000Z</time>
      </trkpt>
      <trkpt lat="44.105" lon="7.38293">
        <ele>2499</ele>
        <time>2018-04-22T06:18:31.000Z</time>
      </trkpt>
      <trkpt lat="44.10499" lon="7.38294">
        <ele>2500</ele>
        <time>2018-04-22T06:18:32.000Z</time>
      </trkpt>
      <trkpt lat="44.10499" lon="7.38297">
        <ele>2500</ele>
        <time>2018-04-22T06:18:38.000Z</time>
      </trkpt>
      <trkpt lat="44.10498" lon="7.38299">
        <ele>2500</ele>
        <time>2018-04-22T06:18:39.000Z</time>
      </trkpt>
      <trkpt lat="44.10498" lon="7.38301">
        <ele>2501</ele>
        <time>2018-04-22T06:18:42.000Z</time>
      </trkpt>
      <trkpt lat="44.10498" lon="7.38303">
        <ele>2501</ele>
        <time>2018-04-22T06:18:47.000Z</time>
      </trkpt>
      <trkpt lat="44.10498" lon="7.38305">
        <ele>2502</ele>
        <time>2018-04-22T06:18:48.000Z</time>
      </trkpt>
      <trkpt lat="44.10497" lon="7.38308">
        <ele>2502</ele>
        <time>2018-04-22T06:18:54.000Z</time>
      </trkpt>
      <trkpt lat="44.10497" lon="7.38309">
        <ele>2502</ele>
        <time>2018-04-22T06:18:56.000Z</time>
      </trkpt>
      <trkpt lat="44.10496" lon="7.38311">
        <ele>2503</ele>
        <time>2018-04-22T06:18:58.000Z</time>
      </trkpt>
      <trkpt lat="44.10495" lon="7.38313">
        <ele>2503</ele>
        <time>2018-04-22T06:19:03.000Z</time>
      </trkpt>
      <trkpt lat="44.10494" lon="7.38316">
        <ele>2504</ele>
        <time>2018-04-22T06:19:08.000Z</time>
      </trkpt>
      <trkpt lat="44.10493" lon="7.38319">
        <ele>2505</ele>
        <time>2018-04-22T06:19:10.000Z</time>
      </trkpt>
      <trkpt lat="44.1049" lon="7.38323">
        <ele>2506</ele>
        <time>2018-04-22T06:19:17.000Z</time>
      </trkpt>
      <trkpt lat="44.1049" lon="7.38324">
        <ele>2506</ele>
        <time>2018-04-22T06:19:18.000Z</time>
      </trkpt>
      <trkpt lat="44.10488" lon="7.38328">
        <ele>2506</ele>
        <time>2018-04-22T06:19:23.000Z</time>
      </trkpt>
      <trkpt lat="44.10485" lon="7.38334">
        <ele>2515</ele>
        <time>2018-04-22T06:19:30.000Z</time>
      </trkpt>
      <trkpt lat="44.10481" lon="7.38339">
        <ele>2516</ele>
        <time>2018-04-22T06:19:36.000Z</time>
      </trkpt>
      <trkpt lat="44.10479" lon="7.38343">
        <ele>2516</ele>
        <time>2018-04-22T06:19:41.000Z</time>
      </trkpt>
      <trkpt lat="44.10478" lon="7.3835">
        <ele>2517</ele>
        <time>2018-04-22T06:19:48.000Z</time>
      </trkpt>
      <trkpt lat="44.10477" lon="7.38356">
        <ele>2517</ele>
        <time>2018-04-22T06:19:53.000Z</time>
      </trkpt>
      <trkpt lat="44.10477" lon="7.38359">
        <ele>2518</ele>
        <time>2018-04-22T06:19:56.000Z</time>
      </trkpt>
      <trkpt lat="44.10476" lon="7.38363">
        <ele>2518</ele>
        <time>2018-04-22T06:20:01.000Z</time>
      </trkpt>
      <trkpt lat="44.10475" lon="7.38368">
        <ele>2519</ele>
        <time>2018-04-22T06:20:07.000Z</time>
      </trkpt>
      <trkpt lat="44.10475" lon="7.38369">
        <ele>2519</ele>
        <time>2018-04-22T06:20:08.000Z</time>
      </trkpt>
      <trkpt lat="44.10475" lon="7.38369">
        <ele>2519</ele>
        <time>2018-04-22T06:20:09.000Z</time>
      </trkpt>
      <trkpt lat="44.10475" lon="7.38372">
        <ele>2520</ele>
        <time>2018-04-22T06:20:13.000Z</time>
      </trkpt>
      <trkpt lat="44.10475" lon="7.38373">
        <ele>2520</ele>
        <time>2018-04-22T06:20:16.000Z</time>
      </trkpt>
      <trkpt lat="44.10474" lon="7.38376">
        <ele>2520</ele>
        <time>2018-04-22T06:20:20.000Z</time>
      </trkpt>
      <trkpt lat="44.10475" lon="7.38378">
        <ele>2521</ele>
        <time>2018-04-22T06:20:21.000Z</time>
      </trkpt>
      <trkpt lat="44.10475" lon="7.38378">
        <ele>2521</ele>
        <time>2018-04-22T06:20:27.000Z</time>
      </trkpt>
      <trkpt lat="44.10475" lon="7.38381">
        <ele>2521</ele>
        <time>2018-04-22T06:20:33.000Z</time>
      </trkpt>
      <trkpt lat="44.10476" lon="7.38383">
        <ele>2522</ele>
        <time>2018-04-22T06:20:35.000Z</time>
      </trkpt>
      <trkpt lat="44.10476" lon="7.38384">
        <ele>2522</ele>
        <time>2018-04-22T06:20:39.000Z</time>
      </trkpt>
      <trkpt lat="44.10477" lon="7.3839">
        <ele>2523</ele>
        <time>2018-04-22T06:20:44.000Z</time>
      </trkpt>
      <trkpt lat="44.10477" lon="7.38389">
        <ele>2523</ele>
        <time>2018-04-22T06:20:45.000Z</time>
      </trkpt>
      <trkpt lat="44.10478" lon="7.38392">
        <ele>2524</ele>
        <time>2018-04-22T06:20:49.000Z</time>
      </trkpt>
      <trkpt lat="44.10478" lon="7.38393">
        <ele>2524</ele>
        <time>2018-04-22T06:20:51.000Z</time>
      </trkpt>
      <trkpt lat="44.10479" lon="7.38397">
        <ele>2525</ele>
        <time>2018-04-22T06:20:55.000Z</time>
      </trkpt>
      <trkpt lat="44.10479" lon="7.38399">
        <ele>2525</ele>
        <time>2018-04-22T06:20:59.000Z</time>
      </trkpt>
      <trkpt lat="44.10479" lon="7.38401">
        <ele>2526</ele>
        <time>2018-04-22T06:21:01.000Z</time>
      </trkpt>
      <trkpt lat="44.10479" lon="7.38403">
        <ele>2526</ele>
        <time>2018-04-22T06:21:05.000Z</time>
      </trkpt>
      <trkpt lat="44.10478" lon="7.38404">
        <ele>2526</ele>
        <time>2018-04-22T06:21:06.000Z</time>
      </trkpt>
      <trkpt lat="44.10478" lon="7.38408">
        <ele>2527</ele>
        <time>2018-04-22T06:21:11.000Z</time>
      </trkpt>
      <trkpt lat="44.10477" lon="7.3841">
        <ele>2527</ele>
        <time>2018-04-22T06:21:14.000Z</time>
      </trkpt>
      <trkpt lat="44.10476" lon="7.3841">
        <ele>2527</ele>
        <time>2018-04-22T06:21:17.000Z</time>
      </trkpt>
      <trkpt lat="44.10475" lon="7.38415">
        <ele>2526</ele>
        <time>2018-04-22T06:21:22.000Z</time>
      </trkpt>
      <trkpt lat="44.10472" lon="7.38419">
        <ele>2536</ele>
        <time>2018-04-22T06:21:30.000Z</time>
      </trkpt>
      <trkpt lat="44.10471" lon="7.3842">
        <ele>2536</ele>
        <time>2018-04-22T06:21:31.000Z</time>
      </trkpt>
      <trkpt lat="44.10469" lon="7.38422">
        <ele>2536</ele>
        <time>2018-04-22T06:21:36.000Z</time>
      </trkpt>
      <trkpt lat="44.10467" lon="7.38423">
        <ele>2536</ele>
        <time>2018-04-22T06:21:40.000Z</time>
      </trkpt>
      <trkpt lat="44.10466" lon="7.38424">
        <ele>2536</ele>
        <time>2018-04-22T06:21:42.000Z</time>
      </trkpt>
      <trkpt lat="44.10464" lon="7.38426">
        <ele>2536</ele>
        <time>2018-04-22T06:21:48.000Z</time>
      </trkpt>
      <trkpt lat="44.10463" lon="7.38426">
        <ele>2535</ele>
        <time>2018-04-22T06:21:49.000Z</time>
      </trkpt>
      <trkpt lat="44.1046" lon="7.38428">
        <ele>2535</ele>
        <time>2018-04-22T06:21:55.000Z</time>
      </trkpt>
      <trkpt lat="44.1046" lon="7.38429">
        <ele>2535</ele>
        <time>2018-04-22T06:21:56.000Z</time>
      </trkpt>
      <trkpt lat="44.10459" lon="7.38429">
        <ele>2535</ele>
        <time>2018-04-22T06:22:01.000Z</time>
      </trkpt>
      <trkpt lat="44.10461" lon="7.38431">
        <ele>2535</ele>
        <time>2018-04-22T06:22:07.000Z</time>
      </trkpt>
      <trkpt lat="44.10463" lon="7.38433">
        <ele>2536</ele>
        <time>2018-04-22T06:22:13.000Z</time>
      </trkpt>
      <trkpt lat="44.10466" lon="7.38437">
        <ele>2536</ele>
        <time>2018-04-22T06:22:21.000Z</time>
      </trkpt>
      <trkpt lat="44.10467" lon="7.3844">
        <ele>2536</ele>
        <time>2018-04-22T06:22:26.000Z</time>
      </trkpt>
      <trkpt lat="44.10469" lon="7.38441">
        <ele>2537</ele>
        <time>2018-04-22T06:22:30.000Z</time>
      </trkpt>
      <trkpt lat="44.10468" lon="7.3844">
        <ele>2537</ele>
        <time>2018-04-22T06:22:31.000Z</time>
      </trkpt>
      <trkpt lat="44.10472" lon="7.38443">
        <ele>2537</ele>
        <time>2018-04-22T06:22:37.000Z</time>
      </trkpt>
      <trkpt lat="44.10472" lon="7.38443">
        <ele>2537</ele>
        <time>2018-04-22T06:22:39.000Z</time>
      </trkpt>
      <trkpt lat="44.10475" lon="7.38445">
        <ele>2537</ele>
        <time>2018-04-22T06:22:45.000Z</time>
      </trkpt>
      <trkpt lat="44.10475" lon="7.38445">
        <ele>2537</ele>
        <time>2018-04-22T06:22:48.000Z</time>
      </trkpt>
      <trkpt lat="44.10477" lon="7.38446">
        <ele>2537</ele>
        <time>2018-04-22T06:22:49.000Z</time>
      </trkpt>
      <trkpt lat="44.10476" lon="7.38446">
        <ele>2537</ele>
        <time>2018-04-22T06:22:54.000Z</time>
      </trkpt>
      <trkpt lat="44.10476" lon="7.38446">
        <ele>2537</ele>
        <time>2018-04-22T06:22:57.000Z</time>
      </trkpt>
      <trkpt lat="44.10473" lon="7.38448">
        <ele>2537</ele>
        <time>2018-04-22T06:23:01.000Z</time>
      </trkpt>
      <trkpt lat="44.10471" lon="7.38449">
        <ele>2537</ele>
        <time>2018-04-22T06:23:04.000Z</time>
      </trkpt>
      <trkpt lat="44.1047" lon="7.3845">
        <ele>2537</ele>
        <time>2018-04-22T06:23:06.000Z</time>
      </trkpt>
      <trkpt lat="44.10469" lon="7.3845">
        <ele>2537</ele>
        <time>2018-04-22T06:23:08.000Z</time>
      </trkpt>
      <trkpt lat="44.10467" lon="7.38452">
        <ele>2537</ele>
        <time>2018-04-22T06:23:12.000Z</time>
      </trkpt>
      <trkpt lat="44.10465" lon="7.38453">
        <ele>2537</ele>
        <time>2018-04-22T06:23:17.000Z</time>
      </trkpt>
      <trkpt lat="44.10463" lon="7.38455">
        <ele>2537</ele>
        <time>2018-04-22T06:23:22.000Z</time>
      </trkpt>
      <trkpt lat="44.10462" lon="7.38455">
        <ele>2537</ele>
        <time>2018-04-22T06:23:23.000Z</time>
      </trkpt>
      <trkpt lat="44.1046" lon="7.38456">
        <ele>2537</ele>
        <time>2018-04-22T06:23:30.000Z</time>
      </trkpt>
      <trkpt lat="44.10462" lon="7.38457">
        <ele>2538</ele>
        <time>2018-04-22T06:23:35.000Z</time>
      </trkpt>
      <trkpt lat="44.10462" lon="7.38457">
        <ele>2538</ele>
        <time>2018-04-22T06:23:36.000Z</time>
      </trkpt>
      <trkpt lat="44.10465" lon="7.38459">
        <ele>2538</ele>
        <time>2018-04-22T06:23:40.000Z</time>
      </trkpt>
      <trkpt lat="44.10466" lon="7.38459">
        <ele>2538</ele>
        <time>2018-04-22T06:23:42.000Z</time>
      </trkpt>
      <trkpt lat="44.10468" lon="7.3846">
        <ele>2538</ele>
        <time>2018-04-22T06:23:46.000Z</time>
      </trkpt>
      <trkpt lat="44.10468" lon="7.3846">
        <ele>2538</ele>
        <time>2018-04-22T06:23:49.000Z</time>
      </trkpt>
      <trkpt lat="44.10472" lon="7.38462">
        <ele>2538</ele>
        <time>2018-04-22T06:23:56.000Z</time>
      </trkpt>
      <trkpt lat="44.10473" lon="7.38462">
        <ele>2538</ele>
        <time>2018-04-22T06:23:58.000Z</time>
      </trkpt>
      <trkpt lat="44.10473" lon="7.38463">
        <ele>2538</ele>
        <time>2018-04-22T06:24:02.000Z</time>
      </trkpt>
      <trkpt lat="44.10477" lon="7.38464">
        <ele>2538</ele>
        <time>2018-04-22T06:24:07.000Z</time>
      </trkpt>
      <trkpt lat="44.10479" lon="7.38465">
        <ele>2538</ele>
        <time>2018-04-22T06:24:12.000Z</time>
      </trkpt>
      <trkpt lat="44.1048" lon="7.38465">
        <ele>2538</ele>
        <time>2018-04-22T06:24:17.000Z</time>
      </trkpt>
      <trkpt lat="44.10479" lon="7.38466">
        <ele>2538</ele>
        <time>2018-04-22T06:24:24.000Z</time>
      </trkpt>
      <trkpt lat="44.10476" lon="7.38469">
        <ele>2539</ele>
        <time>2018-04-22T06:24:32.000Z</time>
      </trkpt>
      <trkpt lat="44.10475" lon="7.38469">
        <ele>2539</ele>
        <time>2018-04-22T06:24:34.000Z</time>
      </trkpt>
      <trkpt lat="44.10473" lon="7.38471">
        <ele>2539</ele>
        <time>2018-04-22T06:24:39.000Z</time>
      </trkpt>
      <trkpt lat="44.10473" lon="7.38471">
        <ele>2539</ele>
        <time>2018-04-22T06:24:43.000Z</time>
      </trkpt>
      <trkpt lat="44.10473" lon="7.38471">
        <ele>2539</ele>
        <time>2018-04-22T06:24:47.000Z</time>
      </trkpt>
      <trkpt lat="44.1047" lon="7.38475">
        <ele>2539</ele>
        <time>2018-04-22T06:24:57.000Z</time>
      </trkpt>
      <trkpt lat="44.10468" lon="7.38478">
        <ele>2539</ele>
        <time>2018-04-22T06:25:05.000Z</time>
      </trkpt>
      <trkpt lat="44.1047" lon="7.38478">
        <ele>2539</ele>
        <time>2018-04-22T06:25:10.000Z</time>
      </trkpt>
      <trkpt lat="44.10473" lon="7.38479">
        <ele>2539</ele>
        <time>2018-04-22T06:25:17.000Z</time>
      </trkpt>
      <trkpt lat="44.10474" lon="7.38479">
        <ele>2539</ele>
        <time>2018-04-22T06:25:19.000Z</time>
      </trkpt>
      <trkpt lat="44.10474" lon="7.38479">
        <ele>2539</ele>
        <time>2018-04-22T06:25:22.000Z</time>
      </trkpt>
      <trkpt lat="44.10476" lon="7.3848">
        <ele>2539</ele>
        <time>2018-04-22T06:25:30.000Z</time>
      </trkpt>
      <trkpt lat="44.10476" lon="7.3848">
        <ele>2539</ele>
        <time>2018-04-22T06:25:32.000Z</time>
      </trkpt>
      <trkpt lat="44.1048" lon="7.38479">
        <ele>2539</ele>
        <time>2018-04-22T06:25:37.000Z</time>
      </trkpt>
      <trkpt lat="44.10482" lon="7.38478">
        <ele>2539</ele>
        <time>2018-04-22T06:25:41.000Z</time>
      </trkpt>
      <trkpt lat="44.10482" lon="7.3848">
        <ele>2539</ele>
        <time>2018-04-22T06:25:45.000Z</time>
      </trkpt>
      <trkpt lat="44.10482" lon="7.38479">
        <ele>2539</ele>
        <time>2018-04-22T06:25:46.000Z</time>
      </trkpt>
      <trkpt lat="44.10482" lon="7.3848">
        <ele>2539</ele>
        <time>2018-04-22T06:25:51.000Z</time>
      </trkpt>
      <trkpt lat="44.10482" lon="7.3848">
        <ele>2539</ele>
        <time>2018-04-22T06:25:53.000Z</time>
      </trkpt>
      <trkpt lat="44.10482" lon="7.38481">
        <ele>2539</ele>
        <time>2018-04-22T06:25:57.000Z</time>
      </trkpt>
      <trkpt lat="44.10479" lon="7.38486">
        <ele>2540</ele>
        <time>2018-04-22T06:26:06.000Z</time>
      </trkpt>
      <trkpt lat="44.10477" lon="7.38488">
        <ele>2540</ele>
        <time>2018-04-22T06:26:11.000Z</time>
      </trkpt>
      <trkpt lat="44.10477" lon="7.38488">
        <ele>2540</ele>
        <time>2018-04-22T06:26:12.000Z</time>
      </trkpt>
      <trkpt lat="44.10475" lon="7.38491">
        <ele>2540</ele>
        <time>2018-04-22T06:26:19.000Z</time>
      </trkpt>
      <trkpt lat="44.10475" lon="7.38491">
        <ele>2540</ele>
        <time>2018-04-22T06:26:24.000Z</time>
      </trkpt>
      <trkpt lat="44.10476" lon="7.38491">
        <ele>2540</ele>
        <time>2018-04-22T06:26:25.000Z</time>
      </trkpt>
      <trkpt lat="44.10476" lon="7.38491">
        <ele>2540</ele>
        <time>2018-04-22T06:26:29.000Z</time>
      </trkpt>
      <trkpt lat="44.10478" lon="7.38491">
        <ele>2540</ele>
        <time>2018-04-22T06:26:34.000Z</time>
      </trkpt>
      <trkpt lat="44.1048" lon="7.38492">
        <ele>2540</ele>
        <time>2018-04-22T06:26:40.000Z</time>
      </trkpt>
      <trkpt lat="44.10481" lon="7.38492">
        <ele>2540</ele>
        <time>2018-04-22T06:26:42.000Z</time>
      </trkpt>
      <trkpt lat="44.10483" lon="7.38492">
        <ele>2540</ele>
        <time>2018-04-22T06:26:45.000Z</time>
      </trkpt>
      <trkpt lat="44.10485" lon="7.38492">
        <ele>2540</ele>
        <time>2018-04-22T06:26:51.000Z</time>
      </trkpt>
      <trkpt lat="44.10486" lon="7.38492">
        <ele>2540</ele>
        <time>2018-04-22T06:26:55.000Z</time>
      </trkpt>
      <trkpt lat="44.10486" lon="7.38493">
        <ele>2540</ele>
        <time>2018-04-22T06:26:59.000Z</time>
      </trkpt>
      <trkpt lat="44.10486" lon="7.38493">
        <ele>2540</ele>
        <time>2018-04-22T06:27:03.000Z</time>
      </trkpt>
      <trkpt lat="44.10484" lon="7.38496">
        <ele>2540</ele>
        <time>2018-04-22T06:27:08.000Z</time>
      </trkpt>
      <trkpt lat="44.10482" lon="7.38499">
        <ele>2540</ele>
        <time>2018-04-22T06:27:14.000Z</time>
      </trkpt>
      <trkpt lat="44.1048" lon="7.38501">
        <ele>2552</ele>
        <time>2018-04-22T06:27:17.000Z</time>
      </trkpt>
      <trkpt lat="44.10479" lon="7.38503">
        <ele>2552</ele>
        <time>2018-04-22T06:27:21.000Z</time>
      </trkpt>
      <trkpt lat="44.10479" lon="7.38502">
        <ele>2552</ele>
        <time>2018-04-22T06:27:25.000Z</time>
      </trkpt>
      <trkpt lat="44.1048" lon="7.38502">
        <ele>2552</ele>
        <time>2018-04-22T06:27:26.000Z</time>
      </trkpt>
      <trkpt lat="44.10479" lon="7.38502">
        <ele>2552</ele>
        <time>2018-04-22T06:27:27.000Z</time>
      </trkpt>
      <trkpt lat="44.10482" lon="7.38502">
        <ele>2552</ele>
        <time>2018-04-22T06:27:33.000Z</time>
      </trkpt>
      <trkpt lat="44.10485" lon="7.38502">
        <ele>2552</ele>
        <time>2018-04-22T06:27:39.000Z</time>
      </trkpt>
      <trkpt lat="44.10486" lon="7.38502">
        <ele>2552</ele>
        <time>2018-04-22T06:27:43.000Z</time>
      </trkpt>
      <trkpt lat="44.10486" lon="7.38502">
        <ele>2552</ele>
        <time>2018-04-22T06:27:45.000Z</time>
      </trkpt>
      <trkpt lat="44.10488" lon="7.38501">
        <ele>2552</ele>
        <time>2018-04-22T06:27:53.000Z</time>
      </trkpt>
      <trkpt lat="44.10489" lon="7.38502">
        <ele>2552</ele>
        <time>2018-04-22T06:27:58.000Z</time>
      </trkpt>
      <trkpt lat="44.10489" lon="7.38501">
        <ele>2552</ele>
        <time>2018-04-22T06:28:00.000Z</time>
      </trkpt>
      <trkpt lat="44.10489" lon="7.38502">
        <ele>2552</ele>
        <time>2018-04-22T06:28:03.000Z</time>
      </trkpt>
      <trkpt lat="44.10488" lon="7.38505">
        <ele>2552</ele>
        <time>2018-04-22T06:28:11.000Z</time>
      </trkpt>
      <trkpt lat="44.10487" lon="7.38507">
        <ele>2552</ele>
        <time>2018-04-22T06:28:14.000Z</time>
      </trkpt>
      <trkpt lat="44.10487" lon="7.38507">
        <ele>2552</ele>
        <time>2018-04-22T06:28:17.000Z</time>
      </trkpt>
      <trkpt lat="44.10486" lon="7.38511">
        <ele>2552</ele>
        <time>2018-04-22T06:28:22.000Z</time>
      </trkpt>
      <trkpt lat="44.10486" lon="7.38511">
        <ele>2552</ele>
        <time>2018-04-22T06:28:24.000Z</time>
      </trkpt>
      <trkpt lat="44.10485" lon="7.38513">
        <ele>2552</ele>
        <time>2018-04-22T06:28:27.000Z</time>
      </trkpt>
      <trkpt lat="44.10484" lon="7.38515">
        <ele>2552</ele>
        <time>2018-04-22T06:28:32.000Z</time>
      </trkpt>
      <trkpt lat="44.10482" lon="7.38516">
        <ele>2552</ele>
        <time>2018-04-22T06:28:39.000Z</time>
      </trkpt>
      <trkpt lat="44.10482" lon="7.38516">
        <ele>2552</ele>
        <time>2018-04-22T06:28:41.000Z</time>
      </trkpt>
      <trkpt lat="44.10481" lon="7.38517">
        <ele>2552</ele>
        <time>2018-04-22T06:28:47.000Z</time>
      </trkpt>
      <trkpt lat="44.1048" lon="7.38518">
        <ele>2552</ele>
        <time>2018-04-22T06:28:53.000Z</time>
      </trkpt>
      <trkpt lat="44.10479" lon="7.38519">
        <ele>2552</ele>
        <time>2018-04-22T06:28:54.000Z</time>
      </trkpt>
      <trkpt lat="44.10476" lon="7.3852">
        <ele>2552</ele>
        <time>2018-04-22T06:29:01.000Z</time>
      </trkpt>
      <trkpt lat="44.10475" lon="7.38521">
        <ele>2552</ele>
        <time>2018-04-22T06:29:04.000Z</time>
      </trkpt>
      <trkpt lat="44.10474" lon="7.38522">
        <ele>2552</ele>
        <time>2018-04-22T06:29:07.000Z</time>
      </trkpt>
      <trkpt lat="44.10475" lon="7.38523">
        <ele>2552</ele>
        <time>2018-04-22T06:29:10.000Z</time>
      </trkpt>
      <trkpt lat="44.10476" lon="7.38524">
        <ele>2552</ele>
        <time>2018-04-22T06:29:15.000Z</time>
      </trkpt>
      <trkpt lat="44.10478" lon="7.38528">
        <ele>2552</ele>
        <time>2018-04-22T06:29:21.000Z</time>
      </trkpt>
      <trkpt lat="44.10478" lon="7.38528">
        <ele>2552</ele>
        <time>2018-04-22T06:29:22.000Z</time>
      </trkpt>
      <trkpt lat="44.10479" lon="7.38529">
        <ele>2552</ele>
        <time>2018-04-22T06:29:28.000Z</time>
      </trkpt>
      <trkpt lat="44.10479" lon="7.38529">
        <ele>2552</ele>
        <time>2018-04-22T06:29:38.000Z</time>
      </trkpt>
      <trkpt lat="44.10479" lon="7.38529">
        <ele>2552</ele>
        <time>2018-04-22T06:29:53.000Z</time>
      </trkpt>
      <trkpt lat="44.10479" lon="7.38529">
        <ele>2552</ele>
        <time>2018-04-22T06:30:02.000Z</time>
      </trkpt>
      <trkpt lat="44.10479" lon="7.38529">
        <ele>2552</ele>
        <time>2018-04-22T06:30:06.000Z</time>
      </trkpt>
      <trkpt lat="44.10478" lon="7.38529">
        <ele>2552</ele>
        <time>2018-04-22T06:30:15.000Z</time>
      </trkpt>
      <trkpt lat="44.10478" lon="7.3853">
        <ele>2552</ele>
        <time>2018-04-22T06:30:25.000Z</time>
      </trkpt>
      <trkpt lat="44.10479" lon="7.38531">
        <ele>2552</ele>
        <time>2018-04-22T06:30:44.000Z</time>
      </trkpt>
      <trkpt lat="44.10479" lon="7.38531">
        <ele>2552</ele>
        <time>2018-04-22T06:30:57.000Z</time>
      </trkpt>
      <trkpt lat="44.10479" lon="7.38531">
        <ele>2552</ele>
        <time>2018-04-22T06:31:12.000Z</time>
      </trkpt>
      <trkpt lat="44.10478" lon="7.3853">
        <ele>2552</ele>
        <time>2018-04-22T06:31:25.000Z</time>
      </trkpt>
      <trkpt lat="44.10479" lon="7.38531">
        <ele>2552</ele>
        <time>2018-04-22T06:31:47.000Z</time>
      </trkpt>
      <trkpt lat="44.1048" lon="7.38532">
        <ele>2552</ele>
        <time>2018-04-22T06:31:53.000Z</time>
      </trkpt>
      <trkpt lat="44.1048" lon="7.38532">
        <ele>2552</ele>
        <time>2018-04-22T06:32:10.000Z</time>
      </trkpt>
      <trkpt lat="44.1048" lon="7.38532">
        <ele>2552</ele>
        <time>2018-04-22T06:32:19.000Z</time>
      </trkpt>
      <trkpt lat="44.1048" lon="7.38531">
        <ele>2552</ele>
        <time>2018-04-22T06:32:27.000Z</time>
      </trkpt>
      <trkpt lat="44.1048" lon="7.38531">
        <ele>2552</ele>
        <time>2018-04-22T06:32:46.000Z</time>
      </trkpt>
      <trkpt lat="44.1048" lon="7.38531">
        <ele>2552</ele>
        <time>2018-04-22T06:33:08.000Z</time>
      </trkpt>
      <trkpt lat="44.10479" lon="7.38532">
        <ele>2552</ele>
        <time>2018-04-22T06:33:33.000Z</time>
      </trkpt>
      <trkpt lat="44.1048" lon="7.38536">
        <ele>2552</ele>
        <time>2018-04-22T06:33:40.000Z</time>
      </trkpt>
      <trkpt lat="44.10481" lon="7.3854">
        <ele>2552</ele>
        <time>2018-04-22T06:33:46.000Z</time>
      </trkpt>
      <trkpt lat="44.10481" lon="7.3854">
        <ele>2552</ele>
        <time>2018-04-22T06:33:47.000Z</time>
      </trkpt>
      <trkpt lat="44.10483" lon="7.38542">
        <ele>2552</ele>
        <time>2018-04-22T06:33:50.000Z</time>
      </trkpt>
      <trkpt lat="44.10484" lon="7.38543">
        <ele>2552</ele>
        <time>2018-04-22T06:33:54.000Z</time>
      </trkpt>
      <trkpt lat="44.10484" lon="7.38543">
        <ele>2552</ele>
        <time>2018-04-22T06:33:55.000Z</time>
      </trkpt>
      <trkpt lat="44.10486" lon="7.38543">
        <ele>2552</ele>
        <time>2018-04-22T06:33:59.000Z</time>
      </trkpt>
      <trkpt lat="44.1049" lon="7.38544">
        <ele>2552</ele>
        <time>2018-04-22T06:34:04.000Z</time>
      </trkpt>
      <trkpt lat="44.1049" lon="7.38544">
        <ele>2552</ele>
        <time>2018-04-22T06:34:05.000Z</time>
      </trkpt>
      <trkpt lat="44.10494" lon="7.38545">
        <ele>2552</ele>
        <time>2018-04-22T06:34:10.000Z</time>
      </trkpt>
      <trkpt lat="44.10496" lon="7.38545">
        <ele>2552</ele>
        <time>2018-04-22T06:34:15.000Z</time>
      </trkpt>
      <trkpt lat="44.10499" lon="7.38545">
        <ele>2552</ele>
        <time>2018-04-22T06:34:20.000Z</time>
      </trkpt>
      <trkpt lat="44.10502" lon="7.38545">
        <ele>2571</ele>
        <time>2018-04-22T06:34:25.000Z</time>
      </trkpt>
      <trkpt lat="44.10504" lon="7.38545">
        <ele>2571.8</ele>
        <time>2018-04-22T06:34:32.000Z</time>
      </trkpt>
      <trkpt lat="44.10505" lon="7.38545">
        <ele>2572.3</ele>
        <time>2018-04-22T06:34:33.000Z</time>
      </trkpt>
      <trkpt lat="44.10508" lon="7.38544">
        <ele>2573.4</ele>
        <time>2018-04-22T06:34:39.000Z</time>
      </trkpt>
      <trkpt lat="44.1051" lon="7.38543">
        <ele>2574.2</ele>
        <time>2018-04-22T06:34:42.000Z</time>
      </trkpt>
      <trkpt lat="44.10511" lon="7.38543">
        <ele>2574.6</ele>
        <time>2018-04-22T06:34:44.000Z</time>
      </trkpt>
      <trkpt lat="44.10514" lon="7.38542">
        <ele>2575.8</ele>
        <time>2018-04-22T06:34:50.000Z</time>
      </trkpt>
      <trkpt lat="44.10515" lon="7.38543">
        <ele>2576.4</ele>
        <time>2018-04-22T06:34:52.000Z</time>
      </trkpt>
      <trkpt lat="44.10515" lon="7.38546">
        <ele>2576.8</ele>
        <time>2018-04-22T06:34:55.000Z</time>
      </trkpt>
      <trkpt lat="44.10514" lon="7.38548">
        <ele>2576.6</ele>
        <time>2018-04-22T06:34:58.000Z</time>
      </trkpt>
      <trkpt lat="44.10514" lon="7.38554">
        <ele>2577.3</ele>
        <time>2018-04-22T06:35:05.000Z</time>
      </trkpt>
      <trkpt lat="44.10513" lon="7.38558">
        <ele>2578</ele>
        <time>2018-04-22T06:35:09.000Z</time>
      </trkpt>
      <trkpt lat="44.10513" lon="7.38558">
        <ele>2578</ele>
        <time>2018-04-22T06:35:10.000Z</time>
      </trkpt>
      <trkpt lat="44.10512" lon="7.38562">
        <ele>2578.9</ele>
        <time>2018-04-22T06:35:15.000Z</time>
      </trkpt>
      <trkpt lat="44.10511" lon="7.38564">
        <ele>2579.2</ele>
        <time>2018-04-22T06:35:18.000Z</time>
      </trkpt>
      <trkpt lat="44.1051" lon="7.38567">
        <ele>2579.9</ele>
        <time>2018-04-22T06:35:23.000Z</time>
      </trkpt>
      <trkpt lat="44.10509" lon="7.38571">
        <ele>2581</ele>
        <time>2018-04-22T06:35:28.000Z</time>
      </trkpt>
      <trkpt lat="44.10508" lon="7.38572">
        <ele>2581</ele>
        <time>2018-04-22T06:35:30.000Z</time>
      </trkpt>
      <trkpt lat="44.10507" lon="7.38574">
        <ele>2581.4</ele>
        <time>2018-04-22T06:35:35.000Z</time>
      </trkpt>
      <trkpt lat="44.10505" lon="7.38578">
        <ele>2582.3</ele>
        <time>2018-04-22T06:35:39.000Z</time>
      </trkpt>
      <trkpt lat="44.10503" lon="7.38582">
        <ele>2583.2</ele>
        <time>2018-04-22T06:35:45.000Z</time>
      </trkpt>
      <trkpt lat="44.10502" lon="7.38583">
        <ele>2583.4</ele>
        <time>2018-04-22T06:35:48.000Z</time>
      </trkpt>
      <trkpt lat="44.105" lon="7.38587">
        <ele>2585</ele>
        <time>2018-04-22T06:35:53.000Z</time>
      </trkpt>
      <trkpt lat="44.10499" lon="7.38588">
        <ele>2585.7</ele>
        <time>2018-04-22T06:35:55.000Z</time>
      </trkpt>
      <trkpt lat="44.10498" lon="7.3859">
        <ele>2586.9</ele>
        <time>2018-04-22T06:35:58.000Z</time>
      </trkpt>
      <trkpt lat="44.10496" lon="7.38593">
        <ele>2588.9</ele>
        <time>2018-04-22T06:36:03.000Z</time>
      </trkpt>
      <trkpt lat="44.10496" lon="7.38593">
        <ele>2588.9</ele>
        <time>2018-04-22T06:36:04.000Z</time>
      </trkpt>
      <trkpt lat="44.10494" lon="7.38595">
        <ele>2590.4</ele>
        <time>2018-04-22T06:36:08.000Z</time>
      </trkpt>
      <trkpt lat="44.10493" lon="7.38596">
        <ele>2591.2</ele>
        <time>2018-04-22T06:36:11.000Z</time>
      </trkpt>
      <trkpt lat="44.10491" lon="7.38599">
        <ele>2593.3</ele>
        <time>2018-04-22T06:36:14.000Z</time>
      </trkpt>
      <trkpt lat="44.10489" lon="7.38602">
        <ele>2595.5</ele>
        <time>2018-04-22T06:36:19.000Z</time>
      </trkpt>
      <trkpt lat="44.10489" lon="7.38601">
        <ele>2594.9</ele>
        <time>2018-04-22T06:36:20.000Z</time>
      </trkpt>
      <trkpt lat="44.10489" lon="7.38603">
        <ele>2596</ele>
        <time>2018-04-22T06:36:24.000Z</time>
      </trkpt>
      <trkpt lat="44.10491" lon="7.38603">
        <ele>2595.6</ele>
        <time>2018-04-22T06:36:27.000Z</time>
      </trkpt>
      <trkpt lat="44.10492" lon="7.38604">
        <ele>2596</ele>
        <time>2018-04-22T06:36:30.000Z</time>
      </trkpt>
      <trkpt lat="44.10494" lon="7.38604">
        <ele>2595.5</ele>
        <time>2018-04-22T06:36:36.000Z</time>
      </trkpt>
      <trkpt lat="44.10495" lon="7.38605">
        <ele>2595.8</ele>
        <time>2018-04-22T06:36:37.000Z</time>
      </trkpt>
      <trkpt lat="44.10497" lon="7.38605">
        <ele>2595.4</ele>
        <time>2018-04-22T06:36:42.000Z</time>
      </trkpt>
      <trkpt lat="44.10498" lon="7.38606">
        <ele>2595.7</ele>
        <time>2018-04-22T06:36:44.000Z</time>
      </trkpt>
      <trkpt lat="44.105" lon="7.38606">
        <ele>2595.2</ele>
        <time>2018-04-22T06:36:47.000Z</time>
      </trkpt>
      <trkpt lat="44.10502" lon="7.38606">
        <ele>2595.4</ele>
        <time>2018-04-22T06:36:52.000Z</time>
      </trkpt>
      <trkpt lat="44.10503" lon="7.38606">
        <ele>2595.5</ele>
        <time>2018-04-22T06:36:53.000Z</time>
      </trkpt>
      <trkpt lat="44.10505" lon="7.38606">
        <ele>2595.6</ele>
        <time>2018-04-22T06:36:57.000Z</time>
      </trkpt>
      <trkpt lat="44.10507" lon="7.38607">
        <ele>2596.3</ele>
        <time>2018-04-22T06:37:01.000Z</time>
      </trkpt>
      <trkpt lat="44.10508" lon="7.38607">
        <ele>2596.3</ele>
        <time>2018-04-22T06:37:02.000Z</time>
      </trkpt>
      <trkpt lat="44.1051" lon="7.38607">
        <ele>2596.5</ele>
        <time>2018-04-22T06:37:06.000Z</time>
      </trkpt>
      <trkpt lat="44.10512" lon="7.38606">
        <ele>2596.1</ele>
        <time>2018-04-22T06:37:11.000Z</time>
      </trkpt>
      <trkpt lat="44.10515" lon="7.38606">
        <ele>2596.4</ele>
        <time>2018-04-22T06:37:17.000Z</time>
      </trkpt>
      <trkpt lat="44.10516" lon="7.38606">
        <ele>2596.5</ele>
        <time>2018-04-22T06:37:20.000Z</time>
      </trkpt>
      <trkpt lat="44.10517" lon="7.38606">
        <ele>2596.5</ele>
        <time>2018-04-22T06:37:21.000Z</time>
      </trkpt>
      <trkpt lat="44.10519" lon="7.38606">
        <ele>2596.7</ele>
        <time>2018-04-22T06:37:27.000Z</time>
      </trkpt>
      <trkpt lat="44.10521" lon="7.38606">
        <ele>2596.8</ele>
        <time>2018-04-22T06:37:29.000Z</time>
      </trkpt>
      <trkpt lat="44.10523" lon="7.38606">
        <ele>2597</ele>
        <time>2018-04-22T06:37:33.000Z</time>
      </trkpt>
      <trkpt lat="44.10525" lon="7.38606">
        <ele>2597.1</ele>
        <time>2018-04-22T06:37:38.000Z</time>
      </trkpt>
      <trkpt lat="44.10525" lon="7.38606">
        <ele>2597.1</ele>
        <time>2018-04-22T06:37:39.000Z</time>
      </trkpt>
      <trkpt lat="44.10527" lon="7.38605">
        <ele>2597</ele>
        <time>2018-04-22T06:37:43.000Z</time>
      </trkpt>
      <trkpt lat="44.1053" lon="7.38605">
        <ele>2597.7</ele>
        <time>2018-04-22T06:37:47.000Z</time>
      </trkpt>
      <trkpt lat="44.1053" lon="7.38605">
        <ele>2597.7</ele>
        <time>2018-04-22T06:37:48.000Z</time>
      </trkpt>
      <trkpt lat="44.10532" lon="7.38605">
        <ele>2598.3</ele>
        <time>2018-04-22T06:37:54.000Z</time>
      </trkpt>
      <trkpt lat="44.10534" lon="7.38605">
        <ele>2599</ele>
        <time>2018-04-22T06:37:55.000Z</time>
      </trkpt>
      <trkpt lat="44.10536" lon="7.38604">
        <ele>2599.3</ele>
        <time>2018-04-22T06:38:00.000Z</time>
      </trkpt>
      <trkpt lat="44.10538" lon="7.38604">
        <ele>2599.9</ele>
        <time>2018-04-22T06:38:05.000Z</time>
      </trkpt>
      <trkpt lat="44.10539" lon="7.38604">
        <ele>2600.2</ele>
        <time>2018-04-22T06:38:06.000Z</time>
      </trkpt>
      <trkpt lat="44.10541" lon="7.38603">
        <ele>2600.6</ele>
        <time>2018-04-22T06:38:12.000Z</time>
      </trkpt>
      <trkpt lat="44.10542" lon="7.38603">
        <ele>2600.9</ele>
        <time>2018-04-22T06:38:14.000Z</time>
      </trkpt>
      <trkpt lat="44.10545" lon="7.38602">
        <ele>2601.6</ele>
        <time>2018-04-22T06:38:17.000Z</time>
      </trkpt>
      <trkpt lat="44.10547" lon="7.38601">
        <ele>2602</ele>
        <time>2018-04-22T06:38:23.000Z</time>
      </trkpt>
      <trkpt lat="44.10548" lon="7.386">
        <ele>2602.1</ele>
        <time>2018-04-22T06:38:24.000Z</time>
      </trkpt>
      <trkpt lat="44.10551" lon="7.38599">
        <ele>2602.9</ele>
        <time>2018-04-22T06:38:28.000Z</time>
      </trkpt>
      <trkpt lat="44.10552" lon="7.38598">
        <ele>2603</ele>
        <time>2018-04-22T06:38:34.000Z</time>
      </trkpt>
      <trkpt lat="44.10553" lon="7.38598">
        <ele>2603.3</ele>
        <time>2018-04-22T06:38:35.000Z</time>
      </trkpt>
      <trkpt lat="44.10553" lon="7.386">
        <ele>2603.8</ele>
        <time>2018-04-22T06:38:40.000Z</time>
      </trkpt>
      <trkpt lat="44.10552" lon="7.38604">
        <ele>2604.3</ele>
        <time>2018-04-22T06:38:45.000Z</time>
      </trkpt>
      <trkpt lat="44.10552" lon="7.38606">
        <ele>2604.8</ele>
        <time>2018-04-22T06:38:47.000Z</time>
      </trkpt>
      <trkpt lat="44.10551" lon="7.38608">
        <ele>2605</ele>
        <time>2018-04-22T06:38:53.000Z</time>
      </trkpt>
      <trkpt lat="44.1055" lon="7.38612">
        <ele>2605.8</ele>
        <time>2018-04-22T06:38:56.000Z</time>
      </trkpt>
      <trkpt lat="44.1055" lon="7.38612">
        <ele>2605.8</ele>
        <time>2018-04-22T06:38:59.000Z</time>
      </trkpt>
      <trkpt lat="44.10549" lon="7.38617">
        <ele>2607.6</ele>
        <time>2018-04-22T06:39:04.000Z</time>
      </trkpt>
      <trkpt lat="44.10548" lon="7.3862">
        <ele>2608.6</ele>
        <time>2018-04-22T06:39:10.000Z</time>
      </trkpt>
      <trkpt lat="44.10547" lon="7.38621">
        <ele>2608.8</ele>
        <time>2018-04-22T06:39:11.000Z</time>
      </trkpt>
      <trkpt lat="44.10546" lon="7.38623">
        <ele>2609.4</ele>
        <time>2018-04-22T06:39:17.000Z</time>
      </trkpt>
      <trkpt lat="44.10545" lon="7.38626">
        <ele>2610.5</ele>
        <time>2018-04-22T06:39:26.000Z</time>
      </trkpt>
      <trkpt lat="44.10544" lon="7.38628">
        <ele>2611.1</ele>
        <time>2018-04-22T06:39:30.000Z</time>
      </trkpt>
      <trkpt lat="44.10543" lon="7.38629">
        <ele>2611.3</ele>
        <time>2018-04-22T06:39:32.000Z</time>
      </trkpt>
      <trkpt lat="44.10542" lon="7.3863">
        <ele>2611.6</ele>
        <time>2018-04-22T06:39:38.000Z</time>
      </trkpt>
      <trkpt lat="44.10542" lon="7.3863">
        <ele>2611.6</ele>
        <time>2018-04-22T06:39:39.000Z</time>
      </trkpt>
      <trkpt lat="44.10541" lon="7.38632">
        <ele>2612.3</ele>
        <time>2018-04-22T06:39:46.000Z</time>
      </trkpt>
      <trkpt lat="44.10542" lon="7.38632">
        <ele>2612.5</ele>
        <time>2018-04-22T06:39:48.000Z</time>
      </trkpt>
      <trkpt lat="44.10543" lon="7.38632">
        <ele>2612.7</ele>
        <time>2018-04-22T06:39:51.000Z</time>
      </trkpt>
      <trkpt lat="44.10544" lon="7.38632">
        <ele>2612.9</ele>
        <time>2018-04-22T06:39:52.000Z</time>
      </trkpt>
      <trkpt lat="44.10546" lon="7.38632">
        <ele>2613.3</ele>
        <time>2018-04-22T06:39:56.000Z</time>
      </trkpt>
      <trkpt lat="44.10549" lon="7.38632">
        <ele>2613.9</ele>
        <time>2018-04-22T06:40:00.000Z</time>
      </trkpt>
      <trkpt lat="44.10549" lon="7.38632">
        <ele>2613.9</ele>
        <time>2018-04-22T06:40:02.000Z</time>
      </trkpt>
      <trkpt lat="44.10552" lon="7.38632">
        <ele>2614.5</ele>
        <time>2018-04-22T06:40:07.000Z</time>
      </trkpt>
      <trkpt lat="44.10553" lon="7.38634">
        <ele>2615.6</ele>
        <time>2018-04-22T06:40:11.000Z</time>
      </trkpt>
      <trkpt lat="44.10552" lon="7.38634">
        <ele>2615.4</ele>
        <time>2018-04-22T06:40:12.000Z</time>
      </trkpt>
      <trkpt lat="44.10551" lon="7.38636">
        <ele>2616</ele>
        <time>2018-04-22T06:40:18.000Z</time>
      </trkpt>
      <trkpt lat="44.1055" lon="7.38636">
        <ele>2615.8</ele>
        <time>2018-04-22T06:40:20.000Z</time>
      </trkpt>
      <trkpt lat="44.10549" lon="7.38637">
        <ele>2616</ele>
        <time>2018-04-22T06:40:23.000Z</time>
      </trkpt>
      <trkpt lat="44.10546" lon="7.38639">
        <ele>2616.3</ele>
        <time>2018-04-22T06:40:28.000Z</time>
      </trkpt>
      <trkpt lat="44.10545" lon="7.38641">
        <ele>2617.2</ele>
        <time>2018-04-22T06:40:32.000Z</time>
      </trkpt>
      <trkpt lat="44.10544" lon="7.38642">
        <ele>2617.6</ele>
        <time>2018-04-22T06:40:34.000Z</time>
      </trkpt>
      <trkpt lat="44.10543" lon="7.38643">
        <ele>2617.9</ele>
        <time>2018-04-22T06:40:41.000Z</time>
      </trkpt>
      <trkpt lat="44.10541" lon="7.38645">
        <ele>2618.7</ele>
        <time>2018-04-22T06:40:49.000Z</time>
      </trkpt>
      <trkpt lat="44.10541" lon="7.38644">
        <ele>2618.1</ele>
        <time>2018-04-22T06:40:51.000Z</time>
      </trkpt>
      <trkpt lat="44.10542" lon="7.38644">
        <ele>2618.3</ele>
        <time>2018-04-22T06:40:58.000Z</time>
      </trkpt>
      <trkpt lat="44.10545" lon="7.38644">
        <ele>2618.8</ele>
        <time>2018-04-22T06:41:06.000Z</time>
      </trkpt>
      <trkpt lat="44.10547" lon="7.38645">
        <ele>2619.7</ele>
        <time>2018-04-22T06:41:09.000Z</time>
      </trkpt>
      <trkpt lat="44.10548" lon="7.38645">
        <ele>2619.8</ele>
        <time>2018-04-22T06:41:13.000Z</time>
      </trkpt>
      <trkpt lat="44.10552" lon="7.38645">
        <ele>2620.5</ele>
        <time>2018-04-22T06:41:19.000Z</time>
      </trkpt>
      <trkpt lat="44.10553" lon="7.38645">
        <ele>2620.7</ele>
        <time>2018-04-22T06:41:24.000Z</time>
      </trkpt>
      <trkpt lat="44.10555" lon="7.38646">
        <ele>2621.5</ele>
        <time>2018-04-22T06:41:27.000Z</time>
      </trkpt>
      <trkpt lat="44.10557" lon="7.38646">
        <ele>2622.2</ele>
        <time>2018-04-22T06:41:31.000Z</time>
      </trkpt>
      <trkpt lat="44.10559" lon="7.38646">
        <ele>2623.2</ele>
        <time>2018-04-22T06:41:35.000Z</time>
      </trkpt>
      <trkpt lat="44.10561" lon="7.38647">
        <ele>2624.6</ele>
        <time>2018-04-22T06:41:38.000Z</time>
      </trkpt>
      <trkpt lat="44.10562" lon="7.38647">
        <ele>2625</ele>
        <time>2018-04-22T06:41:43.000Z</time>
      </trkpt>
      <trkpt lat="44.10563" lon="7.38647">
        <ele>2625.5</ele>
        <time>2018-04-22T06:41:45.000Z</time>
      </trkpt>
      <trkpt lat="44.10563" lon="7.38646">
        <ele>2625</ele>
        <time>2018-04-22T06:41:50.000Z</time>
      </trkpt>
      <trkpt lat="44.10565" lon="7.38646">
        <ele>2625.9</ele>
        <time>2018-04-22T06:41:59.000Z</time>
      </trkpt>
      <trkpt lat="44.10564" lon="7.38647">
        <ele>2626</ele>
        <time>2018-04-22T06:42:04.000Z</time>
      </trkpt>
      <trkpt lat="44.10565" lon="7.38647">
        <ele>2626.4</ele>
        <time>2018-04-22T06:42:05.000Z</time>
      </trkpt>
      <trkpt lat="44.10563" lon="7.38648">
        <ele>2626</ele>
        <time>2018-04-22T06:42:11.000Z</time>
      </trkpt>
      <trkpt lat="44.10563" lon="7.3865">
        <ele>2627</ele>
        <time>2018-04-22T06:42:17.000Z</time>
      </trkpt>
      <trkpt lat="44.10562" lon="7.38651">
        <ele>2627</ele>
        <time>2018-04-22T06:42:18.000Z</time>
      </trkpt>
      <trkpt lat="44.10561" lon="7.38653">
        <ele>2627.6</ele>
        <time>2018-04-22T06:42:23.000Z</time>
      </trkpt>
      <trkpt lat="44.1056" lon="7.38655">
        <ele>2628.1</ele>
        <time>2018-04-22T06:42:25.000Z</time>
      </trkpt>
      <trkpt lat="44.10558" lon="7.38656">
        <ele>2627.7</ele>
        <time>2018-04-22T06:42:29.000Z</time>
      </trkpt>
      <trkpt lat="44.10556" lon="7.38658">
        <ele>2627.8</ele>
        <time>2018-04-22T06:42:35.000Z</time>
      </trkpt>
      <trkpt lat="44.10554" lon="7.38661">
        <ele>2629</ele>
        <time>2018-04-22T06:42:42.000Z</time>
      </trkpt>
      <trkpt lat="44.10553" lon="7.38662">
        <ele>2629.3</ele>
        <time>2018-04-22T06:42:48.000Z</time>
      </trkpt>
      <trkpt lat="44.10551" lon="7.38663">
        <ele>2629.6</ele>
        <time>2018-04-22T06:42:55.000Z</time>
      </trkpt>
      <trkpt lat="44.1055" lon="7.38664">
        <ele>2630</ele>
        <time>2018-04-22T06:42:58.000Z</time>
      </trkpt>
      <trkpt lat="44.1055" lon="7.38664">
        <ele>2630</ele>
        <time>2018-04-22T06:43:02.000Z</time>
      </trkpt>
      <trkpt lat="44.10549" lon="7.38665">
        <ele>2630.4</ele>
        <time>2018-04-22T06:43:10.000Z</time>
      </trkpt>
      <trkpt lat="44.10548" lon="7.38665">
        <ele>2630.3</ele>
        <time>2018-04-22T06:43:20.000Z</time>
      </trkpt>
      <trkpt lat="44.10546" lon="7.38665">
        <ele>2630.1</ele>
        <time>2018-04-22T06:43:27.000Z</time>
      </trkpt>
      <trkpt lat="44.10545" lon="7.38666">
        <ele>2630.5</ele>
        <time>2018-04-22T06:43:33.000Z</time>
      </trkpt>
      <trkpt lat="44.10543" lon="7.38668">
        <ele>2631.6</ele>
        <time>2018-04-22T06:43:40.000Z</time>
      </trkpt>
      <trkpt lat="44.10542" lon="7.38668">
        <ele>2631.5</ele>
        <time>2018-04-22T06:43:45.000Z</time>
      </trkpt>
      <trkpt lat="44.10542" lon="7.38668">
        <ele>2631.5</ele>
        <time>2018-04-22T06:43:48.000Z</time>
      </trkpt>
      <trkpt lat="44.1054" lon="7.3867">
        <ele>2632.7</ele>
        <time>2018-04-22T06:43:55.000Z</time>
      </trkpt>
      <trkpt lat="44.10539" lon="7.38671">
        <ele>2633.3</ele>
        <time>2018-04-22T06:44:02.000Z</time>
      </trkpt>
      <trkpt lat="44.10538" lon="7.38671">
        <ele>2633.2</ele>
        <time>2018-04-22T06:44:07.000Z</time>
      </trkpt>
      <trkpt lat="44.10538" lon="7.38671">
        <ele>2633.2</ele>
        <time>2018-04-22T06:44:08.000Z</time>
      </trkpt>
      <trkpt lat="44.10538" lon="7.38671">
        <ele>2633.2</ele>
        <time>2018-04-22T06:44:21.000Z</time>
      </trkpt>
      <trkpt lat="44.10537" lon="7.38671">
        <ele>2633.1</ele>
        <time>2018-04-22T06:44:30.000Z</time>
      </trkpt>
      <trkpt lat="44.10537" lon="7.38671">
        <ele>2633.1</ele>
        <time>2018-04-22T06:44:39.000Z</time>
      </trkpt>
      <trkpt lat="44.10538" lon="7.3867">
        <ele>2632.5</ele>
        <time>2018-04-22T06:44:48.000Z</time>
      </trkpt>
      <trkpt lat="44.10537" lon="7.3867">
        <ele>2632.4</ele>
        <time>2018-04-22T06:44:58.000Z</time>
      </trkpt>
      <trkpt lat="44.10537" lon="7.38671">
        <ele>2633.1</ele>
        <time>2018-04-22T06:45:05.000Z</time>
      </trkpt>
      <trkpt lat="44.10537" lon="7.38671">
        <ele>2633.1</ele>
        <time>2018-04-22T06:45:10.000Z</time>
      </trkpt>
      <trkpt lat="44.10537" lon="7.38671">
        <ele>2633.1</ele>
        <time>2018-04-22T06:45:17.000Z</time>
      </trkpt>
      <trkpt lat="44.10537" lon="7.38673">
        <ele>2634.5</ele>
        <time>2018-04-22T06:45:26.000Z</time>
      </trkpt>
      <trkpt lat="44.10536" lon="7.38674">
        <ele>2635.1</ele>
        <time>2018-04-22T06:45:34.000Z</time>
      </trkpt>
      <trkpt lat="44.10537" lon="7.38674">
        <ele>2635.2</ele>
        <time>2018-04-22T06:45:41.000Z</time>
      </trkpt>
      <trkpt lat="44.10537" lon="7.38674">
        <ele>2635.2</ele>
        <time>2018-04-22T06:45:48.000Z</time>
      </trkpt>
      <trkpt lat="44.10537" lon="7.38673">
        <ele>2634.5</ele>
        <time>2018-04-22T06:45:56.000Z</time>
      </trkpt>
      <trkpt lat="44.10537" lon="7.38673">
        <ele>2634.5</ele>
        <time>2018-04-22T06:46:04.000Z</time>
      </trkpt>
      <trkpt lat="44.10538" lon="7.38672">
        <ele>2633.9</ele>
        <time>2018-04-22T06:46:16.000Z</time>
      </trkpt>
      <trkpt lat="44.10538" lon="7.38673">
        <ele>2634.6</ele>
        <time>2018-04-22T06:46:22.000Z</time>
      </trkpt>
      <trkpt lat="44.10538" lon="7.38673">
        <ele>2634.6</ele>
        <time>2018-04-22T06:46:32.000Z</time>
      </trkpt>
      <trkpt lat="44.10538" lon="7.38673">
        <ele>2634.6</ele>
        <time>2018-04-22T06:46:41.000Z</time>
      </trkpt>
      <trkpt lat="44.10539" lon="7.38672">
        <ele>2634</ele>
        <time>2018-04-22T06:46:49.000Z</time>
      </trkpt>
      <trkpt lat="44.10539" lon="7.38672">
        <ele>2634</ele>
        <time>2018-04-22T06:47:00.000Z</time>
      </trkpt>
      <trkpt lat="44.10539" lon="7.38672">
        <ele>2634</ele>
        <time>2018-04-22T06:47:10.000Z</time>
      </trkpt>
      <trkpt lat="44.10542" lon="7.38675">
        <ele>2636.4</ele>
        <time>2018-04-22T06:47:19.000Z</time>
      </trkpt>
      <trkpt lat="44.10543" lon="7.38676">
        <ele>2637.2</ele>
        <time>2018-04-22T06:47:25.000Z</time>
      </trkpt>
      <trkpt lat="44.10544" lon="7.38678">
        <ele>2638.7</ele>
        <time>2018-04-22T06:47:34.000Z</time>
      </trkpt>
      <trkpt lat="44.10544" lon="7.38679">
        <ele>2639.4</ele>
        <time>2018-04-22T06:47:44.000Z</time>
      </trkpt>
      <trkpt lat="44.10543" lon="7.38679">
        <ele>2639.3</ele>
        <time>2018-04-22T06:47:54.000Z</time>
      </trkpt>
      <trkpt lat="44.10543" lon="7.38679">
        <ele>2639.3</ele>
        <time>2018-04-22T06:48:03.000Z</time>
      </trkpt>
      <trkpt lat="44.10543" lon="7.38679">
        <ele>2639.3</ele>
        <time>2018-04-22T06:48:11.000Z</time>
      </trkpt>
      <trkpt lat="44.10543" lon="7.38679">
        <ele>2639.3</ele>
        <time>2018-04-22T06:48:20.000Z</time>
      </trkpt>
      <trkpt lat="44.10542" lon="7.38678">
        <ele>2638.5</ele>
        <time>2018-04-22T06:48:37.000Z</time>
      </trkpt>
      <trkpt lat="44.10542" lon="7.38678">
        <ele>2638.5</ele>
        <time>2018-04-22T06:48:56.000Z</time>
      </trkpt>
      <trkpt lat="44.10541" lon="7.38678">
        <ele>2638.4</ele>
        <time>2018-04-22T06:49:04.000Z</time>
      </trkpt>
      <trkpt lat="44.10541" lon="7.38677">
        <ele>2637.7</ele>
        <time>2018-04-22T06:49:12.000Z</time>
      </trkpt>
      <trkpt lat="44.10542" lon="7.38677">
        <ele>2637.8</ele>
        <time>2018-04-22T06:49:17.000Z</time>
      </trkpt>
      <trkpt lat="44.10541" lon="7.38676">
        <ele>2637</ele>
        <time>2018-04-22T06:49:25.000Z</time>
      </trkpt>
      <trkpt lat="44.10541" lon="7.38675">
        <ele>2636.3</ele>
        <time>2018-04-22T06:49:34.000Z</time>
      </trkpt>
      <trkpt lat="44.1054" lon="7.38674">
        <ele>2635.5</ele>
        <time>2018-04-22T06:49:41.000Z</time>
      </trkpt>
      <trkpt lat="44.1054" lon="7.38674">
        <ele>2635.5</ele>
        <time>2018-04-22T06:49:43.000Z</time>
      </trkpt>
      <trkpt lat="44.1054" lon="7.38674">
        <ele>2635.5</ele>
        <time>2018-04-22T06:49:58.000Z</time>
      </trkpt>
      <trkpt lat="44.10539" lon="7.38674">
        <ele>2635.4</ele>
        <time>2018-04-22T06:50:12.000Z</time>
      </trkpt>
      <trkpt lat="44.10539" lon="7.38673">
        <ele>2634.7</ele>
        <time>2018-04-22T06:50:29.000Z</time>
      </trkpt>
      <trkpt lat="44.10539" lon="7.38673">
        <ele>2634.7</ele>
        <time>2018-04-22T06:50:44.000Z</time>
      </trkpt>
      <trkpt lat="44.10539" lon="7.38673">
        <ele>2634.7</ele>
        <time>2018-04-22T06:50:58.000Z</time>
      </trkpt>
      <trkpt lat="44.10538" lon="7.38672">
        <ele>2633.9</ele>
        <time>2018-04-22T06:51:11.000Z</time>
      </trkpt>
      <trkpt lat="44.10539" lon="7.38672">
        <ele>2634</ele>
        <time>2018-04-22T06:51:23.000Z</time>
      </trkpt>
      <trkpt lat="44.10539" lon="7.38672">
        <ele>2634</ele>
        <time>2018-04-22T06:51:33.000Z</time>
      </trkpt>
      <trkpt lat="44.10538" lon="7.38672">
        <ele>2633.9</ele>
        <time>2018-04-22T06:51:36.000Z</time>
      </trkpt>
      <trkpt lat="44.10538" lon="7.38672">
        <ele>2633.9</ele>
        <time>2018-04-22T06:51:41.000Z</time>
      </trkpt>
      <trkpt lat="44.10538" lon="7.38671">
        <ele>2633.2</ele>
        <time>2018-04-22T06:51:49.000Z</time>
      </trkpt>
      <trkpt lat="44.10539" lon="7.38672">
        <ele>2634</ele>
        <time>2018-04-22T06:52:03.000Z</time>
      </trkpt>
      <trkpt lat="44.10539" lon="7.38672">
        <ele>2634</ele>
        <time>2018-04-22T06:52:09.000Z</time>
      </trkpt>
      <trkpt lat="44.10539" lon="7.38672">
        <ele>2634</ele>
        <time>2018-04-22T06:52:11.000Z</time>
      </trkpt>
      <trkpt lat="44.10539" lon="7.38674">
        <ele>2635.4</ele>
        <time>2018-04-22T06:52:21.000Z</time>
      </trkpt>
      <trkpt lat="44.1054" lon="7.38676">
        <ele>2636.9</ele>
        <time>2018-04-22T06:52:33.000Z</time>
      </trkpt>
      <trkpt lat="44.10539" lon="7.38679">
        <ele>2638.9</ele>
        <time>2018-04-22T06:52:53.000Z</time>
      </trkpt>
      <trkpt lat="44.10539" lon="7.3868">
        <ele>2639.6</ele>
        <time>2018-04-22T06:53:09.000Z</time>
      </trkpt>
      <trkpt lat="44.10539" lon="7.3868">
        <ele>2639.6</ele>
        <time>2018-04-22T06:53:11.000Z</time>
      </trkpt>
      <trkpt lat="44.1054" lon="7.3868">
        <ele>2639.7</ele>
        <time>2018-04-22T06:53:23.000Z</time>
      </trkpt>
      <trkpt lat="44.10539" lon="7.38678">
        <ele>2638.2</ele>
        <time>2018-04-22T06:53:28.000Z</time>
      </trkpt>
      <trkpt lat="44.10539" lon="7.38677">
        <ele>2637.5</ele>
        <time>2018-04-22T06:53:37.000Z</time>
      </trkpt>
      <trkpt lat="44.10539" lon="7.38677">
        <ele>2637.5</ele>
        <time>2018-04-22T06:53:49.000Z</time>
      </trkpt>
      <trkpt lat="44.10539" lon="7.38677">
        <ele>2637.5</ele>
        <time>2018-04-22T06:53:53.000Z</time>
      </trkpt>
      <trkpt lat="44.1054" lon="7.38676">
        <ele>2636.9</ele>
        <time>2018-04-22T06:54:04.000Z</time>
      </trkpt>
      <trkpt lat="44.1054" lon="7.38676">
        <ele>2636.9</ele>
        <time>2018-04-22T06:54:14.000Z</time>
      </trkpt>
      <trkpt lat="44.1054" lon="7.38675">
        <ele>2636.2</ele>
        <time>2018-04-22T06:54:32.000Z</time>
      </trkpt>
      <trkpt lat="44.1054" lon="7.38674">
        <ele>2635.5</ele>
        <time>2018-04-22T06:54:43.000Z</time>
      </trkpt>
      <trkpt lat="44.1054" lon="7.38674">
        <ele>2635.5</ele>
        <time>2018-04-22T06:55:01.000Z</time>
      </trkpt>
      <trkpt lat="44.1054" lon="7.38674">
        <ele>2635.5</ele>
        <time>2018-04-22T06:55:07.000Z</time>
      </trkpt>
      <trkpt lat="44.10539" lon="7.38674">
        <ele>2635.4</ele>
        <time>2018-04-22T06:55:19.000Z</time>
      </trkpt>
      <trkpt lat="44.1054" lon="7.38675">
        <ele>2636.2</ele>
        <time>2018-04-22T06:55:29.000Z</time>
      </trkpt>
      <trkpt lat="44.1054" lon="7.38675">
        <ele>2636.2</ele>
        <time>2018-04-22T06:55:36.000Z</time>
      </trkpt>
      <trkpt lat="44.10541" lon="7.38676">
        <ele>2637</ele>
        <time>2018-04-22T06:55:44.000Z</time>
      </trkpt>
      <trkpt lat="44.10541" lon="7.38676">
        <ele>2637</ele>
        <time>2018-04-22T06:55:53.000Z</time>
      </trkpt>
      <trkpt lat="44.10541" lon="7.38676">
        <ele>2637</ele>
        <time>2018-04-22T06:56:04.000Z</time>
      </trkpt>
      <trkpt lat="44.10541" lon="7.38676">
        <ele>2637</ele>
        <time>2018-04-22T06:56:14.000Z</time>
      </trkpt>
      <trkpt lat="44.10541" lon="7.38676">
        <ele>2637</ele>
        <time>2018-04-22T06:56:23.000Z</time>
      </trkpt>
      <trkpt lat="44.10542" lon="7.38676">
        <ele>2637.1</ele>
        <time>2018-04-22T06:56:37.000Z</time>
      </trkpt>
      <trkpt lat="44.10544" lon="7.38678">
        <ele>2638.7</ele>
        <time>2018-04-22T06:56:46.000Z</time>
      </trkpt>
      <trkpt lat="44.10547" lon="7.3868">
        <ele>2640.3</ele>
        <time>2018-04-22T06:56:57.000Z</time>
      </trkpt>
      <trkpt lat="44.10547" lon="7.38681">
        <ele>2641</ele>
        <time>2018-04-22T06:57:07.000Z</time>
      </trkpt>
      <trkpt lat="44.10547" lon="7.38681">
        <ele>2641</ele>
        <time>2018-04-22T06:57:14.000Z</time>
      </trkpt>
      <trkpt lat="44.10546" lon="7.3868">
        <ele>2640.3</ele>
        <time>2018-04-22T06:57:23.000Z</time>
      </trkpt>
      <trkpt lat="44.10546" lon="7.3868">
        <ele>2640.3</ele>
        <time>2018-04-22T06:57:30.000Z</time>
      </trkpt>
      <trkpt lat="44.10546" lon="7.38679">
        <ele>2639.6</ele>
        <time>2018-04-22T06:57:40.000Z</time>
      </trkpt>
      <trkpt lat="44.10547" lon="7.3868">
        <ele>2640.3</ele>
        <time>2018-04-22T06:57:48.000Z</time>
      </trkpt>
      <trkpt lat="44.10549" lon="7.38681">
        <ele>2641.2</ele>
        <time>2018-04-22T06:57:58.000Z</time>
      </trkpt>
      <trkpt lat="44.10547" lon="7.38679">
        <ele>2639.6</ele>
        <time>2018-04-22T06:58:08.000Z</time>
      </trkpt>
      <trkpt lat="44.10545" lon="7.38678">
        <ele>2638.8</ele>
        <time>2018-04-22T06:58:16.000Z</time>
      </trkpt>
      <trkpt lat="44.10545" lon="7.38677">
        <ele>2638.1</ele>
        <time>2018-04-22T06:58:23.000Z</time>
      </trkpt>
      <trkpt lat="44.10544" lon="7.38677">
        <ele>2638</ele>
        <time>2018-04-22T06:58:29.000Z</time>
      </trkpt>
      <trkpt lat="44.10544" lon="7.38676">
        <ele>2637.3</ele>
        <time>2018-04-22T06:58:36.000Z</time>
      </trkpt>
      <trkpt lat="44.10544" lon="7.38677">
        <ele>2638</ele>
        <time>2018-04-22T06:58:40.000Z</time>
      </trkpt>
      <trkpt lat="44.10544" lon="7.38677">
        <ele>2638</ele>
        <time>2018-04-22T06:58:49.000Z</time>
      </trkpt>
      <trkpt lat="44.10544" lon="7.38676">
        <ele>2637.3</ele>
        <time>2018-04-22T06:58:58.000Z</time>
      </trkpt>
      <trkpt lat="44.10544" lon="7.38676">
        <ele>2637.3</ele>
        <time>2018-04-22T06:59:08.000Z</time>
      </trkpt>
      <trkpt lat="44.10544" lon="7.38676">
        <ele>2637.3</ele>
        <time>2018-04-22T06:59:17.000Z</time>
      </trkpt>
      <trkpt lat="44.10544" lon="7.38675">
        <ele>2636.6</ele>
        <time>2018-04-22T06:59:28.000Z</time>
      </trkpt>
      <trkpt lat="44.10544" lon="7.38676">
        <ele>2637.3</ele>
        <time>2018-04-22T06:59:33.000Z</time>
      </trkpt>
      <trkpt lat="44.10545" lon="7.38676">
        <ele>2637.4</ele>
        <time>2018-04-22T06:59:40.000Z</time>
      </trkpt>
      <trkpt lat="44.10545" lon="7.38677">
        <ele>2638.1</ele>
        <time>2018-04-22T06:59:44.000Z</time>
      </trkpt>
      <trkpt lat="44.10546" lon="7.38678">
        <ele>2638.9</ele>
        <time>2018-04-22T06:59:48.000Z</time>
      </trkpt>
      <trkpt lat="44.10546" lon="7.38678">
        <ele>2638.9</ele>
        <time>2018-04-22T07:00:00.000Z</time>
      </trkpt>
      <trkpt lat="44.10547" lon="7.38679">
        <ele>2639.6</ele>
        <time>2018-04-22T07:00:02.000Z</time>
      </trkpt>
      <trkpt lat="44.10546" lon="7.38679">
        <ele>2639.6</ele>
        <time>2018-04-22T07:00:08.000Z</time>
      </trkpt>
      <trkpt lat="44.10547" lon="7.38679">
        <ele>2639.6</ele>
        <time>2018-04-22T07:00:17.000Z</time>
      </trkpt>
      <trkpt lat="44.10547" lon="7.3868">
        <ele>2640.3</ele>
        <time>2018-04-22T07:00:21.000Z</time>
      </trkpt>
      <trkpt lat="44.10547" lon="7.3868">
        <ele>2640.3</ele>
        <time>2018-04-22T07:00:25.000Z</time>
      </trkpt>
      <trkpt lat="44.10547" lon="7.38682">
        <ele>2641.7</ele>
        <time>2018-04-22T07:00:30.000Z</time>
      </trkpt>
      <trkpt lat="44.10547" lon="7.38681">
        <ele>2641</ele>
        <time>2018-04-22T07:00:32.000Z</time>
      </trkpt>
      <trkpt lat="44.10545" lon="7.38682">
        <ele>2641.6</ele>
        <time>2018-04-22T07:00:39.000Z</time>
      </trkpt>
      <trkpt lat="44.10545" lon="7.38681">
        <ele>2640.9</ele>
        <time>2018-04-22T07:00:48.000Z</time>
      </trkpt>
      <trkpt lat="44.10544" lon="7.38684">
        <ele>2642.9</ele>
        <time>2018-04-22T07:00:56.000Z</time>
      </trkpt>
      <trkpt lat="44.10543" lon="7.38684">
        <ele>2642.8</ele>
        <time>2018-04-22T07:00:57.000Z</time>
      </trkpt>
      <trkpt lat="44.10543" lon="7.38685">
        <ele>2643.5</ele>
        <time>2018-04-22T07:00:58.000Z</time>
      </trkpt>
      <trkpt lat="44.10543" lon="7.38686">
        <ele>2644.2</ele>
        <time>2018-04-22T07:01:01.000Z</time>
      </trkpt>
      <trkpt lat="44.10543" lon="7.38685">
        <ele>2643.5</ele>
        <time>2018-04-22T07:01:21.000Z</time>
      </trkpt>
      <trkpt lat="44.10542" lon="7.38686">
        <ele>2644.1</ele>
        <time>2018-04-22T07:01:33.000Z</time>
      </trkpt>
      <trkpt lat="44.10542" lon="7.38687">
        <ele>2644.8</ele>
        <time>2018-04-22T07:01:41.000Z</time>
      </trkpt>
      <trkpt lat="44.1054" lon="7.38689">
        <ele>2646</ele>
        <time>2018-04-22T07:01:45.000Z</time>
      </trkpt>
      <trkpt lat="44.1054" lon="7.38691">
        <ele>2647.5</ele>
        <time>2018-04-22T07:01:48.000Z</time>
      </trkpt>
      <trkpt lat="44.1054" lon="7.38692">
        <ele>2648.2</ele>
        <time>2018-04-22T07:01:53.000Z</time>
      </trkpt>
      <trkpt lat="44.1054" lon="7.38692">
        <ele>2648.2</ele>
        <time>2018-04-22T07:01:54.000Z</time>
      </trkpt>
      <trkpt lat="44.1054" lon="7.38692">
        <ele>2648.2</ele>
        <time>2018-04-22T07:02:04.000Z</time>
      </trkpt>
      <trkpt lat="44.10541" lon="7.38691">
        <ele>2647.5</ele>
        <time>2018-04-22T07:02:13.000Z</time>
      </trkpt>
      <trkpt lat="44.10543" lon="7.38692">
        <ele>2648.4</ele>
        <time>2018-04-22T07:02:19.000Z</time>
      </trkpt>
      <trkpt lat="44.10543" lon="7.38692">
        <ele>2648.4</ele>
        <time>2018-04-22T07:02:20.000Z</time>
      </trkpt>
      <trkpt lat="44.10545" lon="7.38693">
        <ele>2649.2</ele>
        <time>2018-04-22T07:02:27.000Z</time>
      </trkpt>
      <trkpt lat="44.10546" lon="7.38694">
        <ele>2650</ele>
        <time>2018-04-22T07:02:29.000Z</time>
      </trkpt>
      <trkpt lat="44.10546" lon="7.38694">
        <ele>2650</ele>
        <time>2018-04-22T07:02:35.000Z</time>
      </trkpt>
      <trkpt lat="44.10547" lon="7.38693">
        <ele>2649.4</ele>
        <time>2018-04-22T07:02:51.000Z</time>
      </trkpt>
      <trkpt lat="44.10548" lon="7.38694">
        <ele>2650.1</ele>
        <time>2018-04-22T07:02:58.000Z</time>
      </trkpt>
      <trkpt lat="44.10549" lon="7.38694">
        <ele>2650.2</ele>
        <time>2018-04-22T07:02:59.000Z</time>
      </trkpt>
      <trkpt lat="44.1055" lon="7.38695">
        <ele>2651</ele>
        <time>2018-04-22T07:03:05.000Z</time>
      </trkpt>
      <trkpt lat="44.10551" lon="7.38695">
        <ele>2651.1</ele>
        <time>2018-04-22T07:03:10.000Z</time>
      </trkpt>
      <trkpt lat="44.10552" lon="7.38695">
        <ele>2651.2</ele>
        <time>2018-04-22T07:03:14.000Z</time>
      </trkpt>
      <trkpt lat="44.10552" lon="7.38696">
        <ele>2652</ele>
        <time>2018-04-22T07:03:19.000Z</time>
      </trkpt>
      <trkpt lat="44.10552" lon="7.38696">
        <ele>2652</ele>
        <time>2018-04-22T07:03:20.000Z</time>
      </trkpt>
      <trkpt lat="44.10551" lon="7.38696">
        <ele>2651.9</ele>
        <time>2018-04-22T07:03:29.000Z</time>
      </trkpt>
      <trkpt lat="44.1055" lon="7.38699">
        <ele>2654.2</ele>
        <time>2018-04-22T07:03:34.000Z</time>
      </trkpt>
      <trkpt lat="44.10549" lon="7.387">
        <ele>2654.9</ele>
        <time>2018-04-22T07:03:40.000Z</time>
      </trkpt>
      <trkpt lat="44.10549" lon="7.387">
        <ele>2654.9</ele>
        <time>2018-04-22T07:03:41.000Z</time>
      </trkpt>
      <trkpt lat="44.10548" lon="7.38701">
        <ele>2655.6</ele>
        <time>2018-04-22T07:03:47.000Z</time>
      </trkpt>
      <trkpt lat="44.10547" lon="7.38702">
        <ele>2656.3</ele>
        <time>2018-04-22T07:03:51.000Z</time>
      </trkpt>
      <trkpt lat="44.10547" lon="7.38703">
        <ele>2657.1</ele>
        <time>2018-04-22T07:03:54.000Z</time>
      </trkpt>
      <trkpt lat="44.10546" lon="7.38704">
        <ele>2657.8</ele>
        <time>2018-04-22T07:03:59.000Z</time>
      </trkpt>
      <trkpt lat="44.10546" lon="7.38704">
        <ele>2657.8</ele>
        <time>2018-04-22T07:04:00.000Z</time>
      </trkpt>
      <trkpt lat="44.10546" lon="7.38707">
        <ele>2660.1</ele>
        <time>2018-04-22T07:04:09.000Z</time>
      </trkpt>
      <trkpt lat="44.10546" lon="7.38706">
        <ele>2659.3</ele>
        <time>2018-04-22T07:04:10.000Z</time>
      </trkpt>
      <trkpt lat="44.10545" lon="7.38707">
        <ele>2659.9</ele>
        <time>2018-04-22T07:04:14.000Z</time>
      </trkpt>
      <trkpt lat="44.10545" lon="7.38708">
        <ele>2660.7</ele>
        <time>2018-04-22T07:04:17.000Z</time>
      </trkpt>
      <trkpt lat="44.10544" lon="7.38709">
        <ele>2661.3</ele>
        <time>2018-04-22T07:04:22.000Z</time>
      </trkpt>
      <trkpt lat="44.10544" lon="7.38709">
        <ele>2661.3</ele>
        <time>2018-04-22T07:04:23.000Z</time>
      </trkpt>
      <trkpt lat="44.10543" lon="7.38709">
        <ele>2661.2</ele>
        <time>2018-04-22T07:04:29.000Z</time>
      </trkpt>
      <trkpt lat="44.10543" lon="7.38709">
        <ele>2661.2</ele>
        <time>2018-04-22T07:04:42.000Z</time>
      </trkpt>
      <trkpt lat="44.10543" lon="7.38709">
        <ele>2661.2</ele>
        <time>2018-04-22T07:04:57.000Z</time>
      </trkpt>
      <trkpt lat="44.10543" lon="7.38709">
        <ele>2661.2</ele>
        <time>2018-04-22T07:05:04.000Z</time>
      </trkpt>
      <trkpt lat="44.10542" lon="7.38711">
        <ele>2662.6</ele>
        <time>2018-04-22T07:05:05.000Z</time>
      </trkpt>
      <trkpt lat="44.10541" lon="7.38712">
        <ele>2663.2</ele>
        <time>2018-04-22T07:05:09.000Z</time>
      </trkpt>
      <trkpt lat="44.10539" lon="7.38714">
        <ele>2664.3</ele>
        <time>2018-04-22T07:05:17.000Z</time>
      </trkpt>
      <trkpt lat="44.10538" lon="7.38716">
        <ele>2665.6</ele>
        <time>2018-04-22T07:05:23.000Z</time>
      </trkpt>
      <trkpt lat="44.10538" lon="7.38716">
        <ele>2665.6</ele>
        <time>2018-04-22T07:05:25.000Z</time>
      </trkpt>
      <trkpt lat="44.10538" lon="7.38715">
        <ele>2664.9</ele>
        <time>2018-04-22T07:05:30.000Z</time>
      </trkpt>
      <trkpt lat="44.1054" lon="7.38716">
        <ele>2666</ele>
        <time>2018-04-22T07:05:38.000Z</time>
      </trkpt>
      <trkpt lat="44.1054" lon="7.38716">
        <ele>2666</ele>
        <time>2018-04-22T07:05:40.000Z</time>
      </trkpt>
      <trkpt lat="44.10543" lon="7.38717">
        <ele>2667.3</ele>
        <time>2018-04-22T07:05:47.000Z</time>
      </trkpt>
      <trkpt lat="44.10542" lon="7.38717">
        <ele>2667.1</ele>
        <time>2018-04-22T07:05:48.000Z</time>
      </trkpt>
      <trkpt lat="44.10544" lon="7.38717">
        <ele>2667.5</ele>
        <time>2018-04-22T07:05:54.000Z</time>
      </trkpt>
      <trkpt lat="44.10545" lon="7.38718">
        <ele>2668.5</ele>
        <time>2018-04-22T07:06:01.000Z</time>
      </trkpt>
      <trkpt lat="44.10546" lon="7.38718">
        <ele>2668.6</ele>
        <time>2018-04-22T07:06:02.000Z</time>
      </trkpt>
      <trkpt lat="44.10546" lon="7.38718">
        <ele>2668.6</ele>
        <time>2018-04-22T07:06:14.000Z</time>
      </trkpt>
      <trkpt lat="44.10546" lon="7.38719">
        <ele>2669.4</ele>
        <time>2018-04-22T07:06:21.000Z</time>
      </trkpt>
      <trkpt lat="44.10546" lon="7.38719">
        <ele>2669.4</ele>
        <time>2018-04-22T07:06:28.000Z</time>
      </trkpt>
      <trkpt lat="44.10545" lon="7.3872">
        <ele>2670</ele>
        <time>2018-04-22T07:06:40.000Z</time>
      </trkpt>
      <trkpt lat="44.10544" lon="7.38721">
        <ele>2670.6</ele>
        <time>2018-04-22T07:06:43.000Z</time>
      </trkpt>
      <trkpt lat="44.10543" lon="7.38722">
        <ele>2671.1</ele>
        <time>2018-04-22T07:06:46.000Z</time>
      </trkpt>
      <trkpt lat="44.10541" lon="7.38724">
        <ele>2671.7</ele>
        <time>2018-04-22T07:06:51.000Z</time>
      </trkpt>
      <trkpt lat="44.1054" lon="7.38725">
        <ele>2672</ele>
        <time>2018-04-22T07:06:54.000Z</time>
      </trkpt>
      <trkpt lat="44.10539" lon="7.38726">
        <ele>2672.2</ele>
        <time>2018-04-22T07:06:56.000Z</time>
      </trkpt>
      <trkpt lat="44.10538" lon="7.38727">
        <ele>2672.5</ele>
        <time>2018-04-22T07:07:00.000Z</time>
      </trkpt>
      <trkpt lat="44.10538" lon="7.38727">
        <ele>2672.5</ele>
        <time>2018-04-22T07:07:04.000Z</time>
      </trkpt>
      <trkpt lat="44.1054" lon="7.38726">
        <ele>2672.5</ele>
        <time>2018-04-22T07:07:11.000Z</time>
      </trkpt>
      <trkpt lat="44.10541" lon="7.38727">
        <ele>2673.2</ele>
        <time>2018-04-22T07:07:15.000Z</time>
      </trkpt>
      <trkpt lat="44.10541" lon="7.38727">
        <ele>2673.2</ele>
        <time>2018-04-22T07:07:17.000Z</time>
      </trkpt>
      <trkpt lat="44.10543" lon="7.38727">
        <ele>2673.6</ele>
        <time>2018-04-22T07:07:24.000Z</time>
      </trkpt>
      <trkpt lat="44.10544" lon="7.38728">
        <ele>2674.4</ele>
        <time>2018-04-22T07:07:27.000Z</time>
      </trkpt>
      <trkpt lat="44.10545" lon="7.38728">
        <ele>2674.6</ele>
        <time>2018-04-22T07:07:31.000Z</time>
      </trkpt>
      <trkpt lat="44.10547" lon="7.3873">
        <ele>2676.1</ele>
        <time>2018-04-22T07:07:38.000Z</time>
      </trkpt>
      <trkpt lat="44.10549" lon="7.38732">
        <ele>2677.6</ele>
        <time>2018-04-22T07:07:42.000Z</time>
      </trkpt>
      <trkpt lat="44.10549" lon="7.38732">
        <ele>2677.6</ele>
        <time>2018-04-22T07:07:43.000Z</time>
      </trkpt>
      <trkpt lat="44.10549" lon="7.38732">
        <ele>2677.6</ele>
        <time>2018-04-22T07:07:44.000Z</time>
      </trkpt>
      <trkpt lat="44.10549" lon="7.38732">
        <ele>2677.6</ele>
        <time>2018-04-22T07:07:51.000Z</time>
      </trkpt>
      <trkpt lat="44.10548" lon="7.38733">
        <ele>2677.9</ele>
        <time>2018-04-22T07:07:57.000Z</time>
      </trkpt>
      <trkpt lat="44.10545" lon="7.38734">
        <ele>2677.6</ele>
        <time>2018-04-22T07:07:59.000Z</time>
      </trkpt>
      <trkpt lat="44.10545" lon="7.38735">
        <ele>2678.1</ele>
        <time>2018-04-22T07:08:00.000Z</time>
      </trkpt>
      <trkpt lat="44.10545" lon="7.38734">
        <ele>2677.6</ele>
        <time>2018-04-22T07:08:01.000Z</time>
      </trkpt>
      <trkpt lat="44.10542" lon="7.38737">
        <ele>2678.3</ele>
        <time>2018-04-22T07:08:08.000Z</time>
      </trkpt>
      <trkpt lat="44.10542" lon="7.38737">
        <ele>2678.3</ele>
        <time>2018-04-22T07:08:11.000Z</time>
      </trkpt>
      <trkpt lat="44.10542" lon="7.38736">
        <ele>2677.8</ele>
        <time>2018-04-22T07:08:16.000Z</time>
      </trkpt>
      <trkpt lat="44.10542" lon="7.38735">
        <ele>2677.3</ele>
        <time>2018-04-22T07:08:22.000Z</time>
      </trkpt>
      <trkpt lat="44.10544" lon="7.38735">
        <ele>2677.8</ele>
        <time>2018-04-22T07:08:30.000Z</time>
      </trkpt>
      <trkpt lat="44.10546" lon="7.38736">
        <ele>2678.9</ele>
        <time>2018-04-22T07:08:37.000Z</time>
      </trkpt>
      <trkpt lat="44.10546" lon="7.38736">
        <ele>2678.9</ele>
        <time>2018-04-22T07:08:38.000Z</time>
      </trkpt>
      <trkpt lat="44.10547" lon="7.38737">
        <ele>2679.6</ele>
        <time>2018-04-22T07:08:44.000Z</time>
      </trkpt>
      <trkpt lat="44.10549" lon="7.38737">
        <ele>2680.2</ele>
        <time>2018-04-22T07:08:49.000Z</time>
      </trkpt>
      <trkpt lat="44.10549" lon="7.38737">
        <ele>2680.2</ele>
        <time>2018-04-22T07:08:50.000Z</time>
      </trkpt>
      <trkpt lat="44.10549" lon="7.38738">
        <ele>2680.7</ele>
        <time>2018-04-22T07:08:57.000Z</time>
      </trkpt>
      <trkpt lat="44.10549" lon="7.38737">
        <ele>2680.2</ele>
        <time>2018-04-22T07:09:04.000Z</time>
      </trkpt>
      <trkpt lat="44.10549" lon="7.38737">
        <ele>2680.2</ele>
        <time>2018-04-22T07:09:12.000Z</time>
      </trkpt>
      <trkpt lat="44.10549" lon="7.38736">
        <ele>2679.7</ele>
        <time>2018-04-22T07:09:25.000Z</time>
      </trkpt>
      <trkpt lat="44.10549" lon="7.38736">
        <ele>2679.7</ele>
        <time>2018-04-22T07:09:38.000Z</time>
      </trkpt>
      <trkpt lat="44.10549" lon="7.38736">
        <ele>2679.7</ele>
        <time>2018-04-22T07:09:49.000Z</time>
      </trkpt>
      <trkpt lat="44.10549" lon="7.38736">
        <ele>2679.7</ele>
        <time>2018-04-22T07:09:59.000Z</time>
      </trkpt>
      <trkpt lat="44.1055" lon="7.38736">
        <ele>2679.9</ele>
        <time>2018-04-22T07:10:10.000Z</time>
      </trkpt>
      <trkpt lat="44.10549" lon="7.38737">
        <ele>2680.2</ele>
        <time>2018-04-22T07:10:14.000Z</time>
      </trkpt>
      <trkpt lat="44.10549" lon="7.38738">
        <ele>2680.7</ele>
        <time>2018-04-22T07:10:16.000Z</time>
      </trkpt>
      <trkpt lat="44.10549" lon="7.38738">
        <ele>2680.7</ele>
        <time>2018-04-22T07:10:20.000Z</time>
      </trkpt>
      <trkpt lat="44.10548" lon="7.38739">
        <ele>2680.9</ele>
        <time>2018-04-22T07:10:22.000Z</time>
      </trkpt>
      <trkpt lat="44.10548" lon="7.3874">
        <ele>2681.4</ele>
        <time>2018-04-22T07:10:28.000Z</time>
      </trkpt>
      <trkpt lat="44.10548" lon="7.38742">
        <ele>2682.5</ele>
        <time>2018-04-22T07:10:29.000Z</time>
      </trkpt>
      <trkpt lat="44.10548" lon="7.38742">
        <ele>2682.5</ele>
        <time>2018-04-22T07:10:31.000Z</time>
      </trkpt>
      <trkpt lat="44.10549" lon="7.38742">
        <ele>2682.8</ele>
        <time>2018-04-22T07:10:33.000Z</time>
      </trkpt>
      <trkpt lat="44.1055" lon="7.38742">
        <ele>2683.1</ele>
        <time>2018-04-22T07:10:37.000Z</time>
      </trkpt>
      <trkpt lat="44.10552" lon="7.38743">
        <ele>2684.2</ele>
        <time>2018-04-22T07:10:40.000Z</time>
      </trkpt>
      <trkpt lat="44.10552" lon="7.38743">
        <ele>2684.2</ele>
        <time>2018-04-22T07:10:42.000Z</time>
      </trkpt>
      <trkpt lat="44.10554" lon="7.38742">
        <ele>2684.2</ele>
        <time>2018-04-22T07:10:48.000Z</time>
      </trkpt>
      <trkpt lat="44.10555" lon="7.38742">
        <ele>2684.5</ele>
        <time>2018-04-22T07:10:50.000Z</time>
      </trkpt>
      <trkpt lat="44.10555" lon="7.38742">
        <ele>2684.5</ele>
        <time>2018-04-22T07:10:54.000Z</time>
      </trkpt>
      <trkpt lat="44.10557" lon="7.38742">
        <ele>2685.6</ele>
        <time>2018-04-22T07:11:00.000Z</time>
      </trkpt>
      <trkpt lat="44.10557" lon="7.38743">
        <ele>2686.1</ele>
        <time>2018-04-22T07:11:05.000Z</time>
      </trkpt>
      <trkpt lat="44.10557" lon="7.38744">
        <ele>2686.7</ele>
        <time>2018-04-22T07:11:07.000Z</time>
      </trkpt>
      <trkpt lat="44.10556" lon="7.38745">
        <ele>2686.6</ele>
        <time>2018-04-22T07:11:13.000Z</time>
      </trkpt>
      <trkpt lat="44.10554" lon="7.38747">
        <ele>2686.9</ele>
        <time>2018-04-22T07:11:19.000Z</time>
      </trkpt>
      <trkpt lat="44.10553" lon="7.38748">
        <ele>2687.1</ele>
        <time>2018-04-22T07:11:21.000Z</time>
      </trkpt>
      <trkpt lat="44.10553" lon="7.38749">
        <ele>2687.6</ele>
        <time>2018-04-22T07:11:23.000Z</time>
      </trkpt>
      <trkpt lat="44.10551" lon="7.3875">
        <ele>2687.5</ele>
        <time>2018-04-22T07:11:26.000Z</time>
      </trkpt>
      <trkpt lat="44.10551" lon="7.3875">
        <ele>2687.5</ele>
        <time>2018-04-22T07:11:29.000Z</time>
      </trkpt>
      <trkpt lat="44.10552" lon="7.3875">
        <ele>2687.8</ele>
        <time>2018-04-22T07:11:39.000Z</time>
      </trkpt>
      <trkpt lat="44.10553" lon="7.3875">
        <ele>2688.2</ele>
        <time>2018-04-22T07:11:48.000Z</time>
      </trkpt>
      <trkpt lat="44.10554" lon="7.3875">
        <ele>2688.5</ele>
        <time>2018-04-22T07:11:52.000Z</time>
      </trkpt>
      <trkpt lat="44.10554" lon="7.3875">
        <ele>2688.5</ele>
        <time>2018-04-22T07:11:55.000Z</time>
      </trkpt>
      <trkpt lat="44.10556" lon="7.3875">
        <ele>2689.3</ele>
        <time>2018-04-22T07:12:02.000Z</time>
      </trkpt>
      <trkpt lat="44.10556" lon="7.3875">
        <ele>2689.3</ele>
        <time>2018-04-22T07:12:06.000Z</time>
      </trkpt>
      <trkpt lat="44.10557" lon="7.3875">
        <ele>2689.9</ele>
        <time>2018-04-22T07:12:08.000Z</time>
      </trkpt>
      <trkpt lat="44.10558" lon="7.3875">
        <ele>2690.5</ele>
        <time>2018-04-22T07:12:14.000Z</time>
      </trkpt>
      <trkpt lat="44.1056" lon="7.3875">
        <ele>2691.7</ele>
        <time>2018-04-22T07:12:19.000Z</time>
      </trkpt>
      <trkpt lat="44.1056" lon="7.3875">
        <ele>2691.7</ele>
        <time>2018-04-22T07:12:20.000Z</time>
      </trkpt>
      <trkpt lat="44.10562" lon="7.3875">
        <ele>2692.9</ele>
        <time>2018-04-22T07:12:27.000Z</time>
      </trkpt>
      <trkpt lat="44.10562" lon="7.3875">
        <ele>2692.9</ele>
        <time>2018-04-22T07:12:28.000Z</time>
      </trkpt>
      <trkpt lat="44.10564" lon="7.38749">
        <ele>2693.6</ele>
        <time>2018-04-22T07:12:34.000Z</time>
      </trkpt>
      <trkpt lat="44.10564" lon="7.38749">
        <ele>2693.6</ele>
        <time>2018-04-22T07:12:39.000Z</time>
      </trkpt>
      <trkpt lat="44.10564" lon="7.38749">
        <ele>2693.6</ele>
        <time>2018-04-22T07:12:41.000Z</time>
      </trkpt>
      <trkpt lat="44.10565" lon="7.38748">
        <ele>2693.7</ele>
        <time>2018-04-22T07:13:00.000Z</time>
      </trkpt>
      <trkpt lat="44.10566" lon="7.38749">
        <ele>2694.9</ele>
        <time>2018-04-22T07:13:07.000Z</time>
      </trkpt>
      <trkpt lat="44.10566" lon="7.38751">
        <ele>2695.5</ele>
        <time>2018-04-22T07:13:14.000Z</time>
      </trkpt>
      <trkpt lat="44.10566" lon="7.38751">
        <ele>2695.5</ele>
        <time>2018-04-22T07:13:15.000Z</time>
      </trkpt>
      <trkpt lat="44.10565" lon="7.38754">
        <ele>2695.1</ele>
        <time>2018-04-22T07:13:20.000Z</time>
      </trkpt>
      <trkpt lat="44.10565" lon="7.38755">
        <ele>2695.1</ele>
        <time>2018-04-22T07:13:23.000Z</time>
      </trkpt>
      <trkpt lat="44.10565" lon="7.38755">
        <ele>2695.1</ele>
        <time>2018-04-22T07:13:27.000Z</time>
      </trkpt>
      <trkpt lat="44.10567" lon="7.38753">
        <ele>2696.2</ele>
        <time>2018-04-22T07:13:33.000Z</time>
      </trkpt>
      <trkpt lat="44.10568" lon="7.38753">
        <ele>2696.8</ele>
        <time>2018-04-22T07:13:34.000Z</time>
      </trkpt>
      <trkpt lat="44.10569" lon="7.38751">
        <ele>2697.3</ele>
        <time>2018-04-22T07:13:39.000Z</time>
      </trkpt>
      <trkpt lat="44.10569" lon="7.38752">
        <ele>2697.3</ele>
        <time>2018-04-22T07:13:44.000Z</time>
      </trkpt>
      <trkpt lat="44.10569" lon="7.38752">
        <ele>2697.3</ele>
        <time>2018-04-22T07:13:46.000Z</time>
      </trkpt>
      <trkpt lat="44.10569" lon="7.38753">
        <ele>2697.3</ele>
        <time>2018-04-22T07:13:52.000Z</time>
      </trkpt>
      <trkpt lat="44.10569" lon="7.38754">
        <ele>2697.4</ele>
        <time>2018-04-22T07:13:58.000Z</time>
      </trkpt>
      <trkpt lat="44.10568" lon="7.38757">
        <ele>2696.9</ele>
        <time>2018-04-22T07:14:03.000Z</time>
      </trkpt>
      <trkpt lat="44.10568" lon="7.38758">
        <ele>2697</ele>
        <time>2018-04-22T07:14:08.000Z</time>
      </trkpt>
      <trkpt lat="44.10569" lon="7.38758">
        <ele>2697.5</ele>
        <time>2018-04-22T07:14:17.000Z</time>
      </trkpt>
      <trkpt lat="44.1057" lon="7.38757">
        <ele>2698.1</ele>
        <time>2018-04-22T07:14:25.000Z</time>
      </trkpt>
      <trkpt lat="44.10571" lon="7.38757">
        <ele>2698.6</ele>
        <time>2018-04-22T07:14:26.000Z</time>
      </trkpt>
      <trkpt lat="44.10572" lon="7.38756">
        <ele>2699.2</ele>
        <time>2018-04-22T07:14:32.000Z</time>
      </trkpt>
      <trkpt lat="44.10573" lon="7.38756">
        <ele>2699.7</ele>
        <time>2018-04-22T07:14:34.000Z</time>
      </trkpt>
      <trkpt lat="44.10574" lon="7.38755">
        <ele>2700.3</ele>
        <time>2018-04-22T07:14:35.000Z</time>
      </trkpt>
      <trkpt lat="44.10574" lon="7.38756">
        <ele>2700.3</ele>
        <time>2018-04-22T07:14:37.000Z</time>
      </trkpt>
      <trkpt lat="44.10573" lon="7.38757">
        <ele>2699.7</ele>
        <time>2018-04-22T07:14:42.000Z</time>
      </trkpt>
      <trkpt lat="44.10573" lon="7.38758">
        <ele>2699.7</ele>
        <time>2018-04-22T07:14:44.000Z</time>
      </trkpt>
      <trkpt lat="44.10573" lon="7.38761">
        <ele>2699.8</ele>
        <time>2018-04-22T07:14:50.000Z</time>
      </trkpt>
      <trkpt lat="44.10573" lon="7.3876">
        <ele>2699.8</ele>
        <time>2018-04-22T07:15:00.000Z</time>
      </trkpt>
      <trkpt lat="44.10573" lon="7.3876">
        <ele>2699.8</ele>
        <time>2018-04-22T07:15:08.000Z</time>
      </trkpt>
      <trkpt lat="44.10573" lon="7.3876">
        <ele>2699.8</ele>
        <time>2018-04-22T07:15:22.000Z</time>
      </trkpt>
      <trkpt lat="44.10573" lon="7.3876">
        <ele>2699.8</ele>
        <time>2018-04-22T07:15:33.000Z</time>
      </trkpt>
      <trkpt lat="44.10573" lon="7.38759">
        <ele>2699.8</ele>
        <time>2018-04-22T07:15:43.000Z</time>
      </trkpt>
      <trkpt lat="44.10575" lon="7.38757">
        <ele>2700.8</ele>
        <time>2018-04-22T07:15:50.000Z</time>
      </trkpt>
      <trkpt lat="44.10576" lon="7.38758">
        <ele>2701.4</ele>
        <time>2018-04-22T07:15:58.000Z</time>
      </trkpt>
      <trkpt lat="44.10575" lon="7.3876">
        <ele>2700.8</ele>
        <time>2018-04-22T07:16:07.000Z</time>
      </trkpt>
      <trkpt lat="44.10576" lon="7.38761">
        <ele>2701.3</ele>
        <time>2018-04-22T07:16:10.000Z</time>
      </trkpt>
      <trkpt lat="44.10576" lon="7.38761">
        <ele>2701.3</ele>
        <time>2018-04-22T07:16:15.000Z</time>
      </trkpt>
      <trkpt lat="44.10576" lon="7.38761">
        <ele>2701.3</ele>
        <time>2018-04-22T07:16:17.000Z</time>
      </trkpt>
      <trkpt lat="44.10578" lon="7.3876">
        <ele>2702.4</ele>
        <time>2018-04-22T07:16:23.000Z</time>
      </trkpt>
      <trkpt lat="44.10578" lon="7.3876">
        <ele>2702.4</ele>
        <time>2018-04-22T07:16:24.000Z</time>
      </trkpt>
      <trkpt lat="44.10579" lon="7.38759">
        <ele>2703</ele>
        <time>2018-04-22T07:16:30.000Z</time>
      </trkpt>
      <trkpt lat="44.10579" lon="7.38762">
        <ele>2702.9</ele>
        <time>2018-04-22T07:16:34.000Z</time>
      </trkpt>
      <trkpt lat="44.1058" lon="7.38762">
        <ele>2703.4</ele>
        <time>2018-04-22T07:16:36.000Z</time>
      </trkpt>
      <trkpt lat="44.1058" lon="7.38762">
        <ele>2703.4</ele>
        <time>2018-04-22T07:16:45.000Z</time>
      </trkpt>
      <trkpt lat="44.10579" lon="7.38764">
        <ele>2702.8</ele>
        <time>2018-04-22T07:16:50.000Z</time>
      </trkpt>
      <trkpt lat="44.10579" lon="7.38763">
        <ele>2702.9</ele>
        <time>2018-04-22T07:16:51.000Z</time>
      </trkpt>
      <trkpt lat="44.10579" lon="7.38763">
        <ele>2702.9</ele>
        <time>2018-04-22T07:16:56.000Z</time>
      </trkpt>
      <trkpt lat="44.10581" lon="7.38762">
        <ele>2703.9</ele>
        <time>2018-04-22T07:17:04.000Z</time>
      </trkpt>
      <trkpt lat="44.10581" lon="7.38761">
        <ele>2704</ele>
        <time>2018-04-22T07:17:06.000Z</time>
      </trkpt>
      <trkpt lat="44.10582" lon="7.38762">
        <ele>2704.4</ele>
        <time>2018-04-22T07:17:12.000Z</time>
      </trkpt>
      <trkpt lat="44.10582" lon="7.38762">
        <ele>2704.4</ele>
        <time>2018-04-22T07:17:13.000Z</time>
      </trkpt>
      <trkpt lat="44.10582" lon="7.38764">
        <ele>2704.3</ele>
        <time>2018-04-22T07:17:22.000Z</time>
      </trkpt>
      <trkpt lat="44.10582" lon="7.38766">
        <ele>2704.2</ele>
        <time>2018-04-22T07:17:28.000Z</time>
      </trkpt>
      <trkpt lat="44.10582" lon="7.38767">
        <ele>2704.1</ele>
        <time>2018-04-22T07:17:41.000Z</time>
      </trkpt>
      <trkpt lat="44.10581" lon="7.38768">
        <ele>2703.6</ele>
        <time>2018-04-22T07:17:51.000Z</time>
      </trkpt>
      <trkpt lat="44.10581" lon="7.3877">
        <ele>2703.5</ele>
        <time>2018-04-22T07:17:55.000Z</time>
      </trkpt>
      <trkpt lat="44.1058" lon="7.3877">
        <ele>2703</ele>
        <time>2018-04-22T07:17:58.000Z</time>
      </trkpt>
      <trkpt lat="44.1058" lon="7.38772">
        <ele>2702.9</ele>
        <time>2018-04-22T07:18:04.000Z</time>
      </trkpt>
      <trkpt lat="44.1058" lon="7.38774">
        <ele>2702.9</ele>
        <time>2018-04-22T07:18:10.000Z</time>
      </trkpt>
      <trkpt lat="44.10581" lon="7.38774">
        <ele>2703.3</ele>
        <time>2018-04-22T07:18:12.000Z</time>
      </trkpt>
      <trkpt lat="44.10581" lon="7.38774">
        <ele>2703.3</ele>
        <time>2018-04-22T07:18:20.000Z</time>
      </trkpt>
      <trkpt lat="44.1058" lon="7.38774">
        <ele>2702.9</ele>
        <time>2018-04-22T07:18:28.000Z</time>
      </trkpt>
      <trkpt lat="44.1058" lon="7.38773">
        <ele>2702.9</ele>
        <time>2018-04-22T07:18:39.000Z</time>
      </trkpt>
      <trkpt lat="44.1058" lon="7.38773">
        <ele>2702.9</ele>
        <time>2018-04-22T07:18:50.000Z</time>
      </trkpt>
      <trkpt lat="44.1058" lon="7.38773">
        <ele>2702.9</ele>
        <time>2018-04-22T07:19:02.000Z</time>
      </trkpt>
      <trkpt lat="44.1058" lon="7.38773">
        <ele>2702.9</ele>
        <time>2018-04-22T07:19:14.000Z</time>
      </trkpt>
      <trkpt lat="44.1058" lon="7.38773">
        <ele>2702.9</ele>
        <time>2018-04-22T07:19:27.000Z</time>
      </trkpt>
      <trkpt lat="44.1058" lon="7.38773">
        <ele>2702.9</ele>
        <time>2018-04-22T07:19:35.000Z</time>
      </trkpt>
      <trkpt lat="44.1058" lon="7.38773">
        <ele>2702.9</ele>
        <time>2018-04-22T07:19:45.000Z</time>
      </trkpt>
      <trkpt lat="44.1058" lon="7.38773">
        <ele>2702.9</ele>
        <time>2018-04-22T07:19:56.000Z</time>
      </trkpt>
      <trkpt lat="44.1058" lon="7.38773">
        <ele>2702.9</ele>
        <time>2018-04-22T07:20:09.000Z</time>
      </trkpt>
      <trkpt lat="44.1058" lon="7.38773">
        <ele>2702.9</ele>
        <time>2018-04-22T07:20:21.000Z</time>
      </trkpt>
      <trkpt lat="44.1058" lon="7.38773">
        <ele>2702.9</ele>
        <time>2018-04-22T07:20:30.000Z</time>
      </trkpt>
      <trkpt lat="44.1058" lon="7.38773">
        <ele>2702.9</ele>
        <time>2018-04-22T07:20:43.000Z</time>
      </trkpt>
      <trkpt lat="44.1058" lon="7.38772">
        <ele>2702.9</ele>
        <time>2018-04-22T07:20:51.000Z</time>
      </trkpt>
      <trkpt lat="44.1058" lon="7.38773">
        <ele>2702.9</ele>
        <time>2018-04-22T07:21:00.000Z</time>
      </trkpt>
      <trkpt lat="44.1058" lon="7.38773">
        <ele>2702.9</ele>
        <time>2018-04-22T07:21:07.000Z</time>
      </trkpt>
      <trkpt lat="44.1058" lon="7.38773">
        <ele>2702.9</ele>
        <time>2018-04-22T07:21:16.000Z</time>
      </trkpt>
      <trkpt lat="44.10581" lon="7.38773">
        <ele>2703.3</ele>
        <time>2018-04-22T07:21:21.000Z</time>
      </trkpt>
      <trkpt lat="44.10581" lon="7.38773">
        <ele>2703.3</ele>
        <time>2018-04-22T07:21:23.000Z</time>
      </trkpt>
      <trkpt lat="44.10581" lon="7.38773">
        <ele>2703.3</ele>
        <time>2018-04-22T07:21:31.000Z</time>
      </trkpt>
      <trkpt lat="44.10581" lon="7.38773">
        <ele>2703.3</ele>
        <time>2018-04-22T07:21:38.000Z</time>
      </trkpt>
      <trkpt lat="44.10581" lon="7.38773">
        <ele>2703.3</ele>
        <time>2018-04-22T07:21:45.000Z</time>
      </trkpt>
      <trkpt lat="44.10582" lon="7.38773">
        <ele>2703.8</ele>
        <time>2018-04-22T07:21:48.000Z</time>
      </trkpt>
      <trkpt lat="44.10582" lon="7.38773">
        <ele>2703.8</ele>
        <time>2018-04-22T07:22:00.000Z</time>
      </trkpt>
      <trkpt lat="44.10583" lon="7.38774">
        <ele>2704.1</ele>
        <time>2018-04-22T07:22:11.000Z</time>
      </trkpt>
      <trkpt lat="44.10582" lon="7.38773">
        <ele>2703.8</ele>
        <time>2018-04-22T07:22:21.000Z</time>
      </trkpt>
      <trkpt lat="44.10583" lon="7.38773">
        <ele>2704.2</ele>
        <time>2018-04-22T07:22:30.000Z</time>
      </trkpt>
      <trkpt lat="44.10583" lon="7.38773">
        <ele>2704.2</ele>
        <time>2018-04-22T07:22:45.000Z</time>
      </trkpt>
      <trkpt lat="44.10583" lon="7.38772">
        <ele>2704.3</ele>
        <time>2018-04-22T07:22:55.000Z</time>
      </trkpt>
      <trkpt lat="44.10582" lon="7.38772">
        <ele>2703.8</ele>
        <time>2018-04-22T07:23:05.000Z</time>
      </trkpt>
      <trkpt lat="44.10582" lon="7.38772">
        <ele>2703.8</ele>
        <time>2018-04-22T07:23:17.000Z</time>
      </trkpt>
      <trkpt lat="44.10581" lon="7.38772">
        <ele>2703.4</ele>
        <time>2018-04-22T07:23:26.000Z</time>
      </trkpt>
      <trkpt lat="44.10581" lon="7.38772">
        <ele>2703.4</ele>
        <time>2018-04-22T07:23:35.000Z</time>
      </trkpt>
      <trkpt lat="44.1058" lon="7.38772">
        <ele>2702.9</ele>
        <time>2018-04-22T07:23:47.000Z</time>
      </trkpt>
      <trkpt lat="44.1058" lon="7.38772">
        <ele>2702.9</ele>
        <time>2018-04-22T07:23:59.000Z</time>
      </trkpt>
      <trkpt lat="44.1058" lon="7.38772">
        <ele>2702.9</ele>
        <time>2018-04-22T07:24:10.000Z</time>
      </trkpt>
      <trkpt lat="44.1058" lon="7.38772">
        <ele>2702.9</ele>
        <time>2018-04-22T07:24:18.000Z</time>
      </trkpt>
      <trkpt lat="44.10581" lon="7.38771">
        <ele>2703.4</ele>
        <time>2018-04-22T07:24:25.000Z</time>
      </trkpt>
      <trkpt lat="44.10581" lon="7.38771">
        <ele>2703.4</ele>
        <time>2018-04-22T07:24:33.000Z</time>
      </trkpt>
      <trkpt lat="44.10582" lon="7.38772">
        <ele>2703.8</ele>
        <time>2018-04-22T07:24:45.000Z</time>
      </trkpt>
      <trkpt lat="44.10582" lon="7.38772">
        <ele>2703.8</ele>
        <time>2018-04-22T07:24:54.000Z</time>
      </trkpt>
      <trkpt lat="44.10581" lon="7.38773">
        <ele>2703.3</ele>
        <time>2018-04-22T07:25:04.000Z</time>
      </trkpt>
      <trkpt lat="44.1058" lon="7.38773">
        <ele>2702.9</ele>
        <time>2018-04-22T07:25:16.000Z</time>
      </trkpt>
      <trkpt lat="44.10579" lon="7.38773">
        <ele>2702.5</ele>
        <time>2018-04-22T07:25:24.000Z</time>
      </trkpt>
      <trkpt lat="44.10579" lon="7.38772">
        <ele>2702.5</ele>
        <time>2018-04-22T07:25:31.000Z</time>
      </trkpt>
      <trkpt lat="44.10579" lon="7.38772">
        <ele>2702.5</ele>
        <time>2018-04-22T07:25:37.000Z</time>
      </trkpt>
      <trkpt lat="44.10579" lon="7.38772">
        <ele>2702.5</ele>
        <time>2018-04-22T07:25:40.000Z</time>
      </trkpt>
      <trkpt lat="44.10579" lon="7.38772">
        <ele>2702.5</ele>
        <time>2018-04-22T07:25:44.000Z</time>
      </trkpt>
      <trkpt lat="44.10579" lon="7.38772">
        <ele>2702.5</ele>
        <time>2018-04-22T07:25:51.000Z</time>
      </trkpt>
      <trkpt lat="44.10579" lon="7.38772">
        <ele>2702.5</ele>
        <time>2018-04-22T07:25:54.000Z</time>
      </trkpt>
      <trkpt lat="44.10578" lon="7.38772">
        <ele>2702.1</ele>
        <time>2018-04-22T07:26:03.000Z</time>
      </trkpt>
      <trkpt lat="44.10578" lon="7.38772">
        <ele>2702.1</ele>
        <time>2018-04-22T07:26:09.000Z</time>
      </trkpt>
      <trkpt lat="44.10578" lon="7.38772">
        <ele>2702.1</ele>
        <time>2018-04-22T07:26:26.000Z</time>
      </trkpt>
      <trkpt lat="44.10578" lon="7.38772">
        <ele>2702.1</ele>
        <time>2018-04-22T07:26:45.000Z</time>
      </trkpt>
      <trkpt lat="44.10578" lon="7.38772">
        <ele>2702.1</ele>
        <time>2018-04-22T07:27:03.000Z</time>
      </trkpt>
      <trkpt lat="44.10578" lon="7.38772">
        <ele>2702.1</ele>
        <time>2018-04-22T07:27:18.000Z</time>
      </trkpt>
      <trkpt lat="44.10579" lon="7.38773">
        <ele>2702.5</ele>
        <time>2018-04-22T07:27:31.000Z</time>
      </trkpt>
      <trkpt lat="44.10579" lon="7.38773">
        <ele>2702.5</ele>
        <time>2018-04-22T07:27:38.000Z</time>
      </trkpt>
      <trkpt lat="44.10579" lon="7.38773">
        <ele>2702.5</ele>
        <time>2018-04-22T07:27:45.000Z</time>
      </trkpt>
      <trkpt lat="44.1058" lon="7.38773">
        <ele>2702.9</ele>
        <time>2018-04-22T07:27:56.000Z</time>
      </trkpt>
      <trkpt lat="44.1058" lon="7.38773">
        <ele>2702.9</ele>
        <time>2018-04-22T07:28:05.000Z</time>
      </trkpt>
      <trkpt lat="44.1058" lon="7.38773">
        <ele>2702.9</ele>
        <time>2018-04-22T07:28:13.000Z</time>
      </trkpt>
      <trkpt lat="44.1058" lon="7.38774">
        <ele>2702.9</ele>
        <time>2018-04-22T07:28:22.000Z</time>
      </trkpt>
      <trkpt lat="44.1058" lon="7.38774">
        <ele>2702.9</ele>
        <time>2018-04-22T07:28:29.000Z</time>
      </trkpt>
      <trkpt lat="44.1058" lon="7.38775">
        <ele>2702.8</ele>
        <time>2018-04-22T07:28:37.000Z</time>
      </trkpt>
      <trkpt lat="44.10581" lon="7.38775">
        <ele>2703.2</ele>
        <time>2018-04-22T07:28:46.000Z</time>
      </trkpt>
      <trkpt lat="44.10581" lon="7.38774">
        <ele>2703.3</ele>
        <time>2018-04-22T07:29:04.000Z</time>
      </trkpt>
      <trkpt lat="44.10582" lon="7.38775">
        <ele>2703.6</ele>
        <time>2018-04-22T07:29:21.000Z</time>
      </trkpt>
      <trkpt lat="44.10583" lon="7.38775">
        <ele>2704.1</ele>
        <time>2018-04-22T07:29:31.000Z</time>
      </trkpt>
      <trkpt lat="44.10583" lon="7.38775">
        <ele>2704.1</ele>
        <time>2018-04-22T07:29:38.000Z</time>
      </trkpt>
      <trkpt lat="44.10583" lon="7.38775">
        <ele>2704.1</ele>
        <time>2018-04-22T07:29:46.000Z</time>
      </trkpt>
      <trkpt lat="44.10583" lon="7.38776">
        <ele>2704</ele>
        <time>2018-04-22T07:29:47.000Z</time>
      </trkpt>
      <trkpt lat="44.10583" lon="7.38776">
        <ele>2704</ele>
        <time>2018-04-22T07:29:49.000Z</time>
      </trkpt>
      <trkpt lat="44.10581" lon="7.38776">
        <ele>2703.2</ele>
        <time>2018-04-22T07:29:56.000Z</time>
      </trkpt>
      <trkpt lat="44.10581" lon="7.38775">
        <ele>2703.2</ele>
        <time>2018-04-22T07:30:01.000Z</time>
      </trkpt>
      <trkpt lat="44.10581" lon="7.38775">
        <ele>2703.2</ele>
        <time>2018-04-22T07:30:10.000Z</time>
      </trkpt>
      <trkpt lat="44.10581" lon="7.38775">
        <ele>2703.2</ele>
        <time>2018-04-22T07:30:20.000Z</time>
      </trkpt>
      <trkpt lat="44.1058" lon="7.38774">
        <ele>2702.9</ele>
        <time>2018-04-22T07:30:26.000Z</time>
      </trkpt>
      <trkpt lat="44.10581" lon="7.38774">
        <ele>2703.3</ele>
        <time>2018-04-22T07:30:39.000Z</time>
      </trkpt>
      <trkpt lat="44.10581" lon="7.38774">
        <ele>2703.3</ele>
        <time>2018-04-22T07:30:48.000Z</time>
      </trkpt>
      <trkpt lat="44.10581" lon="7.38774">
        <ele>2703.3</ele>
        <time>2018-04-22T07:30:49.000Z</time>
      </trkpt>
      <trkpt lat="44.10581" lon="7.38774">
        <ele>2703.3</ele>
        <time>2018-04-22T07:30:55.000Z</time>
      </trkpt>
      <trkpt lat="44.10581" lon="7.38774">
        <ele>2703.3</ele>
        <time>2018-04-22T07:31:03.000Z</time>
      </trkpt>
      <trkpt lat="44.10581" lon="7.38773">
        <ele>2703.3</ele>
        <time>2018-04-22T07:31:05.000Z</time>
      </trkpt>
      <trkpt lat="44.10581" lon="7.38774">
        <ele>2703.3</ele>
        <time>2018-04-22T07:31:13.000Z</time>
      </trkpt>
      <trkpt lat="44.10581" lon="7.38773">
        <ele>2703.3</ele>
        <time>2018-04-22T07:31:20.000Z</time>
      </trkpt>
      <trkpt lat="44.10581" lon="7.38773">
        <ele>2703.3</ele>
        <time>2018-04-22T07:31:34.000Z</time>
      </trkpt>
      <trkpt lat="44.10581" lon="7.38774">
        <ele>2703.3</ele>
        <time>2018-04-22T07:31:45.000Z</time>
      </trkpt>
      <trkpt lat="44.10581" lon="7.38774">
        <ele>2703.3</ele>
        <time>2018-04-22T07:31:46.000Z</time>
      </trkpt>
      <trkpt lat="44.10581" lon="7.38774">
        <ele>2703.3</ele>
        <time>2018-04-22T07:32:00.000Z</time>
      </trkpt>
      <trkpt lat="44.10581" lon="7.38774">
        <ele>2703.3</ele>
        <time>2018-04-22T07:32:02.000Z</time>
      </trkpt>
      <trkpt lat="44.10581" lon="7.38774">
        <ele>2703.3</ele>
        <time>2018-04-22T07:32:08.000Z</time>
      </trkpt>
      <trkpt lat="44.10581" lon="7.38774">
        <ele>2703.3</ele>
        <time>2018-04-22T07:32:33.000Z</time>
      </trkpt>
      <trkpt lat="44.10581" lon="7.38774">
        <ele>2703.3</ele>
        <time>2018-04-22T07:32:42.000Z</time>
      </trkpt>
      <trkpt lat="44.10581" lon="7.38773">
        <ele>2703.3</ele>
        <time>2018-04-22T07:32:52.000Z</time>
      </trkpt>
      <trkpt lat="44.10581" lon="7.38773">
        <ele>2703.3</ele>
        <time>2018-04-22T07:33:02.000Z</time>
      </trkpt>
      <trkpt lat="44.10581" lon="7.38773">
        <ele>2703.3</ele>
        <time>2018-04-22T07:33:13.000Z</time>
      </trkpt>
      <trkpt lat="44.10583" lon="7.38775">
        <ele>2704.1</ele>
        <time>2018-04-22T07:33:19.000Z</time>
      </trkpt>
      <trkpt lat="44.10586" lon="7.38778">
        <ele>2705.4</ele>
        <time>2018-04-22T07:33:23.000Z</time>
      </trkpt>
      <trkpt lat="44.10587" lon="7.3878">
        <ele>2705.4</ele>
        <time>2018-04-22T07:33:25.000Z</time>
      </trkpt>
      <trkpt lat="44.1059" lon="7.38785">
        <ele>2705.7</ele>
        <time>2018-04-22T07:33:32.000Z</time>
      </trkpt>
      <trkpt lat="44.10591" lon="7.38786">
        <ele>2705.9</ele>
        <time>2018-04-22T07:33:33.000Z</time>
      </trkpt>
      <trkpt lat="44.10593" lon="7.38788">
        <ele>2706.4</ele>
        <time>2018-04-22T07:33:39.000Z</time>
      </trkpt>
      <trkpt lat="44.10597" lon="7.38793">
        <ele>2707</ele>
        <time>2018-04-22T07:33:45.000Z</time>
      </trkpt>
      <trkpt lat="44.106" lon="7.38796">
        <ele>2707.6</ele>
        <time>2018-04-22T07:33:51.000Z</time>
      </trkpt>
      <trkpt lat="44.10603" lon="7.38799">
        <ele>2708.2</ele>
        <time>2018-04-22T07:33:58.000Z</time>
      </trkpt>
      <trkpt lat="44.10603" lon="7.38799">
        <ele>2708.2</ele>
        <time>2018-04-22T07:33:59.000Z</time>
      </trkpt>
      <trkpt lat="44.10607" lon="7.38802">
        <ele>2709.2</ele>
        <time>2018-04-22T07:34:05.000Z</time>
      </trkpt>
      <trkpt lat="44.1061" lon="7.38806">
        <ele>2709.4</ele>
        <time>2018-04-22T07:34:11.000Z</time>
      </trkpt>
      <trkpt lat="44.10611" lon="7.38807">
        <ele>2709.8</ele>
        <time>2018-04-22T07:34:13.000Z</time>
      </trkpt>
      <trkpt lat="44.10615" lon="7.38811">
        <ele>2711.7</ele>
        <time>2018-04-22T07:34:21.000Z</time>
      </trkpt>
      <trkpt lat="44.10616" lon="7.38812">
        <ele>2712.2</ele>
        <time>2018-04-22T07:34:22.000Z</time>
      </trkpt>
      <trkpt lat="44.10618" lon="7.38816">
        <ele>2712.9</ele>
        <time>2018-04-22T07:34:27.000Z</time>
      </trkpt>
      <trkpt lat="44.1062" lon="7.38819">
        <ele>2713.8</ele>
        <time>2018-04-22T07:34:31.000Z</time>
      </trkpt>
      <trkpt lat="44.1062" lon="7.3882">
        <ele>2713.7</ele>
        <time>2018-04-22T07:34:33.000Z</time>
      </trkpt>
      <trkpt lat="44.10623" lon="7.38826">
        <ele>2715</ele>
        <time>2018-04-22T07:34:41.000Z</time>
      </trkpt>
      <trkpt lat="44.10623" lon="7.38825">
        <ele>2715</ele>
        <time>2018-04-22T07:34:48.000Z</time>
      </trkpt>
      <trkpt lat="44.10623" lon="7.38822">
        <ele>2715.3</ele>
        <time>2018-04-22T07:34:56.000Z</time>
      </trkpt>
      <trkpt lat="44.10623" lon="7.38821">
        <ele>2715.4</ele>
        <time>2018-04-22T07:34:59.000Z</time>
      </trkpt>
      <trkpt lat="44.10623" lon="7.38819">
        <ele>2715.6</ele>
        <time>2018-04-22T07:35:01.000Z</time>
      </trkpt>
      <trkpt lat="44.10624" lon="7.38814">
        <ele>2716.7</ele>
        <time>2018-04-22T07:35:06.000Z</time>
      </trkpt>
      <trkpt lat="44.10624" lon="7.38813">
        <ele>2716.7</ele>
        <time>2018-04-22T07:35:08.000Z</time>
      </trkpt>
      <trkpt lat="44.10624" lon="7.3881">
        <ele>2717</ele>
        <time>2018-04-22T07:35:13.000Z</time>
      </trkpt>
      <trkpt lat="44.10623" lon="7.38809">
        <ele>2716.5</ele>
        <time>2018-04-22T07:35:15.000Z</time>
      </trkpt>
      <trkpt lat="44.10623" lon="7.38809">
        <ele>2716.5</ele>
        <time>2018-04-22T07:35:17.000Z</time>
      </trkpt>
      <trkpt lat="44.10623" lon="7.38808">
        <ele>2716.6</ele>
        <time>2018-04-22T07:35:18.000Z</time>
      </trkpt>
      <trkpt lat="44.10622" lon="7.38805">
        <ele>2716.4</ele>
        <time>2018-04-22T07:35:23.000Z</time>
      </trkpt>
      <trkpt lat="44.10622" lon="7.38803">
        <ele>2717.1</ele>
        <time>2018-04-22T07:35:26.000Z</time>
      </trkpt>
      <trkpt lat="44.10622" lon="7.38801">
        <ele>2717.7</ele>
        <time>2018-04-22T07:35:30.000Z</time>
      </trkpt>
      <trkpt lat="44.10621" lon="7.38797">
        <ele>2718.4</ele>
        <time>2018-04-22T07:35:35.000Z</time>
      </trkpt>
      <trkpt lat="44.10621" lon="7.38797">
        <ele>2718.4</ele>
        <time>2018-04-22T07:35:36.000Z</time>
      </trkpt>
      <trkpt lat="44.1062" lon="7.38794">
        <ele>2718.7</ele>
        <time>2018-04-22T07:35:42.000Z</time>
      </trkpt>
      <trkpt lat="44.10619" lon="7.38792">
        <ele>2718.8</ele>
        <time>2018-04-22T07:35:46.000Z</time>
      </trkpt>
      <trkpt lat="44.10619" lon="7.3879">
        <ele>2719.4</ele>
        <time>2018-04-22T07:35:50.000Z</time>
      </trkpt>
      <trkpt lat="44.1062" lon="7.38791">
        <ele>2719.7</ele>
        <time>2018-04-22T07:35:56.000Z</time>
      </trkpt>
      <trkpt lat="44.10619" lon="7.38791">
        <ele>2719.1</ele>
        <time>2018-04-22T07:35:57.000Z</time>
      </trkpt>
      <trkpt lat="44.1062" lon="7.38791">
        <ele>2719.7</ele>
        <time>2018-04-22T07:36:06.000Z</time>
      </trkpt>
      <trkpt lat="44.10622" lon="7.38792">
        <ele>2720.5</ele>
        <time>2018-04-22T07:36:15.000Z</time>
      </trkpt>
      <trkpt lat="44.10625" lon="7.38795">
        <ele>2721.2</ele>
        <time>2018-04-22T07:36:22.000Z</time>
      </trkpt>
      <trkpt lat="44.10626" lon="7.38796">
        <ele>2721.5</ele>
        <time>2018-04-22T07:36:24.000Z</time>
      </trkpt>
      <trkpt lat="44.10626" lon="7.38796">
        <ele>2721.5</ele>
        <time>2018-04-22T07:36:30.000Z</time>
      </trkpt>
      <trkpt lat="44.10626" lon="7.38796">
        <ele>2721.5</ele>
        <time>2018-04-22T07:36:42.000Z</time>
      </trkpt>
      <trkpt lat="44.10627" lon="7.38796">
        <ele>2722.1</ele>
        <time>2018-04-22T07:36:50.000Z</time>
      </trkpt>
      <trkpt lat="44.1063" lon="7.38799">
        <ele>2722.8</ele>
        <time>2018-04-22T07:36:56.000Z</time>
      </trkpt>
      <trkpt lat="44.10631" lon="7.388">
        <ele>2723.1</ele>
        <time>2018-04-22T07:36:58.000Z</time>
      </trkpt>
      <trkpt lat="44.10634" lon="7.38804">
        <ele>2723.6</ele>
        <time>2018-04-22T07:37:05.000Z</time>
      </trkpt>
      <trkpt lat="44.10634" lon="7.38804">
        <ele>2723.6</ele>
        <time>2018-04-22T07:37:06.000Z</time>
      </trkpt>
      <trkpt lat="44.10638" lon="7.38807">
        <ele>2725.4</ele>
        <time>2018-04-22T07:37:11.000Z</time>
      </trkpt>
      <trkpt lat="44.10638" lon="7.38807">
        <ele>2725.4</ele>
        <time>2018-04-22T07:37:12.000Z</time>
      </trkpt>
      <trkpt lat="44.1064" lon="7.3881">
        <ele>2726.4</ele>
        <time>2018-04-22T07:37:18.000Z</time>
      </trkpt>
      <trkpt lat="44.10641" lon="7.3881">
        <ele>2727</ele>
        <time>2018-04-22T07:37:19.000Z</time>
      </trkpt>
      <trkpt lat="44.10644" lon="7.38815">
        <ele>2728.6</ele>
        <time>2018-04-22T07:37:28.000Z</time>
      </trkpt>
      <trkpt lat="44.10647" lon="7.38818">
        <ele>2730.3</ele>
        <time>2018-04-22T07:37:36.000Z</time>
      </trkpt>
      <trkpt lat="44.10647" lon="7.38818">
        <ele>2730.3</ele>
        <time>2018-04-22T07:37:37.000Z</time>
      </trkpt>
      <trkpt lat="44.10649" lon="7.3882">
        <ele>2731.5</ele>
        <time>2018-04-22T07:37:43.000Z</time>
      </trkpt>
      <trkpt lat="44.1065" lon="7.38822">
        <ele>2732.1</ele>
        <time>2018-04-22T07:37:44.000Z</time>
      </trkpt>
      <trkpt lat="44.10652" lon="7.38824">
        <ele>2733.3</ele>
        <time>2018-04-22T07:37:51.000Z</time>
      </trkpt>
      <trkpt lat="44.10652" lon="7.38824">
        <ele>2733.3</ele>
        <time>2018-04-22T07:37:52.000Z</time>
      </trkpt>
      <trkpt lat="44.10653" lon="7.38826">
        <ele>2733.9</ele>
        <time>2018-04-22T07:37:55.000Z</time>
      </trkpt>
      <trkpt lat="44.10654" lon="7.38828">
        <ele>2734.5</ele>
        <time>2018-04-22T07:37:58.000Z</time>
      </trkpt>
      <trkpt lat="44.10654" lon="7.3883">
        <ele>2734.4</ele>
        <time>2018-04-22T07:38:00.000Z</time>
      </trkpt>
      <trkpt lat="44.10654" lon="7.38832">
        <ele>2734.4</ele>
        <time>2018-04-22T07:38:05.000Z</time>
      </trkpt>
      <trkpt lat="44.10655" lon="7.38836">
        <ele>2735.1</ele>
        <time>2018-04-22T07:38:12.000Z</time>
      </trkpt>
      <trkpt lat="44.10655" lon="7.38838">
        <ele>2735.2</ele>
        <time>2018-04-22T07:38:14.000Z</time>
      </trkpt>
      <trkpt lat="44.10656" lon="7.38843">
        <ele>2736.1</ele>
        <time>2018-04-22T07:38:21.000Z</time>
      </trkpt>
      <trkpt lat="44.10657" lon="7.38848">
        <ele>2736.9</ele>
        <time>2018-04-22T07:38:27.000Z</time>
      </trkpt>
      <trkpt lat="44.10657" lon="7.38849">
        <ele>2737</ele>
        <time>2018-04-22T07:38:28.000Z</time>
      </trkpt>
      <trkpt lat="44.10657" lon="7.38847">
        <ele>2736.9</ele>
        <time>2018-04-22T07:38:34.000Z</time>
      </trkpt>
      <trkpt lat="44.10657" lon="7.38844">
        <ele>2736.8</ele>
        <time>2018-04-22T07:38:42.000Z</time>
      </trkpt>
      <trkpt lat="44.10658" lon="7.38841">
        <ele>2737.3</ele>
        <time>2018-04-22T07:38:48.000Z</time>
      </trkpt>
      <trkpt lat="44.10659" lon="7.38838">
        <ele>2737.9</ele>
        <time>2018-04-22T07:38:51.000Z</time>
      </trkpt>
      <trkpt lat="44.1066" lon="7.38833">
        <ele>2738.4</ele>
        <time>2018-04-22T07:38:57.000Z</time>
      </trkpt>
      <trkpt lat="44.10661" lon="7.38831">
        <ele>2739.2</ele>
        <time>2018-04-22T07:39:01.000Z</time>
      </trkpt>
      <trkpt lat="44.10662" lon="7.38826">
        <ele>2739.9</ele>
        <time>2018-04-22T07:39:08.000Z</time>
      </trkpt>
      <trkpt lat="44.10662" lon="7.38825">
        <ele>2739.9</ele>
        <time>2018-04-22T07:39:09.000Z</time>
      </trkpt>
      <trkpt lat="44.10663" lon="7.38819">
        <ele>2740.6</ele>
        <time>2018-04-22T07:39:19.000Z</time>
      </trkpt>
      <trkpt lat="44.10663" lon="7.38818">
        <ele>2740.6</ele>
        <time>2018-04-22T07:39:20.000Z</time>
      </trkpt>
      <trkpt lat="44.10663" lon="7.38813">
        <ele>2740.7</ele>
        <time>2018-04-22T07:39:27.000Z</time>
      </trkpt>
      <trkpt lat="44.10663" lon="7.38812">
        <ele>2740.7</ele>
        <time>2018-04-22T07:39:29.000Z</time>
      </trkpt>
      <trkpt lat="44.10663" lon="7.38807">
        <ele>2740.7</ele>
        <time>2018-04-22T07:39:36.000Z</time>
      </trkpt>
      <trkpt lat="44.10664" lon="7.38805">
        <ele>2741.4</ele>
        <time>2018-04-22T07:39:40.000Z</time>
      </trkpt>
      <trkpt lat="44.10663" lon="7.38801">
        <ele>2741.1</ele>
        <time>2018-04-22T07:39:46.000Z</time>
      </trkpt>
      <trkpt lat="44.10663" lon="7.38799">
        <ele>2741.2</ele>
        <time>2018-04-22T07:39:48.000Z</time>
      </trkpt>
      <trkpt lat="44.10663" lon="7.38794">
        <ele>2741.6</ele>
        <time>2018-04-22T07:39:54.000Z</time>
      </trkpt>
      <trkpt lat="44.10663" lon="7.38795">
        <ele>2741.5</ele>
        <time>2018-04-22T07:39:55.000Z</time>
      </trkpt>
      <trkpt lat="44.10664" lon="7.38792">
        <ele>2742.2</ele>
        <time>2018-04-22T07:40:00.000Z</time>
      </trkpt>
      <trkpt lat="44.10664" lon="7.38792">
        <ele>2742.2</ele>
        <time>2018-04-22T07:40:05.000Z</time>
      </trkpt>
      <trkpt lat="44.10664" lon="7.38793">
        <ele>2742.1</ele>
        <time>2018-04-22T07:40:07.000Z</time>
      </trkpt>
      <trkpt lat="44.10668" lon="7.38797">
        <ele>2743.8</ele>
        <time>2018-04-22T07:40:14.000Z</time>
      </trkpt>
      <trkpt lat="44.1067" lon="7.38801">
        <ele>2744.6</ele>
        <time>2018-04-22T07:40:20.000Z</time>
      </trkpt>
      <trkpt lat="44.1067" lon="7.38801">
        <ele>2744.6</ele>
        <time>2018-04-22T07:40:21.000Z</time>
      </trkpt>
      <trkpt lat="44.10673" lon="7.38805">
        <ele>2746.2</ele>
        <time>2018-04-22T07:40:27.000Z</time>
      </trkpt>
      <trkpt lat="44.10674" lon="7.38808">
        <ele>2746.8</ele>
        <time>2018-04-22T07:40:31.000Z</time>
      </trkpt>
      <trkpt lat="44.10674" lon="7.38808">
        <ele>2746.8</ele>
        <time>2018-04-22T07:40:33.000Z</time>
      </trkpt>
      <trkpt lat="44.10674" lon="7.38808">
        <ele>2746.8</ele>
        <time>2018-04-22T07:40:42.000Z</time>
      </trkpt>
      <trkpt lat="44.10674" lon="7.38808">
        <ele>2746.8</ele>
        <time>2018-04-22T07:40:49.000Z</time>
      </trkpt>
      <trkpt lat="44.10677" lon="7.38812">
        <ele>2748.6</ele>
        <time>2018-04-22T07:40:57.000Z</time>
      </trkpt>
      <trkpt lat="44.1068" lon="7.38819">
        <ele>2750.9</ele>
        <time>2018-04-22T07:41:07.000Z</time>
      </trkpt>
      <trkpt lat="44.10681" lon="7.38822">
        <ele>2751.8</ele>
        <time>2018-04-22T07:41:12.000Z</time>
      </trkpt>
      <trkpt lat="44.10682" lon="7.38823">
        <ele>2752.5</ele>
        <time>2018-04-22T07:41:14.000Z</time>
      </trkpt>
      <trkpt lat="44.10683" lon="7.38828">
        <ele>2753.6</ele>
        <time>2018-04-22T07:41:20.000Z</time>
      </trkpt>
      <trkpt lat="44.10683" lon="7.38828">
        <ele>2753.6</ele>
        <time>2018-04-22T07:41:21.000Z</time>
      </trkpt>
      <trkpt lat="44.10684" lon="7.38833">
        <ele>2754.8</ele>
        <time>2018-04-22T07:41:28.000Z</time>
      </trkpt>
      <trkpt lat="44.10685" lon="7.38833">
        <ele>2755.5</ele>
        <time>2018-04-22T07:41:29.000Z</time>
      </trkpt>
      <trkpt lat="44.10685" lon="7.38836">
        <ele>2755.7</ele>
        <time>2018-04-22T07:41:35.000Z</time>
      </trkpt>
      <trkpt lat="44.10686" lon="7.38837">
        <ele>2756.4</ele>
        <time>2018-04-22T07:41:36.000Z</time>
      </trkpt>
      <trkpt lat="44.10686" lon="7.38841">
        <ele>2756.7</ele>
        <time>2018-04-22T07:41:43.000Z</time>
      </trkpt>
      <trkpt lat="44.10687" lon="7.38842">
        <ele>2757.4</ele>
        <time>2018-04-22T07:41:45.000Z</time>
      </trkpt>
      <trkpt lat="44.10687" lon="7.38844">
        <ele>2757.6</ele>
        <time>2018-04-22T07:41:50.000Z</time>
      </trkpt>
      <trkpt lat="44.10688" lon="7.38846">
        <ele>2758.4</ele>
        <time>2018-04-22T07:41:55.000Z</time>
      </trkpt>
      <trkpt lat="44.10689" lon="7.38848">
        <ele>2759.2</ele>
        <time>2018-04-22T07:41:57.000Z</time>
      </trkpt>
      <trkpt lat="44.10689" lon="7.38852">
        <ele>2759.5</ele>
        <time>2018-04-22T07:42:03.000Z</time>
      </trkpt>
      <trkpt lat="44.10689" lon="7.38851">
        <ele>2759.4</ele>
        <time>2018-04-22T07:42:04.000Z</time>
      </trkpt>
      <trkpt lat="44.1069" lon="7.38854">
        <ele>2760.3</ele>
        <time>2018-04-22T07:42:10.000Z</time>
      </trkpt>
      <trkpt lat="44.1069" lon="7.38855">
        <ele>2760.4</ele>
        <time>2018-04-22T07:42:12.000Z</time>
      </trkpt>
      <trkpt lat="44.10691" lon="7.38859">
        <ele>2761.4</ele>
        <time>2018-04-22T07:42:17.000Z</time>
      </trkpt>
      <trkpt lat="44.10692" lon="7.38863">
        <ele>2762.4</ele>
        <time>2018-04-22T07:42:23.000Z</time>
      </trkpt>
      <trkpt lat="44.10692" lon="7.38864">
        <ele>2762.5</ele>
        <time>2018-04-22T07:42:25.000Z</time>
      </trkpt>
      <trkpt lat="44.10692" lon="7.38867">
        <ele>2762.8</ele>
        <time>2018-04-22T07:42:31.000Z</time>
      </trkpt>
      <trkpt lat="44.10692" lon="7.38866">
        <ele>2762.7</ele>
        <time>2018-04-22T07:42:35.000Z</time>
      </trkpt>
      <trkpt lat="44.10692" lon="7.38865">
        <ele>2762.6</ele>
        <time>2018-04-22T07:42:38.000Z</time>
      </trkpt>
      <trkpt lat="44.10694" lon="7.38858">
        <ele>2763.5</ele>
        <time>2018-04-22T07:42:47.000Z</time>
      </trkpt>
      <trkpt lat="44.10694" lon="7.38857">
        <ele>2763.4</ele>
        <time>2018-04-22T07:42:50.000Z</time>
      </trkpt>
      <trkpt lat="44.10695" lon="7.38853">
        <ele>2763.8</ele>
        <time>2018-04-22T07:42:53.000Z</time>
      </trkpt>
      <trkpt lat="44.10696" lon="7.38848">
        <ele>2764.2</ele>
        <time>2018-04-22T07:43:00.000Z</time>
      </trkpt>
      <trkpt lat="44.10697" lon="7.38844">
        <ele>2764.6</ele>
        <time>2018-04-22T07:43:06.000Z</time>
      </trkpt>
      <trkpt lat="44.10697" lon="7.38843">
        <ele>2764.5</ele>
        <time>2018-04-22T07:43:09.000Z</time>
      </trkpt>
      <trkpt lat="44.10698" lon="7.3884">
        <ele>2765</ele>
        <time>2018-04-22T07:43:13.000Z</time>
      </trkpt>
      <trkpt lat="44.10698" lon="7.38839">
        <ele>2764.9</ele>
        <time>2018-04-22T07:43:17.000Z</time>
      </trkpt>
      <trkpt lat="44.10699" lon="7.38836">
        <ele>2765.3</ele>
        <time>2018-04-22T07:43:21.000Z</time>
      </trkpt>
      <trkpt lat="44.107" lon="7.38835">
        <ele>2765.9</ele>
        <time>2018-04-22T07:43:26.000Z</time>
      </trkpt>
      <trkpt lat="44.107" lon="7.38836">
        <ele>2766</ele>
        <time>2018-04-22T07:43:29.000Z</time>
      </trkpt>
      <trkpt lat="44.107" lon="7.38837">
        <ele>2766.1</ele>
        <time>2018-04-22T07:43:33.000Z</time>
      </trkpt>
      <trkpt lat="44.10701" lon="7.38842">
        <ele>2767.3</ele>
        <time>2018-04-22T07:43:40.000Z</time>
      </trkpt>
      <trkpt lat="44.10702" lon="7.38848">
        <ele>2768.5</ele>
        <time>2018-04-22T07:43:47.000Z</time>
      </trkpt>
      <trkpt lat="44.10703" lon="7.38852">
        <ele>2769.6</ele>
        <time>2018-04-22T07:43:53.000Z</time>
      </trkpt>
      <trkpt lat="44.10703" lon="7.38854">
        <ele>2769.8</ele>
        <time>2018-04-22T07:43:56.000Z</time>
      </trkpt>
      <trkpt lat="44.10704" lon="7.38857">
        <ele>2770.8</ele>
        <time>2018-04-22T07:44:00.000Z</time>
      </trkpt>
      <trkpt lat="44.10705" lon="7.3886">
        <ele>2771.9</ele>
        <time>2018-04-22T07:44:06.000Z</time>
      </trkpt>
      <trkpt lat="44.10705" lon="7.3886">
        <ele>2771.9</ele>
        <time>2018-04-22T07:44:07.000Z</time>
      </trkpt>
      <trkpt lat="44.10706" lon="7.38864">
        <ele>2772.9</ele>
        <time>2018-04-22T07:44:13.000Z</time>
      </trkpt>
      <trkpt lat="44.10707" lon="7.38867">
        <ele>2773.7</ele>
        <time>2018-04-22T07:44:17.000Z</time>
      </trkpt>
      <trkpt lat="44.10707" lon="7.38869">
        <ele>2773.8</ele>
        <time>2018-04-22T07:44:20.000Z</time>
      </trkpt>
      <trkpt lat="44.10708" lon="7.38873">
        <ele>2774.7</ele>
        <time>2018-04-22T07:44:26.000Z</time>
      </trkpt>
      <trkpt lat="44.10708" lon="7.38873">
        <ele>2774.7</ele>
        <time>2018-04-22T07:44:27.000Z</time>
      </trkpt>
      <trkpt lat="44.10708" lon="7.38876">
        <ele>2774.8</ele>
        <time>2018-04-22T07:44:34.000Z</time>
      </trkpt>
      <trkpt lat="44.10708" lon="7.38875">
        <ele>2774.8</ele>
        <time>2018-04-22T07:44:35.000Z</time>
      </trkpt>
      <trkpt lat="44.10708" lon="7.38875">
        <ele>2774.8</ele>
        <time>2018-04-22T07:44:36.000Z</time>
      </trkpt>
      <trkpt lat="44.10708" lon="7.38874">
        <ele>2774.7</ele>
        <time>2018-04-22T07:44:39.000Z</time>
      </trkpt>
      <trkpt lat="44.10708" lon="7.38873">
        <ele>2774.7</ele>
        <time>2018-04-22T07:44:47.000Z</time>
      </trkpt>
      <trkpt lat="44.1071" lon="7.38868">
        <ele>2775.9</ele>
        <time>2018-04-22T07:44:54.000Z</time>
      </trkpt>
      <trkpt lat="44.10711" lon="7.38864">
        <ele>2776.6</ele>
        <time>2018-04-22T07:45:00.000Z</time>
      </trkpt>
      <trkpt lat="44.10711" lon="7.38863">
        <ele>2776.6</ele>
        <time>2018-04-22T07:45:02.000Z</time>
      </trkpt>
      <trkpt lat="44.10712" lon="7.38859">
        <ele>2777</ele>
        <time>2018-04-22T07:45:08.000Z</time>
      </trkpt>
      <trkpt lat="44.10712" lon="7.38857">
        <ele>2776.8</ele>
        <time>2018-04-22T07:45:09.000Z</time>
      </trkpt>
      <trkpt lat="44.10713" lon="7.38854">
        <ele>2777.2</ele>
        <time>2018-04-22T07:45:13.000Z</time>
      </trkpt>
      <trkpt lat="44.10715" lon="7.38849">
        <ele>2778</ele>
        <time>2018-04-22T07:45:20.000Z</time>
      </trkpt>
      <trkpt lat="44.10715" lon="7.38848">
        <ele>2777.9</ele>
        <time>2018-04-22T07:45:21.000Z</time>
      </trkpt>
      <trkpt lat="44.10717" lon="7.38844">
        <ele>2778.8</ele>
        <time>2018-04-22T07:45:28.000Z</time>
      </trkpt>
      <trkpt lat="44.10719" lon="7.38839">
        <ele>2779.6</ele>
        <time>2018-04-22T07:45:35.000Z</time>
      </trkpt>
      <trkpt lat="44.10719" lon="7.3884">
        <ele>2779.7</ele>
        <time>2018-04-22T07:45:36.000Z</time>
      </trkpt>
      <trkpt lat="44.10721" lon="7.38836">
        <ele>2780.5</ele>
        <time>2018-04-22T07:45:41.000Z</time>
      </trkpt>
      <trkpt lat="44.10721" lon="7.38837">
        <ele>2780.7</ele>
        <time>2018-04-22T07:45:45.000Z</time>
      </trkpt>
      <trkpt lat="44.10722" lon="7.38838">
        <ele>2781.5</ele>
        <time>2018-04-22T07:45:47.000Z</time>
      </trkpt>
      <trkpt lat="44.10722" lon="7.38842">
        <ele>2782.1</ele>
        <time>2018-04-22T07:45:52.000Z</time>
      </trkpt>
      <trkpt lat="44.10722" lon="7.38846">
        <ele>2782.7</ele>
        <time>2018-04-22T07:45:56.000Z</time>
      </trkpt>
      <trkpt lat="44.10722" lon="7.38846">
        <ele>2782.7</ele>
        <time>2018-04-22T07:45:57.000Z</time>
      </trkpt>
      <trkpt lat="44.10722" lon="7.38849">
        <ele>2783.1</ele>
        <time>2018-04-22T07:46:01.000Z</time>
      </trkpt>
      <trkpt lat="44.10722" lon="7.3885">
        <ele>2783.2</ele>
        <time>2018-04-22T07:46:03.000Z</time>
      </trkpt>
      <trkpt lat="44.10722" lon="7.38855">
        <ele>2784</ele>
        <time>2018-04-22T07:46:10.000Z</time>
      </trkpt>
      <trkpt lat="44.10723" lon="7.3886">
        <ele>2785.1</ele>
        <time>2018-04-22T07:46:16.000Z</time>
      </trkpt>
      <trkpt lat="44.10723" lon="7.38863">
        <ele>2785.2</ele>
        <time>2018-04-22T07:46:22.000Z</time>
      </trkpt>
      <trkpt lat="44.10724" lon="7.38865">
        <ele>2785.4</ele>
        <time>2018-04-22T07:46:23.000Z</time>
      </trkpt>
      <trkpt lat="44.10724" lon="7.38868">
        <ele>2785.2</ele>
        <time>2018-04-22T07:46:27.000Z</time>
      </trkpt>
      <trkpt lat="44.10724" lon="7.38872">
        <ele>2784.9</ele>
        <time>2018-04-22T07:46:33.000Z</time>
      </trkpt>
      <trkpt lat="44.10724" lon="7.38872">
        <ele>2784.9</ele>
        <time>2018-04-22T07:46:35.000Z</time>
      </trkpt>
      <trkpt lat="44.10725" lon="7.38876">
        <ele>2784.8</ele>
        <time>2018-04-22T07:46:40.000Z</time>
      </trkpt>
      <trkpt lat="44.10725" lon="7.38879">
        <ele>2784.6</ele>
        <time>2018-04-22T07:46:43.000Z</time>
      </trkpt>
      <trkpt lat="44.10726" lon="7.38881">
        <ele>2784.5</ele>
        <time>2018-04-22T07:46:48.000Z</time>
      </trkpt>
      <trkpt lat="44.10726" lon="7.38886">
        <ele>2784</ele>
        <time>2018-04-22T07:46:55.000Z</time>
      </trkpt>
      <trkpt lat="44.10727" lon="7.38888">
        <ele>2783.8</ele>
        <time>2018-04-22T07:46:58.000Z</time>
      </trkpt>
      <trkpt lat="44.10727" lon="7.38891">
        <ele>2782.6</ele>
        <time>2018-04-22T07:47:04.000Z</time>
      </trkpt>
      <trkpt lat="44.10727" lon="7.38892">
        <ele>2782.1</ele>
        <time>2018-04-22T07:47:06.000Z</time>
      </trkpt>
      <trkpt lat="44.10727" lon="7.38895">
        <ele>2780.6</ele>
        <time>2018-04-22T07:47:11.000Z</time>
      </trkpt>
      <trkpt lat="44.10727" lon="7.38896">
        <ele>2780</ele>
        <time>2018-04-22T07:47:14.000Z</time>
      </trkpt>
      <trkpt lat="44.10728" lon="7.38899">
        <ele>2778.2</ele>
        <time>2018-04-22T07:47:19.000Z</time>
      </trkpt>
      <trkpt lat="44.10729" lon="7.38901">
        <ele>2776.8</ele>
        <time>2018-04-22T07:47:26.000Z</time>
      </trkpt>
      <trkpt lat="44.10729" lon="7.389">
        <ele>2777.4</ele>
        <time>2018-04-22T07:47:27.000Z</time>
      </trkpt>
      <trkpt lat="44.10731" lon="7.38897">
        <ele>2778.5</ele>
        <time>2018-04-22T07:47:32.000Z</time>
      </trkpt>
      <trkpt lat="44.10731" lon="7.38895">
        <ele>2779.7</ele>
        <time>2018-04-22T07:47:35.000Z</time>
      </trkpt>
      <trkpt lat="44.10732" lon="7.38893">
        <ele>2780.7</ele>
        <time>2018-04-22T07:47:39.000Z</time>
      </trkpt>
      <trkpt lat="44.10733" lon="7.38892">
        <ele>2781.2</ele>
        <time>2018-04-22T07:47:41.000Z</time>
      </trkpt>
      <trkpt lat="44.10733" lon="7.3889">
        <ele>2782.5</ele>
        <time>2018-04-22T07:47:45.000Z</time>
      </trkpt>
      <trkpt lat="44.10734" lon="7.3889">
        <ele>2782.4</ele>
        <time>2018-04-22T07:47:46.000Z</time>
      </trkpt>
      <trkpt lat="44.10735" lon="7.38887">
        <ele>2783.5</ele>
        <time>2018-04-22T07:47:51.000Z</time>
      </trkpt>
      <trkpt lat="44.10735" lon="7.38886">
        <ele>2783.8</ele>
        <time>2018-04-22T07:47:54.000Z</time>
      </trkpt>
      <trkpt lat="44.10736" lon="7.38884">
        <ele>2784.2</ele>
        <time>2018-04-22T07:47:55.000Z</time>
      </trkpt>
      <trkpt lat="44.10737" lon="7.38881">
        <ele>2785</ele>
        <time>2018-04-22T07:48:00.000Z</time>
      </trkpt>
      <trkpt lat="44.10737" lon="7.3888">
        <ele>2785.3</ele>
        <time>2018-04-22T07:48:02.000Z</time>
      </trkpt>
      <trkpt lat="44.10737" lon="7.38878">
        <ele>2785.8</ele>
        <time>2018-04-22T07:48:08.000Z</time>
      </trkpt>
      <trkpt lat="44.10739" lon="7.38872">
        <ele>2787.8</ele>
        <time>2018-04-22T07:48:15.000Z</time>
      </trkpt>
      <trkpt lat="44.10741" lon="7.38868">
        <ele>2789.5</ele>
        <time>2018-04-22T07:48:21.000Z</time>
      </trkpt>
      <trkpt lat="44.10741" lon="7.38867">
        <ele>2789.8</ele>
        <time>2018-04-22T07:48:22.000Z</time>
      </trkpt>
      <trkpt lat="44.10742" lon="7.38864">
        <ele>2791.1</ele>
        <time>2018-04-22T07:48:28.000Z</time>
      </trkpt>
      <trkpt lat="44.10743" lon="7.38863">
        <ele>2791.8</ele>
        <time>2018-04-22T07:48:30.000Z</time>
      </trkpt>
      <trkpt lat="44.10743" lon="7.38861">
        <ele>2792.5</ele>
        <time>2018-04-22T07:48:34.000Z</time>
      </trkpt>
      <trkpt lat="44.10744" lon="7.3886">
        <ele>2792.6</ele>
        <time>2018-04-22T07:48:35.000Z</time>
      </trkpt>
      <trkpt lat="44.10745" lon="7.38858">
        <ele>2792.6</ele>
        <time>2018-04-22T07:48:40.000Z</time>
      </trkpt>
      <trkpt lat="44.10747" lon="7.38854">
        <ele>2792.4</ele>
        <time>2018-04-22T07:48:47.000Z</time>
      </trkpt>
      <trkpt lat="44.10748" lon="7.38851">
        <ele>2792.1</ele>
        <time>2018-04-22T07:48:55.000Z</time>
      </trkpt>
      <trkpt lat="44.10748" lon="7.38851">
        <ele>2792.1</ele>
        <time>2018-04-22T07:48:56.000Z</time>
      </trkpt>
      <trkpt lat="44.10749" lon="7.38852">
        <ele>2792.7</ele>
        <time>2018-04-22T07:49:01.000Z</time>
      </trkpt>
      <trkpt lat="44.10749" lon="7.38852">
        <ele>2792.7</ele>
        <time>2018-04-22T07:49:07.000Z</time>
      </trkpt>
      <trkpt lat="44.10749" lon="7.38853">
        <ele>2792.9</ele>
        <time>2018-04-22T07:49:12.000Z</time>
      </trkpt>
      <trkpt lat="44.10749" lon="7.38859">
        <ele>2794.2</ele>
        <time>2018-04-22T07:49:19.000Z</time>
      </trkpt>
      <trkpt lat="44.1075" lon="7.38865">
        <ele>2793.2</ele>
        <time>2018-04-22T07:49:27.000Z</time>
      </trkpt>
      <trkpt lat="44.1075" lon="7.38865">
        <ele>2793.2</ele>
        <time>2018-04-22T07:49:28.000Z</time>
      </trkpt>
      <trkpt lat="44.10751" lon="7.3887">
        <ele>2790.5</ele>
        <time>2018-04-22T07:49:34.000Z</time>
      </trkpt>
      <trkpt lat="44.10751" lon="7.38873">
        <ele>2789.1</ele>
        <time>2018-04-22T07:49:37.000Z</time>
      </trkpt>
      <trkpt lat="44.10752" lon="7.38875">
        <ele>2787.7</ele>
        <time>2018-04-22T07:49:42.000Z</time>
      </trkpt>
      <trkpt lat="44.10752" lon="7.38874">
        <ele>2788.2</ele>
        <time>2018-04-22T07:49:46.000Z</time>
      </trkpt>
      <trkpt lat="44.10752" lon="7.38875">
        <ele>2787.7</ele>
        <time>2018-04-22T07:49:47.000Z</time>
      </trkpt>
      <trkpt lat="44.10752" lon="7.38874">
        <ele>2788.2</ele>
        <time>2018-04-22T07:49:48.000Z</time>
      </trkpt>
      <trkpt lat="44.10753" lon="7.38871">
        <ele>2789.4</ele>
        <time>2018-04-22T07:49:53.000Z</time>
      </trkpt>
      <trkpt lat="44.10754" lon="7.38866">
        <ele>2791.7</ele>
        <time>2018-04-22T07:49:59.000Z</time>
      </trkpt>
      <trkpt lat="44.10757" lon="7.3886">
        <ele>2793.5</ele>
        <time>2018-04-22T07:50:07.000Z</time>
      </trkpt>
      <trkpt lat="44.10758" lon="7.38859">
        <ele>2793.1</ele>
        <time>2018-04-22T07:50:11.000Z</time>
      </trkpt>
      <trkpt lat="44.10759" lon="7.38858">
        <ele>2792.7</ele>
        <time>2018-04-22T07:50:13.000Z</time>
      </trkpt>
      <trkpt lat="44.1076" lon="7.38859">
        <ele>2792.8</ele>
        <time>2018-04-22T07:50:19.000Z</time>
      </trkpt>
      <trkpt lat="44.1076" lon="7.38859">
        <ele>2792.8</ele>
        <time>2018-04-22T07:50:20.000Z</time>
      </trkpt>
      <trkpt lat="44.1076" lon="7.38862">
        <ele>2792.6</ele>
        <time>2018-04-22T07:50:25.000Z</time>
      </trkpt>
      <trkpt lat="44.10762" lon="7.38866">
        <ele>2789.6</ele>
        <time>2018-04-22T07:50:32.000Z</time>
      </trkpt>
      <trkpt lat="44.10762" lon="7.38866">
        <ele>2789.6</ele>
        <time>2018-04-22T07:50:34.000Z</time>
      </trkpt>
      <trkpt lat="44.10762" lon="7.38868">
        <ele>2788.3</ele>
        <time>2018-04-22T07:50:44.000Z</time>
      </trkpt>
      <trkpt lat="44.10762" lon="7.38868">
        <ele>2788.3</ele>
        <time>2018-04-22T07:50:52.000Z</time>
      </trkpt>
      <trkpt lat="44.10762" lon="7.38868">
        <ele>2788.3</ele>
        <time>2018-04-22T07:50:59.000Z</time>
      </trkpt>
      <trkpt lat="44.10762" lon="7.38868">
        <ele>2788.3</ele>
        <time>2018-04-22T07:51:07.000Z</time>
      </trkpt>
      <trkpt lat="44.10762" lon="7.38868">
        <ele>2788.3</ele>
        <time>2018-04-22T07:51:32.000Z</time>
      </trkpt>
      <trkpt lat="44.10762" lon="7.38868">
        <ele>2788.3</ele>
        <time>2018-04-22T07:51:43.000Z</time>
      </trkpt>
      <trkpt lat="44.10762" lon="7.38868">
        <ele>2788.3</ele>
        <time>2018-04-22T07:51:58.000Z</time>
      </trkpt>
      <trkpt lat="44.10762" lon="7.38868">
        <ele>2788.3</ele>
        <time>2018-04-22T07:52:06.000Z</time>
      </trkpt>
      <trkpt lat="44.10762" lon="7.38868">
        <ele>2788.3</ele>
        <time>2018-04-22T07:52:16.000Z</time>
      </trkpt>
      <trkpt lat="44.10762" lon="7.38868">
        <ele>2788.3</ele>
        <time>2018-04-22T07:52:18.000Z</time>
      </trkpt>
      <trkpt lat="44.10762" lon="7.38868">
        <ele>2788.3</ele>
        <time>2018-04-22T07:52:27.000Z</time>
      </trkpt>
      <trkpt lat="44.10762" lon="7.38868">
        <ele>2788.3</ele>
        <time>2018-04-22T07:52:28.000Z</time>
      </trkpt>
      <trkpt lat="44.10761" lon="7.38868">
        <ele>2788.6</ele>
        <time>2018-04-22T07:52:44.000Z</time>
      </trkpt>
      <trkpt lat="44.10761" lon="7.38867">
        <ele>2789.3</ele>
        <time>2018-04-22T07:52:55.000Z</time>
      </trkpt>
      <trkpt lat="44.10761" lon="7.38867">
        <ele>2789.3</ele>
        <time>2018-04-22T07:53:05.000Z</time>
      </trkpt>
      <trkpt lat="44.10761" lon="7.38867">
        <ele>2789.3</ele>
        <time>2018-04-22T07:53:17.000Z</time>
      </trkpt>
      <trkpt lat="44.10761" lon="7.38867">
        <ele>2789.3</ele>
        <time>2018-04-22T07:53:36.000Z</time>
      </trkpt>
      <trkpt lat="44.10761" lon="7.38867">
        <ele>2789.3</ele>
        <time>2018-04-22T07:53:42.000Z</time>
      </trkpt>
      <trkpt lat="44.10761" lon="7.38867">
        <ele>2789.3</ele>
        <time>2018-04-22T07:53:44.000Z</time>
      </trkpt>
      <trkpt lat="44.10762" lon="7.38867">
        <ele>2789</ele>
        <time>2018-04-22T07:53:58.000Z</time>
      </trkpt>
      <trkpt lat="44.10762" lon="7.38867">
        <ele>2789</ele>
        <time>2018-04-22T07:54:16.000Z</time>
      </trkpt>
      <trkpt lat="44.10762" lon="7.38867">
        <ele>2789</ele>
        <time>2018-04-22T07:54:30.000Z</time>
      </trkpt>
      <trkpt lat="44.10762" lon="7.38867">
        <ele>2789</ele>
        <time>2018-04-22T07:54:43.000Z</time>
      </trkpt>
      <trkpt lat="44.10762" lon="7.38867">
        <ele>2789</ele>
        <time>2018-04-22T07:54:48.000Z</time>
      </trkpt>
      <trkpt lat="44.10762" lon="7.38867">
        <ele>2789</ele>
        <time>2018-04-22T07:55:02.000Z</time>
      </trkpt>
      <trkpt lat="44.10762" lon="7.38867">
        <ele>2789</ele>
        <time>2018-04-22T07:55:04.000Z</time>
      </trkpt>
      <trkpt lat="44.10762" lon="7.38868">
        <ele>2788.3</ele>
        <time>2018-04-22T07:55:14.000Z</time>
      </trkpt>
      <trkpt lat="44.10763" lon="7.38868">
        <ele>2788</ele>
        <time>2018-04-22T07:55:28.000Z</time>
      </trkpt>
      <trkpt lat="44.10763" lon="7.38868">
        <ele>2788</ele>
        <time>2018-04-22T07:55:42.000Z</time>
      </trkpt>
      <trkpt lat="44.10763" lon="7.38868">
        <ele>2788</ele>
        <time>2018-04-22T07:55:53.000Z</time>
      </trkpt>
      <trkpt lat="44.10763" lon="7.38868">
        <ele>2788</ele>
        <time>2018-04-22T07:56:02.000Z</time>
      </trkpt>
      <trkpt lat="44.10763" lon="7.38867">
        <ele>2788.7</ele>
        <time>2018-04-22T07:56:10.000Z</time>
      </trkpt>
      <trkpt lat="44.10763" lon="7.38867">
        <ele>2788.7</ele>
        <time>2018-04-22T07:56:19.000Z</time>
      </trkpt>
      <trkpt lat="44.10763" lon="7.38867">
        <ele>2788.7</ele>
        <time>2018-04-22T07:56:26.000Z</time>
      </trkpt>
      <trkpt lat="44.10762" lon="7.38867">
        <ele>2789</ele>
        <time>2018-04-22T07:56:33.000Z</time>
      </trkpt>
      <trkpt lat="44.10762" lon="7.38867">
        <ele>2789</ele>
        <time>2018-04-22T07:56:41.000Z</time>
      </trkpt>
      <trkpt lat="44.10762" lon="7.38867">
        <ele>2789</ele>
        <time>2018-04-22T07:56:52.000Z</time>
      </trkpt>
      <trkpt lat="44.10762" lon="7.38867">
        <ele>2789</ele>
        <time>2018-04-22T07:57:02.000Z</time>
      </trkpt>
      <trkpt lat="44.10762" lon="7.38867">
        <ele>2789</ele>
        <time>2018-04-22T07:57:11.000Z</time>
      </trkpt>
      <trkpt lat="44.10762" lon="7.38867">
        <ele>2789</ele>
        <time>2018-04-22T07:57:23.000Z</time>
      </trkpt>
      <trkpt lat="44.10762" lon="7.38867">
        <ele>2789</ele>
        <time>2018-04-22T07:57:34.000Z</time>
      </trkpt>
      <trkpt lat="44.10762" lon="7.38867">
        <ele>2789</ele>
        <time>2018-04-22T07:57:41.000Z</time>
      </trkpt>
      <trkpt lat="44.10763" lon="7.38867">
        <ele>2788.7</ele>
        <time>2018-04-22T07:57:48.000Z</time>
      </trkpt>
      <trkpt lat="44.10762" lon="7.38867">
        <ele>2789</ele>
        <time>2018-04-22T07:57:58.000Z</time>
      </trkpt>
      <trkpt lat="44.10763" lon="7.38867">
        <ele>2788.7</ele>
        <time>2018-04-22T07:58:07.000Z</time>
      </trkpt>
      <trkpt lat="44.10763" lon="7.38867">
        <ele>2788.7</ele>
        <time>2018-04-22T07:58:17.000Z</time>
      </trkpt>
      <trkpt lat="44.10763" lon="7.38867">
        <ele>2788.7</ele>
        <time>2018-04-22T07:58:31.000Z</time>
      </trkpt>
      <trkpt lat="44.10763" lon="7.38867">
        <ele>2788.7</ele>
        <time>2018-04-22T07:58:40.000Z</time>
      </trkpt>
      <trkpt lat="44.10763" lon="7.38867">
        <ele>2788.7</ele>
        <time>2018-04-22T07:58:57.000Z</time>
      </trkpt>
      <trkpt lat="44.10763" lon="7.38867">
        <ele>2788.7</ele>
        <time>2018-04-22T07:59:09.000Z</time>
      </trkpt>
      <trkpt lat="44.10764" lon="7.38867">
        <ele>2788.4</ele>
        <time>2018-04-22T07:59:28.000Z</time>
      </trkpt>
      <trkpt lat="44.10765" lon="7.38867">
        <ele>2788.2</ele>
        <time>2018-04-22T07:59:45.000Z</time>
      </trkpt>
      <trkpt lat="44.10765" lon="7.38867">
        <ele>2788.2</ele>
        <time>2018-04-22T07:59:58.000Z</time>
      </trkpt>
      <trkpt lat="44.10765" lon="7.38867">
        <ele>2788.2</ele>
        <time>2018-04-22T08:00:08.000Z</time>
      </trkpt>
      <trkpt lat="44.10765" lon="7.38867">
        <ele>2788.2</ele>
        <time>2018-04-22T08:00:10.000Z</time>
      </trkpt>
      <trkpt lat="44.10764" lon="7.38867">
        <ele>2788.4</ele>
        <time>2018-04-22T08:00:18.000Z</time>
      </trkpt>
      <trkpt lat="44.10764" lon="7.38867">
        <ele>2788.4</ele>
        <time>2018-04-22T08:00:26.000Z</time>
      </trkpt>
      <trkpt lat="44.10764" lon="7.38866">
        <ele>2789.1</ele>
        <time>2018-04-22T08:00:28.000Z</time>
      </trkpt>
      <trkpt lat="44.10764" lon="7.38865">
        <ele>2789.8</ele>
        <time>2018-04-22T08:00:32.000Z</time>
      </trkpt>
      <trkpt lat="44.10764" lon="7.38863">
        <ele>2791.2</ele>
        <time>2018-04-22T08:00:36.000Z</time>
      </trkpt>
      <trkpt lat="44.10765" lon="7.38863">
        <ele>2791</ele>
        <time>2018-04-22T08:00:38.000Z</time>
      </trkpt>
      <trkpt lat="44.10765" lon="7.38863">
        <ele>2791</ele>
        <time>2018-04-22T08:00:45.000Z</time>
      </trkpt>
      <trkpt lat="44.10766" lon="7.38862">
        <ele>2791.5</ele>
        <time>2018-04-22T08:00:56.000Z</time>
      </trkpt>
      <trkpt lat="44.10765" lon="7.38864">
        <ele>2790.3</ele>
        <time>2018-04-22T08:01:02.000Z</time>
      </trkpt>
      <trkpt lat="44.10765" lon="7.38864">
        <ele>2790.3</ele>
        <time>2018-04-22T08:01:12.000Z</time>
      </trkpt>
      <trkpt lat="44.10765" lon="7.38863">
        <ele>2791</ele>
        <time>2018-04-22T08:01:29.000Z</time>
      </trkpt>
      <trkpt lat="44.10765" lon="7.38863">
        <ele>2791</ele>
        <time>2018-04-22T08:01:38.000Z</time>
      </trkpt>
      <trkpt lat="44.10765" lon="7.38864">
        <ele>2790.3</ele>
        <time>2018-04-22T08:01:46.000Z</time>
      </trkpt>
      <trkpt lat="44.10765" lon="7.38864">
        <ele>2790.3</ele>
        <time>2018-04-22T08:01:57.000Z</time>
      </trkpt>
      <trkpt lat="44.10765" lon="7.38864">
        <ele>2790.3</ele>
        <time>2018-04-22T08:02:13.000Z</time>
      </trkpt>
      <trkpt lat="44.10765" lon="7.38863">
        <ele>2791</ele>
        <time>2018-04-22T08:02:23.000Z</time>
      </trkpt>
      <trkpt lat="44.10764" lon="7.38863">
        <ele>2791.2</ele>
        <time>2018-04-22T08:02:36.000Z</time>
      </trkpt>
      <trkpt lat="44.10764" lon="7.38863">
        <ele>2791.2</ele>
        <time>2018-04-22T08:02:43.000Z</time>
      </trkpt>
      <trkpt lat="44.10764" lon="7.38863">
        <ele>2791.2</ele>
        <time>2018-04-22T08:02:56.000Z</time>
      </trkpt>
      <trkpt lat="44.10764" lon="7.38863">
        <ele>2791.2</ele>
        <time>2018-04-22T08:03:08.000Z</time>
      </trkpt>
      <trkpt lat="44.10764" lon="7.38863">
        <ele>2791.2</ele>
        <time>2018-04-22T08:03:20.000Z</time>
      </trkpt>
      <trkpt lat="44.10763" lon="7.38863">
        <ele>2791.4</ele>
        <time>2018-04-22T08:03:39.000Z</time>
      </trkpt>
      <trkpt lat="44.10763" lon="7.38863">
        <ele>2791.4</ele>
        <time>2018-04-22T08:03:51.000Z</time>
      </trkpt>
      <trkpt lat="44.10762" lon="7.38863">
        <ele>2791.6</ele>
        <time>2018-04-22T08:04:03.000Z</time>
      </trkpt>
      <trkpt lat="44.10762" lon="7.38863">
        <ele>2791.6</ele>
        <time>2018-04-22T08:04:25.000Z</time>
      </trkpt>
      <trkpt lat="44.10762" lon="7.38865">
        <ele>2790.3</ele>
        <time>2018-04-22T08:04:32.000Z</time>
      </trkpt>
      <trkpt lat="44.10762" lon="7.38866">
        <ele>2789.6</ele>
        <time>2018-04-22T08:04:38.000Z</time>
      </trkpt>
      <trkpt lat="44.10762" lon="7.38866">
        <ele>2789.6</ele>
        <time>2018-04-22T08:04:47.000Z</time>
      </trkpt>
      <trkpt lat="44.10763" lon="7.38866">
        <ele>2789.4</ele>
        <time>2018-04-22T08:04:57.000Z</time>
      </trkpt>
      <trkpt lat="44.10763" lon="7.38865">
        <ele>2790.1</ele>
        <time>2018-04-22T08:05:04.000Z</time>
      </trkpt>
      <trkpt lat="44.10763" lon="7.38865">
        <ele>2790.1</ele>
        <time>2018-04-22T08:05:06.000Z</time>
      </trkpt>
      <trkpt lat="44.10762" lon="7.38865">
        <ele>2790.3</ele>
        <time>2018-04-22T08:05:24.000Z</time>
      </trkpt>
      <trkpt lat="44.10762" lon="7.38865">
        <ele>2790.3</ele>
        <time>2018-04-22T08:05:31.000Z</time>
      </trkpt>
      <trkpt lat="44.10763" lon="7.38865">
        <ele>2790.1</ele>
        <time>2018-04-22T08:05:37.000Z</time>
      </trkpt>
      <trkpt lat="44.10763" lon="7.38865">
        <ele>2790.1</ele>
        <time>2018-04-22T08:05:47.000Z</time>
      </trkpt>
      <trkpt lat="44.10763" lon="7.38866">
        <ele>2789.4</ele>
        <time>2018-04-22T08:05:53.000Z</time>
      </trkpt>
      <trkpt lat="44.10763" lon="7.38866">
        <ele>2789.4</ele>
        <time>2018-04-22T08:06:04.000Z</time>
      </trkpt>
      <trkpt lat="44.10762" lon="7.38865">
        <ele>2790.3</ele>
        <time>2018-04-22T08:06:15.000Z</time>
      </trkpt>
      <trkpt lat="44.10762" lon="7.38865">
        <ele>2790.3</ele>
        <time>2018-04-22T08:06:25.000Z</time>
      </trkpt>
      <trkpt lat="44.10762" lon="7.38865">
        <ele>2790.3</ele>
        <time>2018-04-22T08:06:32.000Z</time>
      </trkpt>
      <trkpt lat="44.10762" lon="7.38865">
        <ele>2790.3</ele>
        <time>2018-04-22T08:06:37.000Z</time>
      </trkpt>
      <trkpt lat="44.10762" lon="7.38865">
        <ele>2790.3</ele>
        <time>2018-04-22T08:06:40.000Z</time>
      </trkpt>
      <trkpt lat="44.10761" lon="7.38865">
        <ele>2790.5</ele>
        <time>2018-04-22T08:06:50.000Z</time>
      </trkpt>
      <trkpt lat="44.10762" lon="7.38866">
        <ele>2789.6</ele>
        <time>2018-04-22T08:06:58.000Z</time>
      </trkpt>
      <trkpt lat="44.10762" lon="7.38866">
        <ele>2789.6</ele>
        <time>2018-04-22T08:07:09.000Z</time>
      </trkpt>
      <trkpt lat="44.10762" lon="7.38866">
        <ele>2789.6</ele>
        <time>2018-04-22T08:07:18.000Z</time>
      </trkpt>
      <trkpt lat="44.10762" lon="7.38867">
        <ele>2789</ele>
        <time>2018-04-22T08:07:27.000Z</time>
      </trkpt>
      <trkpt lat="44.10762" lon="7.38867">
        <ele>2789</ele>
        <time>2018-04-22T08:07:28.000Z</time>
      </trkpt>
      <trkpt lat="44.10762" lon="7.38867">
        <ele>2789</ele>
        <time>2018-04-22T08:08:03.000Z</time>
      </trkpt>
      <trkpt lat="44.10762" lon="7.38866">
        <ele>2789.6</ele>
        <time>2018-04-22T08:08:21.000Z</time>
      </trkpt>
      <trkpt lat="44.10762" lon="7.38866">
        <ele>2789.6</ele>
        <time>2018-04-22T08:08:32.000Z</time>
      </trkpt>
      <trkpt lat="44.10762" lon="7.38866">
        <ele>2789.6</ele>
        <time>2018-04-22T08:08:40.000Z</time>
      </trkpt>
      <trkpt lat="44.10762" lon="7.38866">
        <ele>2789.6</ele>
        <time>2018-04-22T08:08:52.000Z</time>
      </trkpt>
      <trkpt lat="44.10761" lon="7.38866">
        <ele>2789.9</ele>
        <time>2018-04-22T08:09:02.000Z</time>
      </trkpt>
      <trkpt lat="44.10761" lon="7.38866">
        <ele>2789.9</ele>
        <time>2018-04-22T08:09:16.000Z</time>
      </trkpt>
      <trkpt lat="44.10762" lon="7.38866">
        <ele>2789.6</ele>
        <time>2018-04-22T08:09:30.000Z</time>
      </trkpt>
      <trkpt lat="44.10763" lon="7.38867">
        <ele>2788.7</ele>
        <time>2018-04-22T08:09:50.000Z</time>
      </trkpt>
      <trkpt lat="44.10762" lon="7.38866">
        <ele>2789.6</ele>
        <time>2018-04-22T08:10:13.000Z</time>
      </trkpt>
      <trkpt lat="44.10762" lon="7.38867">
        <ele>2789</ele>
        <time>2018-04-22T08:10:38.000Z</time>
      </trkpt>
      <trkpt lat="44.10762" lon="7.38867">
        <ele>2789</ele>
        <time>2018-04-22T08:10:46.000Z</time>
      </trkpt>
      <trkpt lat="44.10762" lon="7.38867">
        <ele>2789</ele>
        <time>2018-04-22T08:10:59.000Z</time>
      </trkpt>
      <trkpt lat="44.10762" lon="7.38866">
        <ele>2789.6</ele>
        <time>2018-04-22T08:11:07.000Z</time>
      </trkpt>
      <trkpt lat="44.10762" lon="7.38866">
        <ele>2789.6</ele>
        <time>2018-04-22T08:11:14.000Z</time>
      </trkpt>
      <trkpt lat="44.10762" lon="7.38866">
        <ele>2789.6</ele>
        <time>2018-04-22T08:11:24.000Z</time>
      </trkpt>
      <trkpt lat="44.10762" lon="7.38865">
        <ele>2790.3</ele>
        <time>2018-04-22T08:11:31.000Z</time>
      </trkpt>
      <trkpt lat="44.10763" lon="7.38866">
        <ele>2789.4</ele>
        <time>2018-04-22T08:11:38.000Z</time>
      </trkpt>
      <trkpt lat="44.10763" lon="7.38867">
        <ele>2788.7</ele>
        <time>2018-04-22T08:11:48.000Z</time>
      </trkpt>
      <trkpt lat="44.10762" lon="7.38866">
        <ele>2789.6</ele>
        <time>2018-04-22T08:11:56.000Z</time>
      </trkpt>
      <trkpt lat="44.10762" lon="7.38865">
        <ele>2790.3</ele>
        <time>2018-04-22T08:12:04.000Z</time>
      </trkpt>
      <trkpt lat="44.10762" lon="7.38866">
        <ele>2789.6</ele>
        <time>2018-04-22T08:12:14.000Z</time>
      </trkpt>
      <trkpt lat="44.10762" lon="7.38866">
        <ele>2789.6</ele>
        <time>2018-04-22T08:12:22.000Z</time>
      </trkpt>
      <trkpt lat="44.10762" lon="7.38866">
        <ele>2789.6</ele>
        <time>2018-04-22T08:12:35.000Z</time>
      </trkpt>
      <trkpt lat="44.10762" lon="7.38867">
        <ele>2789</ele>
        <time>2018-04-22T08:12:42.000Z</time>
      </trkpt>
      <trkpt lat="44.10762" lon="7.38867">
        <ele>2789</ele>
        <time>2018-04-22T08:12:56.000Z</time>
      </trkpt>
      <trkpt lat="44.10761" lon="7.38867">
        <ele>2789.3</ele>
        <time>2018-04-22T08:13:10.000Z</time>
      </trkpt>
      <trkpt lat="44.10761" lon="7.38866">
        <ele>2789.9</ele>
        <time>2018-04-22T08:13:21.000Z</time>
      </trkpt>
      <trkpt lat="44.10761" lon="7.38866">
        <ele>2789.9</ele>
        <time>2018-04-22T08:13:38.000Z</time>
      </trkpt>
      <trkpt lat="44.10761" lon="7.38866">
        <ele>2789.9</ele>
        <time>2018-04-22T08:13:46.000Z</time>
      </trkpt>
      <trkpt lat="44.10761" lon="7.38866">
        <ele>2789.9</ele>
        <time>2018-04-22T08:13:52.000Z</time>
      </trkpt>
      <trkpt lat="44.10761" lon="7.38866">
        <ele>2789.9</ele>
        <time>2018-04-22T08:13:53.000Z</time>
      </trkpt>
      <trkpt lat="44.10761" lon="7.38866">
        <ele>2789.9</ele>
        <time>2018-04-22T08:13:59.000Z</time>
      </trkpt>
      <trkpt lat="44.10761" lon="7.38866">
        <ele>2789.9</ele>
        <time>2018-04-22T08:14:01.000Z</time>
      </trkpt>
      <trkpt lat="44.10761" lon="7.38866">
        <ele>2789.9</ele>
        <time>2018-04-22T08:14:15.000Z</time>
      </trkpt>
      <trkpt lat="44.10761" lon="7.38866">
        <ele>2789.9</ele>
        <time>2018-04-22T08:14:18.000Z</time>
      </trkpt>
      <trkpt lat="44.10761" lon="7.38866">
        <ele>2789.9</ele>
        <time>2018-04-22T08:14:27.000Z</time>
      </trkpt>
      <trkpt lat="44.10761" lon="7.38866">
        <ele>2789.9</ele>
        <time>2018-04-22T08:14:34.000Z</time>
      </trkpt>
      <trkpt lat="44.10761" lon="7.38865">
        <ele>2790.5</ele>
        <time>2018-04-22T08:14:43.000Z</time>
      </trkpt>
      <trkpt lat="44.10761" lon="7.38865">
        <ele>2790.5</ele>
        <time>2018-04-22T08:14:55.000Z</time>
      </trkpt>
      <trkpt lat="44.10761" lon="7.38865">
        <ele>2790.5</ele>
        <time>2018-04-22T08:14:59.000Z</time>
      </trkpt>
      <trkpt lat="44.10761" lon="7.38865">
        <ele>2790.5</ele>
        <time>2018-04-22T08:15:03.000Z</time>
      </trkpt>
      <trkpt lat="44.10761" lon="7.38866">
        <ele>2789.9</ele>
        <time>2018-04-22T08:15:10.000Z</time>
      </trkpt>
      <trkpt lat="44.10761" lon="7.38866">
        <ele>2789.9</ele>
        <time>2018-04-22T08:15:37.000Z</time>
      </trkpt>
      <trkpt lat="44.10762" lon="7.38867">
        <ele>2789</ele>
        <time>2018-04-22T08:15:44.000Z</time>
      </trkpt>
      <trkpt lat="44.10762" lon="7.38867">
        <ele>2789</ele>
        <time>2018-04-22T08:15:46.000Z</time>
      </trkpt>
      <trkpt lat="44.10762" lon="7.38867">
        <ele>2789</ele>
        <time>2018-04-22T08:15:57.000Z</time>
      </trkpt>
      <trkpt lat="44.10762" lon="7.38867">
        <ele>2789</ele>
        <time>2018-04-22T08:16:08.000Z</time>
      </trkpt>
      <trkpt lat="44.10762" lon="7.38867">
        <ele>2789</ele>
        <time>2018-04-22T08:16:18.000Z</time>
      </trkpt>
      <trkpt lat="44.10762" lon="7.38867">
        <ele>2789</ele>
        <time>2018-04-22T08:16:27.000Z</time>
      </trkpt>
      <trkpt lat="44.10762" lon="7.38867">
        <ele>2789</ele>
        <time>2018-04-22T08:16:42.000Z</time>
      </trkpt>
      <trkpt lat="44.10762" lon="7.38866">
        <ele>2789.6</ele>
        <time>2018-04-22T08:16:48.000Z</time>
      </trkpt>
      <trkpt lat="44.10762" lon="7.38866">
        <ele>2789.6</ele>
        <time>2018-04-22T08:16:53.000Z</time>
      </trkpt>
      <trkpt lat="44.10762" lon="7.38866">
        <ele>2789.6</ele>
        <time>2018-04-22T08:17:04.000Z</time>
      </trkpt>
      <trkpt lat="44.10762" lon="7.38866">
        <ele>2789.6</ele>
        <time>2018-04-22T08:17:12.000Z</time>
      </trkpt>
      <trkpt lat="44.10762" lon="7.38866">
        <ele>2789.6</ele>
        <time>2018-04-22T08:17:21.000Z</time>
      </trkpt>
      <trkpt lat="44.10762" lon="7.38866">
        <ele>2789.6</ele>
        <time>2018-04-22T08:17:32.000Z</time>
      </trkpt>
      <trkpt lat="44.10762" lon="7.38865">
        <ele>2790.3</ele>
        <time>2018-04-22T08:17:48.000Z</time>
      </trkpt>
      <trkpt lat="44.10762" lon="7.38865">
        <ele>2790.3</ele>
        <time>2018-04-22T08:17:57.000Z</time>
      </trkpt>
      <trkpt lat="44.10762" lon="7.38865">
        <ele>2790.3</ele>
        <time>2018-04-22T08:18:06.000Z</time>
      </trkpt>
      <trkpt lat="44.10762" lon="7.38866">
        <ele>2789.6</ele>
        <time>2018-04-22T08:18:18.000Z</time>
      </trkpt>
      <trkpt lat="44.10762" lon="7.38866">
        <ele>2789.6</ele>
        <time>2018-04-22T08:18:32.000Z</time>
      </trkpt>
      <trkpt lat="44.10762" lon="7.38867">
        <ele>2789</ele>
        <time>2018-04-22T08:18:41.000Z</time>
      </trkpt>
      <trkpt lat="44.10762" lon="7.38866">
        <ele>2789.6</ele>
        <time>2018-04-22T08:18:54.000Z</time>
      </trkpt>
      <trkpt lat="44.10762" lon="7.38865">
        <ele>2790.3</ele>
        <time>2018-04-22T08:19:09.000Z</time>
      </trkpt>
      <trkpt lat="44.10762" lon="7.38864">
        <ele>2790.9</ele>
        <time>2018-04-22T08:19:19.000Z</time>
      </trkpt>
      <trkpt lat="44.10762" lon="7.38864">
        <ele>2790.9</ele>
        <time>2018-04-22T08:19:38.000Z</time>
      </trkpt>
      <trkpt lat="44.10757" lon="7.38862">
        <ele>2793.2</ele>
        <time>2018-04-22T08:19:50.000Z</time>
      </trkpt>
      <trkpt lat="44.10751" lon="7.38875">
        <ele>2788.1</ele>
        <time>2018-04-22T08:19:53.000Z</time>
      </trkpt>
      <trkpt lat="44.10746" lon="7.38877">
        <ele>2787.1</ele>
        <time>2018-04-22T08:19:54.000Z</time>
      </trkpt>
      <trkpt lat="44.10742" lon="7.38879">
        <ele>2786</ele>
        <time>2018-04-22T08:19:55.000Z</time>
      </trkpt>
      <trkpt lat="44.10738" lon="7.38883">
        <ele>2784.5</ele>
        <time>2018-04-22T08:19:56.000Z</time>
      </trkpt>
      <trkpt lat="44.10733" lon="7.38884">
        <ele>2784.2</ele>
        <time>2018-04-22T08:19:57.000Z</time>
      </trkpt>
      <trkpt lat="44.10729" lon="7.38887">
        <ele>2783.8</ele>
        <time>2018-04-22T08:19:58.000Z</time>
      </trkpt>
      <trkpt lat="44.10724" lon="7.38888">
        <ele>2783.9</ele>
        <time>2018-04-22T08:19:59.000Z</time>
      </trkpt>
      <trkpt lat="44.10721" lon="7.38885">
        <ele>2783.4</ele>
        <time>2018-04-22T08:20:00.000Z</time>
      </trkpt>
      <trkpt lat="44.10716" lon="7.38884">
        <ele>2780.2</ele>
        <time>2018-04-22T08:20:01.000Z</time>
      </trkpt>
      <trkpt lat="44.10712" lon="7.38888">
        <ele>2777.7</ele>
        <time>2018-04-22T08:20:02.000Z</time>
      </trkpt>
      <trkpt lat="44.10707" lon="7.38886">
        <ele>2774.6</ele>
        <time>2018-04-22T08:20:03.000Z</time>
      </trkpt>
      <trkpt lat="44.10705" lon="7.3888">
        <ele>2773</ele>
        <time>2018-04-22T08:20:04.000Z</time>
      </trkpt>
      <trkpt lat="44.10704" lon="7.38876">
        <ele>2772.1</ele>
        <time>2018-04-22T08:20:05.000Z</time>
      </trkpt>
      <trkpt lat="44.10704" lon="7.38873">
        <ele>2771.9</ele>
        <time>2018-04-22T08:20:06.000Z</time>
      </trkpt>
      <trkpt lat="44.10704" lon="7.38872">
        <ele>2771.9</ele>
        <time>2018-04-22T08:20:07.000Z</time>
      </trkpt>
      <trkpt lat="44.10704" lon="7.38873">
        <ele>2771.9</ele>
        <time>2018-04-22T08:20:08.000Z</time>
      </trkpt>
      <trkpt lat="44.10704" lon="7.38872">
        <ele>2771.9</ele>
        <time>2018-04-22T08:20:13.000Z</time>
      </trkpt>
      <trkpt lat="44.10704" lon="7.38872">
        <ele>2771.9</ele>
        <time>2018-04-22T08:20:25.000Z</time>
      </trkpt>
      <trkpt lat="44.10704" lon="7.38872">
        <ele>2771.9</ele>
        <time>2018-04-22T08:20:38.000Z</time>
      </trkpt>
      <trkpt lat="44.10703" lon="7.38867">
        <ele>2770.8</ele>
        <time>2018-04-22T08:20:51.000Z</time>
      </trkpt>
      <trkpt lat="44.107" lon="7.38869">
        <ele>2768.8</ele>
        <time>2018-04-22T08:20:52.000Z</time>
      </trkpt>
      <trkpt lat="44.10698" lon="7.38873">
        <ele>2767.8</ele>
        <time>2018-04-22T08:20:53.000Z</time>
      </trkpt>
      <trkpt lat="44.10689" lon="7.38875">
        <ele>2761.4</ele>
        <time>2018-04-22T08:20:55.000Z</time>
      </trkpt>
      <trkpt lat="44.10687" lon="7.3887">
        <ele>2759.4</ele>
        <time>2018-04-22T08:20:56.000Z</time>
      </trkpt>
      <trkpt lat="44.10683" lon="7.38868">
        <ele>2756.3</ele>
        <time>2018-04-22T08:20:57.000Z</time>
      </trkpt>
      <trkpt lat="44.1068" lon="7.38863">
        <ele>2753.7</ele>
        <time>2018-04-22T08:20:58.000Z</time>
      </trkpt>
      <trkpt lat="44.10676" lon="7.38858">
        <ele>2750.6</ele>
        <time>2018-04-22T08:20:59.000Z</time>
      </trkpt>
      <trkpt lat="44.10671" lon="7.38853">
        <ele>2746.8</ele>
        <time>2018-04-22T08:21:00.000Z</time>
      </trkpt>
      <trkpt lat="44.10668" lon="7.38845">
        <ele>2744.4</ele>
        <time>2018-04-22T08:21:01.000Z</time>
      </trkpt>
      <trkpt lat="44.10666" lon="7.38838">
        <ele>2742.7</ele>
        <time>2018-04-22T08:21:02.000Z</time>
      </trkpt>
      <trkpt lat="44.10662" lon="7.38838">
        <ele>2740</ele>
        <time>2018-04-22T08:21:03.000Z</time>
      </trkpt>
      <trkpt lat="44.10658" lon="7.38843">
        <ele>2737.4</ele>
        <time>2018-04-22T08:21:04.000Z</time>
      </trkpt>
      <trkpt lat="44.10655" lon="7.38849">
        <ele>2735.6</ele>
        <time>2018-04-22T08:21:05.000Z</time>
      </trkpt>
      <trkpt lat="44.1065" lon="7.38851">
        <ele>2732.2</ele>
        <time>2018-04-22T08:21:06.000Z</time>
      </trkpt>
      <trkpt lat="44.10646" lon="7.38846">
        <ele>2729.3</ele>
        <time>2018-04-22T08:21:07.000Z</time>
      </trkpt>
      <trkpt lat="44.10642" lon="7.38843">
        <ele>2726.5</ele>
        <time>2018-04-22T08:21:08.000Z</time>
      </trkpt>
      <trkpt lat="44.10636" lon="7.38841">
        <ele>2722.4</ele>
        <time>2018-04-22T08:21:09.000Z</time>
      </trkpt>
      <trkpt lat="44.10631" lon="7.38838">
        <ele>2719.2</ele>
        <time>2018-04-22T08:21:10.000Z</time>
      </trkpt>
      <trkpt lat="44.10625" lon="7.38839">
        <ele>2715.4</ele>
        <time>2018-04-22T08:21:11.000Z</time>
      </trkpt>
      <trkpt lat="44.10619" lon="7.38836">
        <ele>2711.7</ele>
        <time>2018-04-22T08:21:12.000Z</time>
      </trkpt>
      <trkpt lat="44.10614" lon="7.38829">
        <ele>2709.2</ele>
        <time>2018-04-22T08:21:13.000Z</time>
      </trkpt>
      <trkpt lat="44.10608" lon="7.38821">
        <ele>2706.8</ele>
        <time>2018-04-22T08:21:14.000Z</time>
      </trkpt>
      <trkpt lat="44.10602" lon="7.38813">
        <ele>2704.8</ele>
        <time>2018-04-22T08:21:15.000Z</time>
      </trkpt>
      <trkpt lat="44.10597" lon="7.38807">
        <ele>2703.2</ele>
        <time>2018-04-22T08:21:16.000Z</time>
      </trkpt>
      <trkpt lat="44.10592" lon="7.3881">
        <ele>2700.4</ele>
        <time>2018-04-22T08:21:17.000Z</time>
      </trkpt>
      <trkpt lat="44.10585" lon="7.38812">
        <ele>2696.6</ele>
        <time>2018-04-22T08:21:18.000Z</time>
      </trkpt>
      <trkpt lat="44.10579" lon="7.3881">
        <ele>2694.5</ele>
        <time>2018-04-22T08:21:19.000Z</time>
      </trkpt>
      <trkpt lat="44.10573" lon="7.38811">
        <ele>2691.9</ele>
        <time>2018-04-22T08:21:20.000Z</time>
      </trkpt>
      <trkpt lat="44.10567" lon="7.38814">
        <ele>2688.8</ele>
        <time>2018-04-22T08:21:21.000Z</time>
      </trkpt>
      <trkpt lat="44.1056" lon="7.38811">
        <ele>2686.6</ele>
        <time>2018-04-22T08:21:22.000Z</time>
      </trkpt>
      <trkpt lat="44.10553" lon="7.38808">
        <ele>2684.7</ele>
        <time>2018-04-22T08:21:23.000Z</time>
      </trkpt>
      <trkpt lat="44.10546" lon="7.38802">
        <ele>2683.7</ele>
        <time>2018-04-22T08:21:24.000Z</time>
      </trkpt>
      <trkpt lat="44.1054" lon="7.38798">
        <ele>2682.6</ele>
        <time>2018-04-22T08:21:25.000Z</time>
      </trkpt>
      <trkpt lat="44.10535" lon="7.38793">
        <ele>2681.8</ele>
        <time>2018-04-22T08:21:26.000Z</time>
      </trkpt>
      <trkpt lat="44.1053" lon="7.3879">
        <ele>2680.6</ele>
        <time>2018-04-22T08:21:27.000Z</time>
      </trkpt>
      <trkpt lat="44.10527" lon="7.38787">
        <ele>2680.1</ele>
        <time>2018-04-22T08:21:28.000Z</time>
      </trkpt>
      <trkpt lat="44.10523" lon="7.38784">
        <ele>2679.1</ele>
        <time>2018-04-22T08:21:29.000Z</time>
      </trkpt>
      <trkpt lat="44.10518" lon="7.3878">
        <ele>2677.8</ele>
        <time>2018-04-22T08:21:31.000Z</time>
      </trkpt>
      <trkpt lat="44.10516" lon="7.38777">
        <ele>2677.3</ele>
        <time>2018-04-22T08:21:34.000Z</time>
      </trkpt>
      <trkpt lat="44.10516" lon="7.38776">
        <ele>2677.2</ele>
        <time>2018-04-22T08:21:35.000Z</time>
      </trkpt>
      <trkpt lat="44.10516" lon="7.38776">
        <ele>2677.2</ele>
        <time>2018-04-22T08:21:41.000Z</time>
      </trkpt>
      <trkpt lat="44.10517" lon="7.38777">
        <ele>2677.7</ele>
        <time>2018-04-22T08:21:48.000Z</time>
      </trkpt>
      <trkpt lat="44.10517" lon="7.38777">
        <ele>2677.7</ele>
        <time>2018-04-22T08:21:49.000Z</time>
      </trkpt>
      <trkpt lat="44.10517" lon="7.38778">
        <ele>2677.7</ele>
        <time>2018-04-22T08:21:55.000Z</time>
      </trkpt>
      <trkpt lat="44.10517" lon="7.38778">
        <ele>2677.7</ele>
        <time>2018-04-22T08:21:57.000Z</time>
      </trkpt>
      <trkpt lat="44.10517" lon="7.38778">
        <ele>2677.7</ele>
        <time>2018-04-22T08:22:01.000Z</time>
      </trkpt>
      <trkpt lat="44.10517" lon="7.38777">
        <ele>2677.7</ele>
        <time>2018-04-22T08:22:08.000Z</time>
      </trkpt>
      <trkpt lat="44.10517" lon="7.38778">
        <ele>2677.7</ele>
        <time>2018-04-22T08:22:11.000Z</time>
      </trkpt>
      <trkpt lat="44.10517" lon="7.38778">
        <ele>2677.7</ele>
        <time>2018-04-22T08:22:24.000Z</time>
      </trkpt>
      <trkpt lat="44.10515" lon="7.38777">
        <ele>2676.9</ele>
        <time>2018-04-22T08:22:35.000Z</time>
      </trkpt>
      <trkpt lat="44.10511" lon="7.38778">
        <ele>2675.3</ele>
        <time>2018-04-22T08:22:37.000Z</time>
      </trkpt>
      <trkpt lat="44.10508" lon="7.3878">
        <ele>2673.9</ele>
        <time>2018-04-22T08:22:38.000Z</time>
      </trkpt>
      <trkpt lat="44.105" lon="7.38786">
        <ele>2670.1</ele>
        <time>2018-04-22T08:22:40.000Z</time>
      </trkpt>
      <trkpt lat="44.10498" lon="7.38792">
        <ele>2668.2</ele>
        <time>2018-04-22T08:22:41.000Z</time>
      </trkpt>
      <trkpt lat="44.10494" lon="7.38792">
        <ele>2665.6</ele>
        <time>2018-04-22T08:22:42.000Z</time>
      </trkpt>
      <trkpt lat="44.10492" lon="7.38787">
        <ele>2664.6</ele>
        <time>2018-04-22T08:22:43.000Z</time>
      </trkpt>
      <trkpt lat="44.10491" lon="7.38782">
        <ele>2664.3</ele>
        <time>2018-04-22T08:22:44.000Z</time>
      </trkpt>
      <trkpt lat="44.10491" lon="7.3878">
        <ele>2664.4</ele>
        <time>2018-04-22T08:22:45.000Z</time>
      </trkpt>
      <trkpt lat="44.10491" lon="7.38779">
        <ele>2664.4</ele>
        <time>2018-04-22T08:22:46.000Z</time>
      </trkpt>
      <trkpt lat="44.10479" lon="7.38777">
        <ele>2655.9</ele>
        <time>2018-04-22T08:22:49.000Z</time>
      </trkpt>
      <trkpt lat="44.10467" lon="7.38781">
        <ele>2647.3</ele>
        <time>2018-04-22T08:22:51.000Z</time>
      </trkpt>
      <trkpt lat="44.10462" lon="7.38781">
        <ele>2643.7</ele>
        <time>2018-04-22T08:22:52.000Z</time>
      </trkpt>
      <trkpt lat="44.10457" lon="7.3878">
        <ele>2640.1</ele>
        <time>2018-04-22T08:22:53.000Z</time>
      </trkpt>
      <trkpt lat="44.10451" lon="7.3878">
        <ele>2635.7</ele>
        <time>2018-04-22T08:22:54.000Z</time>
      </trkpt>
      <trkpt lat="44.10448" lon="7.38784">
        <ele>2633.6</ele>
        <time>2018-04-22T08:22:55.000Z</time>
      </trkpt>
      <trkpt lat="44.10444" lon="7.38785">
        <ele>2630.6</ele>
        <time>2018-04-22T08:22:56.000Z</time>
      </trkpt>
      <trkpt lat="44.1044" lon="7.38784">
        <ele>2627</ele>
        <time>2018-04-22T08:22:57.000Z</time>
      </trkpt>
      <trkpt lat="44.10435" lon="7.3878">
        <ele>2623</ele>
        <time>2018-04-22T08:22:58.000Z</time>
      </trkpt>
      <trkpt lat="44.10432" lon="7.38775">
        <ele>2620.8</ele>
        <time>2018-04-22T08:22:59.000Z</time>
      </trkpt>
      <trkpt lat="44.10432" lon="7.38771">
        <ele>2620.9</ele>
        <time>2018-04-22T08:23:00.000Z</time>
      </trkpt>
      <trkpt lat="44.10431" lon="7.38766">
        <ele>2620.3</ele>
        <time>2018-04-22T08:23:01.000Z</time>
      </trkpt>
      <trkpt lat="44.1043" lon="7.38761">
        <ele>2619.7</ele>
        <time>2018-04-22T08:23:02.000Z</time>
      </trkpt>
      <trkpt lat="44.10426" lon="7.38748">
        <ele>2617.7</ele>
        <time>2018-04-22T08:23:04.000Z</time>
      </trkpt>
      <trkpt lat="44.10424" lon="7.38742">
        <ele>2617.2</ele>
        <time>2018-04-22T08:23:05.000Z</time>
      </trkpt>
      <trkpt lat="44.10422" lon="7.38735">
        <ele>2616.8</ele>
        <time>2018-04-22T08:23:06.000Z</time>
      </trkpt>
      <trkpt lat="44.10419" lon="7.3873">
        <ele>2615.5</ele>
        <time>2018-04-22T08:23:07.000Z</time>
      </trkpt>
      <trkpt lat="44.10416" lon="7.38725">
        <ele>2614.3</ele>
        <time>2018-04-22T08:23:08.000Z</time>
      </trkpt>
      <trkpt lat="44.10413" lon="7.3872">
        <ele>2614</ele>
        <time>2018-04-22T08:23:09.000Z</time>
      </trkpt>
      <trkpt lat="44.1041" lon="7.38717">
        <ele>2613.6</ele>
        <time>2018-04-22T08:23:10.000Z</time>
      </trkpt>
      <trkpt lat="44.10402" lon="7.38711">
        <ele>2611.6</ele>
        <time>2018-04-22T08:23:12.000Z</time>
      </trkpt>
      <trkpt lat="44.10398" lon="7.38709">
        <ele>2610.2</ele>
        <time>2018-04-22T08:23:13.000Z</time>
      </trkpt>
      <trkpt lat="44.10395" lon="7.38706">
        <ele>2609.6</ele>
        <time>2018-04-22T08:23:14.000Z</time>
      </trkpt>
      <trkpt lat="44.10387" lon="7.38699">
        <ele>2607.6</ele>
        <time>2018-04-22T08:23:16.000Z</time>
      </trkpt>
      <trkpt lat="44.10381" lon="7.38694">
        <ele>2606.6</ele>
        <time>2018-04-22T08:23:18.000Z</time>
      </trkpt>
      <trkpt lat="44.10378" lon="7.38692">
        <ele>2606.5</ele>
        <time>2018-04-22T08:23:19.000Z</time>
      </trkpt>
      <trkpt lat="44.10375" lon="7.3869">
        <ele>2606.5</ele>
        <time>2018-04-22T08:23:21.000Z</time>
      </trkpt>
      <trkpt lat="44.10375" lon="7.38691">
        <ele>2605.8</ele>
        <time>2018-04-22T08:23:22.000Z</time>
      </trkpt>
      <trkpt lat="44.10375" lon="7.38692">
        <ele>2605.1</ele>
        <time>2018-04-22T08:23:24.000Z</time>
      </trkpt>
      <trkpt lat="44.10376" lon="7.38691">
        <ele>2606.2</ele>
        <time>2018-04-22T08:23:27.000Z</time>
      </trkpt>
      <trkpt lat="44.10376" lon="7.38691">
        <ele>2606.2</ele>
        <time>2018-04-22T08:23:30.000Z</time>
      </trkpt>
      <trkpt lat="44.10377" lon="7.38691">
        <ele>2606.7</ele>
        <time>2018-04-22T08:23:36.000Z</time>
      </trkpt>
      <trkpt lat="44.10377" lon="7.38691">
        <ele>2606.7</ele>
        <time>2018-04-22T08:23:42.000Z</time>
      </trkpt>
      <trkpt lat="44.10378" lon="7.38691">
        <ele>2607.2</ele>
        <time>2018-04-22T08:23:49.000Z</time>
      </trkpt>
      <trkpt lat="44.10378" lon="7.3869">
        <ele>2607.8</ele>
        <time>2018-04-22T08:23:54.000Z</time>
      </trkpt>
      <trkpt lat="44.10379" lon="7.3869">
        <ele>2608.3</ele>
        <time>2018-04-22T08:23:55.000Z</time>
      </trkpt>
      <trkpt lat="44.10379" lon="7.38689">
        <ele>2608.9</ele>
        <time>2018-04-22T08:24:01.000Z</time>
      </trkpt>
      <trkpt lat="44.1038" lon="7.38689">
        <ele>2609.4</ele>
        <time>2018-04-22T08:24:07.000Z</time>
      </trkpt>
      <trkpt lat="44.1038" lon="7.38689">
        <ele>2609.4</ele>
        <time>2018-04-22T08:24:10.000Z</time>
      </trkpt>
      <trkpt lat="44.10381" lon="7.38688">
        <ele>2610.4</ele>
        <time>2018-04-22T08:24:13.000Z</time>
      </trkpt>
      <trkpt lat="44.10381" lon="7.38688">
        <ele>2610.4</ele>
        <time>2018-04-22T08:24:20.000Z</time>
      </trkpt>
      <trkpt lat="44.10381" lon="7.38688">
        <ele>2610.4</ele>
        <time>2018-04-22T08:24:23.000Z</time>
      </trkpt>
      <trkpt lat="44.10381" lon="7.38687">
        <ele>2611.1</ele>
        <time>2018-04-22T08:24:28.000Z</time>
      </trkpt>
      <trkpt lat="44.10382" lon="7.38687">
        <ele>2611.5</ele>
        <time>2018-04-22T08:24:35.000Z</time>
      </trkpt>
      <trkpt lat="44.10382" lon="7.38687">
        <ele>2611.5</ele>
        <time>2018-04-22T08:24:39.000Z</time>
      </trkpt>
      <trkpt lat="44.10383" lon="7.38687">
        <ele>2612</ele>
        <time>2018-04-22T08:24:41.000Z</time>
      </trkpt>
      <trkpt lat="44.10381" lon="7.38687">
        <ele>2611.1</ele>
        <time>2018-04-22T08:24:47.000Z</time>
      </trkpt>
      <trkpt lat="44.10378" lon="7.38687">
        <ele>2609.8</ele>
        <time>2018-04-22T08:24:48.000Z</time>
      </trkpt>
      <trkpt lat="44.10372" lon="7.38686">
        <ele>2607.8</ele>
        <time>2018-04-22T08:24:50.000Z</time>
      </trkpt>
      <trkpt lat="44.10366" lon="7.38684">
        <ele>2606.6</ele>
        <time>2018-04-22T08:24:52.000Z</time>
      </trkpt>
      <trkpt lat="44.10363" lon="7.38684">
        <ele>2605.3</ele>
        <time>2018-04-22T08:24:53.000Z</time>
      </trkpt>
      <trkpt lat="44.10359" lon="7.38686">
        <ele>2602.6</ele>
        <time>2018-04-22T08:24:54.000Z</time>
      </trkpt>
      <trkpt lat="44.10356" lon="7.38687">
        <ele>2601.1</ele>
        <time>2018-04-22T08:24:55.000Z</time>
      </trkpt>
      <trkpt lat="44.10354" lon="7.38687">
        <ele>2600.7</ele>
        <time>2018-04-22T08:24:56.000Z</time>
      </trkpt>
      <trkpt lat="44.10353" lon="7.38686">
        <ele>2601.2</ele>
        <time>2018-04-22T08:24:57.000Z</time>
      </trkpt>
      <trkpt lat="44.10353" lon="7.38687">
        <ele>2600.4</ele>
        <time>2018-04-22T08:24:59.000Z</time>
      </trkpt>
      <trkpt lat="44.10353" lon="7.38687">
        <ele>2600.4</ele>
        <time>2018-04-22T08:25:00.000Z</time>
      </trkpt>
      <trkpt lat="44.10351" lon="7.38687">
        <ele>2599.9</ele>
        <time>2018-04-22T08:25:01.000Z</time>
      </trkpt>
      <trkpt lat="44.10347" lon="7.38687">
        <ele>2599</ele>
        <time>2018-04-22T08:25:03.000Z</time>
      </trkpt>
      <trkpt lat="44.10347" lon="7.3869">
        <ele>2596.5</ele>
        <time>2018-04-22T08:25:04.000Z</time>
      </trkpt>
      <trkpt lat="44.10349" lon="7.38693">
        <ele>2594.7</ele>
        <time>2018-04-22T08:25:05.000Z</time>
      </trkpt>
      <trkpt lat="44.10349" lon="7.38694">
        <ele>2593.9</ele>
        <time>2018-04-22T08:25:06.000Z</time>
      </trkpt>
      <trkpt lat="44.10349" lon="7.38694">
        <ele>2593.9</ele>
        <time>2018-04-22T08:25:07.000Z</time>
      </trkpt>
      <trkpt lat="44.10349" lon="7.38694">
        <ele>2593.9</ele>
        <time>2018-04-22T08:25:08.000Z</time>
      </trkpt>
      <trkpt lat="44.10351" lon="7.38696">
        <ele>2593.3</ele>
        <time>2018-04-22T08:25:10.000Z</time>
      </trkpt>
      <trkpt lat="44.10352" lon="7.38697">
        <ele>2593.1</ele>
        <time>2018-04-22T08:25:11.000Z</time>
      </trkpt>
      <trkpt lat="44.10354" lon="7.38702">
        <ele>2591.1</ele>
        <time>2018-04-22T08:25:13.000Z</time>
      </trkpt>
      <trkpt lat="44.1035" lon="7.38703">
        <ele>2589.3</ele>
        <time>2018-04-22T08:25:14.000Z</time>
      </trkpt>
      <trkpt lat="44.10348" lon="7.38703">
        <ele>2588.6</ele>
        <time>2018-04-22T08:25:15.000Z</time>
      </trkpt>
      <trkpt lat="44.10342" lon="7.38701">
        <ele>2587.8</ele>
        <time>2018-04-22T08:25:17.000Z</time>
      </trkpt>
      <trkpt lat="44.10338" lon="7.387">
        <ele>2587.1</ele>
        <time>2018-04-22T08:25:18.000Z</time>
      </trkpt>
      <trkpt lat="44.10334" lon="7.387">
        <ele>2585.8</ele>
        <time>2018-04-22T08:25:19.000Z</time>
      </trkpt>
      <trkpt lat="44.10329" lon="7.387">
        <ele>2488</ele>
        <time>2018-04-22T08:25:20.000Z</time>
      </trkpt>
      <trkpt lat="44.10319" lon="7.38701">
        <ele>2488</ele>
        <time>2018-04-22T08:25:22.000Z</time>
      </trkpt>
      <trkpt lat="44.10315" lon="7.38702">
        <ele>2488</ele>
        <time>2018-04-22T08:25:23.000Z</time>
      </trkpt>
      <trkpt lat="44.1031" lon="7.38703">
        <ele>2488</ele>
        <time>2018-04-22T08:25:24.000Z</time>
      </trkpt>
      <trkpt lat="44.10307" lon="7.38704">
        <ele>2488</ele>
        <time>2018-04-22T08:25:25.000Z</time>
      </trkpt>
      <trkpt lat="44.10305" lon="7.38705">
        <ele>2488</ele>
        <time>2018-04-22T08:25:26.000Z</time>
      </trkpt>
      <trkpt lat="44.103" lon="7.38707">
        <ele>2488</ele>
        <time>2018-04-22T08:25:28.000Z</time>
      </trkpt>
      <trkpt lat="44.10297" lon="7.38708">
        <ele>2488</ele>
        <time>2018-04-22T08:25:29.000Z</time>
      </trkpt>
      <trkpt lat="44.10294" lon="7.3871">
        <ele>2488</ele>
        <time>2018-04-22T08:25:30.000Z</time>
      </trkpt>
      <trkpt lat="44.10292" lon="7.38714">
        <ele>2488</ele>
        <time>2018-04-22T08:25:31.000Z</time>
      </trkpt>
      <trkpt lat="44.10297" lon="7.38724">
        <ele>2489</ele>
        <time>2018-04-22T08:25:33.000Z</time>
      </trkpt>
      <trkpt lat="44.10296" lon="7.3873">
        <ele>2489</ele>
        <time>2018-04-22T08:25:34.000Z</time>
      </trkpt>
      <trkpt lat="44.10291" lon="7.38732">
        <ele>2489</ele>
        <time>2018-04-22T08:25:35.000Z</time>
      </trkpt>
      <trkpt lat="44.10287" lon="7.38734">
        <ele>2489</ele>
        <time>2018-04-22T08:25:36.000Z</time>
      </trkpt>
      <trkpt lat="44.10283" lon="7.38736">
        <ele>2489</ele>
        <time>2018-04-22T08:25:37.000Z</time>
      </trkpt>
      <trkpt lat="44.10281" lon="7.3874">
        <ele>2490</ele>
        <time>2018-04-22T08:25:38.000Z</time>
      </trkpt>
      <trkpt lat="44.10283" lon="7.38745">
        <ele>2490</ele>
        <time>2018-04-22T08:25:39.000Z</time>
      </trkpt>
      <trkpt lat="44.10286" lon="7.38747">
        <ele>2490</ele>
        <time>2018-04-22T08:25:40.000Z</time>
      </trkpt>
      <trkpt lat="44.10288" lon="7.38748">
        <ele>2490</ele>
        <time>2018-04-22T08:25:41.000Z</time>
      </trkpt>
      <trkpt lat="44.10289" lon="7.38748">
        <ele>2490</ele>
        <time>2018-04-22T08:25:42.000Z</time>
      </trkpt>
      <trkpt lat="44.10289" lon="7.38748">
        <ele>2490</ele>
        <time>2018-04-22T08:25:43.000Z</time>
      </trkpt>
      <trkpt lat="44.10289" lon="7.38748">
        <ele>2490</ele>
        <time>2018-04-22T08:25:44.000Z</time>
      </trkpt>
      <trkpt lat="44.1029" lon="7.38748">
        <ele>2490</ele>
        <time>2018-04-22T08:25:45.000Z</time>
      </trkpt>
      <trkpt lat="44.1029" lon="7.38747">
        <ele>2490</ele>
        <time>2018-04-22T08:25:49.000Z</time>
      </trkpt>
      <trkpt lat="44.10299" lon="7.38754">
        <ele>2503</ele>
        <time>2018-04-22T08:25:54.000Z</time>
      </trkpt>
      <trkpt lat="44.10301" lon="7.38756">
        <ele>2503</ele>
        <time>2018-04-22T08:25:55.000Z</time>
      </trkpt>
      <trkpt lat="44.10302" lon="7.38756">
        <ele>2503</ele>
        <time>2018-04-22T08:25:57.000Z</time>
      </trkpt>
      <trkpt lat="44.10303" lon="7.38757">
        <ele>2503</ele>
        <time>2018-04-22T08:25:58.000Z</time>
      </trkpt>
      <trkpt lat="44.10303" lon="7.38757">
        <ele>2503</ele>
        <time>2018-04-22T08:25:59.000Z</time>
      </trkpt>
      <trkpt lat="44.10303" lon="7.38756">
        <ele>2503</ele>
        <time>2018-04-22T08:26:06.000Z</time>
      </trkpt>
      <trkpt lat="44.10303" lon="7.38756">
        <ele>2503</ele>
        <time>2018-04-22T08:26:14.000Z</time>
      </trkpt>
      <trkpt lat="44.10304" lon="7.38756">
        <ele>2503</ele>
        <time>2018-04-22T08:26:20.000Z</time>
      </trkpt>
      <trkpt lat="44.10305" lon="7.38756">
        <ele>2504</ele>
        <time>2018-04-22T08:26:29.000Z</time>
      </trkpt>
      <trkpt lat="44.10304" lon="7.38755">
        <ele>2503</ele>
        <time>2018-04-22T08:26:45.000Z</time>
      </trkpt>
      <trkpt lat="44.10305" lon="7.38754">
        <ele>2504</ele>
        <time>2018-04-22T08:27:00.000Z</time>
      </trkpt>
      <trkpt lat="44.10305" lon="7.38753">
        <ele>2503</ele>
        <time>2018-04-22T08:27:16.000Z</time>
      </trkpt>
      <trkpt lat="44.10305" lon="7.38753">
        <ele>2503</ele>
        <time>2018-04-22T08:27:32.000Z</time>
      </trkpt>
      <trkpt lat="44.10305" lon="7.38753">
        <ele>2503</ele>
        <time>2018-04-22T08:27:43.000Z</time>
      </trkpt>
      <trkpt lat="44.10306" lon="7.38753">
        <ele>2504</ele>
        <time>2018-04-22T08:28:00.000Z</time>
      </trkpt>
      <trkpt lat="44.10307" lon="7.38753">
        <ele>2504</ele>
        <time>2018-04-22T08:28:09.000Z</time>
      </trkpt>
      <trkpt lat="44.10307" lon="7.38753">
        <ele>2504</ele>
        <time>2018-04-22T08:28:16.000Z</time>
      </trkpt>
      <trkpt lat="44.10307" lon="7.38752">
        <ele>2504</ele>
        <time>2018-04-22T08:28:24.000Z</time>
      </trkpt>
      <trkpt lat="44.10307" lon="7.38752">
        <ele>2504</ele>
        <time>2018-04-22T08:28:25.000Z</time>
      </trkpt>
      <trkpt lat="44.10308" lon="7.38753">
        <ele>2504</ele>
        <time>2018-04-22T08:28:29.000Z</time>
      </trkpt>
      <trkpt lat="44.10308" lon="7.38752">
        <ele>2504</ele>
        <time>2018-04-22T08:28:30.000Z</time>
      </trkpt>
      <trkpt lat="44.10309" lon="7.38752">
        <ele>2504</ele>
        <time>2018-04-22T08:28:37.000Z</time>
      </trkpt>
      <trkpt lat="44.1031" lon="7.38753">
        <ele>2504</ele>
        <time>2018-04-22T08:28:42.000Z</time>
      </trkpt>
      <trkpt lat="44.10311" lon="7.38754">
        <ele>2504</ele>
        <time>2018-04-22T08:28:43.000Z</time>
      </trkpt>
      <trkpt lat="44.10321" lon="7.38761">
        <ele>2506</ele>
        <time>2018-04-22T08:28:47.000Z</time>
      </trkpt>
      <trkpt lat="44.10321" lon="7.38766">
        <ele>2507</ele>
        <time>2018-04-22T08:28:48.000Z</time>
      </trkpt>
      <trkpt lat="44.10317" lon="7.38771">
        <ele>2507</ele>
        <time>2018-04-22T08:28:49.000Z</time>
      </trkpt>
      <trkpt lat="44.10315" lon="7.38773">
        <ele>2507</ele>
        <time>2018-04-22T08:28:50.000Z</time>
      </trkpt>
      <trkpt lat="44.10311" lon="7.38775">
        <ele>2507</ele>
        <time>2018-04-22T08:28:51.000Z</time>
      </trkpt>
      <trkpt lat="44.10309" lon="7.38777">
        <ele>2506</ele>
        <time>2018-04-22T08:28:52.000Z</time>
      </trkpt>
      <trkpt lat="44.10306" lon="7.3878">
        <ele>2506</ele>
        <time>2018-04-22T08:28:53.000Z</time>
      </trkpt>
      <trkpt lat="44.10306" lon="7.38784">
        <ele>2507</ele>
        <time>2018-04-22T08:28:54.000Z</time>
      </trkpt>
      <trkpt lat="44.10309" lon="7.38788">
        <ele>2508</ele>
        <time>2018-04-22T08:28:55.000Z</time>
      </trkpt>
      <trkpt lat="44.10314" lon="7.38791">
        <ele>2510</ele>
        <time>2018-04-22T08:28:56.000Z</time>
      </trkpt>
      <trkpt lat="44.10318" lon="7.38794">
        <ele>2511</ele>
        <time>2018-04-22T08:28:57.000Z</time>
      </trkpt>
      <trkpt lat="44.10318" lon="7.388">
        <ele>2513</ele>
        <time>2018-04-22T08:28:58.000Z</time>
      </trkpt>
      <trkpt lat="44.10318" lon="7.38809">
        <ele>2516</ele>
        <time>2018-04-22T08:28:59.000Z</time>
      </trkpt>
      <trkpt lat="44.1032" lon="7.38819">
        <ele>2519</ele>
        <time>2018-04-22T08:29:00.000Z</time>
      </trkpt>
      <trkpt lat="44.10322" lon="7.38831">
        <ele>2524</ele>
        <time>2018-04-22T08:29:01.000Z</time>
      </trkpt>
      <trkpt lat="44.10325" lon="7.3884">
        <ele>2524</ele>
        <time>2018-04-22T08:29:02.000Z</time>
      </trkpt>
      <trkpt lat="44.10328" lon="7.38848">
        <ele>2522</ele>
        <time>2018-04-22T08:29:03.000Z</time>
      </trkpt>
      <trkpt lat="44.10331" lon="7.38856">
        <ele>2519</ele>
        <time>2018-04-22T08:29:04.000Z</time>
      </trkpt>
      <trkpt lat="44.10327" lon="7.3886">
        <ele>2517</ele>
        <time>2018-04-22T08:29:06.000Z</time>
      </trkpt>
      <trkpt lat="44.10326" lon="7.3886">
        <ele>2517</ele>
        <time>2018-04-22T08:29:08.000Z</time>
      </trkpt>
      <trkpt lat="44.10327" lon="7.3886">
        <ele>2517</ele>
        <time>2018-04-22T08:29:09.000Z</time>
      </trkpt>
      <trkpt lat="44.10327" lon="7.38864">
        <ele>2517</ele>
        <time>2018-04-22T08:29:16.000Z</time>
      </trkpt>
      <trkpt lat="44.10325" lon="7.38867">
        <ele>2516</ele>
        <time>2018-04-22T08:29:17.000Z</time>
      </trkpt>
      <trkpt lat="44.10319" lon="7.38881">
        <ele>2514</ele>
        <time>2018-04-22T08:29:20.000Z</time>
      </trkpt>
      <trkpt lat="44.10307" lon="7.38888">
        <ele>2511</ele>
        <time>2018-04-22T08:29:22.000Z</time>
      </trkpt>
      <trkpt lat="44.10301" lon="7.38893">
        <ele>2510</ele>
        <time>2018-04-22T08:29:23.000Z</time>
      </trkpt>
      <trkpt lat="44.10294" lon="7.38895">
        <ele>2507</ele>
        <time>2018-04-22T08:29:24.000Z</time>
      </trkpt>
      <trkpt lat="44.1028" lon="7.38899">
        <ele>2502</ele>
        <time>2018-04-22T08:29:26.000Z</time>
      </trkpt>
      <trkpt lat="44.10264" lon="7.38905">
        <ele>2495</ele>
        <time>2018-04-22T08:29:28.000Z</time>
      </trkpt>
      <trkpt lat="44.10253" lon="7.38908">
        <ele>2489</ele>
        <time>2018-04-22T08:29:29.000Z</time>
      </trkpt>
      <trkpt lat="44.10243" lon="7.38912">
        <ele>2478</ele>
        <time>2018-04-22T08:29:30.000Z</time>
      </trkpt>
      <trkpt lat="44.10233" lon="7.38915">
        <ele>2476</ele>
        <time>2018-04-22T08:29:31.000Z</time>
      </trkpt>
      <trkpt lat="44.10223" lon="7.38914">
        <ele>2473</ele>
        <time>2018-04-22T08:29:32.000Z</time>
      </trkpt>
      <trkpt lat="44.10214" lon="7.38913">
        <ele>2471</ele>
        <time>2018-04-22T08:29:33.000Z</time>
      </trkpt>
      <trkpt lat="44.10204" lon="7.38916">
        <ele>2468</ele>
        <time>2018-04-22T08:29:34.000Z</time>
      </trkpt>
      <trkpt lat="44.10196" lon="7.38922">
        <ele>2463</ele>
        <time>2018-04-22T08:29:35.000Z</time>
      </trkpt>
      <trkpt lat="44.10187" lon="7.38922">
        <ele>2461</ele>
        <time>2018-04-22T08:29:36.000Z</time>
      </trkpt>
      <trkpt lat="44.10182" lon="7.38916">
        <ele>2460</ele>
        <time>2018-04-22T08:29:37.000Z</time>
      </trkpt>
      <trkpt lat="44.10175" lon="7.38912">
        <ele>2458</ele>
        <time>2018-04-22T08:29:38.000Z</time>
      </trkpt>
      <trkpt lat="44.1017" lon="7.38909">
        <ele>2456</ele>
        <time>2018-04-22T08:29:39.000Z</time>
      </trkpt>
      <trkpt lat="44.10157" lon="7.38906">
        <ele>2447</ele>
        <time>2018-04-22T08:29:41.000Z</time>
      </trkpt>
      <trkpt lat="44.1015" lon="7.38904">
        <ele>2445</ele>
        <time>2018-04-22T08:29:42.000Z</time>
      </trkpt>
      <trkpt lat="44.10142" lon="7.38902">
        <ele>2443</ele>
        <time>2018-04-22T08:29:43.000Z</time>
      </trkpt>
      <trkpt lat="44.10135" lon="7.38901">
        <ele>2442</ele>
        <time>2018-04-22T08:29:44.000Z</time>
      </trkpt>
      <trkpt lat="44.10129" lon="7.38903">
        <ele>2440</ele>
        <time>2018-04-22T08:29:45.000Z</time>
      </trkpt>
      <trkpt lat="44.10125" lon="7.38906">
        <ele>2438</ele>
        <time>2018-04-22T08:29:46.000Z</time>
      </trkpt>
      <trkpt lat="44.10125" lon="7.38909">
        <ele>2438</ele>
        <time>2018-04-22T08:29:47.000Z</time>
      </trkpt>
      <trkpt lat="44.10126" lon="7.38909">
        <ele>2438</ele>
        <time>2018-04-22T08:29:48.000Z</time>
      </trkpt>
      <trkpt lat="44.10126" lon="7.3891">
        <ele>2438</ele>
        <time>2018-04-22T08:29:49.000Z</time>
      </trkpt>
      <trkpt lat="44.10126" lon="7.3891">
        <ele>2438</ele>
        <time>2018-04-22T08:29:51.000Z</time>
      </trkpt>
      <trkpt lat="44.10126" lon="7.38909">
        <ele>2439</ele>
        <time>2018-04-22T08:29:53.000Z</time>
      </trkpt>
      <trkpt lat="44.10127" lon="7.38908">
        <ele>2439</ele>
        <time>2018-04-22T08:29:56.000Z</time>
      </trkpt>
      <trkpt lat="44.10128" lon="7.38907">
        <ele>2439</ele>
        <time>2018-04-22T08:29:59.000Z</time>
      </trkpt>
      <trkpt lat="44.10129" lon="7.38906">
        <ele>2440</ele>
        <time>2018-04-22T08:30:05.000Z</time>
      </trkpt>
      <trkpt lat="44.10129" lon="7.38906">
        <ele>2440</ele>
        <time>2018-04-22T08:30:06.000Z</time>
      </trkpt>
      <trkpt lat="44.1013" lon="7.38905">
        <ele>2440</ele>
        <time>2018-04-22T08:30:12.000Z</time>
      </trkpt>
      <trkpt lat="44.10131" lon="7.38904">
        <ele>2440</ele>
        <time>2018-04-22T08:30:19.000Z</time>
      </trkpt>
      <trkpt lat="44.10132" lon="7.38904">
        <ele>2441</ele>
        <time>2018-04-22T08:30:27.000Z</time>
      </trkpt>
      <trkpt lat="44.10132" lon="7.38904">
        <ele>2441</ele>
        <time>2018-04-22T08:30:29.000Z</time>
      </trkpt>
      <trkpt lat="44.10132" lon="7.38904">
        <ele>2441</ele>
        <time>2018-04-22T08:30:31.000Z</time>
      </trkpt>
      <trkpt lat="44.10136" lon="7.38911">
        <ele>2441</ele>
        <time>2018-04-22T08:30:38.000Z</time>
      </trkpt>
      <trkpt lat="44.10136" lon="7.38917">
        <ele>2432</ele>
        <time>2018-04-22T08:30:39.000Z</time>
      </trkpt>
      <trkpt lat="44.10132" lon="7.38921">
        <ele>2430</ele>
        <time>2018-04-22T08:30:40.000Z</time>
      </trkpt>
      <trkpt lat="44.10127" lon="7.3893">
        <ele>2428</ele>
        <time>2018-04-22T08:30:42.000Z</time>
      </trkpt>
      <trkpt lat="44.10127" lon="7.38935">
        <ele>2428</ele>
        <time>2018-04-22T08:30:43.000Z</time>
      </trkpt>
      <trkpt lat="44.10128" lon="7.38942">
        <ele>2428</ele>
        <time>2018-04-22T08:30:44.000Z</time>
      </trkpt>
      <trkpt lat="44.10128" lon="7.3895">
        <ele>2427</ele>
        <time>2018-04-22T08:30:45.000Z</time>
      </trkpt>
      <trkpt lat="44.10124" lon="7.38953">
        <ele>2426</ele>
        <time>2018-04-22T08:30:46.000Z</time>
      </trkpt>
      <trkpt lat="44.10119" lon="7.38947">
        <ele>2425</ele>
        <time>2018-04-22T08:30:48.000Z</time>
      </trkpt>
      <trkpt lat="44.10117" lon="7.38944">
        <ele>2424</ele>
        <time>2018-04-22T08:30:49.000Z</time>
      </trkpt>
      <trkpt lat="44.10115" lon="7.38943">
        <ele>2424</ele>
        <time>2018-04-22T08:30:50.000Z</time>
      </trkpt>
      <trkpt lat="44.10113" lon="7.38943">
        <ele>2423</ele>
        <time>2018-04-22T08:30:51.000Z</time>
      </trkpt>
      <trkpt lat="44.10112" lon="7.38947">
        <ele>2423</ele>
        <time>2018-04-22T08:30:52.000Z</time>
      </trkpt>
      <trkpt lat="44.10112" lon="7.38961">
        <ele>2422</ele>
        <time>2018-04-22T08:30:54.000Z</time>
      </trkpt>
      <trkpt lat="44.10112" lon="7.38967">
        <ele>2422</ele>
        <time>2018-04-22T08:30:55.000Z</time>
      </trkpt>
      <trkpt lat="44.10113" lon="7.38972">
        <ele>2421</ele>
        <time>2018-04-22T08:30:56.000Z</time>
      </trkpt>
      <trkpt lat="44.10113" lon="7.38976">
        <ele>2421</ele>
        <time>2018-04-22T08:30:57.000Z</time>
      </trkpt>
      <trkpt lat="44.10114" lon="7.38981">
        <ele>2421</ele>
        <time>2018-04-22T08:30:58.000Z</time>
      </trkpt>
      <trkpt lat="44.10115" lon="7.38987">
        <ele>2420</ele>
        <time>2018-04-22T08:30:59.000Z</time>
      </trkpt>
      <trkpt lat="44.10115" lon="7.38992">
        <ele>2420</ele>
        <time>2018-04-22T08:31:00.000Z</time>
      </trkpt>
      <trkpt lat="44.10114" lon="7.38998">
        <ele>2419</ele>
        <time>2018-04-22T08:31:01.000Z</time>
      </trkpt>
      <trkpt lat="44.10111" lon="7.38997">
        <ele>2417</ele>
        <time>2018-04-22T08:31:02.000Z</time>
      </trkpt>
      <trkpt lat="44.10107" lon="7.38994">
        <ele>2416</ele>
        <time>2018-04-22T08:31:03.000Z</time>
      </trkpt>
      <trkpt lat="44.10104" lon="7.3899">
        <ele>2414</ele>
        <time>2018-04-22T08:31:04.000Z</time>
      </trkpt>
      <trkpt lat="44.10101" lon="7.38991">
        <ele>2412</ele>
        <time>2018-04-22T08:31:05.000Z</time>
      </trkpt>
      <trkpt lat="44.10095" lon="7.39001">
        <ele>2407</ele>
        <time>2018-04-22T08:31:07.000Z</time>
      </trkpt>
      <trkpt lat="44.10091" lon="7.39">
        <ele>2403</ele>
        <time>2018-04-22T08:31:08.000Z</time>
      </trkpt>
      <trkpt lat="44.10087" lon="7.39003">
        <ele>2401</ele>
        <time>2018-04-22T08:31:09.000Z</time>
      </trkpt>
      <trkpt lat="44.10082" lon="7.39005">
        <ele>2392</ele>
        <time>2018-04-22T08:31:10.000Z</time>
      </trkpt>
      <trkpt lat="44.10076" lon="7.39006">
        <ele>2390</ele>
        <time>2018-04-22T08:31:11.000Z</time>
      </trkpt>
      <trkpt lat="44.1007" lon="7.3901">
        <ele>2387</ele>
        <time>2018-04-22T08:31:12.000Z</time>
      </trkpt>
      <trkpt lat="44.10064" lon="7.3901">
        <ele>2385</ele>
        <time>2018-04-22T08:31:13.000Z</time>
      </trkpt>
      <trkpt lat="44.10057" lon="7.39014">
        <ele>2382</ele>
        <time>2018-04-22T08:31:14.000Z</time>
      </trkpt>
      <trkpt lat="44.1005" lon="7.39018">
        <ele>2380</ele>
        <time>2018-04-22T08:31:15.000Z</time>
      </trkpt>
      <trkpt lat="44.10044" lon="7.39026">
        <ele>2379</ele>
        <time>2018-04-22T08:31:16.000Z</time>
      </trkpt>
      <trkpt lat="44.10041" lon="7.39037">
        <ele>2378</ele>
        <time>2018-04-22T08:31:17.000Z</time>
      </trkpt>
      <trkpt lat="44.10038" lon="7.39045">
        <ele>2377</ele>
        <time>2018-04-22T08:31:18.000Z</time>
      </trkpt>
      <trkpt lat="44.10033" lon="7.39053">
        <ele>2375</ele>
        <time>2018-04-22T08:31:19.000Z</time>
      </trkpt>
      <trkpt lat="44.10027" lon="7.39058">
        <ele>2373</ele>
        <time>2018-04-22T08:31:20.000Z</time>
      </trkpt>
      <trkpt lat="44.10021" lon="7.39061">
        <ele>2371</ele>
        <time>2018-04-22T08:31:21.000Z</time>
      </trkpt>
      <trkpt lat="44.10019" lon="7.39059">
        <ele>2371</ele>
        <time>2018-04-22T08:31:22.000Z</time>
      </trkpt>
      <trkpt lat="44.10018" lon="7.39058">
        <ele>2371</ele>
        <time>2018-04-22T08:31:23.000Z</time>
      </trkpt>
      <trkpt lat="44.10018" lon="7.39058">
        <ele>2371</ele>
        <time>2018-04-22T08:31:24.000Z</time>
      </trkpt>
      <trkpt lat="44.10019" lon="7.39057">
        <ele>2371</ele>
        <time>2018-04-22T08:31:26.000Z</time>
      </trkpt>
      <trkpt lat="44.1002" lon="7.39056">
        <ele>2372</ele>
        <time>2018-04-22T08:31:28.000Z</time>
      </trkpt>
      <trkpt lat="44.1002" lon="7.39056">
        <ele>2372</ele>
        <time>2018-04-22T08:31:29.000Z</time>
      </trkpt>
      <trkpt lat="44.1002" lon="7.39056">
        <ele>2372</ele>
        <time>2018-04-22T08:31:33.000Z</time>
      </trkpt>
      <trkpt lat="44.10021" lon="7.39055">
        <ele>2372</ele>
        <time>2018-04-22T08:31:36.000Z</time>
      </trkpt>
      <trkpt lat="44.10022" lon="7.39055">
        <ele>2372</ele>
        <time>2018-04-22T08:31:42.000Z</time>
      </trkpt>
      <trkpt lat="44.10022" lon="7.39054">
        <ele>2372</ele>
        <time>2018-04-22T08:31:47.000Z</time>
      </trkpt>
      <trkpt lat="44.10022" lon="7.39054">
        <ele>2372</ele>
        <time>2018-04-22T08:31:50.000Z</time>
      </trkpt>
      <trkpt lat="44.10023" lon="7.39054">
        <ele>2373</ele>
        <time>2018-04-22T08:31:56.000Z</time>
      </trkpt>
      <trkpt lat="44.10024" lon="7.39055">
        <ele>2373</ele>
        <time>2018-04-22T08:32:01.000Z</time>
      </trkpt>
      <trkpt lat="44.10024" lon="7.39055">
        <ele>2373</ele>
        <time>2018-04-22T08:32:02.000Z</time>
      </trkpt>
      <trkpt lat="44.10025" lon="7.39055">
        <ele>2373</ele>
        <time>2018-04-22T08:32:08.000Z</time>
      </trkpt>
      <trkpt lat="44.10026" lon="7.39055">
        <ele>2373</ele>
        <time>2018-04-22T08:32:10.000Z</time>
      </trkpt>
      <trkpt lat="44.10026" lon="7.39055">
        <ele>2373</ele>
        <time>2018-04-22T08:32:15.000Z</time>
      </trkpt>
      <trkpt lat="44.10026" lon="7.39055">
        <ele>2373</ele>
        <time>2018-04-22T08:32:21.000Z</time>
      </trkpt>
      <trkpt lat="44.10026" lon="7.39055">
        <ele>2373</ele>
        <time>2018-04-22T08:32:22.000Z</time>
      </trkpt>
      <trkpt lat="44.10026" lon="7.39055">
        <ele>2373</ele>
        <time>2018-04-22T08:32:30.000Z</time>
      </trkpt>
      <trkpt lat="44.10026" lon="7.39054">
        <ele>2373</ele>
        <time>2018-04-22T08:32:40.000Z</time>
      </trkpt>
      <trkpt lat="44.10027" lon="7.39054">
        <ele>2373</ele>
        <time>2018-04-22T08:32:52.000Z</time>
      </trkpt>
      <trkpt lat="44.10027" lon="7.39054">
        <ele>2374</ele>
        <time>2018-04-22T08:33:06.000Z</time>
      </trkpt>
      <trkpt lat="44.10027" lon="7.39054">
        <ele>2374</ele>
        <time>2018-04-22T08:33:20.000Z</time>
      </trkpt>
      <trkpt lat="44.10026" lon="7.39053">
        <ele>2373</ele>
        <time>2018-04-22T08:33:37.000Z</time>
      </trkpt>
      <trkpt lat="44.10026" lon="7.39055">
        <ele>2373</ele>
        <time>2018-04-22T08:33:47.000Z</time>
      </trkpt>
      <trkpt lat="44.10024" lon="7.39055">
        <ele>2373</ele>
        <time>2018-04-22T08:33:48.000Z</time>
      </trkpt>
      <trkpt lat="44.10021" lon="7.39062">
        <ele>2371</ele>
        <time>2018-04-22T08:33:50.000Z</time>
      </trkpt>
      <trkpt lat="44.10021" lon="7.39073">
        <ele>2369</ele>
        <time>2018-04-22T08:33:52.000Z</time>
      </trkpt>
      <trkpt lat="44.10022" lon="7.39087">
        <ele>2367</ele>
        <time>2018-04-22T08:33:54.000Z</time>
      </trkpt>
      <trkpt lat="44.10022" lon="7.39099">
        <ele>2368</ele>
        <time>2018-04-22T08:33:56.000Z</time>
      </trkpt>
      <trkpt lat="44.10023" lon="7.39109">
        <ele>2370</ele>
        <time>2018-04-22T08:33:58.000Z</time>
      </trkpt>
      <trkpt lat="44.10022" lon="7.39122">
        <ele>2370</ele>
        <time>2018-04-22T08:34:00.000Z</time>
      </trkpt>
      <trkpt lat="44.1002" lon="7.39127">
        <ele>2370</ele>
        <time>2018-04-22T08:34:01.000Z</time>
      </trkpt>
      <trkpt lat="44.10015" lon="7.39141">
        <ele>2368</ele>
        <time>2018-04-22T08:34:03.000Z</time>
      </trkpt>
      <trkpt lat="44.10015" lon="7.39149">
        <ele>2366</ele>
        <time>2018-04-22T08:34:04.000Z</time>
      </trkpt>
      <trkpt lat="44.10016" lon="7.39158">
        <ele>2364</ele>
        <time>2018-04-22T08:34:05.000Z</time>
      </trkpt>
      <trkpt lat="44.10017" lon="7.39166">
        <ele>2364</ele>
        <time>2018-04-22T08:34:06.000Z</time>
      </trkpt>
      <trkpt lat="44.10018" lon="7.39174">
        <ele>2359</ele>
        <time>2018-04-22T08:34:07.000Z</time>
      </trkpt>
      <trkpt lat="44.10016" lon="7.3918">
        <ele>2359</ele>
        <time>2018-04-22T08:34:08.000Z</time>
      </trkpt>
      <trkpt lat="44.10013" lon="7.39184">
        <ele>2358</ele>
        <time>2018-04-22T08:34:09.000Z</time>
      </trkpt>
      <trkpt lat="44.10011" lon="7.39188">
        <ele>2358</ele>
        <time>2018-04-22T08:34:10.000Z</time>
      </trkpt>
      <trkpt lat="44.10006" lon="7.39191">
        <ele>2357</ele>
        <time>2018-04-22T08:34:11.000Z</time>
      </trkpt>
      <trkpt lat="44.10002" lon="7.39191">
        <ele>2357</ele>
        <time>2018-04-22T08:34:12.000Z</time>
      </trkpt>
      <trkpt lat="44.10001" lon="7.39196">
        <ele>2357</ele>
        <time>2018-04-22T08:34:13.000Z</time>
      </trkpt>
      <trkpt lat="44.09998" lon="7.392">
        <ele>2329</ele>
        <time>2018-04-22T08:34:14.000Z</time>
      </trkpt>
      <trkpt lat="44.09995" lon="7.39205">
        <ele>2328</ele>
        <time>2018-04-22T08:34:15.000Z</time>
      </trkpt>
      <trkpt lat="44.09992" lon="7.39209">
        <ele>2326</ele>
        <time>2018-04-22T08:34:16.000Z</time>
      </trkpt>
      <trkpt lat="44.09988" lon="7.39212">
        <ele>2325</ele>
        <time>2018-04-22T08:34:17.000Z</time>
      </trkpt>
      <trkpt lat="44.09987" lon="7.39216">
        <ele>2324</ele>
        <time>2018-04-22T08:34:18.000Z</time>
      </trkpt>
      <trkpt lat="44.09986" lon="7.39222">
        <ele>2323</ele>
        <time>2018-04-22T08:34:19.000Z</time>
      </trkpt>
      <trkpt lat="44.09983" lon="7.39226">
        <ele>2323</ele>
        <time>2018-04-22T08:34:20.000Z</time>
      </trkpt>
      <trkpt lat="44.09982" lon="7.39232">
        <ele>2322</ele>
        <time>2018-04-22T08:34:21.000Z</time>
      </trkpt>
      <trkpt lat="44.09984" lon="7.39238">
        <ele>2323</ele>
        <time>2018-04-22T08:34:22.000Z</time>
      </trkpt>
      <trkpt lat="44.09984" lon="7.39243">
        <ele>2323</ele>
        <time>2018-04-22T08:34:23.000Z</time>
      </trkpt>
      <trkpt lat="44.0998" lon="7.39246">
        <ele>2321</ele>
        <time>2018-04-22T08:34:24.000Z</time>
      </trkpt>
      <trkpt lat="44.09976" lon="7.39247">
        <ele>2320</ele>
        <time>2018-04-22T08:34:25.000Z</time>
      </trkpt>
      <trkpt lat="44.09973" lon="7.39249">
        <ele>2319</ele>
        <time>2018-04-22T08:34:26.000Z</time>
      </trkpt>
      <trkpt lat="44.09973" lon="7.39255">
        <ele>2297</ele>
        <time>2018-04-22T08:34:27.000Z</time>
      </trkpt>
      <trkpt lat="44.0997" lon="7.39259">
        <ele>2295</ele>
        <time>2018-04-22T08:34:28.000Z</time>
      </trkpt>
      <trkpt lat="44.09968" lon="7.39261">
        <ele>2293</ele>
        <time>2018-04-22T08:34:29.000Z</time>
      </trkpt>
      <trkpt lat="44.09969" lon="7.39261">
        <ele>2294</ele>
        <time>2018-04-22T08:34:30.000Z</time>
      </trkpt>
      <trkpt lat="44.09967" lon="7.39261">
        <ele>2293</ele>
        <time>2018-04-22T08:34:31.000Z</time>
      </trkpt>
      <trkpt lat="44.09967" lon="7.39261">
        <ele>2293</ele>
        <time>2018-04-22T08:34:32.000Z</time>
      </trkpt>
      <trkpt lat="44.09967" lon="7.39261">
        <ele>2293</ele>
        <time>2018-04-22T08:34:33.000Z</time>
      </trkpt>
      <trkpt lat="44.09967" lon="7.3926">
        <ele>2293</ele>
        <time>2018-04-22T08:34:41.000Z</time>
      </trkpt>
      <trkpt lat="44.09967" lon="7.39259">
        <ele>2293</ele>
        <time>2018-04-22T08:34:51.000Z</time>
      </trkpt>
      <trkpt lat="44.09967" lon="7.39258">
        <ele>2293</ele>
        <time>2018-04-22T08:34:59.000Z</time>
      </trkpt>
      <trkpt lat="44.09967" lon="7.39258">
        <ele>2293</ele>
        <time>2018-04-22T08:35:01.000Z</time>
      </trkpt>
      <trkpt lat="44.09967" lon="7.39258">
        <ele>2294</ele>
        <time>2018-04-22T08:35:08.000Z</time>
      </trkpt>
      <trkpt lat="44.09967" lon="7.39257">
        <ele>2294</ele>
        <time>2018-04-22T08:35:15.000Z</time>
      </trkpt>
      <trkpt lat="44.09967" lon="7.39257">
        <ele>2294</ele>
        <time>2018-04-22T08:35:18.000Z</time>
      </trkpt>
      <trkpt lat="44.0996" lon="7.39259">
        <ele>2290</ele>
        <time>2018-04-22T08:35:21.000Z</time>
      </trkpt>
      <trkpt lat="44.09956" lon="7.39261">
        <ele>2288</ele>
        <time>2018-04-22T08:35:22.000Z</time>
      </trkpt>
      <trkpt lat="44.09946" lon="7.39265">
        <ele>2284</ele>
        <time>2018-04-22T08:35:24.000Z</time>
      </trkpt>
      <trkpt lat="44.09941" lon="7.39267">
        <ele>2282</ele>
        <time>2018-04-22T08:35:25.000Z</time>
      </trkpt>
      <trkpt lat="44.09935" lon="7.39269">
        <ele>2280</ele>
        <time>2018-04-22T08:35:26.000Z</time>
      </trkpt>
      <trkpt lat="44.0993" lon="7.39271">
        <ele>2279</ele>
        <time>2018-04-22T08:35:27.000Z</time>
      </trkpt>
      <trkpt lat="44.09926" lon="7.39273">
        <ele>2278</ele>
        <time>2018-04-22T08:35:28.000Z</time>
      </trkpt>
      <trkpt lat="44.09922" lon="7.39278">
        <ele>2277</ele>
        <time>2018-04-22T08:35:29.000Z</time>
      </trkpt>
      <trkpt lat="44.09923" lon="7.39284">
        <ele>2276</ele>
        <time>2018-04-22T08:35:30.000Z</time>
      </trkpt>
      <trkpt lat="44.09925" lon="7.39291">
        <ele>2275</ele>
        <time>2018-04-22T08:35:31.000Z</time>
      </trkpt>
      <trkpt lat="44.09923" lon="7.39297">
        <ele>2273</ele>
        <time>2018-04-22T08:35:32.000Z</time>
      </trkpt>
      <trkpt lat="44.09918" lon="7.39301">
        <ele>2271</ele>
        <time>2018-04-22T08:35:33.000Z</time>
      </trkpt>
      <trkpt lat="44.09912" lon="7.39304">
        <ele>2252</ele>
        <time>2018-04-22T08:35:34.000Z</time>
      </trkpt>
      <trkpt lat="44.09905" lon="7.39307">
        <ele>2251</ele>
        <time>2018-04-22T08:35:35.000Z</time>
      </trkpt>
      <trkpt lat="44.09898" lon="7.39309">
        <ele>2251</ele>
        <time>2018-04-22T08:35:36.000Z</time>
      </trkpt>
      <trkpt lat="44.09891" lon="7.3931">
        <ele>2250</ele>
        <time>2018-04-22T08:35:37.000Z</time>
      </trkpt>
      <trkpt lat="44.09884" lon="7.39312">
        <ele>2250</ele>
        <time>2018-04-22T08:35:38.000Z</time>
      </trkpt>
      <trkpt lat="44.09876" lon="7.39314">
        <ele>2249</ele>
        <time>2018-04-22T08:35:39.000Z</time>
      </trkpt>
      <trkpt lat="44.0987" lon="7.39316">
        <ele>2247</ele>
        <time>2018-04-22T08:35:40.000Z</time>
      </trkpt>
      <trkpt lat="44.09864" lon="7.39319">
        <ele>2246</ele>
        <time>2018-04-22T08:35:41.000Z</time>
      </trkpt>
      <trkpt lat="44.09858" lon="7.39321">
        <ele>2244</ele>
        <time>2018-04-22T08:35:42.000Z</time>
      </trkpt>
      <trkpt lat="44.09852" lon="7.39324">
        <ele>2242</ele>
        <time>2018-04-22T08:35:43.000Z</time>
      </trkpt>
      <trkpt lat="44.09847" lon="7.39326">
        <ele>2239</ele>
        <time>2018-04-22T08:35:44.000Z</time>
      </trkpt>
      <trkpt lat="44.09841" lon="7.39328">
        <ele>2236</ele>
        <time>2018-04-22T08:35:45.000Z</time>
      </trkpt>
      <trkpt lat="44.09836" lon="7.3933">
        <ele>2232</ele>
        <time>2018-04-22T08:35:46.000Z</time>
      </trkpt>
      <trkpt lat="44.09832" lon="7.39332">
        <ele>2228</ele>
        <time>2018-04-22T08:35:47.000Z</time>
      </trkpt>
      <trkpt lat="44.09829" lon="7.39335">
        <ele>2224</ele>
        <time>2018-04-22T08:35:48.000Z</time>
      </trkpt>
      <trkpt lat="44.09825" lon="7.39337">
        <ele>2221</ele>
        <time>2018-04-22T08:35:49.000Z</time>
      </trkpt>
      <trkpt lat="44.09821" lon="7.3934">
        <ele>2218</ele>
        <time>2018-04-22T08:35:50.000Z</time>
      </trkpt>
      <trkpt lat="44.09817" lon="7.39344">
        <ele>2215</ele>
        <time>2018-04-22T08:35:51.000Z</time>
      </trkpt>
      <trkpt lat="44.09813" lon="7.39347">
        <ele>2213</ele>
        <time>2018-04-22T08:35:52.000Z</time>
      </trkpt>
      <trkpt lat="44.09809" lon="7.3935">
        <ele>2211</ele>
        <time>2018-04-22T08:35:53.000Z</time>
      </trkpt>
      <trkpt lat="44.09803" lon="7.39351">
        <ele>2210</ele>
        <time>2018-04-22T08:35:55.000Z</time>
      </trkpt>
      <trkpt lat="44.09802" lon="7.39351">
        <ele>2209</ele>
        <time>2018-04-22T08:35:56.000Z</time>
      </trkpt>
      <trkpt lat="44.09803" lon="7.39351">
        <ele>2209</ele>
        <time>2018-04-22T08:35:57.000Z</time>
      </trkpt>
      <trkpt lat="44.09802" lon="7.39351">
        <ele>2209</ele>
        <time>2018-04-22T08:35:59.000Z</time>
      </trkpt>
      <trkpt lat="44.09802" lon="7.3935">
        <ele>2209</ele>
        <time>2018-04-22T08:36:02.000Z</time>
      </trkpt>
      <trkpt lat="44.09802" lon="7.3935">
        <ele>2209</ele>
        <time>2018-04-22T08:36:03.000Z</time>
      </trkpt>
      <trkpt lat="44.09802" lon="7.3935">
        <ele>2209</ele>
        <time>2018-04-22T08:36:08.000Z</time>
      </trkpt>
      <trkpt lat="44.09803" lon="7.39349">
        <ele>2210</ele>
        <time>2018-04-22T08:36:23.000Z</time>
      </trkpt>
      <trkpt lat="44.09803" lon="7.39349">
        <ele>2210</ele>
        <time>2018-04-22T08:36:36.000Z</time>
      </trkpt>
      <trkpt lat="44.09803" lon="7.39348">
        <ele>2210</ele>
        <time>2018-04-22T08:36:55.000Z</time>
      </trkpt>
      <trkpt lat="44.09804" lon="7.39348">
        <ele>2210</ele>
        <time>2018-04-22T08:37:07.000Z</time>
      </trkpt>
      <trkpt lat="44.09804" lon="7.39348">
        <ele>2210</ele>
        <time>2018-04-22T08:37:14.000Z</time>
      </trkpt>
      <trkpt lat="44.09804" lon="7.39348">
        <ele>2210</ele>
        <time>2018-04-22T08:37:32.000Z</time>
      </trkpt>
      <trkpt lat="44.09804" lon="7.39348">
        <ele>2210</ele>
        <time>2018-04-22T08:37:52.000Z</time>
      </trkpt>
      <trkpt lat="44.09804" lon="7.39348">
        <ele>2210</ele>
        <time>2018-04-22T08:37:54.000Z</time>
      </trkpt>
      <trkpt lat="44.09804" lon="7.39347">
        <ele>2210</ele>
        <time>2018-04-22T08:38:16.000Z</time>
      </trkpt>
      <trkpt lat="44.09804" lon="7.39347">
        <ele>2210</ele>
        <time>2018-04-22T08:38:32.000Z</time>
      </trkpt>
      <trkpt lat="44.09794" lon="7.39345">
        <ele>2208</ele>
        <time>2018-04-22T08:38:36.000Z</time>
      </trkpt>
      <trkpt lat="44.09791" lon="7.39347">
        <ele>2207</ele>
        <time>2018-04-22T08:38:37.000Z</time>
      </trkpt>
      <trkpt lat="44.0979" lon="7.39351">
        <ele>2207</ele>
        <time>2018-04-22T08:38:38.000Z</time>
      </trkpt>
      <trkpt lat="44.09791" lon="7.39364">
        <ele>2205</ele>
        <time>2018-04-22T08:38:40.000Z</time>
      </trkpt>
      <trkpt lat="44.09787" lon="7.39367">
        <ele>2205</ele>
        <time>2018-04-22T08:38:41.000Z</time>
      </trkpt>
      <trkpt lat="44.09782" lon="7.39365">
        <ele>2204</ele>
        <time>2018-04-22T08:38:42.000Z</time>
      </trkpt>
      <trkpt lat="44.09777" lon="7.39362">
        <ele>2204</ele>
        <time>2018-04-22T08:38:43.000Z</time>
      </trkpt>
      <trkpt lat="44.09774" lon="7.39361">
        <ele>2204</ele>
        <time>2018-04-22T08:38:44.000Z</time>
      </trkpt>
      <trkpt lat="44.09771" lon="7.3936">
        <ele>2204</ele>
        <time>2018-04-22T08:38:45.000Z</time>
      </trkpt>
      <trkpt lat="44.09768" lon="7.39359">
        <ele>2203</ele>
        <time>2018-04-22T08:38:46.000Z</time>
      </trkpt>
      <trkpt lat="44.09765" lon="7.39359">
        <ele>2203</ele>
        <time>2018-04-22T08:38:47.000Z</time>
      </trkpt>
      <trkpt lat="44.09763" lon="7.39359">
        <ele>2203</ele>
        <time>2018-04-22T08:38:48.000Z</time>
      </trkpt>
      <trkpt lat="44.09762" lon="7.39358">
        <ele>2203</ele>
        <time>2018-04-22T08:38:49.000Z</time>
      </trkpt>
      <trkpt lat="44.09762" lon="7.39358">
        <ele>2203</ele>
        <time>2018-04-22T08:38:50.000Z</time>
      </trkpt>
      <trkpt lat="44.09761" lon="7.39358">
        <ele>2203</ele>
        <time>2018-04-22T08:38:53.000Z</time>
      </trkpt>
      <trkpt lat="44.09756" lon="7.39359">
        <ele>2203</ele>
        <time>2018-04-22T08:38:55.000Z</time>
      </trkpt>
      <trkpt lat="44.09754" lon="7.39362">
        <ele>2202</ele>
        <time>2018-04-22T08:38:56.000Z</time>
      </trkpt>
      <trkpt lat="44.09755" lon="7.39367">
        <ele>2202</ele>
        <time>2018-04-22T08:38:57.000Z</time>
      </trkpt>
      <trkpt lat="44.09757" lon="7.3937">
        <ele>2201</ele>
        <time>2018-04-22T08:38:58.000Z</time>
      </trkpt>
      <trkpt lat="44.09761" lon="7.39376">
        <ele>2201</ele>
        <time>2018-04-22T08:39:00.000Z</time>
      </trkpt>
      <trkpt lat="44.09763" lon="7.39379">
        <ele>2200</ele>
        <time>2018-04-22T08:39:01.000Z</time>
      </trkpt>
      <trkpt lat="44.09764" lon="7.39382">
        <ele>2200</ele>
        <time>2018-04-22T08:39:02.000Z</time>
      </trkpt>
      <trkpt lat="44.09764" lon="7.39386">
        <ele>2199</ele>
        <time>2018-04-22T08:39:03.000Z</time>
      </trkpt>
      <trkpt lat="44.09761" lon="7.39388">
        <ele>2198</ele>
        <time>2018-04-22T08:39:04.000Z</time>
      </trkpt>
      <trkpt lat="44.09758" lon="7.39387">
        <ele>2198</ele>
        <time>2018-04-22T08:39:05.000Z</time>
      </trkpt>
      <trkpt lat="44.09752" lon="7.39384">
        <ele>2198</ele>
        <time>2018-04-22T08:39:07.000Z</time>
      </trkpt>
      <trkpt lat="44.09747" lon="7.39382">
        <ele>2184</ele>
        <time>2018-04-22T08:39:09.000Z</time>
      </trkpt>
      <trkpt lat="44.09746" lon="7.39381">
        <ele>2184</ele>
        <time>2018-04-22T08:39:11.000Z</time>
      </trkpt>
      <trkpt lat="44.09745" lon="7.39381">
        <ele>2184</ele>
        <time>2018-04-22T08:39:14.000Z</time>
      </trkpt>
      <trkpt lat="44.09742" lon="7.39379">
        <ele>2184</ele>
        <time>2018-04-22T08:39:17.000Z</time>
      </trkpt>
      <trkpt lat="44.09739" lon="7.39377">
        <ele>2184</ele>
        <time>2018-04-22T08:39:21.000Z</time>
      </trkpt>
      <trkpt lat="44.09739" lon="7.39377">
        <ele>2184</ele>
        <time>2018-04-22T08:39:22.000Z</time>
      </trkpt>
      <trkpt lat="44.09732" lon="7.39372">
        <ele>2184</ele>
        <time>2018-04-22T08:39:25.000Z</time>
      </trkpt>
      <trkpt lat="44.09728" lon="7.39371">
        <ele>2184</ele>
        <time>2018-04-22T08:39:26.000Z</time>
      </trkpt>
      <trkpt lat="44.09718" lon="7.39373">
        <ele>2182</ele>
        <time>2018-04-22T08:39:28.000Z</time>
      </trkpt>
      <trkpt lat="44.09714" lon="7.39374">
        <ele>2181</ele>
        <time>2018-04-22T08:39:29.000Z</time>
      </trkpt>
      <trkpt lat="44.09711" lon="7.39376">
        <ele>2180</ele>
        <time>2018-04-22T08:39:30.000Z</time>
      </trkpt>
      <trkpt lat="44.09709" lon="7.39377">
        <ele>2180</ele>
        <time>2018-04-22T08:39:31.000Z</time>
      </trkpt>
      <trkpt lat="44.09707" lon="7.39379">
        <ele>2179</ele>
        <time>2018-04-22T08:39:33.000Z</time>
      </trkpt>
      <trkpt lat="44.09704" lon="7.3938">
        <ele>2179</ele>
        <time>2018-04-22T08:39:35.000Z</time>
      </trkpt>
      <trkpt lat="44.097" lon="7.39382">
        <ele>2178</ele>
        <time>2018-04-22T08:39:37.000Z</time>
      </trkpt>
      <trkpt lat="44.09694" lon="7.39384">
        <ele>2177</ele>
        <time>2018-04-22T08:39:40.000Z</time>
      </trkpt>
      <trkpt lat="44.09693" lon="7.39385">
        <ele>2177</ele>
        <time>2018-04-22T08:39:41.000Z</time>
      </trkpt>
      <trkpt lat="44.09688" lon="7.39387">
        <ele>2176</ele>
        <time>2018-04-22T08:39:43.000Z</time>
      </trkpt>
      <trkpt lat="44.09683" lon="7.39389">
        <ele>2175</ele>
        <time>2018-04-22T08:39:44.000Z</time>
      </trkpt>
      <trkpt lat="44.09667" lon="7.39394">
        <ele>2173</ele>
        <time>2018-04-22T08:39:47.000Z</time>
      </trkpt>
      <trkpt lat="44.09664" lon="7.39395">
        <ele>2166</ele>
        <time>2018-04-22T08:39:48.000Z</time>
      </trkpt>
      <trkpt lat="44.09662" lon="7.39396">
        <ele>2166</ele>
        <time>2018-04-22T08:39:49.000Z</time>
      </trkpt>
      <trkpt lat="44.09661" lon="7.39397">
        <ele>2166</ele>
        <time>2018-04-22T08:39:50.000Z</time>
      </trkpt>
      <trkpt lat="44.09659" lon="7.39399">
        <ele>2166</ele>
        <time>2018-04-22T08:39:51.000Z</time>
      </trkpt>
      <trkpt lat="44.09655" lon="7.39401">
        <ele>2166</ele>
        <time>2018-04-22T08:39:53.000Z</time>
      </trkpt>
      <trkpt lat="44.09646" lon="7.39405">
        <ele>2166</ele>
        <time>2018-04-22T08:39:57.000Z</time>
      </trkpt>
      <trkpt lat="44.09638" lon="7.39408">
        <ele>2166</ele>
        <time>2018-04-22T08:40:01.000Z</time>
      </trkpt>
      <trkpt lat="44.09634" lon="7.39408">
        <ele>2166</ele>
        <time>2018-04-22T08:40:03.000Z</time>
      </trkpt>
      <trkpt lat="44.09631" lon="7.39407">
        <ele>2166</ele>
        <time>2018-04-22T08:40:04.000Z</time>
      </trkpt>
      <trkpt lat="44.09626" lon="7.39405">
        <ele>2166</ele>
        <time>2018-04-22T08:40:08.000Z</time>
      </trkpt>
      <trkpt lat="44.0962" lon="7.39404">
        <ele>2166</ele>
        <time>2018-04-22T08:40:14.000Z</time>
      </trkpt>
      <trkpt lat="44.09611" lon="7.39403">
        <ele>2166</ele>
        <time>2018-04-22T08:40:17.000Z</time>
      </trkpt>
      <trkpt lat="44.09608" lon="7.39402">
        <ele>2166</ele>
        <time>2018-04-22T08:40:18.000Z</time>
      </trkpt>
      <trkpt lat="44.09601" lon="7.39402">
        <ele>2166</ele>
        <time>2018-04-22T08:40:20.000Z</time>
      </trkpt>
      <trkpt lat="44.09596" lon="7.39404">
        <ele>2166</ele>
        <time>2018-04-22T08:40:22.000Z</time>
      </trkpt>
      <trkpt lat="44.09594" lon="7.39405">
        <ele>2165</ele>
        <time>2018-04-22T08:40:23.000Z</time>
      </trkpt>
      <trkpt lat="44.09586" lon="7.3941">
        <ele>2165</ele>
        <time>2018-04-22T08:40:27.000Z</time>
      </trkpt>
      <trkpt lat="44.09584" lon="7.39411">
        <ele>2165</ele>
        <time>2018-04-22T08:40:28.000Z</time>
      </trkpt>
      <trkpt lat="44.09579" lon="7.39416">
        <ele>2165</ele>
        <time>2018-04-22T08:40:32.000Z</time>
      </trkpt>
      <trkpt lat="44.09578" lon="7.39416">
        <ele>2166</ele>
        <time>2018-04-22T08:40:33.000Z</time>
      </trkpt>
      <trkpt lat="44.09573" lon="7.39421">
        <ele>2159</ele>
        <time>2018-04-22T08:40:38.000Z</time>
      </trkpt>
      <trkpt lat="44.09567" lon="7.39423">
        <ele>2157</ele>
        <time>2018-04-22T08:40:45.000Z</time>
      </trkpt>
      <trkpt lat="44.09566" lon="7.39424">
        <ele>2156</ele>
        <time>2018-04-22T08:40:48.000Z</time>
      </trkpt>
      <trkpt lat="44.09564" lon="7.39424">
        <ele>2156</ele>
        <time>2018-04-22T08:40:50.000Z</time>
      </trkpt>
      <trkpt lat="44.09562" lon="7.39425">
        <ele>2156</ele>
        <time>2018-04-22T08:40:52.000Z</time>
      </trkpt>
      <trkpt lat="44.09559" lon="7.39426">
        <ele>2155</ele>
        <time>2018-04-22T08:40:55.000Z</time>
      </trkpt>
      <trkpt lat="44.09551" lon="7.39428">
        <ele>2154</ele>
        <time>2018-04-22T08:41:00.000Z</time>
      </trkpt>
      <trkpt lat="44.09542" lon="7.3943">
        <ele>2153</ele>
        <time>2018-04-22T08:41:05.000Z</time>
      </trkpt>
      <trkpt lat="44.09533" lon="7.39432">
        <ele>2153</ele>
        <time>2018-04-22T08:41:10.000Z</time>
      </trkpt>
      <trkpt lat="44.09529" lon="7.39434">
        <ele>2153</ele>
        <time>2018-04-22T08:41:12.000Z</time>
      </trkpt>
      <trkpt lat="44.09522" lon="7.39436">
        <ele>2153</ele>
        <time>2018-04-22T08:41:15.000Z</time>
      </trkpt>
      <trkpt lat="44.09517" lon="7.39437">
        <ele>2153</ele>
        <time>2018-04-22T08:41:17.000Z</time>
      </trkpt>
      <trkpt lat="44.09506" lon="7.39441">
        <ele>2153</ele>
        <time>2018-04-22T08:41:20.000Z</time>
      </trkpt>
      <trkpt lat="44.09502" lon="7.39443">
        <ele>2153</ele>
        <time>2018-04-22T08:41:21.000Z</time>
      </trkpt>
      <trkpt lat="44.09488" lon="7.39446">
        <ele>2152</ele>
        <time>2018-04-22T08:41:24.000Z</time>
      </trkpt>
      <trkpt lat="44.09484" lon="7.39447">
        <ele>2152</ele>
        <time>2018-04-22T08:41:25.000Z</time>
      </trkpt>
      <trkpt lat="44.09481" lon="7.39448">
        <ele>2152</ele>
        <time>2018-04-22T08:41:26.000Z</time>
      </trkpt>
      <trkpt lat="44.09478" lon="7.39449">
        <ele>2151</ele>
        <time>2018-04-22T08:41:28.000Z</time>
      </trkpt>
      <trkpt lat="44.09476" lon="7.39449">
        <ele>2151</ele>
        <time>2018-04-22T08:41:29.000Z</time>
      </trkpt>
      <trkpt lat="44.0947" lon="7.39452">
        <ele>2151</ele>
        <time>2018-04-22T08:41:33.000Z</time>
      </trkpt>
      <trkpt lat="44.09468" lon="7.39454">
        <ele>2150</ele>
        <time>2018-04-22T08:41:36.000Z</time>
      </trkpt>
      <trkpt lat="44.09467" lon="7.39455">
        <ele>2150</ele>
        <time>2018-04-22T08:41:38.000Z</time>
      </trkpt>
      <trkpt lat="44.0946" lon="7.39458">
        <ele>2149</ele>
        <time>2018-04-22T08:41:44.000Z</time>
      </trkpt>
      <trkpt lat="44.09459" lon="7.39459">
        <ele>2149</ele>
        <time>2018-04-22T08:41:45.000Z</time>
      </trkpt>
      <trkpt lat="44.09458" lon="7.39459">
        <ele>2149</ele>
        <time>2018-04-22T08:41:46.000Z</time>
      </trkpt>
      <trkpt lat="44.09455" lon="7.3946">
        <ele>2149</ele>
        <time>2018-04-22T08:41:49.000Z</time>
      </trkpt>
      <trkpt lat="44.09447" lon="7.39463">
        <ele>2149</ele>
        <time>2018-04-22T08:41:55.000Z</time>
      </trkpt>
      <trkpt lat="44.09439" lon="7.39467">
        <ele>2148</ele>
        <time>2018-04-22T08:41:59.000Z</time>
      </trkpt>
      <trkpt lat="44.09434" lon="7.39469">
        <ele>2147</ele>
        <time>2018-04-22T08:42:01.000Z</time>
      </trkpt>
      <trkpt lat="44.09431" lon="7.39469">
        <ele>2147</ele>
        <time>2018-04-22T08:42:03.000Z</time>
      </trkpt>
      <trkpt lat="44.09422" lon="7.3947">
        <ele>2147</ele>
        <time>2018-04-22T08:42:07.000Z</time>
      </trkpt>
      <trkpt lat="44.09417" lon="7.39471">
        <ele>2146</ele>
        <time>2018-04-22T08:42:09.000Z</time>
      </trkpt>
      <trkpt lat="44.09408" lon="7.39475">
        <ele>2147</ele>
        <time>2018-04-22T08:42:13.000Z</time>
      </trkpt>
      <trkpt lat="44.09403" lon="7.39477">
        <ele>2147</ele>
        <time>2018-04-22T08:42:15.000Z</time>
      </trkpt>
      <trkpt lat="44.09393" lon="7.39479">
        <ele>2148</ele>
        <time>2018-04-22T08:42:19.000Z</time>
      </trkpt>
      <trkpt lat="44.09383" lon="7.39485">
        <ele>2148</ele>
        <time>2018-04-22T08:42:23.000Z</time>
      </trkpt>
      <trkpt lat="44.09379" lon="7.39487">
        <ele>2148</ele>
        <time>2018-04-22T08:42:25.000Z</time>
      </trkpt>
      <trkpt lat="44.09376" lon="7.39488">
        <ele>2148</ele>
        <time>2018-04-22T08:42:26.000Z</time>
      </trkpt>
      <trkpt lat="44.09367" lon="7.39489">
        <ele>2148</ele>
        <time>2018-04-22T08:42:30.000Z</time>
      </trkpt>
      <trkpt lat="44.09365" lon="7.39489">
        <ele>2148</ele>
        <time>2018-04-22T08:42:31.000Z</time>
      </trkpt>
      <trkpt lat="44.09356" lon="7.39488">
        <ele>2147</ele>
        <time>2018-04-22T08:42:35.000Z</time>
      </trkpt>
      <trkpt lat="44.09351" lon="7.39488">
        <ele>2146</ele>
        <time>2018-04-22T08:42:37.000Z</time>
      </trkpt>
      <trkpt lat="44.0934" lon="7.39488">
        <ele>2145</ele>
        <time>2018-04-22T08:42:41.000Z</time>
      </trkpt>
      <trkpt lat="44.09325" lon="7.39489">
        <ele>2149</ele>
        <time>2018-04-22T08:42:45.000Z</time>
      </trkpt>
      <trkpt lat="44.09321" lon="7.39491">
        <ele>2149</ele>
        <time>2018-04-22T08:42:46.000Z</time>
      </trkpt>
      <trkpt lat="44.09317" lon="7.39496">
        <ele>2150</ele>
        <time>2018-04-22T08:42:48.000Z</time>
      </trkpt>
      <trkpt lat="44.09316" lon="7.39498">
        <ele>2150</ele>
        <time>2018-04-22T08:42:49.000Z</time>
      </trkpt>
      <trkpt lat="44.09313" lon="7.39502">
        <ele>2135</ele>
        <time>2018-04-22T08:42:51.000Z</time>
      </trkpt>
      <trkpt lat="44.09309" lon="7.39509">
        <ele>2134</ele>
        <time>2018-04-22T08:42:55.000Z</time>
      </trkpt>
      <trkpt lat="44.09303" lon="7.39517">
        <ele>2133</ele>
        <time>2018-04-22T08:42:59.000Z</time>
      </trkpt>
      <trkpt lat="44.093" lon="7.39522">
        <ele>2133</ele>
        <time>2018-04-22T08:43:01.000Z</time>
      </trkpt>
      <trkpt lat="44.09293" lon="7.3953">
        <ele>2132</ele>
        <time>2018-04-22T08:43:05.000Z</time>
      </trkpt>
      <trkpt lat="44.09288" lon="7.39535">
        <ele>2132</ele>
        <time>2018-04-22T08:43:07.000Z</time>
      </trkpt>
      <trkpt lat="44.09283" lon="7.39539">
        <ele>2132</ele>
        <time>2018-04-22T08:43:09.000Z</time>
      </trkpt>
      <trkpt lat="44.09277" lon="7.39546">
        <ele>2131</ele>
        <time>2018-04-22T08:43:13.000Z</time>
      </trkpt>
      <trkpt lat="44.0927" lon="7.39553">
        <ele>2130</ele>
        <time>2018-04-22T08:43:17.000Z</time>
      </trkpt>
      <trkpt lat="44.09266" lon="7.39558">
        <ele>2129</ele>
        <time>2018-04-22T08:43:19.000Z</time>
      </trkpt>
      <trkpt lat="44.09256" lon="7.39569">
        <ele>2127</ele>
        <time>2018-04-22T08:43:23.000Z</time>
      </trkpt>
      <trkpt lat="44.09253" lon="7.39573">
        <ele>2127</ele>
        <time>2018-04-22T08:43:24.000Z</time>
      </trkpt>
      <trkpt lat="44.09245" lon="7.39586">
        <ele>2121</ele>
        <time>2018-04-22T08:43:27.000Z</time>
      </trkpt>
      <trkpt lat="44.09242" lon="7.3959">
        <ele>2120</ele>
        <time>2018-04-22T08:43:29.000Z</time>
      </trkpt>
      <trkpt lat="44.09241" lon="7.39591">
        <ele>2119</ele>
        <time>2018-04-22T08:43:33.000Z</time>
      </trkpt>
      <trkpt lat="44.09241" lon="7.39591">
        <ele>2119</ele>
        <time>2018-04-22T08:43:41.000Z</time>
      </trkpt>
      <trkpt lat="44.09242" lon="7.39589">
        <ele>2120</ele>
        <time>2018-04-22T08:43:49.000Z</time>
      </trkpt>
      <trkpt lat="44.09242" lon="7.39589">
        <ele>2120</ele>
        <time>2018-04-22T08:43:58.000Z</time>
      </trkpt>
      <trkpt lat="44.09243" lon="7.39588">
        <ele>2120</ele>
        <time>2018-04-22T08:44:06.000Z</time>
      </trkpt>
      <trkpt lat="44.09242" lon="7.39588">
        <ele>2120</ele>
        <time>2018-04-22T08:44:13.000Z</time>
      </trkpt>
      <trkpt lat="44.09242" lon="7.39588">
        <ele>2120</ele>
        <time>2018-04-22T08:44:20.000Z</time>
      </trkpt>
      <trkpt lat="44.09242" lon="7.39588">
        <ele>2120</ele>
        <time>2018-04-22T08:44:31.000Z</time>
      </trkpt>
      <trkpt lat="44.09242" lon="7.39588">
        <ele>2120</ele>
        <time>2018-04-22T08:44:40.000Z</time>
      </trkpt>
      <trkpt lat="44.09242" lon="7.39588">
        <ele>2120</ele>
        <time>2018-04-22T08:44:47.000Z</time>
      </trkpt>
      <trkpt lat="44.09243" lon="7.39587">
        <ele>2120</ele>
        <time>2018-04-22T08:44:53.000Z</time>
      </trkpt>
      <trkpt lat="44.09243" lon="7.39586">
        <ele>2121</ele>
        <time>2018-04-22T08:44:58.000Z</time>
      </trkpt>
      <trkpt lat="44.09243" lon="7.39586">
        <ele>2120</ele>
        <time>2018-04-22T08:45:04.000Z</time>
      </trkpt>
      <trkpt lat="44.09243" lon="7.39585">
        <ele>2121</ele>
        <time>2018-04-22T08:45:13.000Z</time>
      </trkpt>
      <trkpt lat="44.09243" lon="7.39584">
        <ele>2121</ele>
        <time>2018-04-22T08:45:29.000Z</time>
      </trkpt>
      <trkpt lat="44.09243" lon="7.39584">
        <ele>2121</ele>
        <time>2018-04-22T08:45:45.000Z</time>
      </trkpt>
      <trkpt lat="44.09244" lon="7.39584">
        <ele>2121</ele>
        <time>2018-04-22T08:46:03.000Z</time>
      </trkpt>
      <trkpt lat="44.09244" lon="7.39585">
        <ele>2121</ele>
        <time>2018-04-22T08:46:13.000Z</time>
      </trkpt>
      <trkpt lat="44.09244" lon="7.39584">
        <ele>2121</ele>
        <time>2018-04-22T08:46:25.000Z</time>
      </trkpt>
      <trkpt lat="44.09244" lon="7.39585">
        <ele>2121</ele>
        <time>2018-04-22T08:46:35.000Z</time>
      </trkpt>
      <trkpt lat="44.09245" lon="7.39585">
        <ele>2121</ele>
        <time>2018-04-22T08:46:44.000Z</time>
      </trkpt>
      <trkpt lat="44.09245" lon="7.39585">
        <ele>2121</ele>
        <time>2018-04-22T08:46:54.000Z</time>
      </trkpt>
      <trkpt lat="44.09245" lon="7.39585">
        <ele>2121</ele>
        <time>2018-04-22T08:47:00.000Z</time>
      </trkpt>
      <trkpt lat="44.09245" lon="7.39585">
        <ele>2121</ele>
        <time>2018-04-22T08:47:08.000Z</time>
      </trkpt>
      <trkpt lat="44.09245" lon="7.39585">
        <ele>2122</ele>
        <time>2018-04-22T08:47:20.000Z</time>
      </trkpt>
      <trkpt lat="44.09245" lon="7.39585">
        <ele>2122</ele>
        <time>2018-04-22T08:47:44.000Z</time>
      </trkpt>
      <trkpt lat="44.09245" lon="7.39585">
        <ele>2122</ele>
        <time>2018-04-22T08:48:02.000Z</time>
      </trkpt>
      <trkpt lat="44.09245" lon="7.39585">
        <ele>2122</ele>
        <time>2018-04-22T08:48:14.000Z</time>
      </trkpt>
      <trkpt lat="44.09241" lon="7.39586">
        <ele>2120</ele>
        <time>2018-04-22T08:48:21.000Z</time>
      </trkpt>
      <trkpt lat="44.09227" lon="7.39598">
        <ele>2116</ele>
        <time>2018-04-22T08:48:26.000Z</time>
      </trkpt>
      <trkpt lat="44.09219" lon="7.39607">
        <ele>2114</ele>
        <time>2018-04-22T08:48:28.000Z</time>
      </trkpt>
      <trkpt lat="44.09208" lon="7.39615">
        <ele>2112</ele>
        <time>2018-04-22T08:48:30.000Z</time>
      </trkpt>
      <trkpt lat="44.09202" lon="7.39617">
        <ele>2112</ele>
        <time>2018-04-22T08:48:31.000Z</time>
      </trkpt>
      <trkpt lat="44.09197" lon="7.39619">
        <ele>2112</ele>
        <time>2018-04-22T08:48:32.000Z</time>
      </trkpt>
      <trkpt lat="44.09187" lon="7.39624">
        <ele>2111</ele>
        <time>2018-04-22T08:48:34.000Z</time>
      </trkpt>
      <trkpt lat="44.09183" lon="7.39629">
        <ele>2110</ele>
        <time>2018-04-22T08:48:35.000Z</time>
      </trkpt>
      <trkpt lat="44.0918" lon="7.39636">
        <ele>2109</ele>
        <time>2018-04-22T08:48:36.000Z</time>
      </trkpt>
      <trkpt lat="44.09176" lon="7.39642">
        <ele>2108</ele>
        <time>2018-04-22T08:48:37.000Z</time>
      </trkpt>
      <trkpt lat="44.09172" lon="7.39647">
        <ele>2106</ele>
        <time>2018-04-22T08:48:38.000Z</time>
      </trkpt>
      <trkpt lat="44.09166" lon="7.39653">
        <ele>2110</ele>
        <time>2018-04-22T08:48:39.000Z</time>
      </trkpt>
      <trkpt lat="44.09161" lon="7.39658">
        <ele>2108</ele>
        <time>2018-04-22T08:48:40.000Z</time>
      </trkpt>
      <trkpt lat="44.09155" lon="7.39662">
        <ele>2109</ele>
        <time>2018-04-22T08:48:41.000Z</time>
      </trkpt>
      <trkpt lat="44.0915" lon="7.39668">
        <ele>2097</ele>
        <time>2018-04-22T08:48:42.000Z</time>
      </trkpt>
      <trkpt lat="44.09145" lon="7.39673">
        <ele>2097</ele>
        <time>2018-04-22T08:48:43.000Z</time>
      </trkpt>
      <trkpt lat="44.09139" lon="7.39675">
        <ele>2097</ele>
        <time>2018-04-22T08:48:44.000Z</time>
      </trkpt>
      <trkpt lat="44.09135" lon="7.3968">
        <ele>2097</ele>
        <time>2018-04-22T08:48:45.000Z</time>
      </trkpt>
      <trkpt lat="44.0913" lon="7.39683">
        <ele>2097</ele>
        <time>2018-04-22T08:48:46.000Z</time>
      </trkpt>
      <trkpt lat="44.09128" lon="7.39689">
        <ele>2096</ele>
        <time>2018-04-22T08:48:47.000Z</time>
      </trkpt>
      <trkpt lat="44.09128" lon="7.39692">
        <ele>2096</ele>
        <time>2018-04-22T08:48:48.000Z</time>
      </trkpt>
      <trkpt lat="44.09129" lon="7.39695">
        <ele>2095</ele>
        <time>2018-04-22T08:48:49.000Z</time>
      </trkpt>
      <trkpt lat="44.09129" lon="7.39696">
        <ele>2095</ele>
        <time>2018-04-22T08:48:50.000Z</time>
      </trkpt>
      <trkpt lat="44.09129" lon="7.39696">
        <ele>2095</ele>
        <time>2018-04-22T08:48:51.000Z</time>
      </trkpt>
      <trkpt lat="44.09129" lon="7.39696">
        <ele>2095</ele>
        <time>2018-04-22T08:48:52.000Z</time>
      </trkpt>
      <trkpt lat="44.09129" lon="7.39696">
        <ele>2095</ele>
        <time>2018-04-22T08:48:54.000Z</time>
      </trkpt>
      <trkpt lat="44.09129" lon="7.39697">
        <ele>2095</ele>
        <time>2018-04-22T08:49:02.000Z</time>
      </trkpt>
      <trkpt lat="44.09124" lon="7.39702">
        <ele>2095</ele>
        <time>2018-04-22T08:49:04.000Z</time>
      </trkpt>
      <trkpt lat="44.09114" lon="7.39699">
        <ele>2096</ele>
        <time>2018-04-22T08:49:06.000Z</time>
      </trkpt>
      <trkpt lat="44.09108" lon="7.39696">
        <ele>2097</ele>
        <time>2018-04-22T08:49:07.000Z</time>
      </trkpt>
      <trkpt lat="44.09104" lon="7.39696">
        <ele>2098</ele>
        <time>2018-04-22T08:49:08.000Z</time>
      </trkpt>
      <trkpt lat="44.091" lon="7.39697">
        <ele>2098</ele>
        <time>2018-04-22T08:49:09.000Z</time>
      </trkpt>
      <trkpt lat="44.09097" lon="7.397">
        <ele>2098</ele>
        <time>2018-04-22T08:49:10.000Z</time>
      </trkpt>
      <trkpt lat="44.09094" lon="7.39703">
        <ele>2097</ele>
        <time>2018-04-22T08:49:11.000Z</time>
      </trkpt>
      <trkpt lat="44.09093" lon="7.39707">
        <ele>2097</ele>
        <time>2018-04-22T08:49:12.000Z</time>
      </trkpt>
      <trkpt lat="44.09092" lon="7.3971">
        <ele>2096</ele>
        <time>2018-04-22T08:49:13.000Z</time>
      </trkpt>
      <trkpt lat="44.09091" lon="7.39714">
        <ele>2095</ele>
        <time>2018-04-22T08:49:14.000Z</time>
      </trkpt>
      <trkpt lat="44.0909" lon="7.3972">
        <ele>2094</ele>
        <time>2018-04-22T08:49:16.000Z</time>
      </trkpt>
      <trkpt lat="44.09092" lon="7.39727">
        <ele>2093</ele>
        <time>2018-04-22T08:49:17.000Z</time>
      </trkpt>
      <trkpt lat="44.09101" lon="7.39735">
        <ele>2091</ele>
        <time>2018-04-22T08:49:19.000Z</time>
      </trkpt>
      <trkpt lat="44.091" lon="7.3974">
        <ele>2091</ele>
        <time>2018-04-22T08:49:20.000Z</time>
      </trkpt>
      <trkpt lat="44.09097" lon="7.39747">
        <ele>2090</ele>
        <time>2018-04-22T08:49:21.000Z</time>
      </trkpt>
      <trkpt lat="44.09093" lon="7.39752">
        <ele>2079</ele>
        <time>2018-04-22T08:49:22.000Z</time>
      </trkpt>
      <trkpt lat="44.09089" lon="7.39757">
        <ele>2080</ele>
        <time>2018-04-22T08:49:23.000Z</time>
      </trkpt>
      <trkpt lat="44.09086" lon="7.39763">
        <ele>2077</ele>
        <time>2018-04-22T08:49:24.000Z</time>
      </trkpt>
      <trkpt lat="44.09085" lon="7.39768">
        <ele>2074</ele>
        <time>2018-04-22T08:49:25.000Z</time>
      </trkpt>
      <trkpt lat="44.09085" lon="7.39774">
        <ele>2070</ele>
        <time>2018-04-22T08:49:26.000Z</time>
      </trkpt>
      <trkpt lat="44.0909" lon="7.3978">
        <ele>2067</ele>
        <time>2018-04-22T08:49:27.000Z</time>
      </trkpt>
      <trkpt lat="44.09097" lon="7.39781">
        <ele>2066</ele>
        <time>2018-04-22T08:49:28.000Z</time>
      </trkpt>
      <trkpt lat="44.09102" lon="7.39784">
        <ele>2064</ele>
        <time>2018-04-22T08:49:29.000Z</time>
      </trkpt>
      <trkpt lat="44.09103" lon="7.3979">
        <ele>2062</ele>
        <time>2018-04-22T08:49:30.000Z</time>
      </trkpt>
      <trkpt lat="44.09102" lon="7.39796">
        <ele>2060</ele>
        <time>2018-04-22T08:49:31.000Z</time>
      </trkpt>
      <trkpt lat="44.09102" lon="7.39803">
        <ele>2058</ele>
        <time>2018-04-22T08:49:32.000Z</time>
      </trkpt>
      <trkpt lat="44.09101" lon="7.39811">
        <ele>2056</ele>
        <time>2018-04-22T08:49:33.000Z</time>
      </trkpt>
      <trkpt lat="44.09102" lon="7.39818">
        <ele>2054</ele>
        <time>2018-04-22T08:49:34.000Z</time>
      </trkpt>
      <trkpt lat="44.09101" lon="7.39824">
        <ele>2053</ele>
        <time>2018-04-22T08:49:35.000Z</time>
      </trkpt>
      <trkpt lat="44.09101" lon="7.3983">
        <ele>2052</ele>
        <time>2018-04-22T08:49:36.000Z</time>
      </trkpt>
      <trkpt lat="44.09101" lon="7.39836">
        <ele>2038</ele>
        <time>2018-04-22T08:49:37.000Z</time>
      </trkpt>
      <trkpt lat="44.09102" lon="7.39843">
        <ele>2038</ele>
        <time>2018-04-22T08:49:38.000Z</time>
      </trkpt>
      <trkpt lat="44.09104" lon="7.39849">
        <ele>2036</ele>
        <time>2018-04-22T08:49:39.000Z</time>
      </trkpt>
      <trkpt lat="44.09107" lon="7.39854">
        <ele>2035</ele>
        <time>2018-04-22T08:49:40.000Z</time>
      </trkpt>
      <trkpt lat="44.09105" lon="7.39861">
        <ele>2034</ele>
        <time>2018-04-22T08:49:41.000Z</time>
      </trkpt>
      <trkpt lat="44.09102" lon="7.39865">
        <ele>2034</ele>
        <time>2018-04-22T08:49:42.000Z</time>
      </trkpt>
      <trkpt lat="44.09098" lon="7.39869">
        <ele>2033</ele>
        <time>2018-04-22T08:49:43.000Z</time>
      </trkpt>
      <trkpt lat="44.09094" lon="7.39872">
        <ele>2032</ele>
        <time>2018-04-22T08:49:44.000Z</time>
      </trkpt>
      <trkpt lat="44.0909" lon="7.39876">
        <ele>2032</ele>
        <time>2018-04-22T08:49:45.000Z</time>
      </trkpt>
      <trkpt lat="44.09087" lon="7.39882">
        <ele>2030</ele>
        <time>2018-04-22T08:49:46.000Z</time>
      </trkpt>
      <trkpt lat="44.09084" lon="7.39889">
        <ele>2029</ele>
        <time>2018-04-22T08:49:47.000Z</time>
      </trkpt>
      <trkpt lat="44.09081" lon="7.39896">
        <ele>2032</ele>
        <time>2018-04-22T08:49:48.000Z</time>
      </trkpt>
      <trkpt lat="44.09077" lon="7.39904">
        <ele>2029</ele>
        <time>2018-04-22T08:49:49.000Z</time>
      </trkpt>
      <trkpt lat="44.09063" lon="7.39921">
        <ele>2021</ele>
        <time>2018-04-22T08:49:52.000Z</time>
      </trkpt>
      <trkpt lat="44.09061" lon="7.39924">
        <ele>2021</ele>
        <time>2018-04-22T08:49:53.000Z</time>
      </trkpt>
      <trkpt lat="44.09052" lon="7.39935">
        <ele>2022</ele>
        <time>2018-04-22T08:49:54.000Z</time>
      </trkpt>
      <trkpt lat="44.09046" lon="7.39942">
        <ele>2022</ele>
        <time>2018-04-22T08:49:55.000Z</time>
      </trkpt>
      <trkpt lat="44.09041" lon="7.39947">
        <ele>2022</ele>
        <time>2018-04-22T08:49:56.000Z</time>
      </trkpt>
      <trkpt lat="44.09039" lon="7.3995">
        <ele>2022</ele>
        <time>2018-04-22T08:49:57.000Z</time>
      </trkpt>
      <trkpt lat="44.09038" lon="7.39951">
        <ele>2022</ele>
        <time>2018-04-22T08:49:58.000Z</time>
      </trkpt>
      <trkpt lat="44.09038" lon="7.3995">
        <ele>2022</ele>
        <time>2018-04-22T08:50:00.000Z</time>
      </trkpt>
      <trkpt lat="44.09036" lon="7.39949">
        <ele>2023</ele>
        <time>2018-04-22T08:50:05.000Z</time>
      </trkpt>
      <trkpt lat="44.09034" lon="7.3995">
        <ele>2023</ele>
        <time>2018-04-22T08:50:10.000Z</time>
      </trkpt>
      <trkpt lat="44.09033" lon="7.3995">
        <ele>2023</ele>
        <time>2018-04-22T08:50:12.000Z</time>
      </trkpt>
      <trkpt lat="44.09032" lon="7.39951">
        <ele>2023</ele>
        <time>2018-04-22T08:50:16.000Z</time>
      </trkpt>
      <trkpt lat="44.0903" lon="7.39954">
        <ele>2022</ele>
        <time>2018-04-22T08:50:23.000Z</time>
      </trkpt>
      <trkpt lat="44.09029" lon="7.39956">
        <ele>2022</ele>
        <time>2018-04-22T08:50:28.000Z</time>
      </trkpt>
      <trkpt lat="44.09028" lon="7.39956">
        <ele>2022</ele>
        <time>2018-04-22T08:50:30.000Z</time>
      </trkpt>
      <trkpt lat="44.09026" lon="7.39957">
        <ele>2022</ele>
        <time>2018-04-22T08:50:33.000Z</time>
      </trkpt>
      <trkpt lat="44.09026" lon="7.39958">
        <ele>2022</ele>
        <time>2018-04-22T08:50:37.000Z</time>
      </trkpt>
      <trkpt lat="44.09025" lon="7.39958">
        <ele>2022</ele>
        <time>2018-04-22T08:50:40.000Z</time>
      </trkpt>
      <trkpt lat="44.09026" lon="7.39957">
        <ele>2022</ele>
        <time>2018-04-22T08:50:46.000Z</time>
      </trkpt>
      <trkpt lat="44.09026" lon="7.39957">
        <ele>2022</ele>
        <time>2018-04-22T08:50:52.000Z</time>
      </trkpt>
      <trkpt lat="44.09026" lon="7.39956">
        <ele>2022</ele>
        <time>2018-04-22T08:51:12.000Z</time>
      </trkpt>
      <trkpt lat="44.09026" lon="7.39955">
        <ele>2022</ele>
        <time>2018-04-22T08:51:23.000Z</time>
      </trkpt>
      <trkpt lat="44.09024" lon="7.39956">
        <ele>2022</ele>
        <time>2018-04-22T08:51:26.000Z</time>
      </trkpt>
      <trkpt lat="44.09023" lon="7.39956">
        <ele>2022</ele>
        <time>2018-04-22T08:51:29.000Z</time>
      </trkpt>
      <trkpt lat="44.09023" lon="7.39956">
        <ele>2022</ele>
        <time>2018-04-22T08:51:43.000Z</time>
      </trkpt>
      <trkpt lat="44.09017" lon="7.39958">
        <ele>2022</ele>
        <time>2018-04-22T08:51:48.000Z</time>
      </trkpt>
      <trkpt lat="44.09007" lon="7.3996">
        <ele>2022</ele>
        <time>2018-04-22T08:51:51.000Z</time>
      </trkpt>
      <trkpt lat="44.09" lon="7.39962">
        <ele>2021</ele>
        <time>2018-04-22T08:51:53.000Z</time>
      </trkpt>
      <trkpt lat="44.08998" lon="7.39963">
        <ele>2018</ele>
        <time>2018-04-22T08:51:54.000Z</time>
      </trkpt>
      <trkpt lat="44.08989" lon="7.39967">
        <ele>2017</ele>
        <time>2018-04-22T08:51:57.000Z</time>
      </trkpt>
      <trkpt lat="44.08986" lon="7.39968">
        <ele>2017</ele>
        <time>2018-04-22T08:51:58.000Z</time>
      </trkpt>
      <trkpt lat="44.08972" lon="7.39974">
        <ele>2015</ele>
        <time>2018-04-22T08:52:04.000Z</time>
      </trkpt>
      <trkpt lat="44.08959" lon="7.39975">
        <ele>2014</ele>
        <time>2018-04-22T08:52:09.000Z</time>
      </trkpt>
      <trkpt lat="44.08956" lon="7.39975">
        <ele>2014</ele>
        <time>2018-04-22T08:52:10.000Z</time>
      </trkpt>
      <trkpt lat="44.08946" lon="7.39975">
        <ele>2013</ele>
        <time>2018-04-22T08:52:13.000Z</time>
      </trkpt>
      <trkpt lat="44.08935" lon="7.39975">
        <ele>2012</ele>
        <time>2018-04-22T08:52:16.000Z</time>
      </trkpt>
      <trkpt lat="44.08932" lon="7.39975">
        <ele>2011</ele>
        <time>2018-04-22T08:52:17.000Z</time>
      </trkpt>
      <trkpt lat="44.08924" lon="7.39972">
        <ele>2011</ele>
        <time>2018-04-22T08:52:20.000Z</time>
      </trkpt>
      <trkpt lat="44.08923" lon="7.39972">
        <ele>2011</ele>
        <time>2018-04-22T08:52:21.000Z</time>
      </trkpt>
      <trkpt lat="44.08924" lon="7.39972">
        <ele>2011</ele>
        <time>2018-04-22T08:52:26.000Z</time>
      </trkpt>
      <trkpt lat="44.08924" lon="7.39972">
        <ele>2011</ele>
        <time>2018-04-22T08:52:38.000Z</time>
      </trkpt>
      <trkpt lat="44.08924" lon="7.39972">
        <ele>2011</ele>
        <time>2018-04-22T08:52:42.000Z</time>
      </trkpt>
      <trkpt lat="44.08924" lon="7.39971">
        <ele>2011</ele>
        <time>2018-04-22T08:53:04.000Z</time>
      </trkpt>
      <trkpt lat="44.08923" lon="7.39971">
        <ele>2011</ele>
        <time>2018-04-22T08:53:18.000Z</time>
      </trkpt>
      <trkpt lat="44.08922" lon="7.39971">
        <ele>2011</ele>
        <time>2018-04-22T08:53:34.000Z</time>
      </trkpt>
      <trkpt lat="44.08918" lon="7.39969">
        <ele>2012</ele>
        <time>2018-04-22T08:53:48.000Z</time>
      </trkpt>
      <trkpt lat="44.08908" lon="7.3997">
        <ele>2004</ele>
        <time>2018-04-22T08:53:53.000Z</time>
      </trkpt>
      <trkpt lat="44.089" lon="7.39969">
        <ele>2005</ele>
        <time>2018-04-22T08:53:55.000Z</time>
      </trkpt>
      <trkpt lat="44.08891" lon="7.39967">
        <ele>2005</ele>
        <time>2018-04-22T08:53:57.000Z</time>
      </trkpt>
      <trkpt lat="44.08886" lon="7.39966">
        <ele>2005</ele>
        <time>2018-04-22T08:53:58.000Z</time>
      </trkpt>
      <trkpt lat="44.08881" lon="7.39964">
        <ele>2004</ele>
        <time>2018-04-22T08:53:59.000Z</time>
      </trkpt>
      <trkpt lat="44.08871" lon="7.39963">
        <ele>2004</ele>
        <time>2018-04-22T08:54:01.000Z</time>
      </trkpt>
      <trkpt lat="44.08866" lon="7.39963">
        <ele>2004</ele>
        <time>2018-04-22T08:54:02.000Z</time>
      </trkpt>
      <trkpt lat="44.08863" lon="7.39963">
        <ele>2003</ele>
        <time>2018-04-22T08:54:03.000Z</time>
      </trkpt>
      <trkpt lat="44.0886" lon="7.39964">
        <ele>2003</ele>
        <time>2018-04-22T08:54:04.000Z</time>
      </trkpt>
      <trkpt lat="44.08852" lon="7.39966">
        <ele>2002</ele>
        <time>2018-04-22T08:54:06.000Z</time>
      </trkpt>
      <trkpt lat="44.0885" lon="7.39968">
        <ele>2002</ele>
        <time>2018-04-22T08:54:07.000Z</time>
      </trkpt>
      <trkpt lat="44.08849" lon="7.39969">
        <ele>2001</ele>
        <time>2018-04-22T08:54:08.000Z</time>
      </trkpt>
      <trkpt lat="44.08842" lon="7.39973">
        <ele>2000</ele>
        <time>2018-04-22T08:54:11.000Z</time>
      </trkpt>
      <trkpt lat="44.08833" lon="7.39978">
        <ele>1990</ele>
        <time>2018-04-22T08:54:14.000Z</time>
      </trkpt>
      <trkpt lat="44.08828" lon="7.39981">
        <ele>1989</ele>
        <time>2018-04-22T08:54:16.000Z</time>
      </trkpt>
      <trkpt lat="44.08822" lon="7.39983">
        <ele>1989</ele>
        <time>2018-04-22T08:54:18.000Z</time>
      </trkpt>
      <trkpt lat="44.0882" lon="7.39983">
        <ele>1989</ele>
        <time>2018-04-22T08:54:19.000Z</time>
      </trkpt>
      <trkpt lat="44.08813" lon="7.39982">
        <ele>1989</ele>
        <time>2018-04-22T08:54:22.000Z</time>
      </trkpt>
      <trkpt lat="44.08812" lon="7.39982">
        <ele>1989</ele>
        <time>2018-04-22T08:54:23.000Z</time>
      </trkpt>
      <trkpt lat="44.08812" lon="7.39982">
        <ele>1989</ele>
        <time>2018-04-22T08:54:26.000Z</time>
      </trkpt>
      <trkpt lat="44.08811" lon="7.39983">
        <ele>1989</ele>
        <time>2018-04-22T08:54:27.000Z</time>
      </trkpt>
      <trkpt lat="44.08813" lon="7.39998">
        <ele>1988</ele>
        <time>2018-04-22T08:54:30.000Z</time>
      </trkpt>
      <trkpt lat="44.08812" lon="7.40004">
        <ele>1975</ele>
        <time>2018-04-22T08:54:31.000Z</time>
      </trkpt>
      <trkpt lat="44.08809" lon="7.40005">
        <ele>1974</ele>
        <time>2018-04-22T08:54:32.000Z</time>
      </trkpt>
      <trkpt lat="44.08805" lon="7.40004">
        <ele>1973</ele>
        <time>2018-04-22T08:54:33.000Z</time>
      </trkpt>
      <trkpt lat="44.08801" lon="7.40003">
        <ele>1971</ele>
        <time>2018-04-22T08:54:34.000Z</time>
      </trkpt>
      <trkpt lat="44.08797" lon="7.40001">
        <ele>1970</ele>
        <time>2018-04-22T08:54:35.000Z</time>
      </trkpt>
      <trkpt lat="44.08792" lon="7.4">
        <ele>1985</ele>
        <time>2018-04-22T08:54:36.000Z</time>
      </trkpt>
      <trkpt lat="44.08788" lon="7.39999">
        <ele>1984</ele>
        <time>2018-04-22T08:54:37.000Z</time>
      </trkpt>
      <trkpt lat="44.08785" lon="7.39999">
        <ele>1983</ele>
        <time>2018-04-22T08:54:38.000Z</time>
      </trkpt>
      <trkpt lat="44.08784" lon="7.40004">
        <ele>1968</ele>
        <time>2018-04-22T08:54:39.000Z</time>
      </trkpt>
      <trkpt lat="44.08781" lon="7.4001">
        <ele>1967</ele>
        <time>2018-04-22T08:54:40.000Z</time>
      </trkpt>
      <trkpt lat="44.08777" lon="7.40009">
        <ele>1966</ele>
        <time>2018-04-22T08:54:41.000Z</time>
      </trkpt>
      <trkpt lat="44.08774" lon="7.40007">
        <ele>1966</ele>
        <time>2018-04-22T08:54:42.000Z</time>
      </trkpt>
      <trkpt lat="44.08771" lon="7.40006">
        <ele>1966</ele>
        <time>2018-04-22T08:54:43.000Z</time>
      </trkpt>
      <trkpt lat="44.08769" lon="7.40005">
        <ele>1966</ele>
        <time>2018-04-22T08:54:44.000Z</time>
      </trkpt>
      <trkpt lat="44.0877" lon="7.40005">
        <ele>1966</ele>
        <time>2018-04-22T08:54:45.000Z</time>
      </trkpt>
      <trkpt lat="44.0877" lon="7.40005">
        <ele>1966</ele>
        <time>2018-04-22T08:54:46.000Z</time>
      </trkpt>
      <trkpt lat="44.0877" lon="7.40005">
        <ele>1966</ele>
        <time>2018-04-22T08:54:48.000Z</time>
      </trkpt>
      <trkpt lat="44.08768" lon="7.40005">
        <ele>1965</ele>
        <time>2018-04-22T08:54:56.000Z</time>
      </trkpt>
      <trkpt lat="44.08758" lon="7.40001">
        <ele>1965</ele>
        <time>2018-04-22T08:54:59.000Z</time>
      </trkpt>
      <trkpt lat="44.08754" lon="7.40012">
        <ele>1964</ele>
        <time>2018-04-22T08:55:02.000Z</time>
      </trkpt>
      <trkpt lat="44.0875" lon="7.40012">
        <ele>1964</ele>
        <time>2018-04-22T08:55:03.000Z</time>
      </trkpt>
      <trkpt lat="44.08748" lon="7.4001">
        <ele>1953</ele>
        <time>2018-04-22T08:55:04.000Z</time>
      </trkpt>
      <trkpt lat="44.08748" lon="7.4001">
        <ele>1953</ele>
        <time>2018-04-22T08:55:05.000Z</time>
      </trkpt>
      <trkpt lat="44.08748" lon="7.4001">
        <ele>1953</ele>
        <time>2018-04-22T08:55:06.000Z</time>
      </trkpt>
      <trkpt lat="44.08748" lon="7.4001">
        <ele>1952</ele>
        <time>2018-04-22T08:55:07.000Z</time>
      </trkpt>
      <trkpt lat="44.08748" lon="7.4001">
        <ele>1953</ele>
        <time>2018-04-22T08:55:08.000Z</time>
      </trkpt>
      <trkpt lat="44.08748" lon="7.4001">
        <ele>1953</ele>
        <time>2018-04-22T08:55:10.000Z</time>
      </trkpt>
      <trkpt lat="44.08749" lon="7.4001">
        <ele>1953</ele>
        <time>2018-04-22T08:55:18.000Z</time>
      </trkpt>
      <trkpt lat="44.08747" lon="7.40009">
        <ele>1953</ele>
        <time>2018-04-22T08:55:24.000Z</time>
      </trkpt>
      <trkpt lat="44.08744" lon="7.40014">
        <ele>1948</ele>
        <time>2018-04-22T08:55:26.000Z</time>
      </trkpt>
      <trkpt lat="44.08734" lon="7.40016">
        <ele>1943</ele>
        <time>2018-04-22T08:55:28.000Z</time>
      </trkpt>
      <trkpt lat="44.0873" lon="7.40014">
        <ele>1942</ele>
        <time>2018-04-22T08:55:29.000Z</time>
      </trkpt>
      <trkpt lat="44.08728" lon="7.40012">
        <ele>1941</ele>
        <time>2018-04-22T08:55:30.000Z</time>
      </trkpt>
      <trkpt lat="44.08727" lon="7.40011">
        <ele>1941</ele>
        <time>2018-04-22T08:55:31.000Z</time>
      </trkpt>
      <trkpt lat="44.08724" lon="7.4001">
        <ele>1940</ele>
        <time>2018-04-22T08:55:32.000Z</time>
      </trkpt>
      <trkpt lat="44.08721" lon="7.40009">
        <ele>1939</ele>
        <time>2018-04-22T08:55:33.000Z</time>
      </trkpt>
      <trkpt lat="44.08719" lon="7.40008">
        <ele>1938</ele>
        <time>2018-04-22T08:55:34.000Z</time>
      </trkpt>
      <trkpt lat="44.08717" lon="7.40007">
        <ele>1937</ele>
        <time>2018-04-22T08:55:35.000Z</time>
      </trkpt>
      <trkpt lat="44.08714" lon="7.40006">
        <ele>1936</ele>
        <time>2018-04-22T08:55:36.000Z</time>
      </trkpt>
      <trkpt lat="44.08706" lon="7.40001">
        <ele>1933</ele>
        <time>2018-04-22T08:55:38.000Z</time>
      </trkpt>
      <trkpt lat="44.08702" lon="7.39999">
        <ele>1954</ele>
        <time>2018-04-22T08:55:39.000Z</time>
      </trkpt>
      <trkpt lat="44.08695" lon="7.39997">
        <ele>1951</ele>
        <time>2018-04-22T08:55:41.000Z</time>
      </trkpt>
      <trkpt lat="44.08691" lon="7.39995">
        <ele>1949</ele>
        <time>2018-04-22T08:55:42.000Z</time>
      </trkpt>
      <trkpt lat="44.08688" lon="7.39993">
        <ele>1948</ele>
        <time>2018-04-22T08:55:43.000Z</time>
      </trkpt>
      <trkpt lat="44.08688" lon="7.39993">
        <ele>1948</ele>
        <time>2018-04-22T08:55:45.000Z</time>
      </trkpt>
      <trkpt lat="44.08687" lon="7.39992">
        <ele>1947</ele>
        <time>2018-04-22T08:55:46.000Z</time>
      </trkpt>
      <trkpt lat="44.08687" lon="7.39992">
        <ele>1947</ele>
        <time>2018-04-22T08:55:48.000Z</time>
      </trkpt>
      <trkpt lat="44.08688" lon="7.39991">
        <ele>1948</ele>
        <time>2018-04-22T08:55:57.000Z</time>
      </trkpt>
      <trkpt lat="44.08688" lon="7.39991">
        <ele>1948</ele>
        <time>2018-04-22T08:56:06.000Z</time>
      </trkpt>
      <trkpt lat="44.08688" lon="7.39991">
        <ele>1948</ele>
        <time>2018-04-22T08:56:25.000Z</time>
      </trkpt>
      <trkpt lat="44.08683" lon="7.39989">
        <ele>1946</ele>
        <time>2018-04-22T08:56:36.000Z</time>
      </trkpt>
      <trkpt lat="44.08672" lon="7.39982">
        <ele>1945</ele>
        <time>2018-04-22T08:56:39.000Z</time>
      </trkpt>
      <trkpt lat="44.08668" lon="7.39981">
        <ele>1945</ele>
        <time>2018-04-22T08:56:40.000Z</time>
      </trkpt>
      <trkpt lat="44.08667" lon="7.39986">
        <ele>1940</ele>
        <time>2018-04-22T08:56:41.000Z</time>
      </trkpt>
      <trkpt lat="44.08664" lon="7.39992">
        <ele>1924</ele>
        <time>2018-04-22T08:56:42.000Z</time>
      </trkpt>
      <trkpt lat="44.08661" lon="7.39991">
        <ele>1924</ele>
        <time>2018-04-22T08:56:43.000Z</time>
      </trkpt>
      <trkpt lat="44.08661" lon="7.39992">
        <ele>1924</ele>
        <time>2018-04-22T08:56:44.000Z</time>
      </trkpt>
      <trkpt lat="44.08661" lon="7.39992">
        <ele>1924</ele>
        <time>2018-04-22T08:56:45.000Z</time>
      </trkpt>
      <trkpt lat="44.08659" lon="7.39991">
        <ele>1924</ele>
        <time>2018-04-22T08:56:46.000Z</time>
      </trkpt>
      <trkpt lat="44.08655" lon="7.39989">
        <ele>1925</ele>
        <time>2018-04-22T08:56:47.000Z</time>
      </trkpt>
      <trkpt lat="44.08651" lon="7.39987">
        <ele>1926</ele>
        <time>2018-04-22T08:56:48.000Z</time>
      </trkpt>
      <trkpt lat="44.08648" lon="7.39985">
        <ele>1926</ele>
        <time>2018-04-22T08:56:49.000Z</time>
      </trkpt>
      <trkpt lat="44.08638" lon="7.3998">
        <ele>1926</ele>
        <time>2018-04-22T08:56:51.000Z</time>
      </trkpt>
      <trkpt lat="44.08635" lon="7.39978">
        <ele>1926</ele>
        <time>2018-04-22T08:56:52.000Z</time>
      </trkpt>
      <trkpt lat="44.08631" lon="7.39975">
        <ele>1926</ele>
        <time>2018-04-22T08:56:53.000Z</time>
      </trkpt>
      <trkpt lat="44.08626" lon="7.39972">
        <ele>1925</ele>
        <time>2018-04-22T08:56:54.000Z</time>
      </trkpt>
      <trkpt lat="44.08621" lon="7.39969">
        <ele>1925</ele>
        <time>2018-04-22T08:56:55.000Z</time>
      </trkpt>
      <trkpt lat="44.08616" lon="7.39968">
        <ele>1924</ele>
        <time>2018-04-22T08:56:56.000Z</time>
      </trkpt>
      <trkpt lat="44.08613" lon="7.39968">
        <ele>1923</ele>
        <time>2018-04-22T08:56:57.000Z</time>
      </trkpt>
      <trkpt lat="44.0861" lon="7.39969">
        <ele>1922</ele>
        <time>2018-04-22T08:56:58.000Z</time>
      </trkpt>
      <trkpt lat="44.08607" lon="7.3997">
        <ele>1921</ele>
        <time>2018-04-22T08:56:59.000Z</time>
      </trkpt>
      <trkpt lat="44.08607" lon="7.3997">
        <ele>1920</ele>
        <time>2018-04-22T08:57:00.000Z</time>
      </trkpt>
      <trkpt lat="44.08607" lon="7.3997">
        <ele>1921</ele>
        <time>2018-04-22T08:57:01.000Z</time>
      </trkpt>
      <trkpt lat="44.08607" lon="7.39971">
        <ele>1920</ele>
        <time>2018-04-22T08:57:02.000Z</time>
      </trkpt>
      <trkpt lat="44.08605" lon="7.3997">
        <ele>1920</ele>
        <time>2018-04-22T08:57:05.000Z</time>
      </trkpt>
      <trkpt lat="44.08603" lon="7.39971">
        <ele>1919</ele>
        <time>2018-04-22T08:57:08.000Z</time>
      </trkpt>
      <trkpt lat="44.08603" lon="7.39971">
        <ele>1919</ele>
        <time>2018-04-22T08:57:13.000Z</time>
      </trkpt>
      <trkpt lat="44.08602" lon="7.39972">
        <ele>1918</ele>
        <time>2018-04-22T08:57:15.000Z</time>
      </trkpt>
      <trkpt lat="44.08602" lon="7.39972">
        <ele>1918</ele>
        <time>2018-04-22T08:57:20.000Z</time>
      </trkpt>
      <trkpt lat="44.086" lon="7.39975">
        <ele>1916</ele>
        <time>2018-04-22T08:57:22.000Z</time>
      </trkpt>
      <trkpt lat="44.08596" lon="7.39977">
        <ele>1913</ele>
        <time>2018-04-22T08:57:23.000Z</time>
      </trkpt>
      <trkpt lat="44.08588" lon="7.39977">
        <ele>1911</ele>
        <time>2018-04-22T08:57:26.000Z</time>
      </trkpt>
      <trkpt lat="44.08585" lon="7.39977">
        <ele>1911</ele>
        <time>2018-04-22T08:57:27.000Z</time>
      </trkpt>
      <trkpt lat="44.08583" lon="7.39977">
        <ele>1895</ele>
        <time>2018-04-22T08:57:28.000Z</time>
      </trkpt>
      <trkpt lat="44.08578" lon="7.39976">
        <ele>1895</ele>
        <time>2018-04-22T08:57:30.000Z</time>
      </trkpt>
      <trkpt lat="44.08576" lon="7.39976">
        <ele>1895</ele>
        <time>2018-04-22T08:57:31.000Z</time>
      </trkpt>
      <trkpt lat="44.08576" lon="7.39976">
        <ele>1895</ele>
        <time>2018-04-22T08:57:32.000Z</time>
      </trkpt>
      <trkpt lat="44.08576" lon="7.39976">
        <ele>1895</ele>
        <time>2018-04-22T08:57:34.000Z</time>
      </trkpt>
      <trkpt lat="44.08576" lon="7.39976">
        <ele>1895</ele>
        <time>2018-04-22T08:57:35.000Z</time>
      </trkpt>
      <trkpt lat="44.08576" lon="7.39976">
        <ele>1895</ele>
        <time>2018-04-22T08:57:37.000Z</time>
      </trkpt>
      <trkpt lat="44.08576" lon="7.39977">
        <ele>1894</ele>
        <time>2018-04-22T08:57:39.000Z</time>
      </trkpt>
      <trkpt lat="44.08577" lon="7.39985">
        <ele>1891</ele>
        <time>2018-04-22T08:57:41.000Z</time>
      </trkpt>
      <trkpt lat="44.0858" lon="7.39993">
        <ele>1888</ele>
        <time>2018-04-22T08:57:43.000Z</time>
      </trkpt>
      <trkpt lat="44.0858" lon="7.39998">
        <ele>1885</ele>
        <time>2018-04-22T08:57:44.000Z</time>
      </trkpt>
      <trkpt lat="44.0858" lon="7.40001">
        <ele>1880</ele>
        <time>2018-04-22T08:57:45.000Z</time>
      </trkpt>
      <trkpt lat="44.08574" lon="7.39998">
        <ele>1888</ele>
        <time>2018-04-22T08:57:46.000Z</time>
      </trkpt>
      <trkpt lat="44.0857" lon="7.39998">
        <ele>1889</ele>
        <time>2018-04-22T08:57:47.000Z</time>
      </trkpt>
      <trkpt lat="44.08566" lon="7.39997">
        <ele>1890</ele>
        <time>2018-04-22T08:57:48.000Z</time>
      </trkpt>
      <trkpt lat="44.08562" lon="7.39999">
        <ele>1891</ele>
        <time>2018-04-22T08:57:49.000Z</time>
      </trkpt>
      <trkpt lat="44.08558" lon="7.40001">
        <ele>1871</ele>
        <time>2018-04-22T08:57:50.000Z</time>
      </trkpt>
      <trkpt lat="44.08555" lon="7.40002">
        <ele>1871</ele>
        <time>2018-04-22T08:57:51.000Z</time>
      </trkpt>
      <trkpt lat="44.08551" lon="7.40006">
        <ele>1870</ele>
        <time>2018-04-22T08:57:53.000Z</time>
      </trkpt>
      <trkpt lat="44.08545" lon="7.40011">
        <ele>1868</ele>
        <time>2018-04-22T08:57:55.000Z</time>
      </trkpt>
      <trkpt lat="44.08542" lon="7.40014">
        <ele>1868</ele>
        <time>2018-04-22T08:57:56.000Z</time>
      </trkpt>
      <trkpt lat="44.08538" lon="7.40017">
        <ele>1867</ele>
        <time>2018-04-22T08:57:57.000Z</time>
      </trkpt>
      <trkpt lat="44.08531" lon="7.40025">
        <ele>1866</ele>
        <time>2018-04-22T08:57:59.000Z</time>
      </trkpt>
      <trkpt lat="44.08526" lon="7.4003">
        <ele>1865</ele>
        <time>2018-04-22T08:58:01.000Z</time>
      </trkpt>
      <trkpt lat="44.08523" lon="7.40032">
        <ele>1864</ele>
        <time>2018-04-22T08:58:03.000Z</time>
      </trkpt>
      <trkpt lat="44.08523" lon="7.40032">
        <ele>1864</ele>
        <time>2018-04-22T08:58:05.000Z</time>
      </trkpt>
      <trkpt lat="44.08523" lon="7.40032">
        <ele>1864</ele>
        <time>2018-04-22T08:58:06.000Z</time>
      </trkpt>
      <trkpt lat="44.08522" lon="7.40032">
        <ele>1865</ele>
        <time>2018-04-22T08:58:15.000Z</time>
      </trkpt>
      <trkpt lat="44.08516" lon="7.4004">
        <ele>1862</ele>
        <time>2018-04-22T08:58:19.000Z</time>
      </trkpt>
      <trkpt lat="44.08511" lon="7.40045">
        <ele>1861</ele>
        <time>2018-04-22T08:58:21.000Z</time>
      </trkpt>
      <trkpt lat="44.08508" lon="7.40049">
        <ele>1860</ele>
        <time>2018-04-22T08:58:23.000Z</time>
      </trkpt>
      <trkpt lat="44.08504" lon="7.40054">
        <ele>1858</ele>
        <time>2018-04-22T08:58:25.000Z</time>
      </trkpt>
      <trkpt lat="44.08497" lon="7.40061">
        <ele>1852</ele>
        <time>2018-04-22T08:58:27.000Z</time>
      </trkpt>
      <trkpt lat="44.08494" lon="7.40063">
        <ele>1851</ele>
        <time>2018-04-22T08:58:28.000Z</time>
      </trkpt>
      <trkpt lat="44.08493" lon="7.40064">
        <ele>1851</ele>
        <time>2018-04-22T08:58:29.000Z</time>
      </trkpt>
      <trkpt lat="44.08492" lon="7.40065">
        <ele>1851</ele>
        <time>2018-04-22T08:58:30.000Z</time>
      </trkpt>
      <trkpt lat="44.08492" lon="7.40067">
        <ele>1851</ele>
        <time>2018-04-22T08:58:31.000Z</time>
      </trkpt>
      <trkpt lat="44.08489" lon="7.40069">
        <ele>1850</ele>
        <time>2018-04-22T08:58:34.000Z</time>
      </trkpt>
      <trkpt lat="44.08488" lon="7.40069">
        <ele>1850</ele>
        <time>2018-04-22T08:58:35.000Z</time>
      </trkpt>
      <trkpt lat="44.08485" lon="7.4007">
        <ele>1851</ele>
        <time>2018-04-22T08:58:41.000Z</time>
      </trkpt>
      <trkpt lat="44.08482" lon="7.40071">
        <ele>1851</ele>
        <time>2018-04-22T08:58:43.000Z</time>
      </trkpt>
      <trkpt lat="44.08478" lon="7.40074">
        <ele>1851</ele>
        <time>2018-04-22T08:58:45.000Z</time>
      </trkpt>
      <trkpt lat="44.08475" lon="7.40075">
        <ele>1851</ele>
        <time>2018-04-22T08:58:46.000Z</time>
      </trkpt>
      <trkpt lat="44.08468" lon="7.40074">
        <ele>1851</ele>
        <time>2018-04-22T08:58:48.000Z</time>
      </trkpt>
      <trkpt lat="44.08465" lon="7.40074">
        <ele>1851</ele>
        <time>2018-04-22T08:58:50.000Z</time>
      </trkpt>
      <trkpt lat="44.08464" lon="7.40075">
        <ele>1851</ele>
        <time>2018-04-22T08:58:51.000Z</time>
      </trkpt>
      <trkpt lat="44.08465" lon="7.40074">
        <ele>1851</ele>
        <time>2018-04-22T08:58:52.000Z</time>
      </trkpt>
      <trkpt lat="44.08463" lon="7.40075">
        <ele>1851</ele>
        <time>2018-04-22T08:58:54.000Z</time>
      </trkpt>
      <trkpt lat="44.08456" lon="7.40075">
        <ele>1851</ele>
        <time>2018-04-22T08:58:58.000Z</time>
      </trkpt>
      <trkpt lat="44.0845" lon="7.40075">
        <ele>1850</ele>
        <time>2018-04-22T08:59:00.000Z</time>
      </trkpt>
      <trkpt lat="44.08443" lon="7.40075">
        <ele>1849</ele>
        <time>2018-04-22T08:59:02.000Z</time>
      </trkpt>
      <trkpt lat="44.08439" lon="7.40075">
        <ele>1848</ele>
        <time>2018-04-22T08:59:03.000Z</time>
      </trkpt>
      <trkpt lat="44.08436" lon="7.40075">
        <ele>1847</ele>
        <time>2018-04-22T08:59:04.000Z</time>
      </trkpt>
      <trkpt lat="44.08432" lon="7.40075">
        <ele>1846</ele>
        <time>2018-04-22T08:59:06.000Z</time>
      </trkpt>
      <trkpt lat="44.08431" lon="7.40076">
        <ele>1845</ele>
        <time>2018-04-22T08:59:07.000Z</time>
      </trkpt>
      <trkpt lat="44.08426" lon="7.40076">
        <ele>1844</ele>
        <time>2018-04-22T08:59:09.000Z</time>
      </trkpt>
      <trkpt lat="44.08425" lon="7.40075">
        <ele>1844</ele>
        <time>2018-04-22T08:59:11.000Z</time>
      </trkpt>
      <trkpt lat="44.08424" lon="7.40075">
        <ele>1843</ele>
        <time>2018-04-22T08:59:12.000Z</time>
      </trkpt>
      <trkpt lat="44.08423" lon="7.40075">
        <ele>1843</ele>
        <time>2018-04-22T08:59:20.000Z</time>
      </trkpt>
      <trkpt lat="44.08417" lon="7.40077">
        <ele>1841</ele>
        <time>2018-04-22T08:59:23.000Z</time>
      </trkpt>
      <trkpt lat="44.08414" lon="7.40078">
        <ele>1839</ele>
        <time>2018-04-22T08:59:24.000Z</time>
      </trkpt>
      <trkpt lat="44.08403" lon="7.40079">
        <ele>1841</ele>
        <time>2018-04-22T08:59:27.000Z</time>
      </trkpt>
      <trkpt lat="44.08396" lon="7.4008">
        <ele>1842</ele>
        <time>2018-04-22T08:59:29.000Z</time>
      </trkpt>
      <trkpt lat="44.08392" lon="7.40087">
        <ele>1824</ele>
        <time>2018-04-22T08:59:31.000Z</time>
      </trkpt>
      <trkpt lat="44.08394" lon="7.40091">
        <ele>1824</ele>
        <time>2018-04-22T08:59:32.000Z</time>
      </trkpt>
      <trkpt lat="44.08398" lon="7.40096">
        <ele>1824</ele>
        <time>2018-04-22T08:59:33.000Z</time>
      </trkpt>
      <trkpt lat="44.08398" lon="7.40102">
        <ele>1822</ele>
        <time>2018-04-22T08:59:34.000Z</time>
      </trkpt>
      <trkpt lat="44.08395" lon="7.40104">
        <ele>1821</ele>
        <time>2018-04-22T08:59:35.000Z</time>
      </trkpt>
      <trkpt lat="44.08394" lon="7.40108">
        <ele>1820</ele>
        <time>2018-04-22T08:59:36.000Z</time>
      </trkpt>
      <trkpt lat="44.08394" lon="7.40115">
        <ele>1819</ele>
        <time>2018-04-22T08:59:37.000Z</time>
      </trkpt>
      <trkpt lat="44.0839" lon="7.40118">
        <ele>1818</ele>
        <time>2018-04-22T08:59:38.000Z</time>
      </trkpt>
      <trkpt lat="44.08386" lon="7.40121">
        <ele>1817</ele>
        <time>2018-04-22T08:59:39.000Z</time>
      </trkpt>
      <trkpt lat="44.08385" lon="7.40126">
        <ele>1816</ele>
        <time>2018-04-22T08:59:40.000Z</time>
      </trkpt>
      <trkpt lat="44.08382" lon="7.4013">
        <ele>1815</ele>
        <time>2018-04-22T08:59:41.000Z</time>
      </trkpt>
      <trkpt lat="44.0838" lon="7.40133">
        <ele>1814</ele>
        <time>2018-04-22T08:59:42.000Z</time>
      </trkpt>
      <trkpt lat="44.08378" lon="7.40139">
        <ele>1813</ele>
        <time>2018-04-22T08:59:43.000Z</time>
      </trkpt>
      <trkpt lat="44.08376" lon="7.40142">
        <ele>1812</ele>
        <time>2018-04-22T08:59:44.000Z</time>
      </trkpt>
      <trkpt lat="44.08377" lon="7.40147">
        <ele>1812</ele>
        <time>2018-04-22T08:59:45.000Z</time>
      </trkpt>
      <trkpt lat="44.08377" lon="7.40153">
        <ele>1811</ele>
        <time>2018-04-22T08:59:46.000Z</time>
      </trkpt>
      <trkpt lat="44.08373" lon="7.40156">
        <ele>1810</ele>
        <time>2018-04-22T08:59:47.000Z</time>
      </trkpt>
      <trkpt lat="44.08368" lon="7.40157">
        <ele>1809</ele>
        <time>2018-04-22T08:59:48.000Z</time>
      </trkpt>
      <trkpt lat="44.08366" lon="7.40157">
        <ele>1809</ele>
        <time>2018-04-22T08:59:49.000Z</time>
      </trkpt>
      <trkpt lat="44.08367" lon="7.40157">
        <ele>1809</ele>
        <time>2018-04-22T08:59:50.000Z</time>
      </trkpt>
      <trkpt lat="44.08366" lon="7.40156">
        <ele>1809</ele>
        <time>2018-04-22T08:59:51.000Z</time>
      </trkpt>
      <trkpt lat="44.08366" lon="7.40155">
        <ele>1809</ele>
        <time>2018-04-22T08:59:52.000Z</time>
      </trkpt>
      <trkpt lat="44.08367" lon="7.40155">
        <ele>1809</ele>
        <time>2018-04-22T08:59:54.000Z</time>
      </trkpt>
      <trkpt lat="44.08366" lon="7.40154">
        <ele>1809</ele>
        <time>2018-04-22T08:59:56.000Z</time>
      </trkpt>
      <trkpt lat="44.08366" lon="7.40153">
        <ele>1810</ele>
        <time>2018-04-22T09:00:05.000Z</time>
      </trkpt>
      <trkpt lat="44.08367" lon="7.40151">
        <ele>1810</ele>
        <time>2018-04-22T09:00:23.000Z</time>
      </trkpt>
      <trkpt lat="44.08367" lon="7.4015">
        <ele>1810</ele>
        <time>2018-04-22T09:00:31.000Z</time>
      </trkpt>
      <trkpt lat="44.08368" lon="7.40148">
        <ele>1811</ele>
        <time>2018-04-22T09:00:47.000Z</time>
      </trkpt>
      <trkpt lat="44.08367" lon="7.40147">
        <ele>1811</ele>
        <time>2018-04-22T09:00:57.000Z</time>
      </trkpt>
      <trkpt lat="44.08366" lon="7.40148">
        <ele>1810</ele>
        <time>2018-04-22T09:01:03.000Z</time>
      </trkpt>
      <trkpt lat="44.08367" lon="7.40152">
        <ele>1810</ele>
        <time>2018-04-22T09:01:04.000Z</time>
      </trkpt>
      <trkpt lat="44.08374" lon="7.40161">
        <ele>1810</ele>
        <time>2018-04-22T09:01:07.000Z</time>
      </trkpt>
      <trkpt lat="44.08376" lon="7.40163">
        <ele>1810</ele>
        <time>2018-04-22T09:01:08.000Z</time>
      </trkpt>
      <trkpt lat="44.08379" lon="7.40166">
        <ele>1810</ele>
        <time>2018-04-22T09:01:09.000Z</time>
      </trkpt>
      <trkpt lat="44.08385" lon="7.4017">
        <ele>1796</ele>
        <time>2018-04-22T09:01:11.000Z</time>
      </trkpt>
      <trkpt lat="44.08391" lon="7.40175">
        <ele>1796</ele>
        <time>2018-04-22T09:01:13.000Z</time>
      </trkpt>
      <trkpt lat="44.08395" lon="7.40179">
        <ele>1796</ele>
        <time>2018-04-22T09:01:14.000Z</time>
      </trkpt>
      <trkpt lat="44.08401" lon="7.40186">
        <ele>1796</ele>
        <time>2018-04-22T09:01:16.000Z</time>
      </trkpt>
      <trkpt lat="44.08406" lon="7.40193">
        <ele>1796</ele>
        <time>2018-04-22T09:01:18.000Z</time>
      </trkpt>
      <trkpt lat="44.08409" lon="7.40197">
        <ele>1795</ele>
        <time>2018-04-22T09:01:19.000Z</time>
      </trkpt>
      <trkpt lat="44.08412" lon="7.402">
        <ele>1795</ele>
        <time>2018-04-22T09:01:20.000Z</time>
      </trkpt>
      <trkpt lat="44.08419" lon="7.40206">
        <ele>1800</ele>
        <time>2018-04-22T09:01:22.000Z</time>
      </trkpt>
      <trkpt lat="44.08425" lon="7.40213">
        <ele>1799</ele>
        <time>2018-04-22T09:01:24.000Z</time>
      </trkpt>
      <trkpt lat="44.0843" lon="7.40218">
        <ele>1798</ele>
        <time>2018-04-22T09:01:26.000Z</time>
      </trkpt>
      <trkpt lat="44.0843" lon="7.40218">
        <ele>1798</ele>
        <time>2018-04-22T09:01:28.000Z</time>
      </trkpt>
      <trkpt lat="44.08433" lon="7.4022">
        <ele>1798</ele>
        <time>2018-04-22T09:01:34.000Z</time>
      </trkpt>
      <trkpt lat="44.08437" lon="7.40222">
        <ele>1799</ele>
        <time>2018-04-22T09:01:38.000Z</time>
      </trkpt>
      <trkpt lat="44.08439" lon="7.40222">
        <ele>1799</ele>
        <time>2018-04-22T09:01:39.000Z</time>
      </trkpt>
      <trkpt lat="44.08443" lon="7.40228">
        <ele>1798</ele>
        <time>2018-04-22T09:01:42.000Z</time>
      </trkpt>
      <trkpt lat="44.08442" lon="7.40228">
        <ele>1798</ele>
        <time>2018-04-22T09:01:44.000Z</time>
      </trkpt>
      <trkpt lat="44.08441" lon="7.40228">
        <ele>1798</ele>
        <time>2018-04-22T09:01:45.000Z</time>
      </trkpt>
      <trkpt lat="44.08441" lon="7.40229">
        <ele>1798</ele>
        <time>2018-04-22T09:01:46.000Z</time>
      </trkpt>
      <trkpt lat="44.0844" lon="7.40229">
        <ele>1798</ele>
        <time>2018-04-22T09:01:53.000Z</time>
      </trkpt>
      <trkpt lat="44.0844" lon="7.40229">
        <ele>1798</ele>
        <time>2018-04-22T09:02:02.000Z</time>
      </trkpt>
      <trkpt lat="44.0844" lon="7.40229">
        <ele>1798</ele>
        <time>2018-04-22T09:02:14.000Z</time>
      </trkpt>
      <trkpt lat="44.0844" lon="7.40229">
        <ele>1798</ele>
        <time>2018-04-22T09:02:24.000Z</time>
      </trkpt>
      <trkpt lat="44.0844" lon="7.40229">
        <ele>1798</ele>
        <time>2018-04-22T09:02:30.000Z</time>
      </trkpt>
      <trkpt lat="44.08439" lon="7.40231">
        <ele>1798</ele>
        <time>2018-04-22T09:02:36.000Z</time>
      </trkpt>
      <trkpt lat="44.08439" lon="7.40232">
        <ele>1797</ele>
        <time>2018-04-22T09:02:38.000Z</time>
      </trkpt>
      <trkpt lat="44.0844" lon="7.40235">
        <ele>1797</ele>
        <time>2018-04-22T09:02:42.000Z</time>
      </trkpt>
      <trkpt lat="44.0844" lon="7.40238">
        <ele>1797</ele>
        <time>2018-04-22T09:02:44.000Z</time>
      </trkpt>
      <trkpt lat="44.08441" lon="7.40246">
        <ele>1796</ele>
        <time>2018-04-22T09:02:50.000Z</time>
      </trkpt>
      <trkpt lat="44.08441" lon="7.40247">
        <ele>1796</ele>
        <time>2018-04-22T09:02:57.000Z</time>
      </trkpt>
      <trkpt lat="44.08443" lon="7.40249">
        <ele>1797</ele>
        <time>2018-04-22T09:03:05.000Z</time>
      </trkpt>
      <trkpt lat="44.08444" lon="7.40252">
        <ele>1799</ele>
        <time>2018-04-22T09:03:12.000Z</time>
      </trkpt>
      <trkpt lat="44.08444" lon="7.40255">
        <ele>1800</ele>
        <time>2018-04-22T09:03:17.000Z</time>
      </trkpt>
      <trkpt lat="44.08443" lon="7.40255">
        <ele>1800</ele>
        <time>2018-04-22T09:03:22.000Z</time>
      </trkpt>
      <trkpt lat="44.08444" lon="7.40255">
        <ele>1800</ele>
        <time>2018-04-22T09:03:30.000Z</time>
      </trkpt>
      <trkpt lat="44.08444" lon="7.40255">
        <ele>1800</ele>
        <time>2018-04-22T09:03:49.000Z</time>
      </trkpt>
      <trkpt lat="44.08444" lon="7.40253">
        <ele>1800</ele>
        <time>2018-04-22T09:03:58.000Z</time>
      </trkpt>
      <trkpt lat="44.08443" lon="7.40255">
        <ele>1799</ele>
        <time>2018-04-22T09:04:05.000Z</time>
      </trkpt>
      <trkpt lat="44.08441" lon="7.40256">
        <ele>1799</ele>
        <time>2018-04-22T09:04:09.000Z</time>
      </trkpt>
      <trkpt lat="44.0844" lon="7.40256">
        <ele>1799</ele>
        <time>2018-04-22T09:04:11.000Z</time>
      </trkpt>
      <trkpt lat="44.08438" lon="7.40259">
        <ele>1799</ele>
        <time>2018-04-22T09:04:17.000Z</time>
      </trkpt>
      <trkpt lat="44.08436" lon="7.40264">
        <ele>1799</ele>
        <time>2018-04-22T09:04:23.000Z</time>
      </trkpt>
      <trkpt lat="44.08435" lon="7.40266">
        <ele>1799</ele>
        <time>2018-04-22T09:04:26.000Z</time>
      </trkpt>
      <trkpt lat="44.08435" lon="7.40267">
        <ele>1799</ele>
        <time>2018-04-22T09:04:28.000Z</time>
      </trkpt>
      <trkpt lat="44.08433" lon="7.40272">
        <ele>1800</ele>
        <time>2018-04-22T09:04:34.000Z</time>
      </trkpt>
      <trkpt lat="44.08432" lon="7.40276">
        <ele>1801</ele>
        <time>2018-04-22T09:04:40.000Z</time>
      </trkpt>
      <trkpt lat="44.08432" lon="7.40277">
        <ele>1801</ele>
        <time>2018-04-22T09:04:41.000Z</time>
      </trkpt>
      <trkpt lat="44.0843" lon="7.40281">
        <ele>1802</ele>
        <time>2018-04-22T09:04:47.000Z</time>
      </trkpt>
      <trkpt lat="44.0843" lon="7.40281">
        <ele>1802</ele>
        <time>2018-04-22T09:04:55.000Z</time>
      </trkpt>
      <trkpt lat="44.0843" lon="7.40281">
        <ele>1802</ele>
        <time>2018-04-22T09:04:58.000Z</time>
      </trkpt>
      <trkpt lat="44.08429" lon="7.40283">
        <ele>1802</ele>
        <time>2018-04-22T09:05:00.000Z</time>
      </trkpt>
      <trkpt lat="44.0843" lon="7.40285">
        <ele>1803</ele>
        <time>2018-04-22T09:05:06.000Z</time>
      </trkpt>
      <trkpt lat="44.08429" lon="7.40287">
        <ele>1803</ele>
        <time>2018-04-22T09:05:12.000Z</time>
      </trkpt>
      <trkpt lat="44.08429" lon="7.40288">
        <ele>1804</ele>
        <time>2018-04-22T09:05:20.000Z</time>
      </trkpt>
      <trkpt lat="44.08429" lon="7.4029">
        <ele>1804</ele>
        <time>2018-04-22T09:05:22.000Z</time>
      </trkpt>
      <trkpt lat="44.0843" lon="7.40293">
        <ele>1805</ele>
        <time>2018-04-22T09:05:27.000Z</time>
      </trkpt>
      <trkpt lat="44.0843" lon="7.40295">
        <ele>1805</ele>
        <time>2018-04-22T09:05:28.000Z</time>
      </trkpt>
      <trkpt lat="44.08429" lon="7.40298">
        <ele>1805</ele>
        <time>2018-04-22T09:05:31.000Z</time>
      </trkpt>
      <trkpt lat="44.08426" lon="7.40302">
        <ele>1806</ele>
        <time>2018-04-22T09:05:38.000Z</time>
      </trkpt>
      <trkpt lat="44.08425" lon="7.40303">
        <ele>1806</ele>
        <time>2018-04-22T09:05:44.000Z</time>
      </trkpt>
      <trkpt lat="44.08424" lon="7.40303">
        <ele>1806</ele>
        <time>2018-04-22T09:05:46.000Z</time>
      </trkpt>
      <trkpt lat="44.08422" lon="7.40304">
        <ele>1807</ele>
        <time>2018-04-22T09:05:51.000Z</time>
      </trkpt>
      <trkpt lat="44.08422" lon="7.40304">
        <ele>1807</ele>
        <time>2018-04-22T09:05:52.000Z</time>
      </trkpt>
      <trkpt lat="44.08419" lon="7.40306">
        <ele>1807</ele>
        <time>2018-04-22T09:05:56.000Z</time>
      </trkpt>
      <trkpt lat="44.08415" lon="7.40305">
        <ele>1800</ele>
        <time>2018-04-22T09:06:02.000Z</time>
      </trkpt>
      <trkpt lat="44.08412" lon="7.40303">
        <ele>1800</ele>
        <time>2018-04-22T09:06:07.000Z</time>
      </trkpt>
      <trkpt lat="44.08411" lon="7.40302">
        <ele>1799</ele>
        <time>2018-04-22T09:06:09.000Z</time>
      </trkpt>
      <trkpt lat="44.0841" lon="7.403">
        <ele>1799</ele>
        <time>2018-04-22T09:06:11.000Z</time>
      </trkpt>
      <trkpt lat="44.08408" lon="7.40299">
        <ele>1798</ele>
        <time>2018-04-22T09:06:13.000Z</time>
      </trkpt>
      <trkpt lat="44.08405" lon="7.40298">
        <ele>1798</ele>
        <time>2018-04-22T09:06:16.000Z</time>
      </trkpt>
      <trkpt lat="44.08401" lon="7.40297">
        <ele>1797</ele>
        <time>2018-04-22T09:06:21.000Z</time>
      </trkpt>
      <trkpt lat="44.084" lon="7.40297">
        <ele>1798</ele>
        <time>2018-04-22T09:06:22.000Z</time>
      </trkpt>
      <trkpt lat="44.08395" lon="7.40295">
        <ele>1797</ele>
        <time>2018-04-22T09:06:28.000Z</time>
      </trkpt>
      <trkpt lat="44.08391" lon="7.40295">
        <ele>1797</ele>
        <time>2018-04-22T09:06:34.000Z</time>
      </trkpt>
      <trkpt lat="44.08388" lon="7.40295">
        <ele>1796</ele>
        <time>2018-04-22T09:06:40.000Z</time>
      </trkpt>
      <trkpt lat="44.08386" lon="7.40296">
        <ele>1796</ele>
        <time>2018-04-22T09:06:45.000Z</time>
      </trkpt>
      <trkpt lat="44.08383" lon="7.40296">
        <ele>1796</ele>
        <time>2018-04-22T09:06:48.000Z</time>
      </trkpt>
      <trkpt lat="44.08382" lon="7.40296">
        <ele>1796</ele>
        <time>2018-04-22T09:06:50.000Z</time>
      </trkpt>
      <trkpt lat="44.08376" lon="7.40295">
        <ele>1795</ele>
        <time>2018-04-22T09:06:56.000Z</time>
      </trkpt>
      <trkpt lat="44.08374" lon="7.40295">
        <ele>1795</ele>
        <time>2018-04-22T09:06:58.000Z</time>
      </trkpt>
      <trkpt lat="44.08371" lon="7.40297">
        <ele>1795</ele>
        <time>2018-04-22T09:07:01.000Z</time>
      </trkpt>
      <trkpt lat="44.08365" lon="7.403">
        <ele>1795</ele>
        <time>2018-04-22T09:07:07.000Z</time>
      </trkpt>
      <trkpt lat="44.08364" lon="7.403">
        <ele>1795</ele>
        <time>2018-04-22T09:07:08.000Z</time>
      </trkpt>
      <trkpt lat="44.08362" lon="7.40302">
        <ele>1795</ele>
        <time>2018-04-22T09:07:13.000Z</time>
      </trkpt>
      <trkpt lat="44.08358" lon="7.40303">
        <ele>1795</ele>
        <time>2018-04-22T09:07:19.000Z</time>
      </trkpt>
      <trkpt lat="44.08352" lon="7.40302">
        <ele>1795</ele>
        <time>2018-04-22T09:07:24.000Z</time>
      </trkpt>
      <trkpt lat="44.08344" lon="7.40301">
        <ele>1795</ele>
        <time>2018-04-22T09:07:31.000Z</time>
      </trkpt>
      <trkpt lat="44.08335" lon="7.40302">
        <ele>1795</ele>
        <time>2018-04-22T09:07:38.000Z</time>
      </trkpt>
      <trkpt lat="44.08334" lon="7.40303">
        <ele>1795</ele>
        <time>2018-04-22T09:07:39.000Z</time>
      </trkpt>
      <trkpt lat="44.08333" lon="7.40304">
        <ele>1786</ele>
        <time>2018-04-22T09:07:40.000Z</time>
      </trkpt>
      <trkpt lat="44.0833" lon="7.40306">
        <ele>1787</ele>
        <time>2018-04-22T09:07:43.000Z</time>
      </trkpt>
      <trkpt lat="44.08328" lon="7.40309">
        <ele>1787</ele>
        <time>2018-04-22T09:07:46.000Z</time>
      </trkpt>
      <trkpt lat="44.08326" lon="7.40308">
        <ele>1787</ele>
        <time>2018-04-22T09:07:48.000Z</time>
      </trkpt>
      <trkpt lat="44.08325" lon="7.40309">
        <ele>1787</ele>
        <time>2018-04-22T09:07:49.000Z</time>
      </trkpt>
      <trkpt lat="44.08321" lon="7.40312">
        <ele>1787</ele>
        <time>2018-04-22T09:07:54.000Z</time>
      </trkpt>
      <trkpt lat="44.0832" lon="7.40313">
        <ele>1787</ele>
        <time>2018-04-22T09:07:55.000Z</time>
      </trkpt>
      <trkpt lat="44.08318" lon="7.40314">
        <ele>1787</ele>
        <time>2018-04-22T09:07:58.000Z</time>
      </trkpt>
      <trkpt lat="44.08315" lon="7.40317">
        <ele>1787</ele>
        <time>2018-04-22T09:08:02.000Z</time>
      </trkpt>
      <trkpt lat="44.08312" lon="7.40319">
        <ele>1787</ele>
        <time>2018-04-22T09:08:05.000Z</time>
      </trkpt>
      <trkpt lat="44.0831" lon="7.40321">
        <ele>1786</ele>
        <time>2018-04-22T09:08:07.000Z</time>
      </trkpt>
      <trkpt lat="44.08308" lon="7.40323">
        <ele>1786</ele>
        <time>2018-04-22T09:08:13.000Z</time>
      </trkpt>
      <trkpt lat="44.08305" lon="7.40326">
        <ele>1786</ele>
        <time>2018-04-22T09:08:18.000Z</time>
      </trkpt>
      <trkpt lat="44.08305" lon="7.40327">
        <ele>1786</ele>
        <time>2018-04-22T09:08:19.000Z</time>
      </trkpt>
      <trkpt lat="44.08304" lon="7.40328">
        <ele>1785</ele>
        <time>2018-04-22T09:08:26.000Z</time>
      </trkpt>
      <trkpt lat="44.08301" lon="7.40328">
        <ele>1785</ele>
        <time>2018-04-22T09:08:31.000Z</time>
      </trkpt>
      <trkpt lat="44.083" lon="7.4033">
        <ele>1785</ele>
        <time>2018-04-22T09:08:42.000Z</time>
      </trkpt>
      <trkpt lat="44.083" lon="7.4033">
        <ele>1785</ele>
        <time>2018-04-22T09:08:52.000Z</time>
      </trkpt>
      <trkpt lat="44.083" lon="7.40331">
        <ele>1785</ele>
        <time>2018-04-22T09:09:01.000Z</time>
      </trkpt>
      <trkpt lat="44.083" lon="7.4033">
        <ele>1785</ele>
        <time>2018-04-22T09:09:05.000Z</time>
      </trkpt>
      <trkpt lat="44.08299" lon="7.40329">
        <ele>1785</ele>
        <time>2018-04-22T09:09:07.000Z</time>
      </trkpt>
      <trkpt lat="44.08299" lon="7.40329">
        <ele>1784</ele>
        <time>2018-04-22T09:09:09.000Z</time>
      </trkpt>
      <trkpt lat="44.08297" lon="7.40329">
        <ele>1784</ele>
        <time>2018-04-22T09:09:17.000Z</time>
      </trkpt>
      <trkpt lat="44.08297" lon="7.40336">
        <ele>1795</ele>
        <time>2018-04-22T09:09:26.000Z</time>
      </trkpt>
      <trkpt lat="44.08296" lon="7.40337">
        <ele>1795</ele>
        <time>2018-04-22T09:09:28.000Z</time>
      </trkpt>
      <trkpt lat="44.08294" lon="7.40338">
        <ele>1794</ele>
        <time>2018-04-22T09:09:30.000Z</time>
      </trkpt>
      <trkpt lat="44.08293" lon="7.40338">
        <ele>1794</ele>
        <time>2018-04-22T09:09:32.000Z</time>
      </trkpt>
      <trkpt lat="44.08287" lon="7.40339">
        <ele>1793</ele>
        <time>2018-04-22T09:09:37.000Z</time>
      </trkpt>
      <trkpt lat="44.08284" lon="7.4034">
        <ele>1792</ele>
        <time>2018-04-22T09:09:44.000Z</time>
      </trkpt>
      <trkpt lat="44.08281" lon="7.40339">
        <ele>1792</ele>
        <time>2018-04-22T09:09:50.000Z</time>
      </trkpt>
      <trkpt lat="44.08274" lon="7.40339">
        <ele>1790</ele>
        <time>2018-04-22T09:09:56.000Z</time>
      </trkpt>
      <trkpt lat="44.08266" lon="7.40342">
        <ele>1788</ele>
        <time>2018-04-22T09:10:00.000Z</time>
      </trkpt>
      <trkpt lat="44.08254" lon="7.40347">
        <ele>1786</ele>
        <time>2018-04-22T09:10:06.000Z</time>
      </trkpt>
      <trkpt lat="44.08245" lon="7.40352">
        <ele>1780</ele>
        <time>2018-04-22T09:10:11.000Z</time>
      </trkpt>
      <trkpt lat="44.08241" lon="7.40354">
        <ele>1780</ele>
        <time>2018-04-22T09:10:13.000Z</time>
      </trkpt>
      <trkpt lat="44.08241" lon="7.40353">
        <ele>1780</ele>
        <time>2018-04-22T09:10:15.000Z</time>
      </trkpt>
      <trkpt lat="44.08241" lon="7.40353">
        <ele>1780</ele>
        <time>2018-04-22T09:10:22.000Z</time>
      </trkpt>
      <trkpt lat="44.08241" lon="7.40352">
        <ele>1780</ele>
        <time>2018-04-22T09:10:31.000Z</time>
      </trkpt>
      <trkpt lat="44.08241" lon="7.40352">
        <ele>1780</ele>
        <time>2018-04-22T09:10:33.000Z</time>
      </trkpt>
      <trkpt lat="44.08241" lon="7.40351">
        <ele>1779</ele>
        <time>2018-04-22T09:10:38.000Z</time>
      </trkpt>
      <trkpt lat="44.08241" lon="7.40351">
        <ele>1779</ele>
        <time>2018-04-22T09:10:49.000Z</time>
      </trkpt>
      <trkpt lat="44.08241" lon="7.40351">
        <ele>1779</ele>
        <time>2018-04-22T09:11:02.000Z</time>
      </trkpt>
      <trkpt lat="44.08233" lon="7.40355">
        <ele>1780</ele>
        <time>2018-04-22T09:11:08.000Z</time>
      </trkpt>
      <trkpt lat="44.08224" lon="7.40366">
        <ele>1781</ele>
        <time>2018-04-22T09:11:12.000Z</time>
      </trkpt>
      <trkpt lat="44.08223" lon="7.40368">
        <ele>1781</ele>
        <time>2018-04-22T09:11:14.000Z</time>
      </trkpt>
      <trkpt lat="44.08223" lon="7.40369">
        <ele>1781</ele>
        <time>2018-04-22T09:11:15.000Z</time>
      </trkpt>
      <trkpt lat="44.08222" lon="7.40373">
        <ele>1781</ele>
        <time>2018-04-22T09:11:21.000Z</time>
      </trkpt>
      <trkpt lat="44.08221" lon="7.40376">
        <ele>1782</ele>
        <time>2018-04-22T09:11:28.000Z</time>
      </trkpt>
      <trkpt lat="44.08221" lon="7.40377">
        <ele>1782</ele>
        <time>2018-04-22T09:11:31.000Z</time>
      </trkpt>
      <trkpt lat="44.0822" lon="7.40378">
        <ele>1782</ele>
        <time>2018-04-22T09:11:36.000Z</time>
      </trkpt>
      <trkpt lat="44.0822" lon="7.4038">
        <ele>1782</ele>
        <time>2018-04-22T09:11:43.000Z</time>
      </trkpt>
      <trkpt lat="44.08217" lon="7.40384">
        <ele>1783</ele>
        <time>2018-04-22T09:11:52.000Z</time>
      </trkpt>
      <trkpt lat="44.08213" lon="7.40387">
        <ele>1783</ele>
        <time>2018-04-22T09:11:58.000Z</time>
      </trkpt>
      <trkpt lat="44.08205" lon="7.40389">
        <ele>1782</ele>
        <time>2018-04-22T09:12:04.000Z</time>
      </trkpt>
      <trkpt lat="44.08196" lon="7.40391">
        <ele>1782</ele>
        <time>2018-04-22T09:12:07.000Z</time>
      </trkpt>
      <trkpt lat="44.08192" lon="7.40391">
        <ele>1781</ele>
        <time>2018-04-22T09:12:08.000Z</time>
      </trkpt>
      <trkpt lat="44.08188" lon="7.4039">
        <ele>1781</ele>
        <time>2018-04-22T09:12:09.000Z</time>
      </trkpt>
      <trkpt lat="44.08183" lon="7.40389">
        <ele>1781</ele>
        <time>2018-04-22T09:12:11.000Z</time>
      </trkpt>
      <trkpt lat="44.08184" lon="7.40389">
        <ele>1781</ele>
        <time>2018-04-22T09:12:12.000Z</time>
      </trkpt>
      <trkpt lat="44.08183" lon="7.40388">
        <ele>1781</ele>
        <time>2018-04-22T09:12:14.000Z</time>
      </trkpt>
      <trkpt lat="44.0818" lon="7.40388">
        <ele>1781</ele>
        <time>2018-04-22T09:12:17.000Z</time>
      </trkpt>
      <trkpt lat="44.08179" lon="7.4039">
        <ele>1781</ele>
        <time>2018-04-22T09:12:20.000Z</time>
      </trkpt>
      <trkpt lat="44.08178" lon="7.4039">
        <ele>1781</ele>
        <time>2018-04-22T09:12:21.000Z</time>
      </trkpt>
      <trkpt lat="44.08176" lon="7.4039">
        <ele>1781</ele>
        <time>2018-04-22T09:12:23.000Z</time>
      </trkpt>
      <trkpt lat="44.08173" lon="7.4039">
        <ele>1781</ele>
        <time>2018-04-22T09:12:25.000Z</time>
      </trkpt>
      <trkpt lat="44.08173" lon="7.4039">
        <ele>1781</ele>
        <time>2018-04-22T09:12:27.000Z</time>
      </trkpt>
      <trkpt lat="44.08165" lon="7.40389">
        <ele>1772</ele>
        <time>2018-04-22T09:12:34.000Z</time>
      </trkpt>
      <trkpt lat="44.08152" lon="7.40385">
        <ele>1771</ele>
        <time>2018-04-22T09:12:38.000Z</time>
      </trkpt>
      <trkpt lat="44.08138" lon="7.40383">
        <ele>1769</ele>
        <time>2018-04-22T09:12:41.000Z</time>
      </trkpt>
      <trkpt lat="44.0813" lon="7.40383">
        <ele>1768</ele>
        <time>2018-04-22T09:12:43.000Z</time>
      </trkpt>
      <trkpt lat="44.08117" lon="7.40384">
        <ele>1767</ele>
        <time>2018-04-22T09:12:46.000Z</time>
      </trkpt>
      <trkpt lat="44.08113" lon="7.40385">
        <ele>1767</ele>
        <time>2018-04-22T09:12:47.000Z</time>
      </trkpt>
      <trkpt lat="44.08109" lon="7.40386">
        <ele>1767</ele>
        <time>2018-04-22T09:12:48.000Z</time>
      </trkpt>
      <trkpt lat="44.08102" lon="7.4039">
        <ele>1767</ele>
        <time>2018-04-22T09:12:51.000Z</time>
      </trkpt>
      <trkpt lat="44.081" lon="7.4039">
        <ele>1767</ele>
        <time>2018-04-22T09:12:52.000Z</time>
      </trkpt>
      <trkpt lat="44.08091" lon="7.40396">
        <ele>1767</ele>
        <time>2018-04-22T09:12:58.000Z</time>
      </trkpt>
      <trkpt lat="44.08085" lon="7.40398">
        <ele>1768</ele>
        <time>2018-04-22T09:13:01.000Z</time>
      </trkpt>
      <trkpt lat="44.08083" lon="7.404">
        <ele>1761</ele>
        <time>2018-04-22T09:13:03.000Z</time>
      </trkpt>
      <trkpt lat="44.0808" lon="7.404">
        <ele>1761</ele>
        <time>2018-04-22T09:13:07.000Z</time>
      </trkpt>
      <trkpt lat="44.08074" lon="7.40402">
        <ele>1760</ele>
        <time>2018-04-22T09:13:11.000Z</time>
      </trkpt>
      <trkpt lat="44.08073" lon="7.40401">
        <ele>1760</ele>
        <time>2018-04-22T09:13:13.000Z</time>
      </trkpt>
      <trkpt lat="44.08073" lon="7.40401">
        <ele>1760</ele>
        <time>2018-04-22T09:13:18.000Z</time>
      </trkpt>
      <trkpt lat="44.08074" lon="7.40401">
        <ele>1760</ele>
        <time>2018-04-22T09:13:31.000Z</time>
      </trkpt>
      <trkpt lat="44.08072" lon="7.40401">
        <ele>1759</ele>
        <time>2018-04-22T09:13:38.000Z</time>
      </trkpt>
      <trkpt lat="44.08065" lon="7.40409">
        <ele>1759</ele>
        <time>2018-04-22T09:13:43.000Z</time>
      </trkpt>
      <trkpt lat="44.08062" lon="7.40412">
        <ele>1759</ele>
        <time>2018-04-22T09:13:48.000Z</time>
      </trkpt>
      <trkpt lat="44.08052" lon="7.40418">
        <ele>1770</ele>
        <time>2018-04-22T09:13:53.000Z</time>
      </trkpt>
      <trkpt lat="44.08044" lon="7.40424">
        <ele>1769</ele>
        <time>2018-04-22T09:13:58.000Z</time>
      </trkpt>
      <trkpt lat="44.08044" lon="7.40423">
        <ele>1769</ele>
        <time>2018-04-22T09:13:59.000Z</time>
      </trkpt>
      <trkpt lat="44.08043" lon="7.40424">
        <ele>1769</ele>
        <time>2018-04-22T09:14:03.000Z</time>
      </trkpt>
      <trkpt lat="44.08042" lon="7.40425">
        <ele>1769</ele>
        <time>2018-04-22T09:14:09.000Z</time>
      </trkpt>
      <trkpt lat="44.08037" lon="7.40429">
        <ele>1768</ele>
        <time>2018-04-22T09:14:14.000Z</time>
      </trkpt>
      <trkpt lat="44.08026" lon="7.40435">
        <ele>1767</ele>
        <time>2018-04-22T09:14:19.000Z</time>
      </trkpt>
      <trkpt lat="44.08019" lon="7.40441">
        <ele>1767</ele>
        <time>2018-04-22T09:14:21.000Z</time>
      </trkpt>
      <trkpt lat="44.08012" lon="7.40445">
        <ele>1767</ele>
        <time>2018-04-22T09:14:23.000Z</time>
      </trkpt>
      <trkpt lat="44.07998" lon="7.40451">
        <ele>1759</ele>
        <time>2018-04-22T09:14:26.000Z</time>
      </trkpt>
      <trkpt lat="44.0799" lon="7.40455">
        <ele>1759</ele>
        <time>2018-04-22T09:14:28.000Z</time>
      </trkpt>
      <trkpt lat="44.07977" lon="7.40456">
        <ele>1759</ele>
        <time>2018-04-22T09:14:31.000Z</time>
      </trkpt>
      <trkpt lat="44.07971" lon="7.40453">
        <ele>1758</ele>
        <time>2018-04-22T09:14:33.000Z</time>
      </trkpt>
      <trkpt lat="44.07971" lon="7.40453">
        <ele>1758</ele>
        <time>2018-04-22T09:14:34.000Z</time>
      </trkpt>
      <trkpt lat="44.07971" lon="7.40454">
        <ele>1758</ele>
        <time>2018-04-22T09:14:42.000Z</time>
      </trkpt>
      <trkpt lat="44.07969" lon="7.40454">
        <ele>1758</ele>
        <time>2018-04-22T09:14:48.000Z</time>
      </trkpt>
      <trkpt lat="44.07964" lon="7.40458">
        <ele>1759</ele>
        <time>2018-04-22T09:14:52.000Z</time>
      </trkpt>
      <trkpt lat="44.07961" lon="7.40458">
        <ele>1759</ele>
        <time>2018-04-22T09:14:55.000Z</time>
      </trkpt>
      <trkpt lat="44.07962" lon="7.40458">
        <ele>1759</ele>
        <time>2018-04-22T09:14:56.000Z</time>
      </trkpt>
      <trkpt lat="44.07962" lon="7.40457">
        <ele>1759</ele>
        <time>2018-04-22T09:15:04.000Z</time>
      </trkpt>
      <trkpt lat="44.07963" lon="7.40457">
        <ele>1758</ele>
        <time>2018-04-22T09:15:13.000Z</time>
      </trkpt>
      <trkpt lat="44.07963" lon="7.40456">
        <ele>1758</ele>
        <time>2018-04-22T09:15:32.000Z</time>
      </trkpt>
      <trkpt lat="44.07954" lon="7.40457">
        <ele>1758</ele>
        <time>2018-04-22T09:15:37.000Z</time>
      </trkpt>
      <trkpt lat="44.0795" lon="7.40457">
        <ele>1758</ele>
        <time>2018-04-22T09:15:38.000Z</time>
      </trkpt>
      <trkpt lat="44.07941" lon="7.40456">
        <ele>1757</ele>
        <time>2018-04-22T09:15:41.000Z</time>
      </trkpt>
      <trkpt lat="44.07938" lon="7.40456">
        <ele>1757</ele>
        <time>2018-04-22T09:15:42.000Z</time>
      </trkpt>
      <trkpt lat="44.07931" lon="7.40454">
        <ele>1756</ele>
        <time>2018-04-22T09:15:45.000Z</time>
      </trkpt>
      <trkpt lat="44.07932" lon="7.40454">
        <ele>1756</ele>
        <time>2018-04-22T09:15:46.000Z</time>
      </trkpt>
      <trkpt lat="44.07926" lon="7.40452">
        <ele>1755</ele>
        <time>2018-04-22T09:15:54.000Z</time>
      </trkpt>
      <trkpt lat="44.07916" lon="7.40451">
        <ele>1751</ele>
        <time>2018-04-22T09:15:58.000Z</time>
      </trkpt>
      <trkpt lat="44.07906" lon="7.40447">
        <ele>1750</ele>
        <time>2018-04-22T09:16:01.000Z</time>
      </trkpt>
      <trkpt lat="44.07902" lon="7.40445">
        <ele>1749</ele>
        <time>2018-04-22T09:16:02.000Z</time>
      </trkpt>
      <trkpt lat="44.07894" lon="7.40439">
        <ele>1748</ele>
        <time>2018-04-22T09:16:05.000Z</time>
      </trkpt>
      <trkpt lat="44.07888" lon="7.40436">
        <ele>1748</ele>
        <time>2018-04-22T09:16:07.000Z</time>
      </trkpt>
      <trkpt lat="44.07887" lon="7.40431">
        <ele>1747</ele>
        <time>2018-04-22T09:16:08.000Z</time>
      </trkpt>
      <trkpt lat="44.07883" lon="7.40427">
        <ele>1747</ele>
        <time>2018-04-22T09:16:09.000Z</time>
      </trkpt>
      <trkpt lat="44.07879" lon="7.40424">
        <ele>1747</ele>
        <time>2018-04-22T09:16:10.000Z</time>
      </trkpt>
      <trkpt lat="44.07875" lon="7.4042">
        <ele>1746</ele>
        <time>2018-04-22T09:16:11.000Z</time>
      </trkpt>
      <trkpt lat="44.0787" lon="7.40418">
        <ele>1746</ele>
        <time>2018-04-22T09:16:13.000Z</time>
      </trkpt>
      <trkpt lat="44.07866" lon="7.40415">
        <ele>1731</ele>
        <time>2018-04-22T09:16:14.000Z</time>
      </trkpt>
      <trkpt lat="44.07859" lon="7.4041">
        <ele>1731</ele>
        <time>2018-04-22T09:16:15.000Z</time>
      </trkpt>
      <trkpt lat="44.07855" lon="7.40409">
        <ele>1731</ele>
        <time>2018-04-22T09:16:16.000Z</time>
      </trkpt>
      <trkpt lat="44.07852" lon="7.40407">
        <ele>1731</ele>
        <time>2018-04-22T09:16:17.000Z</time>
      </trkpt>
      <trkpt lat="44.07847" lon="7.40405">
        <ele>1731</ele>
        <time>2018-04-22T09:16:19.000Z</time>
      </trkpt>
      <trkpt lat="44.07842" lon="7.40402">
        <ele>1731</ele>
        <time>2018-04-22T09:16:21.000Z</time>
      </trkpt>
      <trkpt lat="44.0784" lon="7.40401">
        <ele>1731</ele>
        <time>2018-04-22T09:16:23.000Z</time>
      </trkpt>
      <trkpt lat="44.0784" lon="7.40401">
        <ele>1731</ele>
        <time>2018-04-22T09:16:24.000Z</time>
      </trkpt>
      <trkpt lat="44.0784" lon="7.404">
        <ele>1731</ele>
        <time>2018-04-22T09:16:25.000Z</time>
      </trkpt>
      <trkpt lat="44.07834" lon="7.40387">
        <ele>1729</ele>
        <time>2018-04-22T09:16:28.000Z</time>
      </trkpt>
      <trkpt lat="44.0783" lon="7.40382">
        <ele>1726</ele>
        <time>2018-04-22T09:16:29.000Z</time>
      </trkpt>
      <trkpt lat="44.0782" lon="7.40376">
        <ele>1725</ele>
        <time>2018-04-22T09:16:31.000Z</time>
      </trkpt>
      <trkpt lat="44.0781" lon="7.40376">
        <ele>1725</ele>
        <time>2018-04-22T09:16:33.000Z</time>
      </trkpt>
      <trkpt lat="44.07807" lon="7.40377">
        <ele>1725</ele>
        <time>2018-04-22T09:16:34.000Z</time>
      </trkpt>
      <trkpt lat="44.07805" lon="7.40377">
        <ele>1725</ele>
        <time>2018-04-22T09:16:35.000Z</time>
      </trkpt>
      <trkpt lat="44.07798" lon="7.40375">
        <ele>1725</ele>
        <time>2018-04-22T09:16:37.000Z</time>
      </trkpt>
      <trkpt lat="44.07795" lon="7.40374">
        <ele>1725</ele>
        <time>2018-04-22T09:16:38.000Z</time>
      </trkpt>
      <trkpt lat="44.07789" lon="7.4037">
        <ele>1724</ele>
        <time>2018-04-22T09:16:40.000Z</time>
      </trkpt>
      <trkpt lat="44.07779" lon="7.4036">
        <ele>1723</ele>
        <time>2018-04-22T09:16:43.000Z</time>
      </trkpt>
      <trkpt lat="44.07767" lon="7.40353">
        <ele>1721</ele>
        <time>2018-04-22T09:16:46.000Z</time>
      </trkpt>
      <trkpt lat="44.07757" lon="7.4035">
        <ele>1720</ele>
        <time>2018-04-22T09:16:48.000Z</time>
      </trkpt>
      <trkpt lat="44.07751" lon="7.40351">
        <ele>1720</ele>
        <time>2018-04-22T09:16:50.000Z</time>
      </trkpt>
      <trkpt lat="44.07751" lon="7.4035">
        <ele>1720</ele>
        <time>2018-04-22T09:16:51.000Z</time>
      </trkpt>
      <trkpt lat="44.0775" lon="7.4035">
        <ele>1720</ele>
        <time>2018-04-22T09:16:52.000Z</time>
      </trkpt>
      <trkpt lat="44.0775" lon="7.4035">
        <ele>1720</ele>
        <time>2018-04-22T09:16:53.000Z</time>
      </trkpt>
      <trkpt lat="44.07745" lon="7.40345">
        <ele>1719</ele>
        <time>2018-04-22T09:16:58.000Z</time>
      </trkpt>
      <trkpt lat="44.07739" lon="7.40341">
        <ele>1719</ele>
        <time>2018-04-22T09:16:59.000Z</time>
      </trkpt>
      <trkpt lat="44.07735" lon="7.4034">
        <ele>1720</ele>
        <time>2018-04-22T09:17:00.000Z</time>
      </trkpt>
      <trkpt lat="44.07728" lon="7.40337">
        <ele>1720</ele>
        <time>2018-04-22T09:17:02.000Z</time>
      </trkpt>
      <trkpt lat="44.07723" lon="7.40336">
        <ele>1721</ele>
        <time>2018-04-22T09:17:04.000Z</time>
      </trkpt>
      <trkpt lat="44.07721" lon="7.40336">
        <ele>1721</ele>
        <time>2018-04-22T09:17:06.000Z</time>
      </trkpt>
      <trkpt lat="44.0772" lon="7.40336">
        <ele>1721</ele>
        <time>2018-04-22T09:17:08.000Z</time>
      </trkpt>
      <trkpt lat="44.07719" lon="7.40336">
        <ele>1721</ele>
        <time>2018-04-22T09:17:10.000Z</time>
      </trkpt>
      <trkpt lat="44.07714" lon="7.40336">
        <ele>1721</ele>
        <time>2018-04-22T09:17:14.000Z</time>
      </trkpt>
      <trkpt lat="44.07703" lon="7.4033">
        <ele>1711</ele>
        <time>2018-04-22T09:17:21.000Z</time>
      </trkpt>
      <trkpt lat="44.077" lon="7.40328">
        <ele>1711</ele>
        <time>2018-04-22T09:17:23.000Z</time>
      </trkpt>
      <trkpt lat="44.07692" lon="7.40323">
        <ele>1711</ele>
        <time>2018-04-22T09:17:26.000Z</time>
      </trkpt>
      <trkpt lat="44.07683" lon="7.40319">
        <ele>1711</ele>
        <time>2018-04-22T09:17:29.000Z</time>
      </trkpt>
      <trkpt lat="44.07678" lon="7.40318">
        <ele>1711</ele>
        <time>2018-04-22T09:17:31.000Z</time>
      </trkpt>
      <trkpt lat="44.07665" lon="7.40314">
        <ele>1709</ele>
        <time>2018-04-22T09:17:37.000Z</time>
      </trkpt>
      <trkpt lat="44.07662" lon="7.40314">
        <ele>1709</ele>
        <time>2018-04-22T09:17:42.000Z</time>
      </trkpt>
      <trkpt lat="44.07658" lon="7.40313">
        <ele>1709</ele>
        <time>2018-04-22T09:17:49.000Z</time>
      </trkpt>
      <trkpt lat="44.07656" lon="7.40311">
        <ele>1708</ele>
        <time>2018-04-22T09:17:56.000Z</time>
      </trkpt>
      <trkpt lat="44.07654" lon="7.40312">
        <ele>1708</ele>
        <time>2018-04-22T09:17:57.000Z</time>
      </trkpt>
      <trkpt lat="44.07654" lon="7.40311">
        <ele>1708</ele>
        <time>2018-04-22T09:17:59.000Z</time>
      </trkpt>
      <trkpt lat="44.07653" lon="7.40311">
        <ele>1708</ele>
        <time>2018-04-22T09:18:00.000Z</time>
      </trkpt>
      <trkpt lat="44.07646" lon="7.40305">
        <ele>1707</ele>
        <time>2018-04-22T09:18:06.000Z</time>
      </trkpt>
      <trkpt lat="44.07635" lon="7.40301">
        <ele>1706</ele>
        <time>2018-04-22T09:18:10.000Z</time>
      </trkpt>
      <trkpt lat="44.07627" lon="7.40299">
        <ele>1706</ele>
        <time>2018-04-22T09:18:13.000Z</time>
      </trkpt>
      <trkpt lat="44.07621" lon="7.40297">
        <ele>1705</ele>
        <time>2018-04-22T09:18:15.000Z</time>
      </trkpt>
      <trkpt lat="44.07609" lon="7.40296">
        <ele>1705</ele>
        <time>2018-04-22T09:18:20.000Z</time>
      </trkpt>
      <trkpt lat="44.07607" lon="7.40296">
        <ele>1705</ele>
        <time>2018-04-22T09:18:21.000Z</time>
      </trkpt>
      <trkpt lat="44.07601" lon="7.40299">
        <ele>1705</ele>
        <time>2018-04-22T09:18:24.000Z</time>
      </trkpt>
      <trkpt lat="44.07595" lon="7.40304">
        <ele>1706</ele>
        <time>2018-04-22T09:18:27.000Z</time>
      </trkpt>
      <trkpt lat="44.07586" lon="7.40311">
        <ele>1706</ele>
        <time>2018-04-22T09:18:30.000Z</time>
      </trkpt>
      <trkpt lat="44.07583" lon="7.4031">
        <ele>1706</ele>
        <time>2018-04-22T09:18:31.000Z</time>
      </trkpt>
      <trkpt lat="44.07576" lon="7.40307">
        <ele>1706</ele>
        <time>2018-04-22T09:18:33.000Z</time>
      </trkpt>
      <trkpt lat="44.07574" lon="7.40305">
        <ele>1706</ele>
        <time>2018-04-22T09:18:35.000Z</time>
      </trkpt>
      <trkpt lat="44.07571" lon="7.40303">
        <ele>1705</ele>
        <time>2018-04-22T09:18:37.000Z</time>
      </trkpt>
      <trkpt lat="44.07566" lon="7.40301">
        <ele>1705</ele>
        <time>2018-04-22T09:18:39.000Z</time>
      </trkpt>
      <trkpt lat="44.07562" lon="7.40297">
        <ele>1705</ele>
        <time>2018-04-22T09:18:41.000Z</time>
      </trkpt>
      <trkpt lat="44.07554" lon="7.40291">
        <ele>1704</ele>
        <time>2018-04-22T09:18:44.000Z</time>
      </trkpt>
      <trkpt lat="44.07542" lon="7.40283">
        <ele>1704</ele>
        <time>2018-04-22T09:18:48.000Z</time>
      </trkpt>
      <trkpt lat="44.07537" lon="7.40279">
        <ele>1703</ele>
        <time>2018-04-22T09:18:52.000Z</time>
      </trkpt>
      <trkpt lat="44.07534" lon="7.40279">
        <ele>1703</ele>
        <time>2018-04-22T09:18:58.000Z</time>
      </trkpt>
      <trkpt lat="44.0753" lon="7.40278">
        <ele>1703</ele>
        <time>2018-04-22T09:19:05.000Z</time>
      </trkpt>
      <trkpt lat="44.0752" lon="7.40277">
        <ele>1703</ele>
        <time>2018-04-22T09:19:10.000Z</time>
      </trkpt>
      <trkpt lat="44.0751" lon="7.40273">
        <ele>1701</ele>
        <time>2018-04-22T09:19:12.000Z</time>
      </trkpt>
      <trkpt lat="44.07505" lon="7.40269">
        <ele>1700</ele>
        <time>2018-04-22T09:19:13.000Z</time>
      </trkpt>
      <trkpt lat="44.07503" lon="7.40266">
        <ele>1700</ele>
        <time>2018-04-22T09:19:14.000Z</time>
      </trkpt>
      <trkpt lat="44.07503" lon="7.40265">
        <ele>1699</ele>
        <time>2018-04-22T09:19:15.000Z</time>
      </trkpt>
      <trkpt lat="44.07502" lon="7.40263">
        <ele>1699</ele>
        <time>2018-04-22T09:19:17.000Z</time>
      </trkpt>
      <trkpt lat="44.07502" lon="7.40261">
        <ele>1698</ele>
        <time>2018-04-22T09:19:18.000Z</time>
      </trkpt>
      <trkpt lat="44.07496" lon="7.40255">
        <ele>1699</ele>
        <time>2018-04-22T09:19:21.000Z</time>
      </trkpt>
      <trkpt lat="44.07489" lon="7.4025">
        <ele>1702</ele>
        <time>2018-04-22T09:19:24.000Z</time>
      </trkpt>
      <trkpt lat="44.07485" lon="7.40247">
        <ele>1696</ele>
        <time>2018-04-22T09:19:26.000Z</time>
      </trkpt>
      <trkpt lat="44.07477" lon="7.40242">
        <ele>1697</ele>
        <time>2018-04-22T09:19:30.000Z</time>
      </trkpt>
      <trkpt lat="44.07464" lon="7.40237">
        <ele>1699</ele>
        <time>2018-04-22T09:19:35.000Z</time>
      </trkpt>
      <trkpt lat="44.07454" lon="7.40233">
        <ele>1700</ele>
        <time>2018-04-22T09:19:38.000Z</time>
      </trkpt>
      <trkpt lat="44.07449" lon="7.40232">
        <ele>1700</ele>
        <time>2018-04-22T09:19:40.000Z</time>
      </trkpt>
      <trkpt lat="44.07443" lon="7.40231">
        <ele>1701</ele>
        <time>2018-04-22T09:19:42.000Z</time>
      </trkpt>
      <trkpt lat="44.07438" lon="7.40228">
        <ele>1701</ele>
        <time>2018-04-22T09:19:44.000Z</time>
      </trkpt>
      <trkpt lat="44.07434" lon="7.40224">
        <ele>1701</ele>
        <time>2018-04-22T09:19:48.000Z</time>
      </trkpt>
      <trkpt lat="44.07425" lon="7.40212">
        <ele>1700</ele>
        <time>2018-04-22T09:19:53.000Z</time>
      </trkpt>
      <trkpt lat="44.0742" lon="7.40201">
        <ele>1698</ele>
        <time>2018-04-22T09:19:58.000Z</time>
      </trkpt>
      <trkpt lat="44.07416" lon="7.40195">
        <ele>1709</ele>
        <time>2018-04-22T09:20:00.000Z</time>
      </trkpt>
      <trkpt lat="44.07411" lon="7.40179">
        <ele>1703</ele>
        <time>2018-04-22T09:20:05.000Z</time>
      </trkpt>
      <trkpt lat="44.07404" lon="7.40156">
        <ele>1694</ele>
        <time>2018-04-22T09:20:11.000Z</time>
      </trkpt>
      <trkpt lat="44.07404" lon="7.40152">
        <ele>1694</ele>
        <time>2018-04-22T09:20:12.000Z</time>
      </trkpt>
      <trkpt lat="44.07405" lon="7.40139">
        <ele>1694</ele>
        <time>2018-04-22T09:20:16.000Z</time>
      </trkpt>
      <trkpt lat="44.07407" lon="7.40135">
        <ele>1693</ele>
        <time>2018-04-22T09:20:19.000Z</time>
      </trkpt>
      <trkpt lat="44.07407" lon="7.40132">
        <ele>1693</ele>
        <time>2018-04-22T09:20:20.000Z</time>
      </trkpt>
      <trkpt lat="44.07406" lon="7.40127">
        <ele>1693</ele>
        <time>2018-04-22T09:20:24.000Z</time>
      </trkpt>
      <trkpt lat="44.07406" lon="7.40125">
        <ele>1693</ele>
        <time>2018-04-22T09:20:36.000Z</time>
      </trkpt>
      <trkpt lat="44.07404" lon="7.40122">
        <ele>1693</ele>
        <time>2018-04-22T09:20:42.000Z</time>
      </trkpt>
      <trkpt lat="44.07406" lon="7.40125">
        <ele>1693</ele>
        <time>2018-04-22T09:20:51.000Z</time>
      </trkpt>
      <trkpt lat="44.07408" lon="7.40121">
        <ele>1693</ele>
        <time>2018-04-22T09:20:56.000Z</time>
      </trkpt>
      <trkpt lat="44.07407" lon="7.40119">
        <ele>1692</ele>
        <time>2018-04-22T09:20:57.000Z</time>
      </trkpt>
      <trkpt lat="44.07407" lon="7.40114">
        <ele>1692</ele>
        <time>2018-04-22T09:21:01.000Z</time>
      </trkpt>
      <trkpt lat="44.07408" lon="7.40109">
        <ele>1692</ele>
        <time>2018-04-22T09:21:05.000Z</time>
      </trkpt>
      <trkpt lat="44.07407" lon="7.40106">
        <ele>1691</ele>
        <time>2018-04-22T09:21:07.000Z</time>
      </trkpt>
      <trkpt lat="44.07409" lon="7.401">
        <ele>1691</ele>
        <time>2018-04-22T09:21:12.000Z</time>
      </trkpt>
      <trkpt lat="44.07409" lon="7.40094">
        <ele>1690</ele>
        <time>2018-04-22T09:21:18.000Z</time>
      </trkpt>
      <trkpt lat="44.07408" lon="7.40088">
        <ele>1690</ele>
        <time>2018-04-22T09:21:23.000Z</time>
      </trkpt>
      <trkpt lat="44.07408" lon="7.40082">
        <ele>1688</ele>
        <time>2018-04-22T09:21:30.000Z</time>
      </trkpt>
      <trkpt lat="44.07408" lon="7.40081">
        <ele>1688</ele>
        <time>2018-04-22T09:21:37.000Z</time>
      </trkpt>
      <trkpt lat="44.07409" lon="7.4008">
        <ele>1688</ele>
        <time>2018-04-22T09:21:51.000Z</time>
      </trkpt>
      <trkpt lat="44.07407" lon="7.40079">
        <ele>1688</ele>
        <time>2018-04-22T09:22:00.000Z</time>
      </trkpt>
      <trkpt lat="44.07409" lon="7.4008">
        <ele>1688</ele>
        <time>2018-04-22T09:22:01.000Z</time>
      </trkpt>
      <trkpt lat="44.07408" lon="7.40079">
        <ele>1688</ele>
        <time>2018-04-22T09:22:08.000Z</time>
      </trkpt>
      <trkpt lat="44.07409" lon="7.40079">
        <ele>1688</ele>
        <time>2018-04-22T09:22:23.000Z</time>
      </trkpt>
      <trkpt lat="44.0741" lon="7.40079">
        <ele>1688</ele>
        <time>2018-04-22T09:22:34.000Z</time>
      </trkpt>
      <trkpt lat="44.07409" lon="7.40079">
        <ele>1688</ele>
        <time>2018-04-22T09:22:42.000Z</time>
      </trkpt>
      <trkpt lat="44.07408" lon="7.40077">
        <ele>1688</ele>
        <time>2018-04-22T09:22:47.000Z</time>
      </trkpt>
      <trkpt lat="44.07408" lon="7.40074">
        <ele>1688</ele>
        <time>2018-04-22T09:22:49.000Z</time>
      </trkpt>
      <trkpt lat="44.07407" lon="7.40069">
        <ele>1688</ele>
        <time>2018-04-22T09:22:53.000Z</time>
      </trkpt>
      <trkpt lat="44.07406" lon="7.40066">
        <ele>1689</ele>
        <time>2018-04-22T09:22:55.000Z</time>
      </trkpt>
      <trkpt lat="44.07405" lon="7.40058">
        <ele>1689</ele>
        <time>2018-04-22T09:23:00.000Z</time>
      </trkpt>
      <trkpt lat="44.07404" lon="7.40051">
        <ele>1689</ele>
        <time>2018-04-22T09:23:04.000Z</time>
      </trkpt>
      <trkpt lat="44.074" lon="7.40041">
        <ele>1690</ele>
        <time>2018-04-22T09:23:08.000Z</time>
      </trkpt>
      <trkpt lat="44.074" lon="7.40035">
        <ele>1690</ele>
        <time>2018-04-22T09:23:12.000Z</time>
      </trkpt>
      <trkpt lat="44.07399" lon="7.4003">
        <ele>1690</ele>
        <time>2018-04-22T09:23:17.000Z</time>
      </trkpt>
      <trkpt lat="44.074" lon="7.40029">
        <ele>1690</ele>
        <time>2018-04-22T09:23:24.000Z</time>
      </trkpt>
      <trkpt lat="44.07397" lon="7.40027">
        <ele>1690</ele>
        <time>2018-04-22T09:23:30.000Z</time>
      </trkpt>
      <trkpt lat="44.07394" lon="7.40024">
        <ele>1690</ele>
        <time>2018-04-22T09:23:32.000Z</time>
      </trkpt>
      <trkpt lat="44.07392" lon="7.4002">
        <ele>1690</ele>
        <time>2018-04-22T09:23:35.000Z</time>
      </trkpt>
      <trkpt lat="44.0739" lon="7.40015">
        <ele>1690</ele>
        <time>2018-04-22T09:23:38.000Z</time>
      </trkpt>
      <trkpt lat="44.07388" lon="7.40012">
        <ele>1690</ele>
        <time>2018-04-22T09:23:40.000Z</time>
      </trkpt>
      <trkpt lat="44.07386" lon="7.4001">
        <ele>1690</ele>
        <time>2018-04-22T09:23:41.000Z</time>
      </trkpt>
      <trkpt lat="44.07376" lon="7.40003">
        <ele>1690</ele>
        <time>2018-04-22T09:23:45.000Z</time>
      </trkpt>
      <trkpt lat="44.07364" lon="7.39992">
        <ele>1696</ele>
        <time>2018-04-22T09:23:50.000Z</time>
      </trkpt>
      <trkpt lat="44.07351" lon="7.39984">
        <ele>1695</ele>
        <time>2018-04-22T09:23:55.000Z</time>
      </trkpt>
      <trkpt lat="44.07341" lon="7.3998">
        <ele>1694</ele>
        <time>2018-04-22T09:23:59.000Z</time>
      </trkpt>
      <trkpt lat="44.07335" lon="7.39976">
        <ele>1695</ele>
        <time>2018-04-22T09:24:03.000Z</time>
      </trkpt>
      <trkpt lat="44.07327" lon="7.39972">
        <ele>1690</ele>
        <time>2018-04-22T09:24:08.000Z</time>
      </trkpt>
      <trkpt lat="44.07325" lon="7.39971">
        <ele>1690</ele>
        <time>2018-04-22T09:24:10.000Z</time>
      </trkpt>
      <trkpt lat="44.0732" lon="7.3997">
        <ele>1690</ele>
        <time>2018-04-22T09:24:13.000Z</time>
      </trkpt>
      <trkpt lat="44.07313" lon="7.39967">
        <ele>1690</ele>
        <time>2018-04-22T09:24:16.000Z</time>
      </trkpt>
      <trkpt lat="44.07307" lon="7.39966">
        <ele>1690</ele>
        <time>2018-04-22T09:24:20.000Z</time>
      </trkpt>
      <trkpt lat="44.07301" lon="7.39965">
        <ele>1690</ele>
        <time>2018-04-22T09:24:25.000Z</time>
      </trkpt>
      <trkpt lat="44.07297" lon="7.39967">
        <ele>1690</ele>
        <time>2018-04-22T09:24:29.000Z</time>
      </trkpt>
      <trkpt lat="44.07291" lon="7.3997">
        <ele>1689</ele>
        <time>2018-04-22T09:24:35.000Z</time>
      </trkpt>
      <trkpt lat="44.07287" lon="7.39973">
        <ele>1689</ele>
        <time>2018-04-22T09:24:39.000Z</time>
      </trkpt>
      <trkpt lat="44.07279" lon="7.39977">
        <ele>1688</ele>
        <time>2018-04-22T09:24:44.000Z</time>
      </trkpt>
      <trkpt lat="44.07269" lon="7.3998">
        <ele>1687</ele>
        <time>2018-04-22T09:24:48.000Z</time>
      </trkpt>
      <trkpt lat="44.07256" lon="7.39981">
        <ele>1686</ele>
        <time>2018-04-22T09:24:54.000Z</time>
      </trkpt>
      <trkpt lat="44.07252" lon="7.39982">
        <ele>1685</ele>
        <time>2018-04-22T09:24:56.000Z</time>
      </trkpt>
      <trkpt lat="44.07245" lon="7.39984">
        <ele>1681</ele>
        <time>2018-04-22T09:24:59.000Z</time>
      </trkpt>
      <trkpt lat="44.07238" lon="7.39985">
        <ele>1681</ele>
        <time>2018-04-22T09:25:04.000Z</time>
      </trkpt>
      <trkpt lat="44.07238" lon="7.39985">
        <ele>1681</ele>
        <time>2018-04-22T09:25:11.000Z</time>
      </trkpt>
      <trkpt lat="44.07235" lon="7.39982">
        <ele>1681</ele>
        <time>2018-04-22T09:25:18.000Z</time>
      </trkpt>
      <trkpt lat="44.07231" lon="7.3998">
        <ele>1681</ele>
        <time>2018-04-22T09:25:26.000Z</time>
      </trkpt>
      <trkpt lat="44.07229" lon="7.3998">
        <ele>1681</ele>
        <time>2018-04-22T09:25:33.000Z</time>
      </trkpt>
      <trkpt lat="44.07225" lon="7.39979">
        <ele>1681</ele>
        <time>2018-04-22T09:25:40.000Z</time>
      </trkpt>
      <trkpt lat="44.07222" lon="7.39978">
        <ele>1681</ele>
        <time>2018-04-22T09:25:47.000Z</time>
      </trkpt>
      <trkpt lat="44.07218" lon="7.39976">
        <ele>1681</ele>
        <time>2018-04-22T09:25:53.000Z</time>
      </trkpt>
      <trkpt lat="44.07215" lon="7.39974">
        <ele>1681</ele>
        <time>2018-04-22T09:26:00.000Z</time>
      </trkpt>
      <trkpt lat="44.07212" lon="7.39971">
        <ele>1681</ele>
        <time>2018-04-22T09:26:05.000Z</time>
      </trkpt>
      <trkpt lat="44.07208" lon="7.39968">
        <ele>1681</ele>
        <time>2018-04-22T09:26:12.000Z</time>
      </trkpt>
      <trkpt lat="44.07203" lon="7.39964">
        <ele>1681</ele>
        <time>2018-04-22T09:26:19.000Z</time>
      </trkpt>
      <trkpt lat="44.07201" lon="7.39962">
        <ele>1681</ele>
        <time>2018-04-22T09:26:27.000Z</time>
      </trkpt>
      <trkpt lat="44.072" lon="7.39961">
        <ele>1681</ele>
        <time>2018-04-22T09:26:35.000Z</time>
      </trkpt>
      <trkpt lat="44.07194" lon="7.39953">
        <ele>1681</ele>
        <time>2018-04-22T09:26:41.000Z</time>
      </trkpt>
      <trkpt lat="44.07193" lon="7.39952">
        <ele>1681</ele>
        <time>2018-04-22T09:26:43.000Z</time>
      </trkpt>
      <trkpt lat="44.07191" lon="7.39949">
        <ele>1682</ele>
        <time>2018-04-22T09:26:46.000Z</time>
      </trkpt>
      <trkpt lat="44.07185" lon="7.3994">
        <ele>1682</ele>
        <time>2018-04-22T09:26:52.000Z</time>
      </trkpt>
      <trkpt lat="44.07173" lon="7.39934">
        <ele>1682</ele>
        <time>2018-04-22T09:26:56.000Z</time>
      </trkpt>
      <trkpt lat="44.07164" lon="7.39932">
        <ele>1677</ele>
        <time>2018-04-22T09:26:59.000Z</time>
      </trkpt>
      <trkpt lat="44.07157" lon="7.39932">
        <ele>1676</ele>
        <time>2018-04-22T09:27:02.000Z</time>
      </trkpt>
      <trkpt lat="44.07146" lon="7.39932">
        <ele>1674</ele>
        <time>2018-04-22T09:27:06.000Z</time>
      </trkpt>
      <trkpt lat="44.07143" lon="7.39932">
        <ele>1673</ele>
        <time>2018-04-22T09:27:07.000Z</time>
      </trkpt>
      <trkpt lat="44.07133" lon="7.39933">
        <ele>1671</ele>
        <time>2018-04-22T09:27:10.000Z</time>
      </trkpt>
      <trkpt lat="44.07122" lon="7.39936">
        <ele>1670</ele>
        <time>2018-04-22T09:27:14.000Z</time>
      </trkpt>
      <trkpt lat="44.07118" lon="7.39937">
        <ele>1669</ele>
        <time>2018-04-22T09:27:15.000Z</time>
      </trkpt>
      <trkpt lat="44.07105" lon="7.3994">
        <ele>1668</ele>
        <time>2018-04-22T09:27:19.000Z</time>
      </trkpt>
      <trkpt lat="44.07098" lon="7.3994">
        <ele>1667</ele>
        <time>2018-04-22T09:27:21.000Z</time>
      </trkpt>
      <trkpt lat="44.07092" lon="7.39937">
        <ele>1667</ele>
        <time>2018-04-22T09:27:23.000Z</time>
      </trkpt>
      <trkpt lat="44.07084" lon="7.39931">
        <ele>1667</ele>
        <time>2018-04-22T09:27:26.000Z</time>
      </trkpt>
      <trkpt lat="44.07081" lon="7.39928">
        <ele>1662</ele>
        <time>2018-04-22T09:27:28.000Z</time>
      </trkpt>
      <trkpt lat="44.07079" lon="7.39922">
        <ele>1664</ele>
        <time>2018-04-22T09:27:31.000Z</time>
      </trkpt>
      <trkpt lat="44.07079" lon="7.39922">
        <ele>1664</ele>
        <time>2018-04-22T09:27:33.000Z</time>
      </trkpt>
      <trkpt lat="44.07079" lon="7.39922">
        <ele>1664</ele>
        <time>2018-04-22T09:27:35.000Z</time>
      </trkpt>
      <trkpt lat="44.07079" lon="7.39921">
        <ele>1664</ele>
        <time>2018-04-22T09:27:47.000Z</time>
      </trkpt>
      <trkpt lat="44.0708" lon="7.3992">
        <ele>1664</ele>
        <time>2018-04-22T09:27:58.000Z</time>
      </trkpt>
      <trkpt lat="44.0708" lon="7.3992">
        <ele>1664</ele>
        <time>2018-04-22T09:28:02.000Z</time>
      </trkpt>
      <trkpt lat="44.0708" lon="7.3992">
        <ele>1664</ele>
        <time>2018-04-22T09:28:04.000Z</time>
      </trkpt>
      <trkpt lat="44.07081" lon="7.3992">
        <ele>1665</ele>
        <time>2018-04-22T09:28:12.000Z</time>
      </trkpt>
      <trkpt lat="44.0708" lon="7.39919">
        <ele>1665</ele>
        <time>2018-04-22T09:28:26.000Z</time>
      </trkpt>
      <trkpt lat="44.07079" lon="7.3992">
        <ele>1664</ele>
        <time>2018-04-22T09:28:29.000Z</time>
      </trkpt>
      <trkpt lat="44.07079" lon="7.39921">
        <ele>1664</ele>
        <time>2018-04-22T09:28:33.000Z</time>
      </trkpt>
      <trkpt lat="44.0708" lon="7.3992">
        <ele>1664</ele>
        <time>2018-04-22T09:28:36.000Z</time>
      </trkpt>
      <trkpt lat="44.0708" lon="7.3992">
        <ele>1664</ele>
        <time>2018-04-22T09:28:38.000Z</time>
      </trkpt>
      <trkpt lat="44.07081" lon="7.39922">
        <ele>1664</ele>
        <time>2018-04-22T09:28:47.000Z</time>
      </trkpt>
      <trkpt lat="44.07082" lon="7.39923">
        <ele>1664</ele>
        <time>2018-04-22T09:28:54.000Z</time>
      </trkpt>
      <trkpt lat="44.07082" lon="7.39923">
        <ele>1664</ele>
        <time>2018-04-22T09:28:59.000Z</time>
      </trkpt>
      <trkpt lat="44.07083" lon="7.39925">
        <ele>1663</ele>
        <time>2018-04-22T09:29:10.000Z</time>
      </trkpt>
      <trkpt lat="44.07084" lon="7.39927">
        <ele>1667</ele>
        <time>2018-04-22T09:29:19.000Z</time>
      </trkpt>
      <trkpt lat="44.07089" lon="7.39927">
        <ele>1667</ele>
        <time>2018-04-22T09:29:29.000Z</time>
      </trkpt>
      <trkpt lat="44.07091" lon="7.39927">
        <ele>1667</ele>
        <time>2018-04-22T09:29:38.000Z</time>
      </trkpt>
      <trkpt lat="44.07089" lon="7.39928">
        <ele>1667</ele>
        <time>2018-04-22T09:29:49.000Z</time>
      </trkpt>
      <trkpt lat="44.07088" lon="7.39928">
        <ele>1667</ele>
        <time>2018-04-22T09:29:59.000Z</time>
      </trkpt>
      <trkpt lat="44.07087" lon="7.39927">
        <ele>1667</ele>
        <time>2018-04-22T09:30:10.000Z</time>
      </trkpt>
      <trkpt lat="44.07087" lon="7.39928">
        <ele>1667</ele>
        <time>2018-04-22T09:30:17.000Z</time>
      </trkpt>
      <trkpt lat="44.07087" lon="7.39927">
        <ele>1667</ele>
        <time>2018-04-22T09:30:24.000Z</time>
      </trkpt>
      <trkpt lat="44.07087" lon="7.39927">
        <ele>1667</ele>
        <time>2018-04-22T09:30:35.000Z</time>
      </trkpt>
      <trkpt lat="44.07087" lon="7.39927">
        <ele>1667</ele>
        <time>2018-04-22T09:30:38.000Z</time>
      </trkpt>
      <trkpt lat="44.07086" lon="7.39927">
        <ele>1667</ele>
        <time>2018-04-22T09:30:43.000Z</time>
      </trkpt>
      <trkpt lat="44.07086" lon="7.39927">
        <ele>1667</ele>
        <time>2018-04-22T09:30:54.000Z</time>
      </trkpt>
      <trkpt lat="44.07086" lon="7.39926">
        <ele>1667</ele>
        <time>2018-04-22T09:31:00.000Z</time>
      </trkpt>
      <trkpt lat="44.07085" lon="7.39926">
        <ele>1667</ele>
        <time>2018-04-22T09:31:05.000Z</time>
      </trkpt>
      <trkpt lat="44.07084" lon="7.39926">
        <ele>1667</ele>
        <time>2018-04-22T09:31:10.000Z</time>
      </trkpt>
      <trkpt lat="44.07084" lon="7.39924">
        <ele>1666</ele>
        <time>2018-04-22T09:31:18.000Z</time>
      </trkpt>
      <trkpt lat="44.07083" lon="7.3992">
        <ele>1665</ele>
        <time>2018-04-22T09:31:22.000Z</time>
      </trkpt>
      <trkpt lat="44.07082" lon="7.39917">
        <ele>1665</ele>
        <time>2018-04-22T09:31:24.000Z</time>
      </trkpt>
      <trkpt lat="44.0708" lon="7.39914">
        <ele>1666</ele>
        <time>2018-04-22T09:31:26.000Z</time>
      </trkpt>
      <trkpt lat="44.07076" lon="7.39907">
        <ele>1666</ele>
        <time>2018-04-22T09:31:31.000Z</time>
      </trkpt>
      <trkpt lat="44.07075" lon="7.39906">
        <ele>1666</ele>
        <time>2018-04-22T09:31:32.000Z</time>
      </trkpt>
      <trkpt lat="44.07071" lon="7.39899">
        <ele>1666</ele>
        <time>2018-04-22T09:31:38.000Z</time>
      </trkpt>
      <trkpt lat="44.07062" lon="7.3989">
        <ele>1666</ele>
        <time>2018-04-22T09:31:46.000Z</time>
      </trkpt>
      <trkpt lat="44.07059" lon="7.39886">
        <ele>1666</ele>
        <time>2018-04-22T09:31:49.000Z</time>
      </trkpt>
      <trkpt lat="44.07053" lon="7.3988">
        <ele>1666</ele>
        <time>2018-04-22T09:31:55.000Z</time>
      </trkpt>
      <trkpt lat="44.07049" lon="7.39877">
        <ele>1665</ele>
        <time>2018-04-22T09:31:59.000Z</time>
      </trkpt>
      <trkpt lat="44.07045" lon="7.39873">
        <ele>1665</ele>
        <time>2018-04-22T09:32:03.000Z</time>
      </trkpt>
      <trkpt lat="44.07039" lon="7.3987">
        <ele>1665</ele>
        <time>2018-04-22T09:32:08.000Z</time>
      </trkpt>
      <trkpt lat="44.07038" lon="7.39869">
        <ele>1665</ele>
        <time>2018-04-22T09:32:09.000Z</time>
      </trkpt>
      <trkpt lat="44.07033" lon="7.39865">
        <ele>1664</ele>
        <time>2018-04-22T09:32:14.000Z</time>
      </trkpt>
      <trkpt lat="44.07029" lon="7.39863">
        <ele>1664</ele>
        <time>2018-04-22T09:32:17.000Z</time>
      </trkpt>
      <trkpt lat="44.07022" lon="7.39861">
        <ele>1663</ele>
        <time>2018-04-22T09:32:23.000Z</time>
      </trkpt>
      <trkpt lat="44.07019" lon="7.39861">
        <ele>1663</ele>
        <time>2018-04-22T09:32:25.000Z</time>
      </trkpt>
      <trkpt lat="44.07014" lon="7.39858">
        <ele>1662</ele>
        <time>2018-04-22T09:32:30.000Z</time>
      </trkpt>
      <trkpt lat="44.07012" lon="7.39857">
        <ele>1662</ele>
        <time>2018-04-22T09:32:32.000Z</time>
      </trkpt>
      <trkpt lat="44.07005" lon="7.39848">
        <ele>1660</ele>
        <time>2018-04-22T09:32:40.000Z</time>
      </trkpt>
      <trkpt lat="44.07004" lon="7.39843">
        <ele>1659</ele>
        <time>2018-04-22T09:32:43.000Z</time>
      </trkpt>
      <trkpt lat="44.07003" lon="7.39833">
        <ele>1658</ele>
        <time>2018-04-22T09:32:49.000Z</time>
      </trkpt>
      <trkpt lat="44.07003" lon="7.39826">
        <ele>1661</ele>
        <time>2018-04-22T09:32:53.000Z</time>
      </trkpt>
      <trkpt lat="44.07004" lon="7.39819">
        <ele>1663</ele>
        <time>2018-04-22T09:32:57.000Z</time>
      </trkpt>
      <trkpt lat="44.07006" lon="7.39809">
        <ele>1666</ele>
        <time>2018-04-22T09:33:03.000Z</time>
      </trkpt>
      <trkpt lat="44.07007" lon="7.39806">
        <ele>1667</ele>
        <time>2018-04-22T09:33:05.000Z</time>
      </trkpt>
      <trkpt lat="44.07008" lon="7.398">
        <ele>1668</ele>
        <time>2018-04-22T09:33:09.000Z</time>
      </trkpt>
      <trkpt lat="44.07007" lon="7.39791">
        <ele>1668</ele>
        <time>2018-04-22T09:33:14.000Z</time>
      </trkpt>
      <trkpt lat="44.07005" lon="7.39787">
        <ele>1668</ele>
        <time>2018-04-22T09:33:17.000Z</time>
      </trkpt>
      <trkpt lat="44.07001" lon="7.3978">
        <ele>1668</ele>
        <time>2018-04-22T09:33:22.000Z</time>
      </trkpt>
      <trkpt lat="44.06997" lon="7.39774">
        <ele>1650</ele>
        <time>2018-04-22T09:33:27.000Z</time>
      </trkpt>
      <trkpt lat="44.06996" lon="7.39772">
        <ele>1651</ele>
        <time>2018-04-22T09:33:29.000Z</time>
      </trkpt>
      <trkpt lat="44.06991" lon="7.39764">
        <ele>1652</ele>
        <time>2018-04-22T09:33:36.000Z</time>
      </trkpt>
      <trkpt lat="44.06985" lon="7.39759">
        <ele>1651</ele>
        <time>2018-04-22T09:33:41.000Z</time>
      </trkpt>
      <trkpt lat="44.06983" lon="7.39755">
        <ele>1651</ele>
        <time>2018-04-22T09:33:44.000Z</time>
      </trkpt>
      <trkpt lat="44.06978" lon="7.39749">
        <ele>1653</ele>
        <time>2018-04-22T09:33:49.000Z</time>
      </trkpt>
      <trkpt lat="44.06975" lon="7.39745">
        <ele>1653</ele>
        <time>2018-04-22T09:33:52.000Z</time>
      </trkpt>
      <trkpt lat="44.06969" lon="7.39738">
        <ele>1651</ele>
        <time>2018-04-22T09:33:59.000Z</time>
      </trkpt>
      <trkpt lat="44.06966" lon="7.39735">
        <ele>1650</ele>
        <time>2018-04-22T09:34:01.000Z</time>
      </trkpt>
      <trkpt lat="44.0696" lon="7.39726">
        <ele>1649</ele>
        <time>2018-04-22T09:34:08.000Z</time>
      </trkpt>
      <trkpt lat="44.06957" lon="7.39721">
        <ele>1649</ele>
        <time>2018-04-22T09:34:12.000Z</time>
      </trkpt>
      <trkpt lat="44.06952" lon="7.39713">
        <ele>1648</ele>
        <time>2018-04-22T09:34:18.000Z</time>
      </trkpt>
      <trkpt lat="44.06948" lon="7.39706">
        <ele>1648</ele>
        <time>2018-04-22T09:34:23.000Z</time>
      </trkpt>
      <trkpt lat="44.06944" lon="7.39699">
        <ele>1647</ele>
        <time>2018-04-22T09:34:28.000Z</time>
      </trkpt>
      <trkpt lat="44.06941" lon="7.39695">
        <ele>1647</ele>
        <time>2018-04-22T09:34:31.000Z</time>
      </trkpt>
      <trkpt lat="44.06936" lon="7.39685">
        <ele>1645</ele>
        <time>2018-04-22T09:34:38.000Z</time>
      </trkpt>
      <trkpt lat="44.06935" lon="7.39682">
        <ele>1645</ele>
        <time>2018-04-22T09:34:40.000Z</time>
      </trkpt>
      <trkpt lat="44.06932" lon="7.39674">
        <ele>1643</ele>
        <time>2018-04-22T09:34:45.000Z</time>
      </trkpt>
      <trkpt lat="44.0693" lon="7.39668">
        <ele>1642</ele>
        <time>2018-04-22T09:34:49.000Z</time>
      </trkpt>
      <trkpt lat="44.06926" lon="7.39658">
        <ele>1649</ele>
        <time>2018-04-22T09:34:55.000Z</time>
      </trkpt>
      <trkpt lat="44.06923" lon="7.39652">
        <ele>1650</ele>
        <time>2018-04-22T09:34:59.000Z</time>
      </trkpt>
      <trkpt lat="44.0692" lon="7.39646">
        <ele>1653</ele>
        <time>2018-04-22T09:35:03.000Z</time>
      </trkpt>
      <trkpt lat="44.06917" lon="7.39643">
        <ele>1654</ele>
        <time>2018-04-22T09:35:06.000Z</time>
      </trkpt>
      <trkpt lat="44.0691" lon="7.39636">
        <ele>1634</ele>
        <time>2018-04-22T09:35:13.000Z</time>
      </trkpt>
      <trkpt lat="44.06904" lon="7.39629">
        <ele>1635</ele>
        <time>2018-04-22T09:35:19.000Z</time>
      </trkpt>
      <trkpt lat="44.06901" lon="7.39625">
        <ele>1635</ele>
        <time>2018-04-22T09:35:22.000Z</time>
      </trkpt>
      <trkpt lat="44.06895" lon="7.39617">
        <ele>1635</ele>
        <time>2018-04-22T09:35:29.000Z</time>
      </trkpt>
      <trkpt lat="44.06891" lon="7.39611">
        <ele>1635</ele>
        <time>2018-04-22T09:35:33.000Z</time>
      </trkpt>
      <trkpt lat="44.06883" lon="7.39601">
        <ele>1635</ele>
        <time>2018-04-22T09:35:42.000Z</time>
      </trkpt>
      <trkpt lat="44.06882" lon="7.396">
        <ele>1635</ele>
        <time>2018-04-22T09:35:43.000Z</time>
      </trkpt>
      <trkpt lat="44.06873" lon="7.3959">
        <ele>1633</ele>
        <time>2018-04-22T09:35:52.000Z</time>
      </trkpt>
      <trkpt lat="44.06864" lon="7.39579">
        <ele>1641</ele>
        <time>2018-04-22T09:36:02.000Z</time>
      </trkpt>
      <trkpt lat="44.06856" lon="7.3957">
        <ele>1639</ele>
        <time>2018-04-22T09:36:11.000Z</time>
      </trkpt>
      <trkpt lat="44.06853" lon="7.39566">
        <ele>1639</ele>
        <time>2018-04-22T09:36:14.000Z</time>
      </trkpt>
      <trkpt lat="44.06845" lon="7.39556">
        <ele>1639</ele>
        <time>2018-04-22T09:36:22.000Z</time>
      </trkpt>
      <trkpt lat="44.06842" lon="7.39552">
        <ele>1640</ele>
        <time>2018-04-22T09:36:26.000Z</time>
      </trkpt>
      <trkpt lat="44.06838" lon="7.39546">
        <ele>1641</ele>
        <time>2018-04-22T09:36:31.000Z</time>
      </trkpt>
      <trkpt lat="44.06834" lon="7.39539">
        <ele>1641</ele>
        <time>2018-04-22T09:36:36.000Z</time>
      </trkpt>
      <trkpt lat="44.06831" lon="7.39534">
        <ele>1624</ele>
        <time>2018-04-22T09:36:40.000Z</time>
      </trkpt>
      <trkpt lat="44.06826" lon="7.39525">
        <ele>1625</ele>
        <time>2018-04-22T09:36:47.000Z</time>
      </trkpt>
      <trkpt lat="44.06825" lon="7.39522">
        <ele>1626</ele>
        <time>2018-04-22T09:36:49.000Z</time>
      </trkpt>
      <trkpt lat="44.0682" lon="7.39511">
        <ele>1628</ele>
        <time>2018-04-22T09:36:57.000Z</time>
      </trkpt>
      <trkpt lat="44.06818" lon="7.39509">
        <ele>1628</ele>
        <time>2018-04-22T09:36:59.000Z</time>
      </trkpt>
      <trkpt lat="44.06815" lon="7.39504">
        <ele>1627</ele>
        <time>2018-04-22T09:37:07.000Z</time>
      </trkpt>
      <trkpt lat="44.06812" lon="7.39504">
        <ele>1626</ele>
        <time>2018-04-22T09:37:12.000Z</time>
      </trkpt>
      <trkpt lat="44.06811" lon="7.39503">
        <ele>1626</ele>
        <time>2018-04-22T09:37:13.000Z</time>
      </trkpt>
      <trkpt lat="44.0681" lon="7.39502">
        <ele>1626</ele>
        <time>2018-04-22T09:37:14.000Z</time>
      </trkpt>
      <trkpt lat="44.06809" lon="7.39501">
        <ele>1625</ele>
        <time>2018-04-22T09:37:18.000Z</time>
      </trkpt>
      <trkpt lat="44.06807" lon="7.395">
        <ele>1625</ele>
        <time>2018-04-22T09:37:20.000Z</time>
      </trkpt>
      <trkpt lat="44.06806" lon="7.39498">
        <ele>1633</ele>
        <time>2018-04-22T09:37:24.000Z</time>
      </trkpt>
      <trkpt lat="44.06804" lon="7.39497">
        <ele>1633</ele>
        <time>2018-04-22T09:37:28.000Z</time>
      </trkpt>
      <trkpt lat="44.06803" lon="7.39498">
        <ele>1633</ele>
        <time>2018-04-22T09:37:30.000Z</time>
      </trkpt>
      <trkpt lat="44.06802" lon="7.39499">
        <ele>1633</ele>
        <time>2018-04-22T09:37:31.000Z</time>
      </trkpt>
      <trkpt lat="44.068" lon="7.39501">
        <ele>1623</ele>
        <time>2018-04-22T09:37:33.000Z</time>
      </trkpt>
      <trkpt lat="44.06799" lon="7.395">
        <ele>1632</ele>
        <time>2018-04-22T09:37:35.000Z</time>
      </trkpt>
      <trkpt lat="44.06798" lon="7.39501">
        <ele>1622</ele>
        <time>2018-04-22T09:37:36.000Z</time>
      </trkpt>
      <trkpt lat="44.06795" lon="7.395">
        <ele>1622</ele>
        <time>2018-04-22T09:37:39.000Z</time>
      </trkpt>
      <trkpt lat="44.06794" lon="7.395">
        <ele>1622</ele>
        <time>2018-04-22T09:37:41.000Z</time>
      </trkpt>
      <trkpt lat="44.06794" lon="7.39501">
        <ele>1621</ele>
        <time>2018-04-22T09:37:42.000Z</time>
      </trkpt>
      <trkpt lat="44.06791" lon="7.39502">
        <ele>1621</ele>
        <time>2018-04-22T09:37:45.000Z</time>
      </trkpt>
      <trkpt lat="44.0679" lon="7.39502">
        <ele>1621</ele>
        <time>2018-04-22T09:37:46.000Z</time>
      </trkpt>
      <trkpt lat="44.06789" lon="7.39501">
        <ele>1620</ele>
        <time>2018-04-22T09:37:47.000Z</time>
      </trkpt>
      <trkpt lat="44.06787" lon="7.39499">
        <ele>1630</ele>
        <time>2018-04-22T09:37:50.000Z</time>
      </trkpt>
      <trkpt lat="44.06785" lon="7.39495">
        <ele>1629</ele>
        <time>2018-04-22T09:37:54.000Z</time>
      </trkpt>
      <trkpt lat="44.06782" lon="7.39493">
        <ele>1629</ele>
        <time>2018-04-22T09:37:57.000Z</time>
      </trkpt>
      <trkpt lat="44.06777" lon="7.39491">
        <ele>1627</ele>
        <time>2018-04-22T09:38:01.000Z</time>
      </trkpt>
      <trkpt lat="44.06776" lon="7.3949">
        <ele>1627</ele>
        <time>2018-04-22T09:38:02.000Z</time>
      </trkpt>
      <trkpt lat="44.06772" lon="7.39484">
        <ele>1627</ele>
        <time>2018-04-22T09:38:07.000Z</time>
      </trkpt>
      <trkpt lat="44.06766" lon="7.39477">
        <ele>1627</ele>
        <time>2018-04-22T09:38:14.000Z</time>
      </trkpt>
      <trkpt lat="44.06762" lon="7.39475">
        <ele>1627</ele>
        <time>2018-04-22T09:38:21.000Z</time>
      </trkpt>
      <trkpt lat="44.06755" lon="7.39474">
        <ele>1626</ele>
        <time>2018-04-22T09:38:28.000Z</time>
      </trkpt>
      <trkpt lat="44.0675" lon="7.39474">
        <ele>1616</ele>
        <time>2018-04-22T09:38:34.000Z</time>
      </trkpt>
      <trkpt lat="44.06746" lon="7.39476">
        <ele>1616</ele>
        <time>2018-04-22T09:38:38.000Z</time>
      </trkpt>
      <trkpt lat="44.06744" lon="7.39477">
        <ele>1616</ele>
        <time>2018-04-22T09:38:40.000Z</time>
      </trkpt>
      <trkpt lat="44.06742" lon="7.39478">
        <ele>1616</ele>
        <time>2018-04-22T09:38:42.000Z</time>
      </trkpt>
      <trkpt lat="44.06738" lon="7.39477">
        <ele>1616</ele>
        <time>2018-04-22T09:38:47.000Z</time>
      </trkpt>
      <trkpt lat="44.06737" lon="7.39478">
        <ele>1616</ele>
        <time>2018-04-22T09:38:48.000Z</time>
      </trkpt>
      <trkpt lat="44.06736" lon="7.39478">
        <ele>1616</ele>
        <time>2018-04-22T09:38:54.000Z</time>
      </trkpt>
      <trkpt lat="44.06736" lon="7.3948">
        <ele>1616</ele>
        <time>2018-04-22T09:39:07.000Z</time>
      </trkpt>
      <trkpt lat="44.06735" lon="7.39481">
        <ele>1616</ele>
        <time>2018-04-22T09:39:12.000Z</time>
      </trkpt>
      <trkpt lat="44.06735" lon="7.3948">
        <ele>1616</ele>
        <time>2018-04-22T09:39:23.000Z</time>
      </trkpt>
      <trkpt lat="44.06734" lon="7.3948">
        <ele>1616</ele>
        <time>2018-04-22T09:39:32.000Z</time>
      </trkpt>
      <trkpt lat="44.06733" lon="7.3948">
        <ele>1616</ele>
        <time>2018-04-22T09:39:38.000Z</time>
      </trkpt>
      <trkpt lat="44.06733" lon="7.3948">
        <ele>1616</ele>
        <time>2018-04-22T09:39:45.000Z</time>
      </trkpt>
    </trkseg>
  </trk>
</gpx>